<?xml version='1.0' encoding='UTF-8'?><gpx version="1.1" creator="JPX - https://github.com/jenetics/jpx" xmlns="http://www.topografix.com/GPX/1/1"><trk><trkseg><trkpt lat="45.607354665325545" lon="8.289715426272664"><ele>282.0</ele><time>2026-03-31T06:44:12.999Z</time></trkpt><trkpt lat="45.60736352836162" lon="8.289613422956215"><ele>282.0</ele><time>2026-03-31T06:44:14.999Z</time></trkpt><trkpt lat="45.6073956440635" lon="8.28952782626196"><ele>282.0</ele><time>2026-03-31T06:44:17.999Z</time></trkpt><trkpt lat="45.607417102570686" lon="8.289435035751993"><ele>282.0</ele><time>2026-03-31T06:44:22.999Z</time></trkpt><trkpt lat="45.607416029578374" lon="8.289305902137633"><ele>282.0</ele><time>2026-03-31T06:44:26.999Z</time></trkpt><trkpt lat="45.60741689456729" lon="8.289184776630222"><ele>282.0</ele><time>2026-03-31T06:44:27.999Z</time></trkpt><trkpt lat="45.60741749865864" lon="8.289060061172584"><ele>282.0</ele><time>2026-03-31T06:44:30.999Z</time></trkpt><trkpt lat="45.60739331045917" lon="8.28896113925724"><ele>282.0</ele><time>2026-03-31T06:44:32.999Z</time></trkpt><trkpt lat="45.60738582436303" lon="8.289067552713302"><ele>282.0</ele><time>2026-03-31T06:44:35.999Z</time></trkpt><trkpt lat="45.607416509150234" lon="8.289203306932087"><ele>282.0</ele><time>2026-03-31T06:44:37.999Z</time></trkpt><trkpt lat="45.60743784181872" lon="8.289314780528615"><ele>282.0</ele><time>2026-03-31T06:44:39.999Z</time></trkpt><trkpt lat="45.607456260596955" lon="8.28945787086498"><ele>282.0</ele><time>2026-03-31T06:44:42Z</time></trkpt><trkpt lat="45.60745255252862" lon="8.289335578318587"><ele>282.0</ele><time>2026-03-31T06:44:48Z</time></trkpt><trkpt lat="45.60744164367784" lon="8.289138684590025"><ele>282.0</ele><time>2026-03-31T06:44:50Z</time></trkpt><trkpt lat="45.60743998730209" lon="8.289024481306297"><ele>282.0</ele><time>2026-03-31T06:44:51Z</time></trkpt><trkpt lat="45.607376638990615" lon="8.288941103823145"><ele>282.0</ele><time>2026-03-31T06:44:54Z</time></trkpt><trkpt lat="45.60730023995872" lon="8.28894337228316"><ele>282.0</ele><time>2026-03-31T06:44:56Z</time></trkpt><trkpt lat="45.607227004128845" lon="8.28894396110495"><ele>283.2</ele><time>2026-03-31T06:44:57Z</time></trkpt><trkpt lat="45.60712620544116" lon="8.288921295522824"><ele>284.4</ele><time>2026-03-31T06:44:58Z</time></trkpt><trkpt lat="45.60705009620738" lon="8.288879043358083"><ele>285.6</ele><time>2026-03-31T06:44:59Z</time></trkpt><trkpt lat="45.60697878238561" lon="8.28888432757912"><ele>286.8</ele><time>2026-03-31T06:45:00Z</time></trkpt><trkpt lat="45.60687344259951" lon="8.288892310966055"><ele>288.0</ele><time>2026-03-31T06:45:02Z</time></trkpt><trkpt lat="45.60676927574016" lon="8.28890051763984"><ele>288.0</ele><time>2026-03-31T06:45:04Z</time></trkpt><trkpt lat="45.606635543317445" lon="8.28891105360799"><ele>288.0</ele><time>2026-03-31T06:45:06Z</time></trkpt><trkpt lat="45.606561275072835" lon="8.288916904757999"><ele>288.0</ele><time>2026-03-31T06:45:07Z</time></trkpt><trkpt lat="45.60649242826041" lon="8.288925874759109"><ele>288.0</ele><time>2026-03-31T06:45:08Z</time></trkpt><trkpt lat="45.60636098785604" lon="8.288949773416475"><ele>288.0</ele><time>2026-03-31T06:45:10Z</time></trkpt><trkpt lat="45.60629012855718" lon="8.288975037083572"><ele>287.1666666666667</ele><time>2026-03-31T06:45:11Z</time></trkpt><trkpt lat="45.60622798617007" lon="8.288998843528775"><ele>286.3333333333333</ele><time>2026-03-31T06:45:12Z</time></trkpt><trkpt lat="45.60616206766541" lon="8.289023719850398"><ele>285.5</ele><time>2026-03-31T06:45:12.999Z</time></trkpt><trkpt lat="45.606040486004495" lon="8.289069602330262"><ele>284.66666666666663</ele><time>2026-03-31T06:45:14.999Z</time></trkpt><trkpt lat="45.60594409012733" lon="8.289121852721085"><ele>283.8333333333333</ele><time>2026-03-31T06:45:16.999Z</time></trkpt><trkpt lat="45.605918510330326" lon="8.28901621149728"><ele>283.0</ele><time>2026-03-31T06:45:18.999Z</time></trkpt><trkpt lat="45.605955039736344" lon="8.288942072161255"><ele>284.0</ele><time>2026-03-31T06:45:19.999Z</time></trkpt><trkpt lat="45.606020027814345" lon="8.288856759504403"><ele>285.0</ele><time>2026-03-31T06:45:20.999Z</time></trkpt><trkpt lat="45.60611277442895" lon="8.288761797873317"><ele>286.0</ele><time>2026-03-31T06:45:21.999Z</time></trkpt><trkpt lat="45.60620368424032" lon="8.288684366966764"><ele>287.0</ele><time>2026-03-31T06:45:22.999Z</time></trkpt><trkpt lat="45.60630570244024" lon="8.288600553228372"><ele>288.0</ele><time>2026-03-31T06:45:23.999Z</time></trkpt><trkpt lat="45.60641276837869" lon="8.288499507052531"><ele>288.0</ele><time>2026-03-31T06:45:24.999Z</time></trkpt><trkpt lat="45.60650326781834" lon="8.288381937547705"><ele>288.0</ele><time>2026-03-31T06:45:25.999Z</time></trkpt><trkpt lat="45.606562846614416" lon="8.28825173636821"><ele>288.0</ele><time>2026-03-31T06:45:26.999Z</time></trkpt><trkpt lat="45.606615142834904" lon="8.28810173308249"><ele>288.0</ele><time>2026-03-31T06:45:27.999Z</time></trkpt><trkpt lat="45.60666532397816" lon="8.287924129867136"><ele>292.25</ele><time>2026-03-31T06:45:28.999Z</time></trkpt><trkpt lat="45.606714052888286" lon="8.287738163932339"><ele>296.5</ele><time>2026-03-31T06:45:29.999Z</time></trkpt><trkpt lat="45.60675596223682" lon="8.28757539163384"><ele>300.75</ele><time>2026-03-31T06:45:30.999Z</time></trkpt><trkpt lat="45.606801316126955" lon="8.28741524463605"><ele>305.0</ele><time>2026-03-31T06:45:31.999Z</time></trkpt><trkpt lat="45.60684419142344" lon="8.287295357503682"><ele>305.4</ele><time>2026-03-31T06:45:32.999Z</time></trkpt><trkpt lat="45.60688127211415" lon="8.287196069498235"><ele>305.8</ele><time>2026-03-31T06:45:33.999Z</time></trkpt><trkpt lat="45.60694208204857" lon="8.287081359189814"><ele>306.2</ele><time>2026-03-31T06:45:34.999Z</time></trkpt><trkpt lat="45.607017247733985" lon="8.286965283575482"><ele>306.6</ele><time>2026-03-31T06:45:35.999Z</time></trkpt><trkpt lat="45.60710185130066" lon="8.286845344151889"><ele>307.0</ele><time>2026-03-31T06:45:36.999Z</time></trkpt><trkpt lat="45.60717313164532" lon="8.286760125901916"><ele>307.8333333333333</ele><time>2026-03-31T06:45:37.999Z</time></trkpt><trkpt lat="45.607236810429576" lon="8.286705029112415"><ele>308.66666666666663</ele><time>2026-03-31T06:45:38.999Z</time></trkpt><trkpt lat="45.60730356428209" lon="8.286719965885391"><ele>309.5</ele><time>2026-03-31T06:45:39.999Z</time></trkpt><trkpt lat="45.607433198027266" lon="8.286691120191847"><ele>310.3333333333333</ele><time>2026-03-31T06:45:41.999Z</time></trkpt><trkpt lat="45.6075108038586" lon="8.286684225814012"><ele>311.1666666666667</ele><time>2026-03-31T06:45:42.999Z</time></trkpt><trkpt lat="45.607582062296814" lon="8.286657577965498"><ele>312.0</ele><time>2026-03-31T06:45:43.999Z</time></trkpt><trkpt lat="45.607657190913386" lon="8.286618947614901"><ele>312.0</ele><time>2026-03-31T06:45:44.999Z</time></trkpt><trkpt lat="45.60772178563051" lon="8.28660963032962"><ele>312.0</ele><time>2026-03-31T06:45:45.999Z</time></trkpt><trkpt lat="45.60777722695867" lon="8.286555090153096"><ele>312.0</ele><time>2026-03-31T06:45:46.999Z</time></trkpt><trkpt lat="45.60783985789199" lon="8.286527895956688"><ele>312.0</ele><time>2026-03-31T06:45:47.999Z</time></trkpt><trkpt lat="45.60790945876312" lon="8.286434431571607"><ele>312.0</ele><time>2026-03-31T06:45:48.999Z</time></trkpt><trkpt lat="45.60797133672993" lon="8.286334784882293"><ele>312.0</ele><time>2026-03-31T06:45:49.999Z</time></trkpt><trkpt lat="45.60803176257046" lon="8.286234128835302"><ele>312.0</ele><time>2026-03-31T06:45:50.999Z</time></trkpt><trkpt lat="45.60809044982214" lon="8.286136368898335"><ele>312.0</ele><time>2026-03-31T06:45:51.999Z</time></trkpt><trkpt lat="45.60815056060168" lon="8.286036237653976"><ele>312.0</ele><time>2026-03-31T06:45:52.999Z</time></trkpt><trkpt lat="45.608201218721256" lon="8.285946790974455"><ele>312.0</ele><time>2026-03-31T06:45:53.999Z</time></trkpt><trkpt lat="45.6082645639825" lon="8.285836104031246"><ele>312.0</ele><time>2026-03-31T06:45:55.999Z</time></trkpt><trkpt lat="45.6081613584592" lon="8.285622414153796"><ele>311.75</ele><time>2026-03-31T06:45:56.999Z</time></trkpt><trkpt lat="45.60810058384188" lon="8.285487103440147"><ele>311.5</ele><time>2026-03-31T06:45:57.999Z</time></trkpt><trkpt lat="45.608035163832135" lon="8.285339777536151"><ele>311.25</ele><time>2026-03-31T06:45:58.999Z</time></trkpt><trkpt lat="45.60797493749419" lon="8.285201440659696"><ele>311.0</ele><time>2026-03-31T06:45:59.999Z</time></trkpt><trkpt lat="45.60791772591381" lon="8.285070028532147"><ele>311.0</ele><time>2026-03-31T06:46:00.999Z</time></trkpt><trkpt lat="45.607861042312074" lon="8.284939829141997"><ele>311.0</ele><time>2026-03-31T06:46:01.999Z</time></trkpt><trkpt lat="45.60780596167935" lon="8.28481331169149"><ele>311.0</ele><time>2026-03-31T06:46:02.999Z</time></trkpt><trkpt lat="45.607748505739565" lon="8.284686753451208"><ele>311.0</ele><time>2026-03-31T06:46:03.999Z</time></trkpt><trkpt lat="45.607681735648626" lon="8.28455781218786"><ele>311.0</ele><time>2026-03-31T06:46:04.999Z</time></trkpt><trkpt lat="45.60760390431694" lon="8.284436149832146"><ele>308.25</ele><time>2026-03-31T06:46:05.999Z</time></trkpt><trkpt lat="45.607504702662766" lon="8.284327724404609"><ele>305.5</ele><time>2026-03-31T06:46:06.999Z</time></trkpt><trkpt lat="45.607384801935154" lon="8.28421524805317"><ele>302.75</ele><time>2026-03-31T06:46:07.999Z</time></trkpt><trkpt lat="45.6072315901309" lon="8.284102202874722"><ele>300.0</ele><time>2026-03-31T06:46:08.999Z</time></trkpt><trkpt lat="45.607103607218164" lon="8.283995663113643"><ele>299.5</ele><time>2026-03-31T06:46:09.999Z</time></trkpt><trkpt lat="45.607000261031516" lon="8.283880664422675"><ele>299.0</ele><time>2026-03-31T06:46:10.999Z</time></trkpt><trkpt lat="45.60689763858333" lon="8.283793048187208"><ele>298.5</ele><time>2026-03-31T06:46:11.999Z</time></trkpt><trkpt lat="45.60679954559524" lon="8.283709299071694"><ele>298.0</ele><time>2026-03-31T06:46:12.999Z</time></trkpt><trkpt lat="45.606699220995495" lon="8.283623992842646"><ele>298.0</ele><time>2026-03-31T06:46:13.999Z</time></trkpt><trkpt lat="45.60659042598483" lon="8.283531789000321"><ele>298.0</ele><time>2026-03-31T06:46:14.999Z</time></trkpt><trkpt lat="45.60647698699429" lon="8.283435649383655"><ele>298.0</ele><time>2026-03-31T06:46:15.999Z</time></trkpt><trkpt lat="45.60637556599195" lon="8.283349695020476"><ele>298.0</ele><time>2026-03-31T06:46:16.999Z</time></trkpt><trkpt lat="45.60628052499909" lon="8.283269723118966"><ele>298.0</ele><time>2026-03-31T06:46:17.999Z</time></trkpt><trkpt lat="45.60618128325035" lon="8.283186328960916"><ele>298.0</ele><time>2026-03-31T06:46:18.999Z</time></trkpt><trkpt lat="45.606074728601385" lon="8.283117293055971"><ele>298.0</ele><time>2026-03-31T06:46:19.999Z</time></trkpt><trkpt lat="45.605988322559796" lon="8.283033983268629"><ele>298.0</ele><time>2026-03-31T06:46:20.999Z</time></trkpt><trkpt lat="45.60591152338482" lon="8.282945611551918"><ele>298.0</ele><time>2026-03-31T06:46:21.999Z</time></trkpt><trkpt lat="45.60587096645096" lon="8.28281630378471"><ele>297.75</ele><time>2026-03-31T06:46:22.999Z</time></trkpt><trkpt lat="45.60585698875315" lon="8.28266526821788"><ele>297.5</ele><time>2026-03-31T06:46:23.999Z</time></trkpt><trkpt lat="45.60585362222344" lon="8.282488609762922"><ele>297.25</ele><time>2026-03-31T06:46:24.999Z</time></trkpt><trkpt lat="45.60583969354924" lon="8.28230917636851"><ele>297.0</ele><time>2026-03-31T06:46:25.999Z</time></trkpt><trkpt lat="45.60585456663443" lon="8.282131702894572"><ele>297.0</ele><time>2026-03-31T06:46:26.999Z</time></trkpt><trkpt lat="45.6058525158249" lon="8.281973092452636"><ele>297.0</ele><time>2026-03-31T06:46:27.999Z</time></trkpt><trkpt lat="45.60585058987411" lon="8.28182413858984"><ele>297.0</ele><time>2026-03-31T06:46:28.999Z</time></trkpt><trkpt lat="45.60584754197183" lon="8.28165905348278"><ele>297.0</ele><time>2026-03-31T06:46:29.999Z</time></trkpt><trkpt lat="45.605843227135686" lon="8.281467048020156"><ele>298.5</ele><time>2026-03-31T06:46:30.999Z</time></trkpt><trkpt lat="45.6058220042047" lon="8.281270759273337"><ele>300.0</ele><time>2026-03-31T06:46:31.999Z</time></trkpt><trkpt lat="45.605811957955446" lon="8.281092939993675"><ele>301.5</ele><time>2026-03-31T06:46:32.999Z</time></trkpt><trkpt lat="45.605803492138925" lon="8.280928682428177"><ele>303.0</ele><time>2026-03-31T06:46:33.999Z</time></trkpt><trkpt lat="45.60579675382124" lon="8.280767506819721"><ele>304.0</ele><time>2026-03-31T06:46:34.999Z</time></trkpt><trkpt lat="45.605799172594836" lon="8.280592543304417"><ele>305.0</ele><time>2026-03-31T06:46:35.999Z</time></trkpt><trkpt lat="45.60581704545101" lon="8.280408636146692"><ele>306.0</ele><time>2026-03-31T06:46:36.999Z</time></trkpt><trkpt lat="45.60585258154053" lon="8.280241993995979"><ele>307.0</ele><time>2026-03-31T06:46:37.999Z</time></trkpt><trkpt lat="45.60587932615297" lon="8.280077137974462"><ele>307.0</ele><time>2026-03-31T06:46:38.999Z</time></trkpt><trkpt lat="45.605878982315545" lon="8.279895743489735"><ele>307.0</ele><time>2026-03-31T06:46:39.999Z</time></trkpt><trkpt lat="45.60585209859631" lon="8.279707010201877"><ele>307.0</ele><time>2026-03-31T06:46:40.999Z</time></trkpt><trkpt lat="45.60580514984117" lon="8.279547674434257"><ele>307.0</ele><time>2026-03-31T06:46:41.999Z</time></trkpt><trkpt lat="45.605738482457184" lon="8.279381723942837"><ele>307.25</ele><time>2026-03-31T06:46:42.999Z</time></trkpt><trkpt lat="45.60567117741582" lon="8.279206580583857"><ele>307.5</ele><time>2026-03-31T06:46:43.999Z</time></trkpt><trkpt lat="45.60562581054772" lon="8.27901522941684"><ele>307.75</ele><time>2026-03-31T06:46:44.999Z</time></trkpt><trkpt lat="45.60560280717943" lon="8.278847369150377"><ele>308.0</ele><time>2026-03-31T06:46:45.999Z</time></trkpt><trkpt lat="45.605586745111154" lon="8.278664009745109"><ele>307.0</ele><time>2026-03-31T06:46:47Z</time></trkpt><trkpt lat="45.60556813817068" lon="8.278482700590864"><ele>306.0</ele><time>2026-03-31T06:46:48Z</time></trkpt><trkpt lat="45.60554140739775" lon="8.278292616498565"><ele>305.0</ele><time>2026-03-31T06:46:49Z</time></trkpt><trkpt lat="45.60550569423984" lon="8.278088176909721"><ele>304.0</ele><time>2026-03-31T06:46:50Z</time></trkpt><trkpt lat="45.60545911154994" lon="8.277909765818462"><ele>302.5</ele><time>2026-03-31T06:46:51Z</time></trkpt><trkpt lat="45.60543789722565" lon="8.277730699688167"><ele>301.0</ele><time>2026-03-31T06:46:52Z</time></trkpt><trkpt lat="45.60541243415674" lon="8.27754133159367"><ele>299.5</ele><time>2026-03-31T06:46:53Z</time></trkpt><trkpt lat="45.605378612679736" lon="8.277368092149798"><ele>298.0</ele><time>2026-03-31T06:46:54Z</time></trkpt><trkpt lat="45.60533967241989" lon="8.277196516435307"><ele>297.75</ele><time>2026-03-31T06:46:55Z</time></trkpt><trkpt lat="45.60528909327392" lon="8.277055284202953"><ele>297.5</ele><time>2026-03-31T06:46:56Z</time></trkpt><trkpt lat="45.60523461640063" lon="8.27691858259281"><ele>297.25</ele><time>2026-03-31T06:46:57Z</time></trkpt><trkpt lat="45.60512248070031" lon="8.276856116798005"><ele>297.0</ele><time>2026-03-31T06:46:58Z</time></trkpt><trkpt lat="45.60501683819417" lon="8.276752281219736"><ele>297.0</ele><time>2026-03-31T06:46:59Z</time></trkpt><trkpt lat="45.604888847515134" lon="8.276686219365061"><ele>297.0</ele><time>2026-03-31T06:47:00Z</time></trkpt><trkpt lat="45.604738545456264" lon="8.276611418058286"><ele>297.0</ele><time>2026-03-31T06:47:01Z</time></trkpt><trkpt lat="45.60462655698218" lon="8.276519045470335"><ele>297.0</ele><time>2026-03-31T06:47:02Z</time></trkpt><trkpt lat="45.60455855725967" lon="8.276413230291114"><ele>298.25</ele><time>2026-03-31T06:47:03Z</time></trkpt><trkpt lat="45.60453231958155" lon="8.276292270895405"><ele>299.5</ele><time>2026-03-31T06:47:04Z</time></trkpt><trkpt lat="45.60452522658552" lon="8.276140050185074"><ele>300.75</ele><time>2026-03-31T06:47:05Z</time></trkpt><trkpt lat="45.604570375381265" lon="8.275993824850397"><ele>302.0</ele><time>2026-03-31T06:47:06Z</time></trkpt><trkpt lat="45.60463907657592" lon="8.275776417053612"><ele>302.0</ele><time>2026-03-31T06:47:07Z</time></trkpt><trkpt lat="45.60470784991412" lon="8.275616248868033"><ele>302.0</ele><time>2026-03-31T06:47:08Z</time></trkpt><trkpt lat="45.60478556151636" lon="8.275438410910589"><ele>302.0</ele><time>2026-03-31T06:47:09Z</time></trkpt><trkpt lat="45.60482561809496" lon="8.275246564816985"><ele>302.0</ele><time>2026-03-31T06:47:10Z</time></trkpt><trkpt lat="45.604865192714996" lon="8.275068365465614"><ele>301.5</ele><time>2026-03-31T06:47:11Z</time></trkpt><trkpt lat="45.604919057238575" lon="8.274905233251834"><ele>301.0</ele><time>2026-03-31T06:47:12Z</time></trkpt><trkpt lat="45.604956827002" lon="8.274724568155424"><ele>300.5</ele><time>2026-03-31T06:47:13Z</time></trkpt><trkpt lat="45.60497334758537" lon="8.274554744722696"><ele>300.0</ele><time>2026-03-31T06:47:14Z</time></trkpt><trkpt lat="45.60500602706704" lon="8.274413810232126"><ele>300.0</ele><time>2026-03-31T06:47:15Z</time></trkpt><trkpt lat="45.60501178737386" lon="8.274266246379646"><ele>300.0</ele><time>2026-03-31T06:47:16Z</time></trkpt><trkpt lat="45.60501906381282" lon="8.274133061247932"><ele>300.0</ele><time>2026-03-31T06:47:17Z</time></trkpt><trkpt lat="45.60503060613417" lon="8.273954635623449"><ele>300.0</ele><time>2026-03-31T06:47:18Z</time></trkpt><trkpt lat="45.60504283773432" lon="8.27378862245706"><ele>300.0</ele><time>2026-03-31T06:47:19Z</time></trkpt><trkpt lat="45.60509909144449" lon="8.273632747562175"><ele>298.5</ele><time>2026-03-31T06:47:20Z</time></trkpt><trkpt lat="45.60514984595731" lon="8.273471130113986"><ele>297.0</ele><time>2026-03-31T06:47:21Z</time></trkpt><trkpt lat="45.6052111888534" lon="8.273291694148414"><ele>295.5</ele><time>2026-03-31T06:47:22Z</time></trkpt><trkpt lat="45.60527515281097" lon="8.273120442114154"><ele>294.0</ele><time>2026-03-31T06:47:23Z</time></trkpt><trkpt lat="45.60533625477058" lon="8.272977103968422"><ele>292.5</ele><time>2026-03-31T06:47:24Z</time></trkpt><trkpt lat="45.6053986628951" lon="8.272839987423206"><ele>291.0</ele><time>2026-03-31T06:47:25Z</time></trkpt><trkpt lat="45.6054501386144" lon="8.272703191117955"><ele>289.5</ele><time>2026-03-31T06:47:26Z</time></trkpt><trkpt lat="45.60555017469583" lon="8.272534200942468"><ele>288.0</ele><time>2026-03-31T06:47:27Z</time></trkpt><trkpt lat="45.60558446075695" lon="8.272435022301906"><ele>288.0</ele><time>2026-03-31T06:47:28Z</time></trkpt><trkpt lat="45.60565960516964" lon="8.2722614924135"><ele>288.0</ele><time>2026-03-31T06:47:30Z</time></trkpt><trkpt lat="45.60576468889025" lon="8.272286412275378"><ele>288.0</ele><time>2026-03-31T06:47:30.999Z</time></trkpt><trkpt lat="45.60589043074287" lon="8.272272220894658"><ele>288.0</ele><time>2026-03-31T06:47:31.999Z</time></trkpt><trkpt lat="45.60603869557964" lon="8.272241609216072"><ele>287.0</ele><time>2026-03-31T06:47:32.999Z</time></trkpt><trkpt lat="45.60615305457867" lon="8.27216209618064"><ele>286.0</ele><time>2026-03-31T06:47:33.999Z</time></trkpt><trkpt lat="45.60625495898589" lon="8.27210352979067"><ele>285.0</ele><time>2026-03-31T06:47:34.999Z</time></trkpt><trkpt lat="45.606359187898036" lon="8.27201618890776"><ele>284.0</ele><time>2026-03-31T06:47:35.999Z</time></trkpt><trkpt lat="45.60647278425281" lon="8.27192646966464"><ele>283.75</ele><time>2026-03-31T06:47:36.999Z</time></trkpt><trkpt lat="45.60657006998336" lon="8.271847099569936"><ele>283.5</ele><time>2026-03-31T06:47:37.999Z</time></trkpt><trkpt lat="45.606664255114666" lon="8.271775288941223"><ele>283.25</ele><time>2026-03-31T06:47:38.999Z</time></trkpt><trkpt lat="45.60676469578653" lon="8.271699897016322"><ele>283.0</ele><time>2026-03-31T06:47:39.999Z</time></trkpt><trkpt lat="45.606876112081906" lon="8.271618734864598"><ele>283.0</ele><time>2026-03-31T06:47:40.999Z</time></trkpt><trkpt lat="45.60698861477053" lon="8.271556952708822"><ele>283.0</ele><time>2026-03-31T06:47:41.999Z</time></trkpt><trkpt lat="45.607104283074875" lon="8.27151635250615"><ele>283.0</ele><time>2026-03-31T06:47:42.999Z</time></trkpt><trkpt lat="45.60722163394906" lon="8.271498547801684"><ele>283.0</ele><time>2026-03-31T06:47:43.999Z</time></trkpt><trkpt lat="45.607338719831944" lon="8.27148783526735"><ele>283.5</ele><time>2026-03-31T06:47:44.999Z</time></trkpt><trkpt lat="45.60745737884691" lon="8.271474750777884"><ele>284.0</ele><time>2026-03-31T06:47:45.999Z</time></trkpt><trkpt lat="45.60757422334697" lon="8.271466346291488"><ele>284.5</ele><time>2026-03-31T06:47:46.999Z</time></trkpt><trkpt lat="45.60769199812281" lon="8.271468297569756"><ele>285.0</ele><time>2026-03-31T06:47:47.999Z</time></trkpt><trkpt lat="45.607820467623" lon="8.27147869984734"><ele>285.4</ele><time>2026-03-31T06:47:48.999Z</time></trkpt><trkpt lat="45.60792664889294" lon="8.271482591426988"><ele>285.8</ele><time>2026-03-31T06:47:49.999Z</time></trkpt><trkpt lat="45.60802190357916" lon="8.271510535304769"><ele>286.2</ele><time>2026-03-31T06:47:50.999Z</time></trkpt><trkpt lat="45.60811401612825" lon="8.27151973952076"><ele>286.6</ele><time>2026-03-31T06:47:51.999Z</time></trkpt><trkpt lat="45.608209215785614" lon="8.27152463084378"><ele>287.0</ele><time>2026-03-31T06:47:52.999Z</time></trkpt><trkpt lat="45.60831113408224" lon="8.271526295757079"><ele>287.0</ele><time>2026-03-31T06:47:53.999Z</time></trkpt><trkpt lat="45.608410009434905" lon="8.271526994811783"><ele>287.0</ele><time>2026-03-31T06:47:54.999Z</time></trkpt><trkpt lat="45.60850831343181" lon="8.271514569072528"><ele>287.0</ele><time>2026-03-31T06:47:55.999Z</time></trkpt><trkpt lat="45.60860278632958" lon="8.271518032977372"><ele>287.0</ele><time>2026-03-31T06:47:56.999Z</time></trkpt><trkpt lat="45.60869532700414" lon="8.271530686443322"><ele>287.0</ele><time>2026-03-31T06:47:57.999Z</time></trkpt><trkpt lat="45.608790352208274" lon="8.271514766962147"><ele>287.8</ele><time>2026-03-31T06:47:58.999Z</time></trkpt><trkpt lat="45.608886200625115" lon="8.27149565786947"><ele>288.6</ele><time>2026-03-31T06:47:59.999Z</time></trkpt><trkpt lat="45.60898331847017" lon="8.271476799845876"><ele>289.40000000000003</ele><time>2026-03-31T06:48:00.999Z</time></trkpt><trkpt lat="45.6090784460708" lon="8.271461610557717"><ele>290.2</ele><time>2026-03-31T06:48:01.999Z</time></trkpt><trkpt lat="45.60917128507262" lon="8.27142725267895"><ele>291.0</ele><time>2026-03-31T06:48:02.999Z</time></trkpt><trkpt lat="45.60926899412856" lon="8.271410804838148"><ele>291.8</ele><time>2026-03-31T06:48:03.999Z</time></trkpt><trkpt lat="45.60935066817588" lon="8.271421542952945"><ele>292.6</ele><time>2026-03-31T06:48:04.999Z</time></trkpt><trkpt lat="45.60945107054919" lon="8.271408713160977"><ele>293.4</ele><time>2026-03-31T06:48:06.999Z</time></trkpt><trkpt lat="45.6095237425325" lon="8.271378714327081"><ele>294.2</ele><time>2026-03-31T06:48:09.999Z</time></trkpt><trkpt lat="45.60955768451717" lon="8.271214615901805"><ele>295.0</ele><time>2026-03-31T06:48:12.999Z</time></trkpt><trkpt lat="45.60953060126983" lon="8.271096120155432"><ele>295.5</ele><time>2026-03-31T06:48:15.999Z</time></trkpt><trkpt lat="45.609522608813705" lon="8.270880780245585"><ele>296.0</ele><time>2026-03-31T06:48:18.999Z</time></trkpt><trkpt lat="45.60958498811268" lon="8.270824922115263"><ele>296.5</ele><time>2026-03-31T06:48:21.999Z</time></trkpt><trkpt lat="45.60964976801486" lon="8.270838630655476"><ele>297.0</ele><time>2026-03-31T06:48:22.999Z</time></trkpt><trkpt lat="45.60971073532249" lon="8.270787116927409"><ele>297.5</ele><time>2026-03-31T06:48:24.999Z</time></trkpt><trkpt lat="45.60977258844526" lon="8.270758954005261"><ele>298.0</ele><time>2026-03-31T06:48:25.999Z</time></trkpt><trkpt lat="45.60987287001164" lon="8.270752958538582"><ele>298.0</ele><time>2026-03-31T06:48:27.999Z</time></trkpt><trkpt lat="45.60987506342333" lon="8.270596667157509"><ele>298.0</ele><time>2026-03-31T06:48:28.999Z</time></trkpt><trkpt lat="45.60991790343086" lon="8.270515135907656"><ele>298.0</ele><time>2026-03-31T06:48:29.999Z</time></trkpt><trkpt lat="45.609941023495345" lon="8.270411642431686"><ele>298.0</ele><time>2026-03-31T06:48:30.999Z</time></trkpt><trkpt lat="45.609967953877046" lon="8.270291244984218"><ele>298.0</ele><time>2026-03-31T06:48:32.999Z</time></trkpt><trkpt lat="45.61011086364525" lon="8.27019967897254"><ele>298.0</ele><time>2026-03-31T06:48:34.999Z</time></trkpt><trkpt lat="45.61020349891277" lon="8.270139124160169"><ele>298.0</ele><time>2026-03-31T06:48:35.999Z</time></trkpt><trkpt lat="45.61030416818105" lon="8.270137726958746"><ele>298.0</ele><time>2026-03-31T06:48:36.999Z</time></trkpt><trkpt lat="45.6103443957756" lon="8.270044204793955"><ele>298.0</ele><time>2026-03-31T06:48:37.999Z</time></trkpt><trkpt lat="45.61038281674819" lon="8.269919529047524"><ele>298.0</ele><time>2026-03-31T06:48:39.999Z</time></trkpt><trkpt lat="45.61045886218136" lon="8.269760930770481"><ele>298.66666666666663</ele><time>2026-03-31T06:48:41.999Z</time></trkpt><trkpt lat="45.61048839466304" lon="8.26967650901868"><ele>299.3333333333333</ele><time>2026-03-31T06:48:42.999Z</time></trkpt><trkpt lat="45.610513563031795" lon="8.269580737527905"><ele>300.0</ele><time>2026-03-31T06:48:43.999Z</time></trkpt><trkpt lat="45.610548620149466" lon="8.269450003320557"><ele>300.6666666666667</ele><time>2026-03-31T06:48:45.999Z</time></trkpt><trkpt lat="45.61055547554946" lon="8.269291073233454"><ele>301.33333333333337</ele><time>2026-03-31T06:48:47.999Z</time></trkpt><trkpt lat="45.61057603785717" lon="8.269187324466508"><ele>302.0</ele><time>2026-03-31T06:48:48.999Z</time></trkpt><trkpt lat="45.610637847373624" lon="8.269139836644456"><ele>302.0</ele><time>2026-03-31T06:48:49.999Z</time></trkpt><trkpt lat="45.61072444046952" lon="8.269007330302482"><ele>302.0</ele><time>2026-03-31T06:48:51.999Z</time></trkpt><trkpt lat="45.61077235223828" lon="8.268934781029182"><ele>302.0</ele><time>2026-03-31T06:48:53Z</time></trkpt><trkpt lat="45.61081965624595" lon="8.26883649760668"><ele>302.0</ele><time>2026-03-31T06:48:54Z</time></trkpt><trkpt lat="45.61089053656037" lon="8.268747565585482"><ele>302.0</ele><time>2026-03-31T06:48:55Z</time></trkpt><trkpt lat="45.6109981141814" lon="8.268554993240791"><ele>302.25</ele><time>2026-03-31T06:49:01Z</time></trkpt><trkpt lat="45.610924878274155" lon="8.268286960256942"><ele>302.5</ele><time>2026-03-31T06:49:02Z</time></trkpt><trkpt lat="45.61095496084298" lon="8.268176492872497"><ele>302.75</ele><time>2026-03-31T06:49:03Z</time></trkpt><trkpt lat="45.610984653614636" lon="8.268056710903213"><ele>303.0</ele><time>2026-03-31T06:49:04Z</time></trkpt><trkpt lat="45.61100061547215" lon="8.267902925906386"><ele>303.1666666666667</ele><time>2026-03-31T06:49:06Z</time></trkpt><trkpt lat="45.61100558646352" lon="8.26779652932909"><ele>303.3333333333333</ele><time>2026-03-31T06:49:07Z</time></trkpt><trkpt lat="45.61099610747077" lon="8.267705793186828"><ele>303.5</ele><time>2026-03-31T06:49:08Z</time></trkpt><trkpt lat="45.61099203076415" lon="8.267565153443606"><ele>303.66666666666663</ele><time>2026-03-31T06:49:09Z</time></trkpt><trkpt lat="45.610989896913196" lon="8.267471175726953"><ele>303.8333333333333</ele><time>2026-03-31T06:49:10Z</time></trkpt><trkpt lat="45.61095823625127" lon="8.26739266703695"><ele>304.0</ele><time>2026-03-31T06:49:11Z</time></trkpt><trkpt lat="45.6109515400172" lon="8.267256011710668"><ele>304.66666666666663</ele><time>2026-03-31T06:49:12Z</time></trkpt><trkpt lat="45.6109504763617" lon="8.267145716424402"><ele>305.3333333333333</ele><time>2026-03-31T06:49:13Z</time></trkpt><trkpt lat="45.61094596152719" lon="8.267002316372194"><ele>306.0</ele><time>2026-03-31T06:49:14Z</time></trkpt><trkpt lat="45.61095905616709" lon="8.266881313692002"><ele>306.6666666666667</ele><time>2026-03-31T06:49:15Z</time></trkpt><trkpt lat="45.61099092107642" lon="8.26675845764105"><ele>307.33333333333337</ele><time>2026-03-31T06:49:16Z</time></trkpt><trkpt lat="45.61102883311554" lon="8.26664526600182"><ele>308.0</ele><time>2026-03-31T06:49:17Z</time></trkpt><trkpt lat="45.61107696124269" lon="8.266551506443662"><ele>308.0</ele><time>2026-03-31T06:49:18Z</time></trkpt><trkpt lat="45.611116629013374" lon="8.266455124756684"><ele>308.0</ele><time>2026-03-31T06:49:19Z</time></trkpt><trkpt lat="45.61113354257364" lon="8.266339325497437"><ele>308.0</ele><time>2026-03-31T06:49:20Z</time></trkpt><trkpt lat="45.611137810573794" lon="8.266184537357478"><ele>308.0</ele><time>2026-03-31T06:49:22Z</time></trkpt><trkpt lat="45.61115533974449" lon="8.26607964349599"><ele>308.0</ele><time>2026-03-31T06:49:24Z</time></trkpt><trkpt lat="45.61125442757457" lon="8.265953631613037"><ele>311.6</ele><time>2026-03-31T06:49:26Z</time></trkpt><trkpt lat="45.611334130776434" lon="8.265802528659403"><ele>315.20000000000005</ele><time>2026-03-31T06:49:28Z</time></trkpt><trkpt lat="45.611384347652795" lon="8.265725695797036"><ele>318.8</ele><time>2026-03-31T06:49:29Z</time></trkpt><trkpt lat="45.611460564394044" lon="8.265581400738066"><ele>322.40000000000003</ele><time>2026-03-31T06:49:31Z</time></trkpt><trkpt lat="45.61148969183036" lon="8.265483645187384"><ele>326.0</ele><time>2026-03-31T06:49:32Z</time></trkpt><trkpt lat="45.611499092041086" lon="8.265390694512442"><ele>326.6666666666667</ele><time>2026-03-31T06:49:33Z</time></trkpt><trkpt lat="45.61151542153809" lon="8.265266622957036"><ele>327.33333333333337</ele><time>2026-03-31T06:49:34Z</time></trkpt><trkpt lat="45.611525413201186" lon="8.265160989764995"><ele>328.0</ele><time>2026-03-31T06:49:35Z</time></trkpt><trkpt lat="45.61153932505926" lon="8.265071016115135"><ele>328.6666666666667</ele><time>2026-03-31T06:49:36Z</time></trkpt><trkpt lat="45.61158132811874" lon="8.264959983751599"><ele>329.3333333333333</ele><time>2026-03-31T06:49:38Z</time></trkpt><trkpt lat="45.61163932469106" lon="8.26490318462312"><ele>330.0</ele><time>2026-03-31T06:49:39Z</time></trkpt><trkpt lat="45.61170212900153" lon="8.26483291637645"><ele>331.1666666666667</ele><time>2026-03-31T06:49:39.999Z</time></trkpt><trkpt lat="45.61173011808035" lon="8.264732978093969"><ele>332.3333333333333</ele><time>2026-03-31T06:49:40.999Z</time></trkpt><trkpt lat="45.61175035773802" lon="8.264642667400963"><ele>333.5</ele><time>2026-03-31T06:49:41.999Z</time></trkpt><trkpt lat="45.61182757774877" lon="8.264504513562848"><ele>334.66666666666663</ele><time>2026-03-31T06:49:43.999Z</time></trkpt><trkpt lat="45.61186950123351" lon="8.264435151212549"><ele>335.8333333333333</ele><time>2026-03-31T06:49:44.999Z</time></trkpt><trkpt lat="45.61193418778744" lon="8.264372139860699"><ele>337.0</ele><time>2026-03-31T06:49:45.999Z</time></trkpt><trkpt lat="45.61199747824335" lon="8.26431900434124"><ele>337.0</ele><time>2026-03-31T06:49:46.999Z</time></trkpt><trkpt lat="45.611985033380144" lon="8.2642294594373"><ele>337.0</ele><time>2026-03-31T06:49:49.999Z</time></trkpt><trkpt lat="45.61188256748318" lon="8.264242164397851"><ele>337.0</ele><time>2026-03-31T06:49:51.999Z</time></trkpt><trkpt lat="45.61180291941188" lon="8.264273579267163"><ele>337.0</ele><time>2026-03-31T06:49:52.999Z</time></trkpt><trkpt lat="45.61170186959307" lon="8.264323247446699"><ele>337.0</ele><time>2026-03-31T06:49:54.999Z</time></trkpt><trkpt lat="45.61160675279479" lon="8.264332554620973"><ele>337.0</ele><time>2026-03-31T06:49:56.999Z</time></trkpt><trkpt lat="45.611532618217446" lon="8.264208795235911"><ele>337.0</ele><time>2026-03-31T06:49:58.999Z</time></trkpt><trkpt lat="45.61157258810258" lon="8.264116704614445"><ele>337.0</ele><time>2026-03-31T06:50:01.999Z</time></trkpt><trkpt lat="45.611561604236236" lon="8.263924050859545"><ele>337.0</ele><time>2026-03-31T06:50:02.999Z</time></trkpt><trkpt lat="45.61157975354399" lon="8.263788890510748"><ele>337.0</ele><time>2026-03-31T06:50:03.999Z</time></trkpt><trkpt lat="45.611596360956575" lon="8.263677769573656"><ele>338.0</ele><time>2026-03-31T06:50:04.999Z</time></trkpt><trkpt lat="45.611615640035666" lon="8.2635814921374"><ele>339.0</ele><time>2026-03-31T06:50:05.999Z</time></trkpt><trkpt lat="45.61166660510637" lon="8.263433983462305"><ele>340.0</ele><time>2026-03-31T06:50:07.999Z</time></trkpt><trkpt lat="45.611705892104574" lon="8.263358763568933"><ele>341.0</ele><time>2026-03-31T06:50:08.999Z</time></trkpt><trkpt lat="45.61180858763202" lon="8.26330470683057"><ele>342.0</ele><time>2026-03-31T06:50:10.999Z</time></trkpt><trkpt lat="45.61185916834383" lon="8.26336864330041"><ele>343.0</ele><time>2026-03-31T06:50:11.999Z</time></trkpt><trkpt lat="45.6119385174355" lon="8.263462725564098"><ele>343.5</ele><time>2026-03-31T06:50:13.999Z</time></trkpt><trkpt lat="45.61200951458173" lon="8.263470151628376"><ele>344.0</ele><time>2026-03-31T06:50:15.999Z</time></trkpt><trkpt lat="45.612084583775385" lon="8.263384385959135"><ele>344.5</ele><time>2026-03-31T06:50:17.999Z</time></trkpt><trkpt lat="45.61213728854232" lon="8.263318483797013"><ele>345.0</ele><time>2026-03-31T06:50:18.999Z</time></trkpt><trkpt lat="45.612210426137366" lon="8.2632371262925"><ele>345.5</ele><time>2026-03-31T06:50:19.999Z</time></trkpt><trkpt lat="45.61228334973305" lon="8.263147320290113"><ele>346.0</ele><time>2026-03-31T06:50:20.999Z</time></trkpt><trkpt lat="45.612339194320796" lon="8.263049679324661"><ele>347.0</ele><time>2026-03-31T06:50:21.999Z</time></trkpt><trkpt lat="45.612385722463195" lon="8.262933170562267"><ele>348.0</ele><time>2026-03-31T06:50:23.999Z</time></trkpt><trkpt lat="45.612471714658426" lon="8.262783272502189"><ele>349.0</ele><time>2026-03-31T06:50:25.999Z</time></trkpt><trkpt lat="45.61255037995921" lon="8.262695941097826"><ele>350.0</ele><time>2026-03-31T06:50:27.999Z</time></trkpt><trkpt lat="45.61265358187952" lon="8.262645703145346"><ele>351.0</ele><time>2026-03-31T06:50:29.999Z</time></trkpt><trkpt lat="45.61276184901582" lon="8.26265673621706"><ele>351.0</ele><time>2026-03-31T06:50:31.999Z</time></trkpt><trkpt lat="45.61280860500536" lon="8.262532951950922"><ele>351.0</ele><time>2026-03-31T06:50:33.999Z</time></trkpt><trkpt lat="45.61282681373313" lon="8.262367555630751"><ele>351.0</ele><time>2026-03-31T06:50:35.999Z</time></trkpt><trkpt lat="45.61285346762458" lon="8.262210280059413"><ele>351.0</ele><time>2026-03-31T06:50:37.999Z</time></trkpt><trkpt lat="45.612846505547076" lon="8.262063776707278"><ele>351.0</ele><time>2026-03-31T06:50:39.999Z</time></trkpt><trkpt lat="45.61284096983804" lon="8.261922692919905"><ele>349.0</ele><time>2026-03-31T06:50:41.999Z</time></trkpt><trkpt lat="45.612890806379596" lon="8.261827938536689"><ele>347.0</ele><time>2026-03-31T06:50:43.999Z</time></trkpt><trkpt lat="45.6129603230371" lon="8.261724319411439"><ele>345.0</ele><time>2026-03-31T06:50:45.999Z</time></trkpt><trkpt lat="45.61304811634765" lon="8.261602189558769"><ele>343.0</ele><time>2026-03-31T06:50:47.999Z</time></trkpt><trkpt lat="45.613110160400325" lon="8.261567318330929"><ele>341.0</ele><time>2026-03-31T06:50:48.999Z</time></trkpt><trkpt lat="45.613207532617814" lon="8.261499533657643"><ele>341.0</ele><time>2026-03-31T06:50:50.999Z</time></trkpt><trkpt lat="45.613295263119426" lon="8.261387899634308"><ele>341.0</ele><time>2026-03-31T06:50:52.999Z</time></trkpt><trkpt lat="45.613362996436976" lon="8.261327772673154"><ele>341.0</ele><time>2026-03-31T06:50:53.999Z</time></trkpt><trkpt lat="45.61346476283908" lon="8.261253928976156"><ele>341.0</ele><time>2026-03-31T06:50:55.999Z</time></trkpt><trkpt lat="45.613542433666495" lon="8.261286578750278"><ele>341.0</ele><time>2026-03-31T06:50:57.999Z</time></trkpt><trkpt lat="45.613575210805905" lon="8.261449707866516"><ele>341.0</ele><time>2026-03-31T06:51:00Z</time></trkpt><trkpt lat="45.61357404257081" lon="8.261540914953834"><ele>341.0</ele><time>2026-03-31T06:51:01Z</time></trkpt><trkpt lat="45.61353480128595" lon="8.261698022329409"><ele>341.0</ele><time>2026-03-31T06:51:03Z</time></trkpt><trkpt lat="45.61352444916723" lon="8.261856402233555"><ele>341.0</ele><time>2026-03-31T06:51:05Z</time></trkpt><trkpt lat="45.61351473404831" lon="8.261948057735003"><ele>341.0</ele><time>2026-03-31T06:51:06Z</time></trkpt><trkpt lat="45.613508103228305" lon="8.262103851425726"><ele>341.0</ele><time>2026-03-31T06:51:08Z</time></trkpt><trkpt lat="45.613519027388634" lon="8.262233375810432"><ele>341.0</ele><time>2026-03-31T06:51:09Z</time></trkpt><trkpt lat="45.613512107126944" lon="8.26234835123254"><ele>341.0</ele><time>2026-03-31T06:51:10Z</time></trkpt><trkpt lat="45.61351976978451" lon="8.262481825504565"><ele>341.0</ele><time>2026-03-31T06:51:12Z</time></trkpt><trkpt lat="45.61353711232932" lon="8.26257634427112"><ele>341.0</ele><time>2026-03-31T06:51:13Z</time></trkpt><trkpt lat="45.61354238686076" lon="8.262674652041293"><ele>341.0</ele><time>2026-03-31T06:51:14Z</time></trkpt><trkpt lat="45.613484720665824" lon="8.262810729485231"><ele>340.6666666666667</ele><time>2026-03-31T06:51:16Z</time></trkpt><trkpt lat="45.61348247683457" lon="8.262904852204686"><ele>340.33333333333337</ele><time>2026-03-31T06:51:18Z</time></trkpt><trkpt lat="45.61345551462792" lon="8.263077049277776"><ele>340.0</ele><time>2026-03-31T06:51:19Z</time></trkpt><trkpt lat="45.613475744033124" lon="8.263180778935833"><ele>339.6666666666667</ele><time>2026-03-31T06:51:20Z</time></trkpt><trkpt lat="45.61351629985885" lon="8.263264920905776"><ele>339.3333333333333</ele><time>2026-03-31T06:51:21Z</time></trkpt><trkpt lat="45.61358569321631" lon="8.263387402474919"><ele>339.0</ele><time>2026-03-31T06:51:23Z</time></trkpt><trkpt lat="45.61365131890382" lon="8.263430553384648"><ele>339.79999999999995</ele><time>2026-03-31T06:51:25Z</time></trkpt><trkpt lat="45.61376433841329" lon="8.263434035498538"><ele>340.59999999999997</ele><time>2026-03-31T06:51:27Z</time></trkpt><trkpt lat="45.61382851674514" lon="8.263331250600046"><ele>341.4</ele><time>2026-03-31T06:51:29Z</time></trkpt><trkpt lat="45.613864512810764" lon="8.263137082402357"><ele>342.2</ele><time>2026-03-31T06:51:31Z</time></trkpt><trkpt lat="45.61387484531881" lon="8.26301523424073"><ele>343.0</ele><time>2026-03-31T06:51:32Z</time></trkpt><trkpt lat="45.613884156126566" lon="8.26290709589207"><ele>345.16666666666663</ele><time>2026-03-31T06:51:33Z</time></trkpt><trkpt lat="45.61393984078476" lon="8.262756308411735"><ele>347.3333333333333</ele><time>2026-03-31T06:51:35Z</time></trkpt><trkpt lat="45.613997075058506" lon="8.262642309675577"><ele>349.5</ele><time>2026-03-31T06:51:37Z</time></trkpt><trkpt lat="45.61405540550085" lon="8.262560036028166"><ele>351.6666666666667</ele><time>2026-03-31T06:51:39Z</time></trkpt><trkpt lat="45.61407745615843" lon="8.262474859994928"><ele>353.83333333333337</ele><time>2026-03-31T06:51:40Z</time></trkpt><trkpt lat="45.614109567847954" lon="8.262388899147112"><ele>356.0</ele><time>2026-03-31T06:51:41Z</time></trkpt><trkpt lat="45.6142051834473" lon="8.262323248425638"><ele>356.6</ele><time>2026-03-31T06:51:43Z</time></trkpt><trkpt lat="45.61426396902937" lon="8.262273980402654"><ele>357.20000000000005</ele><time>2026-03-31T06:51:44Z</time></trkpt><trkpt lat="45.61432260651818" lon="8.26211934341523"><ele>357.79999999999995</ele><time>2026-03-31T06:51:46Z</time></trkpt><trkpt lat="45.61438443224981" lon="8.261996187556669"><ele>358.4</ele><time>2026-03-31T06:51:48Z</time></trkpt><trkpt lat="45.61442883319419" lon="8.261919809945999"><ele>359.0</ele><time>2026-03-31T06:51:48.999Z</time></trkpt><trkpt lat="45.6145469872681" lon="8.261901183896345"><ele>362.2</ele><time>2026-03-31T06:51:50.999Z</time></trkpt><trkpt lat="45.614623776782345" lon="8.261913459456993"><ele>365.4</ele><time>2026-03-31T06:51:51.999Z</time></trkpt><trkpt lat="45.61471650551313" lon="8.26186109758625"><ele>368.6</ele><time>2026-03-31T06:51:53.999Z</time></trkpt><trkpt lat="45.61480778505514" lon="8.261768252162243"><ele>371.8</ele><time>2026-03-31T06:51:55.999Z</time></trkpt><trkpt lat="45.614903530626094" lon="8.261646704637345"><ele>375.0</ele><time>2026-03-31T06:51:57.999Z</time></trkpt><trkpt lat="45.614953554618914" lon="8.261581594844213"><ele>375.0</ele><time>2026-03-31T06:51:58.999Z</time></trkpt><trkpt lat="45.61505786191445" lon="8.261500104930034"><ele>375.0</ele><time>2026-03-31T06:52:00.999Z</time></trkpt><trkpt lat="45.61513401740363" lon="8.261397014183062"><ele>375.0</ele><time>2026-03-31T06:52:02.999Z</time></trkpt><trkpt lat="45.61518136109817" lon="8.261334328170033"><ele>375.0</ele><time>2026-03-31T06:52:04.999Z</time></trkpt><trkpt lat="45.615278544493435" lon="8.26122916478244"><ele>375.0</ele><time>2026-03-31T06:52:05.999Z</time></trkpt><trkpt lat="45.6153440909763" lon="8.261125293245348"><ele>377.4</ele><time>2026-03-31T06:52:07.999Z</time></trkpt><trkpt lat="45.61538940561282" lon="8.260996698680527"><ele>379.8</ele><time>2026-03-31T06:52:09.999Z</time></trkpt><trkpt lat="45.61545451134699" lon="8.260901711660743"><ele>382.20000000000005</ele><time>2026-03-31T06:52:11.999Z</time></trkpt><trkpt lat="45.61551946954717" lon="8.260782502227883"><ele>384.6</ele><time>2026-03-31T06:52:13.999Z</time></trkpt><trkpt lat="45.61557966598571" lon="8.260706191537269"><ele>387.0</ele><time>2026-03-31T06:52:15.999Z</time></trkpt><trkpt lat="45.61568474000638" lon="8.260702698935702"><ele>387.0</ele><time>2026-03-31T06:52:17.999Z</time></trkpt><trkpt lat="45.615555420586546" lon="8.260766680359636"><ele>387.0</ele><time>2026-03-31T06:53:28Z</time></trkpt><trkpt lat="45.615466999916094" lon="8.260759949124676"><ele>387.0</ele><time>2026-03-31T06:53:30Z</time></trkpt><trkpt lat="45.61540219996478" lon="8.260744644047161"><ele>387.0</ele><time>2026-03-31T06:53:32Z</time></trkpt><trkpt lat="45.61533876095261" lon="8.26077789329333"><ele>387.0</ele><time>2026-03-31T06:53:34Z</time></trkpt><trkpt lat="45.615404862776494" lon="8.260916965602094"><ele>386.40000000000003</ele><time>2026-03-31T06:53:35Z</time></trkpt><trkpt lat="45.61522633980232" lon="8.260805080553336"><ele>385.8</ele><time>2026-03-31T06:53:41Z</time></trkpt><trkpt lat="45.61515431384489" lon="8.26080656959833"><ele>385.2</ele><time>2026-03-31T06:53:45Z</time></trkpt><trkpt lat="45.615091894823315" lon="8.26082051208162"><ele>384.6</ele><time>2026-03-31T06:53:49Z</time></trkpt><trkpt lat="45.61503284609383" lon="8.260863735484804"><ele>384.0</ele><time>2026-03-31T06:53:52Z</time></trkpt><trkpt lat="45.61496049579034" lon="8.260914477796995"><ele>383.99999999999994</ele><time>2026-03-31T06:53:56Z</time></trkpt><trkpt lat="45.61488840962695" lon="8.260909847931584"><ele>384.0</ele><time>2026-03-31T06:53:58Z</time></trkpt><trkpt lat="45.61482024751475" lon="8.26090886650577"><ele>384.0</ele><time>2026-03-31T06:54:01Z</time></trkpt><trkpt lat="45.614750494826154" lon="8.260965579089916"><ele>384.0</ele><time>2026-03-31T06:54:05.999Z</time></trkpt><trkpt lat="45.61470111506464" lon="8.261034385714964"><ele>384.0</ele><time>2026-03-31T06:54:09.999Z</time></trkpt><trkpt lat="45.61466969810187" lon="8.261117030835658"><ele>383.99999999999994</ele><time>2026-03-31T06:54:12.999Z</time></trkpt><trkpt lat="45.6145998131529" lon="8.261182004040473"><ele>384.0</ele><time>2026-03-31T06:54:15.999Z</time></trkpt><trkpt lat="45.61454905107731" lon="8.261255986214202"><ele>384.0</ele><time>2026-03-31T06:54:18.999Z</time></trkpt><trkpt lat="45.61447833798444" lon="8.261273200995715"><ele>384.0</ele><time>2026-03-31T06:56:01Z</time></trkpt><trkpt lat="45.614445125369095" lon="8.261360486577932"><ele>384.0</ele><time>2026-03-31T06:56:07Z</time></trkpt><trkpt lat="45.614423561085005" lon="8.26145046608757"><ele>384.0</ele><time>2026-03-31T06:56:12Z</time></trkpt><trkpt lat="45.61442670621822" lon="8.261343171126665"><ele>384.0</ele><time>2026-03-31T06:56:43.999Z</time></trkpt><trkpt lat="45.614488477041164" lon="8.261272321018893"><ele>384.0</ele><time>2026-03-31T06:56:55.999Z</time></trkpt><trkpt lat="45.6145704483692" lon="8.261178084902012"><ele>383.99999999999994</ele><time>2026-03-31T06:56:58.999Z</time></trkpt><trkpt lat="45.614598962659876" lon="8.261093491686912"><ele>384.0</ele><time>2026-03-31T06:57:01.999Z</time></trkpt><trkpt lat="45.61460753924863" lon="8.26099722349306"><ele>384.0</ele><time>2026-03-31T06:57:05.999Z</time></trkpt><trkpt lat="45.614582444039314" lon="8.260900043279703"><ele>384.0</ele><time>2026-03-31T06:57:08.999Z</time></trkpt><trkpt lat="45.61456344560634" lon="8.260805861657428"><ele>384.0</ele><time>2026-03-31T06:57:11.999Z</time></trkpt><trkpt lat="45.614549704742814" lon="8.26068445622066"><ele>383.99999999999994</ele><time>2026-03-31T06:57:14.999Z</time></trkpt><trkpt lat="45.61456873736427" lon="8.260589540773811"><ele>384.0</ele><time>2026-03-31T06:57:20Z</time></trkpt><trkpt lat="45.61454385391172" lon="8.260486113862234"><ele>382.85714285714283</ele><time>2026-03-31T06:57:25Z</time></trkpt><trkpt lat="45.614492656393594" lon="8.260413444029231"><ele>381.7142857142857</ele><time>2026-03-31T06:57:29Z</time></trkpt><trkpt lat="45.614459196270914" lon="8.260335251367355"><ele>380.57142857142856</ele><time>2026-03-31T06:57:33Z</time></trkpt><trkpt lat="45.614479536945424" lon="8.260249843109"><ele>379.42857142857144</ele><time>2026-03-31T06:57:35Z</time></trkpt><trkpt lat="45.61453929121018" lon="8.260130209044357"><ele>378.2857142857143</ele><time>2026-03-31T06:57:37Z</time></trkpt><trkpt lat="45.61459684666518" lon="8.260083395658281"><ele>377.1428571428571</ele><time>2026-03-31T06:57:43Z</time></trkpt><trkpt lat="45.61464498523727" lon="8.259991388867522"><ele>376.0</ele><time>2026-03-31T06:58:15Z</time></trkpt><trkpt lat="45.61466889755236" lon="8.259889376189134"><ele>376.0</ele><time>2026-03-31T06:58:23Z</time></trkpt><trkpt lat="45.61468752614657" lon="8.259799593667882"><ele>376.0</ele><time>2026-03-31T06:58:27.999Z</time></trkpt><trkpt lat="45.6146890578016" lon="8.259673344627178"><ele>376.0</ele><time>2026-03-31T06:58:32.999Z</time></trkpt><trkpt lat="45.61473742388473" lon="8.259596067206656"><ele>376.0</ele><time>2026-03-31T06:58:34.999Z</time></trkpt><trkpt lat="45.61480129491235" lon="8.259549867923162"><ele>376.0</ele><time>2026-03-31T06:58:37.999Z</time></trkpt><trkpt lat="45.61488025854754" lon="8.259535617095633"><ele>376.0</ele><time>2026-03-31T06:58:39.999Z</time></trkpt><trkpt lat="45.614960652513595" lon="8.259482175277556"><ele>375.57142857142856</ele><time>2026-03-31T06:58:41.999Z</time></trkpt><trkpt lat="45.6150353824275" lon="8.259439222217019"><ele>375.1428571428571</ele><time>2026-03-31T06:58:43.999Z</time></trkpt><trkpt lat="45.61508980085073" lon="8.259380967044114"><ele>374.7142857142857</ele><time>2026-03-31T06:58:50.999Z</time></trkpt><trkpt lat="45.61515213216397" lon="8.259413226480282"><ele>374.2857142857143</ele><time>2026-03-31T06:58:53.999Z</time></trkpt><trkpt lat="45.61522940985088" lon="8.259458634635983"><ele>373.8571428571429</ele><time>2026-03-31T06:58:55.999Z</time></trkpt><trkpt lat="45.61530273000378" lon="8.259502625602613"><ele>373.42857142857144</ele><time>2026-03-31T06:58:57.999Z</time></trkpt><trkpt lat="45.61528729295885" lon="8.259408008207776"><ele>373.0</ele><time>2026-03-31T06:59:07.999Z</time></trkpt><trkpt lat="45.615289700192555" lon="8.259316232926993"><ele>373.0</ele><time>2026-03-31T06:59:10.999Z</time></trkpt><trkpt lat="45.61522330149112" lon="8.259261807302163"><ele>373.0</ele><time>2026-03-31T06:59:17.999Z</time></trkpt><trkpt lat="45.615220105292025" lon="8.259167828068959"><ele>373.0</ele><time>2026-03-31T06:59:21.999Z</time></trkpt><trkpt lat="45.61515641519921" lon="8.259088293513683"><ele>373.0</ele><time>2026-03-31T06:59:27Z</time></trkpt><trkpt lat="45.61514433312207" lon="8.258963436100844"><ele>373.0</ele><time>2026-03-31T06:59:30Z</time></trkpt><trkpt lat="45.615203836718415" lon="8.258884862082834"><ele>373.0</ele><time>2026-03-31T06:59:33Z</time></trkpt><trkpt lat="45.61527341244203" lon="8.258820901040783"><ele>374.0</ele><time>2026-03-31T06:59:38Z</time></trkpt><trkpt lat="45.61533724508005" lon="8.25882502373649"><ele>375.0</ele><time>2026-03-31T06:59:48Z</time></trkpt><trkpt lat="45.61531801494666" lon="8.258717589402568"><ele>376.0</ele><time>2026-03-31T06:59:53Z</time></trkpt><trkpt lat="45.615310756663575" lon="8.258606803704698"><ele>377.0</ele><time>2026-03-31T06:59:57Z</time></trkpt><trkpt lat="45.61530347381744" lon="8.258512331149626"><ele>378.0</ele><time>2026-03-31T06:59:59Z</time></trkpt><trkpt lat="45.61535503181424" lon="8.25841751090646"><ele>379.0</ele><time>2026-03-31T07:00:03Z</time></trkpt><trkpt lat="45.61538316283412" lon="8.258332253974665"><ele>380.0</ele><time>2026-03-31T07:00:08Z</time></trkpt><trkpt lat="45.61544820018358" lon="8.258283740270784"><ele>384.0</ele><time>2026-03-31T07:00:11Z</time></trkpt><trkpt lat="45.61543922344717" lon="8.258144963598093"><ele>388.0</ele><time>2026-03-31T07:00:14Z</time></trkpt><trkpt lat="45.61544250492109" lon="8.258033350527759"><ele>392.0</ele><time>2026-03-31T07:00:17Z</time></trkpt><trkpt lat="45.61546486055045" lon="8.25794227273044"><ele>396.0</ele><time>2026-03-31T07:00:20Z</time></trkpt><trkpt lat="45.615532997088664" lon="8.257861235592845"><ele>399.99999999999994</ele><time>2026-03-31T07:00:25Z</time></trkpt><trkpt lat="45.615597960363814" lon="8.257764157123312"><ele>404.0</ele><time>2026-03-31T07:00:27Z</time></trkpt><trkpt lat="45.615667485655436" lon="8.257709839576544"><ele>403.99999999999994</ele><time>2026-03-31T07:00:29Z</time></trkpt><trkpt lat="45.615715042808674" lon="8.257781816924256"><ele>404.0</ele><time>2026-03-31T07:00:33Z</time></trkpt><trkpt lat="45.61569964078415" lon="8.257890355878855"><ele>404.0</ele><time>2026-03-31T07:00:36Z</time></trkpt><trkpt lat="45.615685244929004" lon="8.257995944957152"><ele>404.0</ele><time>2026-03-31T07:00:38Z</time></trkpt><trkpt lat="45.6157338654335" lon="8.258137075458217"><ele>403.99999999999994</ele><time>2026-03-31T07:00:46.999Z</time></trkpt><trkpt lat="45.6157336695242" lon="8.258260583998158"><ele>404.0</ele><time>2026-03-31T07:00:50.999Z</time></trkpt><trkpt lat="45.615788018336666" lon="8.258361596514268"><ele>403.99999999999994</ele><time>2026-03-31T07:00:54.999Z</time></trkpt><trkpt lat="45.615834214338804" lon="8.25846484649671"><ele>404.0</ele><time>2026-03-31T07:00:57.999Z</time></trkpt><trkpt lat="45.61585187823113" lon="8.258591958982754"><ele>404.0</ele><time>2026-03-31T07:00:59.999Z</time></trkpt><trkpt lat="45.61591316436166" lon="8.258624808150664"><ele>404.0</ele><time>2026-03-31T07:01:01.999Z</time></trkpt><trkpt lat="45.61599836458563" lon="8.258575772684186"><ele>403.99999999999994</ele><time>2026-03-31T07:01:03.999Z</time></trkpt><trkpt lat="45.616071719141445" lon="8.258577410894222"><ele>404.0</ele><time>2026-03-31T07:01:05.999Z</time></trkpt><trkpt lat="45.61613840352495" lon="8.258606738269748"><ele>406.3333333333333</ele><time>2026-03-31T07:01:12.999Z</time></trkpt><trkpt lat="45.61622501143256" lon="8.258627188148864"><ele>408.66666666666663</ele><time>2026-03-31T07:01:15.999Z</time></trkpt><trkpt lat="45.61630278641811" lon="8.25859027183622"><ele>411.0</ele><time>2026-03-31T07:01:19.999Z</time></trkpt><trkpt lat="45.61635003181767" lon="8.258498235942614"><ele>413.33333333333337</ele><time>2026-03-31T07:01:24.999Z</time></trkpt><trkpt lat="45.61636248851519" lon="8.258388908040207"><ele>415.6666666666667</ele><time>2026-03-31T07:01:29Z</time></trkpt><trkpt lat="45.61632326256762" lon="8.25826972591436"><ele>418.0</ele><time>2026-03-31T07:01:33Z</time></trkpt><trkpt lat="45.616265155950565" lon="8.258057400969127"><ele>419.1666666666667</ele><time>2026-03-31T07:01:35Z</time></trkpt><trkpt lat="45.616276389931805" lon="8.257939726294934"><ele>420.33333333333337</ele><time>2026-03-31T07:01:37Z</time></trkpt><trkpt lat="45.616313862925296" lon="8.257804349524099"><ele>421.5</ele><time>2026-03-31T07:01:39Z</time></trkpt><trkpt lat="45.61634719201015" lon="8.257718684350156"><ele>422.66666666666663</ele><time>2026-03-31T07:01:40Z</time></trkpt><trkpt lat="45.61639069712763" lon="8.257629112033852"><ele>423.8333333333333</ele><time>2026-03-31T07:01:41Z</time></trkpt><trkpt lat="45.616463144481344" lon="8.25752694440712"><ele>425.0</ele><time>2026-03-31T07:01:43Z</time></trkpt><trkpt lat="45.61653209773536" lon="8.257495012603627"><ele>424.99999999999994</ele><time>2026-03-31T07:01:45Z</time></trkpt><trkpt lat="45.616559259768614" lon="8.257384314546542"><ele>425.0</ele><time>2026-03-31T07:01:48Z</time></trkpt><trkpt lat="45.6166508479277" lon="8.257282834972207"><ele>425.0</ele><time>2026-03-31T07:01:50Z</time></trkpt><trkpt lat="45.6167370595374" lon="8.25721525881939"><ele>425.0</ele><time>2026-03-31T07:01:52Z</time></trkpt><trkpt lat="45.61679745577838" lon="8.257145612031886"><ele>424.99999999999994</ele><time>2026-03-31T07:01:55Z</time></trkpt><trkpt lat="45.616788292100715" lon="8.257047334552883"><ele>425.0</ele><time>2026-03-31T07:01:57Z</time></trkpt><trkpt lat="45.616762977770875" lon="8.256950917903987"><ele>422.49999999999994</ele><time>2026-03-31T07:01:59Z</time></trkpt><trkpt lat="45.61669103352836" lon="8.256910414653067"><ele>420.0</ele><time>2026-03-31T07:02:02Z</time></trkpt><trkpt lat="45.61671126120469" lon="8.25678717718937"><ele>417.5</ele><time>2026-03-31T07:02:12Z</time></trkpt><trkpt lat="45.6167960938031" lon="8.256758083565911"><ele>415.0</ele><time>2026-03-31T07:02:14Z</time></trkpt><trkpt lat="45.616868105407924" lon="8.256735392947052"><ele>412.49999999999994</ele><time>2026-03-31T07:02:16Z</time></trkpt><trkpt lat="45.61693528618056" lon="8.25675829011156"><ele>410.0</ele><time>2026-03-31T07:02:24Z</time></trkpt><trkpt lat="45.617049910483274" lon="8.256729584838887"><ele>408.6</ele><time>2026-03-31T07:02:32Z</time></trkpt><trkpt lat="45.61711094137297" lon="8.256700330731107"><ele>407.2</ele><time>2026-03-31T07:02:34Z</time></trkpt><trkpt lat="45.61720236063259" lon="8.25658230580817"><ele>405.79999999999995</ele><time>2026-03-31T07:03:50Z</time></trkpt><trkpt lat="45.61727831647447" lon="8.256492408181197"><ele>404.4</ele><time>2026-03-31T07:03:52Z</time></trkpt><trkpt lat="45.617403116287605" lon="8.256439389548737"><ele>403.0</ele><time>2026-03-31T07:03:54Z</time></trkpt><trkpt lat="45.617482980211314" lon="8.256410303079736"><ele>402.2</ele><time>2026-03-31T07:03:55Z</time></trkpt><trkpt lat="45.617609748827235" lon="8.256304580920355"><ele>401.4</ele><time>2026-03-31T07:03:57Z</time></trkpt><trkpt lat="45.617695365800586" lon="8.256207591835201"><ele>400.59999999999997</ele><time>2026-03-31T07:03:58Z</time></trkpt><trkpt lat="45.61776154393995" lon="8.25612457313558"><ele>399.79999999999995</ele><time>2026-03-31T07:03:59Z</time></trkpt><trkpt lat="45.617811681015354" lon="8.256060565554396"><ele>399.0</ele><time>2026-03-31T07:04:00Z</time></trkpt><trkpt lat="45.61788375017899" lon="8.255974034554969"><ele>400.8333333333333</ele><time>2026-03-31T07:04:02Z</time></trkpt><trkpt lat="45.6179698140656" lon="8.25588968088733"><ele>402.66666666666663</ele><time>2026-03-31T07:04:04Z</time></trkpt><trkpt lat="45.61806211293336" lon="8.255830722620429"><ele>404.5</ele><time>2026-03-31T07:04:05Z</time></trkpt><trkpt lat="45.618136184541044" lon="8.255811766078322"><ele>406.3333333333333</ele><time>2026-03-31T07:04:06Z</time></trkpt><trkpt lat="45.61821253959008" lon="8.255806246489454"><ele>408.16666666666663</ele><time>2026-03-31T07:04:07Z</time></trkpt><trkpt lat="45.61827935579302" lon="8.255809156497607"><ele>410.0</ele><time>2026-03-31T07:04:08Z</time></trkpt><trkpt lat="45.618369055153494" lon="8.255821136084444"><ele>409.99999999999994</ele><time>2026-03-31T07:04:09Z</time></trkpt><trkpt lat="45.61844914929728" lon="8.255841332536662"><ele>410.0</ele><time>2026-03-31T07:04:10Z</time></trkpt><trkpt lat="45.618565444779186" lon="8.255900045080564"><ele>410.0</ele><time>2026-03-31T07:04:12Z</time></trkpt><trkpt lat="45.618626080079636" lon="8.255951968740737"><ele>410.0</ele><time>2026-03-31T07:04:13Z</time></trkpt><trkpt lat="45.61867275149014" lon="8.25603462308652"><ele>409.99999999999994</ele><time>2026-03-31T07:04:14Z</time></trkpt><trkpt lat="45.618752531905685" lon="8.256116545573883"><ele>410.0</ele><time>2026-03-31T07:04:15Z</time></trkpt><trkpt lat="45.61883084433837" lon="8.256196711243994"><ele>409.66666666666663</ele><time>2026-03-31T07:04:16Z</time></trkpt><trkpt lat="45.618895572505075" lon="8.256263487538162"><ele>409.3333333333333</ele><time>2026-03-31T07:04:17Z</time></trkpt><trkpt lat="45.61895119269208" lon="8.25635014359982"><ele>409.0</ele><time>2026-03-31T07:04:18Z</time></trkpt><trkpt lat="45.61901304154928" lon="8.256409093325534"><ele>408.66666666666663</ele><time>2026-03-31T07:04:19Z</time></trkpt><trkpt lat="45.6190719456573" lon="8.25647108011213"><ele>408.3333333333333</ele><time>2026-03-31T07:04:20Z</time></trkpt><trkpt lat="45.61912829983613" lon="8.256536575975296"><ele>408.0</ele><time>2026-03-31T07:04:21Z</time></trkpt><trkpt lat="45.61914791865911" lon="8.25664888477205"><ele>408.0</ele><time>2026-03-31T07:04:22Z</time></trkpt><trkpt lat="45.61915457737351" lon="8.256753207042983"><ele>408.0</ele><time>2026-03-31T07:04:23Z</time></trkpt><trkpt lat="45.61916031651378" lon="8.256846617924518"><ele>408.0</ele><time>2026-03-31T07:04:24Z</time></trkpt><trkpt lat="45.61917447817944" lon="8.256935939342581"><ele>408.0</ele><time>2026-03-31T07:04:25Z</time></trkpt><trkpt lat="45.61922096093992" lon="8.257091614179943"><ele>408.0</ele><time>2026-03-31T07:04:27Z</time></trkpt><trkpt lat="45.619246309489974" lon="8.25724670765821"><ele>408.0</ele><time>2026-03-31T07:04:29Z</time></trkpt><trkpt lat="45.61924511480753" lon="8.25741294270656"><ele>407.2</ele><time>2026-03-31T07:04:31Z</time></trkpt><trkpt lat="45.619245992249006" lon="8.257576282067765"><ele>406.4</ele><time>2026-03-31T07:04:33Z</time></trkpt><trkpt lat="45.619298397766315" lon="8.257688016710212"><ele>405.59999999999997</ele><time>2026-03-31T07:04:35Z</time></trkpt><trkpt lat="45.61937312416193" lon="8.257793247977714"><ele>404.79999999999995</ele><time>2026-03-31T07:04:37Z</time></trkpt><trkpt lat="45.61946450206723" lon="8.257864291326076"><ele>404.0</ele><time>2026-03-31T07:04:39Z</time></trkpt><trkpt lat="45.61964182598927" lon="8.257902611172597"><ele>403.2857142857143</ele><time>2026-03-31T07:04:42Z</time></trkpt><trkpt lat="45.619707761637024" lon="8.257903322361528"><ele>402.57142857142856</ele><time>2026-03-31T07:04:43Z</time></trkpt><trkpt lat="45.61977314528389" lon="8.257913558994007"><ele>401.8571428571429</ele><time>2026-03-31T07:04:44Z</time></trkpt><trkpt lat="45.619832916886914" lon="8.257942019444629"><ele>401.1428571428571</ele><time>2026-03-31T07:04:45Z</time></trkpt><trkpt lat="45.619884551882244" lon="8.258000338381075"><ele>400.42857142857144</ele><time>2026-03-31T07:04:46Z</time></trkpt><trkpt lat="45.61999322832476" lon="8.258080653589179"><ele>399.7142857142857</ele><time>2026-03-31T07:04:48Z</time></trkpt><trkpt lat="45.62005522771017" lon="8.258114344198065"><ele>399.0</ele><time>2026-03-31T07:04:49Z</time></trkpt><trkpt lat="45.62011892178908" lon="8.258147745851467"><ele>398.6666666666667</ele><time>2026-03-31T07:04:50Z</time></trkpt><trkpt lat="45.62018192381545" lon="8.258178070794635"><ele>398.33333333333337</ele><time>2026-03-31T07:04:51Z</time></trkpt><trkpt lat="45.62024514870523" lon="8.25820937338724"><ele>398.0</ele><time>2026-03-31T07:04:52Z</time></trkpt><trkpt lat="45.62031923360121" lon="8.258237281325751"><ele>397.6666666666667</ele><time>2026-03-31T07:04:53Z</time></trkpt><trkpt lat="45.62040493677697" lon="8.258278315488095"><ele>397.33333333333337</ele><time>2026-03-31T07:04:54Z</time></trkpt><trkpt lat="45.620490265200495" lon="8.25833956169692"><ele>397.0</ele><time>2026-03-31T07:04:55Z</time></trkpt><trkpt lat="45.620562720979024" lon="8.25840578382272"><ele>398.20000000000005</ele><time>2026-03-31T07:04:56Z</time></trkpt><trkpt lat="45.620626306069795" lon="8.258461006219179"><ele>399.4</ele><time>2026-03-31T07:04:57Z</time></trkpt><trkpt lat="45.62073345383798" lon="8.25852013433186"><ele>400.6</ele><time>2026-03-31T07:04:59Z</time></trkpt><trkpt lat="45.62080068109117" lon="8.258593407747112"><ele>401.79999999999995</ele><time>2026-03-31T07:05:00Z</time></trkpt><trkpt lat="45.620864874728674" lon="8.258691521053734"><ele>403.0</ele><time>2026-03-31T07:05:01Z</time></trkpt><trkpt lat="45.62093025995631" lon="8.258777790236678"><ele>403.00000000000006</ele><time>2026-03-31T07:05:02Z</time></trkpt><trkpt lat="45.62100398336057" lon="8.25886543828925"><ele>403.0</ele><time>2026-03-31T07:05:03Z</time></trkpt><trkpt lat="45.6210771512936" lon="8.258872327896627"><ele>403.0</ele><time>2026-03-31T07:05:04Z</time></trkpt><trkpt lat="45.621138919707796" lon="8.258938237704646"><ele>403.0</ele><time>2026-03-31T07:05:05Z</time></trkpt><trkpt lat="45.62118595495794" lon="8.259067194096353"><ele>403.00000000000006</ele><time>2026-03-31T07:05:06Z</time></trkpt><trkpt lat="45.62123399709018" lon="8.259182339983116"><ele>403.0</ele><time>2026-03-31T07:05:07Z</time></trkpt><trkpt lat="45.621286972249145" lon="8.25927085552311"><ele>404.59999999999997</ele><time>2026-03-31T07:05:08Z</time></trkpt><trkpt lat="45.62132827197157" lon="8.259360568389845"><ele>406.2</ele><time>2026-03-31T07:05:09Z</time></trkpt><trkpt lat="45.62135765260543" lon="8.259450785197847"><ele>407.8</ele><time>2026-03-31T07:05:09.999Z</time></trkpt><trkpt lat="45.621403709124685" lon="8.259594565542054"><ele>409.4</ele><time>2026-03-31T07:05:11.999Z</time></trkpt><trkpt lat="45.621445326066556" lon="8.259726109305205"><ele>411.0</ele><time>2026-03-31T07:05:13.999Z</time></trkpt><trkpt lat="45.62150032172655" lon="8.259855207526941"><ele>411.6666666666667</ele><time>2026-03-31T07:05:15.999Z</time></trkpt><trkpt lat="45.621550813620914" lon="8.260028848403273"><ele>412.33333333333337</ele><time>2026-03-31T07:05:17.999Z</time></trkpt><trkpt lat="45.62155367338986" lon="8.260144288305346"><ele>413.0</ele><time>2026-03-31T07:05:18.999Z</time></trkpt><trkpt lat="45.621529145445884" lon="8.260251670130469"><ele>413.6666666666667</ele><time>2026-03-31T07:05:19.999Z</time></trkpt><trkpt lat="45.62148652765413" lon="8.260345614065669"><ele>414.33333333333337</ele><time>2026-03-31T07:05:20.999Z</time></trkpt><trkpt lat="45.62145361937284" lon="8.260440545823268"><ele>415.0</ele><time>2026-03-31T07:05:21.999Z</time></trkpt><trkpt lat="45.62145079146368" lon="8.260542238455827"><ele>415.83333333333337</ele><time>2026-03-31T07:05:22.999Z</time></trkpt><trkpt lat="45.621463083667756" lon="8.26065078407254"><ele>416.6666666666667</ele><time>2026-03-31T07:05:23.999Z</time></trkpt><trkpt lat="45.62145533652443" lon="8.260750343821078"><ele>417.5</ele><time>2026-03-31T07:05:24.999Z</time></trkpt><trkpt lat="45.62146222021662" lon="8.26091095349019"><ele>418.33333333333337</ele><time>2026-03-31T07:05:26.999Z</time></trkpt><trkpt lat="45.62151328443953" lon="8.260986573069172"><ele>419.1666666666667</ele><time>2026-03-31T07:05:27.999Z</time></trkpt><trkpt lat="45.62158696580756" lon="8.261046937822336"><ele>420.0</ele><time>2026-03-31T07:05:28.999Z</time></trkpt><trkpt lat="45.621649806180805" lon="8.261089135139951"><ele>420.0</ele><time>2026-03-31T07:05:29.999Z</time></trkpt><trkpt lat="45.62174734608447" lon="8.261115875332582"><ele>420.0</ele><time>2026-03-31T07:05:31.999Z</time></trkpt><trkpt lat="45.62185658992008" lon="8.261090926320689"><ele>420.0</ele><time>2026-03-31T07:05:33.999Z</time></trkpt><trkpt lat="45.621940131440546" lon="8.261144071271163"><ele>420.0</ele><time>2026-03-31T07:05:36.999Z</time></trkpt><trkpt lat="45.62211897033047" lon="8.261231668467907"><ele>417.6</ele><time>2026-03-31T07:05:38.999Z</time></trkpt><trkpt lat="45.622185090220206" lon="8.261241944406613"><ele>415.2</ele><time>2026-03-31T07:05:39.999Z</time></trkpt><trkpt lat="45.622311935102246" lon="8.26127129605805"><ele>412.79999999999995</ele><time>2026-03-31T07:05:42Z</time></trkpt><trkpt lat="45.6223805664419" lon="8.261314289810242"><ele>410.4</ele><time>2026-03-31T07:05:43Z</time></trkpt><trkpt lat="45.62245094503416" lon="8.261364012476173"><ele>408.0</ele><time>2026-03-31T07:05:44Z</time></trkpt><trkpt lat="45.622554904368485" lon="8.261340621864445"><ele>408.0</ele><time>2026-03-31T07:05:46Z</time></trkpt><trkpt lat="45.622618812803985" lon="8.261333359516925"><ele>408.0</ele><time>2026-03-31T07:05:47Z</time></trkpt><trkpt lat="45.622685490637046" lon="8.261338627496857"><ele>408.0</ele><time>2026-03-31T07:05:48Z</time></trkpt><trkpt lat="45.62280559797653" lon="8.261338652974386"><ele>408.0</ele><time>2026-03-31T07:05:50Z</time></trkpt><trkpt lat="45.62292469287813" lon="8.261372012548373"><ele>408.0</ele><time>2026-03-31T07:05:52Z</time></trkpt><trkpt lat="45.62297718799221" lon="8.261422831025847"><ele>408.0</ele><time>2026-03-31T07:05:53Z</time></trkpt><trkpt lat="45.623044716378175" lon="8.261428848235193"><ele>407.42857142857144</ele><time>2026-03-31T07:05:54Z</time></trkpt><trkpt lat="45.6231110308533" lon="8.261423038757282"><ele>406.8571428571429</ele><time>2026-03-31T07:05:55Z</time></trkpt><trkpt lat="45.62318253154658" lon="8.26139852776524"><ele>406.2857142857143</ele><time>2026-03-31T07:05:56Z</time></trkpt><trkpt lat="45.623258252804106" lon="8.261386131637657"><ele>405.7142857142857</ele><time>2026-03-31T07:05:57Z</time></trkpt><trkpt lat="45.62333123431409" lon="8.26139925995589"><ele>405.1428571428571</ele><time>2026-03-31T07:05:58Z</time></trkpt><trkpt lat="45.62340431051813" lon="8.26141348833916"><ele>404.57142857142856</ele><time>2026-03-31T07:05:59Z</time></trkpt><trkpt lat="45.62348603559598" lon="8.26143646914346"><ele>404.0</ele><time>2026-03-31T07:06:00Z</time></trkpt><trkpt lat="45.62359991942794" lon="8.261392692594534"><ele>405.2</ele><time>2026-03-31T07:06:02Z</time></trkpt><trkpt lat="45.62370558919784" lon="8.261448352360526"><ele>406.4</ele><time>2026-03-31T07:06:04Z</time></trkpt><trkpt lat="45.62380934860794" lon="8.261406586786155"><ele>407.6</ele><time>2026-03-31T07:06:06Z</time></trkpt><trkpt lat="45.62391132668005" lon="8.261351664124271"><ele>408.8</ele><time>2026-03-31T07:06:08Z</time></trkpt><trkpt lat="45.62397981403663" lon="8.261335491069902"><ele>410.0</ele><time>2026-03-31T07:06:09Z</time></trkpt><trkpt lat="45.624049479962" lon="8.261323401812634"><ele>409.99999999999994</ele><time>2026-03-31T07:06:10Z</time></trkpt><trkpt lat="45.62411370696714" lon="8.261323774830883"><ele>410.0</ele><time>2026-03-31T07:06:11Z</time></trkpt><trkpt lat="45.624234382331345" lon="8.261331086318272"><ele>410.0</ele><time>2026-03-31T07:06:13Z</time></trkpt><trkpt lat="45.62429765159527" lon="8.26132439143635"><ele>410.0</ele><time>2026-03-31T07:06:14Z</time></trkpt><trkpt lat="45.624366657759644" lon="8.261299853270682"><ele>409.99999999999994</ele><time>2026-03-31T07:06:15Z</time></trkpt><trkpt lat="45.62443445332508" lon="8.261277354238738"><ele>410.0</ele><time>2026-03-31T07:06:16Z</time></trkpt><trkpt lat="45.62451131186738" lon="8.261216466825315"><ele>411.16666666666663</ele><time>2026-03-31T07:06:17Z</time></trkpt><trkpt lat="45.62459385502208" lon="8.261139463646426"><ele>412.3333333333333</ele><time>2026-03-31T07:06:18Z</time></trkpt><trkpt lat="45.62466455860361" lon="8.261049044700895"><ele>413.5</ele><time>2026-03-31T07:06:19Z</time></trkpt><trkpt lat="45.62472182852685" lon="8.260951262370043"><ele>414.66666666666663</ele><time>2026-03-31T07:06:20Z</time></trkpt><trkpt lat="45.62477677944567" lon="8.260873832430274"><ele>415.8333333333333</ele><time>2026-03-31T07:06:21Z</time></trkpt><trkpt lat="45.62483335046779" lon="8.260824129841309"><ele>417.0</ele><time>2026-03-31T07:06:22Z</time></trkpt><trkpt lat="45.62476676832823" lon="8.260705842108754"><ele>417.0</ele><time>2026-03-31T07:06:26Z</time></trkpt><trkpt lat="45.624686537583045" lon="8.260626767280888"><ele>417.0</ele><time>2026-03-31T07:06:28Z</time></trkpt><trkpt lat="45.624701120392984" lon="8.260480919971327"><ele>417.0</ele><time>2026-03-31T07:06:30Z</time></trkpt><trkpt lat="45.62474530660285" lon="8.260352166550636"><ele>417.0</ele><time>2026-03-31T07:06:32Z</time></trkpt><trkpt lat="45.624705693223014" lon="8.260253461996053"><ele>417.0</ele><time>2026-03-31T07:06:34Z</time></trkpt><trkpt lat="45.624723715141855" lon="8.260131028672605"><ele>415.1666666666667</ele><time>2026-03-31T07:06:38Z</time></trkpt><trkpt lat="45.62473054442099" lon="8.259987550203519"><ele>413.33333333333337</ele><time>2026-03-31T07:06:40Z</time></trkpt><trkpt lat="45.624723407597195" lon="8.259877764657944"><ele>411.5</ele><time>2026-03-31T07:06:42Z</time></trkpt><trkpt lat="45.62470145862445" lon="8.259732758413424"><ele>409.6666666666667</ele><time>2026-03-31T07:06:43Z</time></trkpt><trkpt lat="45.62465885526441" lon="8.259643262124742"><ele>407.83333333333337</ele><time>2026-03-31T07:06:46Z</time></trkpt><trkpt lat="45.62464893034072" lon="8.2595377061547"><ele>406.0</ele><time>2026-03-31T07:06:48Z</time></trkpt><trkpt lat="45.624636039233046" lon="8.25943591647208"><ele>403.4</ele><time>2026-03-31T07:06:49Z</time></trkpt><trkpt lat="45.624575998490926" lon="8.25933772891012"><ele>400.8</ele><time>2026-03-31T07:06:51Z</time></trkpt><trkpt lat="45.62447606803334" lon="8.259267119087182"><ele>398.2</ele><time>2026-03-31T07:06:53Z</time></trkpt><trkpt lat="45.6244069246453" lon="8.259145304033524"><ele>395.59999999999997</ele><time>2026-03-31T07:06:55Z</time></trkpt><trkpt lat="45.62434685355775" lon="8.25900811819312"><ele>393.0</ele><time>2026-03-31T07:06:57Z</time></trkpt><trkpt lat="45.62434162961763" lon="8.258844072585248"><ele>391.79999999999995</ele><time>2026-03-31T07:06:59Z</time></trkpt><trkpt lat="45.62433610230157" lon="8.258686814292574"><ele>390.6</ele><time>2026-03-31T07:07:01Z</time></trkpt><trkpt lat="45.624482315401785" lon="8.258570015330008"><ele>389.4</ele><time>2026-03-31T07:07:03Z</time></trkpt><trkpt lat="45.62445095881741" lon="8.258476038650114"><ele>388.20000000000005</ele><time>2026-03-31T07:07:05Z</time></trkpt><trkpt lat="45.62444466452388" lon="8.258361220738017"><ele>387.0</ele><time>2026-03-31T07:07:06Z</time></trkpt><trkpt lat="45.62441858559801" lon="8.258230671354848"><ele>387.0</ele><time>2026-03-31T07:07:08Z</time></trkpt><trkpt lat="45.62440641450542" lon="8.258098008397294"><ele>387.0</ele><time>2026-03-31T07:07:10Z</time></trkpt><trkpt lat="45.624419075256256" lon="8.257932600929392"><ele>387.0</ele><time>2026-03-31T07:07:11Z</time></trkpt><trkpt lat="45.62438043826247" lon="8.257811174102713"><ele>387.0</ele><time>2026-03-31T07:07:12Z</time></trkpt><trkpt lat="45.6242558853573" lon="8.257669981310459"><ele>387.0</ele><time>2026-03-31T07:07:13.999Z</time></trkpt><trkpt lat="45.62423619903958" lon="8.257555265915883"><ele>387.0</ele><time>2026-03-31T07:07:14.999Z</time></trkpt><trkpt lat="45.62426578320493" lon="8.257467672103065"><ele>387.0</ele><time>2026-03-31T07:07:15.999Z</time></trkpt><trkpt lat="45.62429531673575" lon="8.257388095633155"><ele>387.0</ele><time>2026-03-31T07:07:16.999Z</time></trkpt><trkpt lat="45.624348663827796" lon="8.257322668705351"><ele>387.0</ele><time>2026-03-31T07:07:17.999Z</time></trkpt><trkpt lat="45.62440631107472" lon="8.257284205983568"><ele>387.0</ele><time>2026-03-31T07:07:18.999Z</time></trkpt><trkpt lat="45.62446946421231" lon="8.257271592009062"><ele>387.0</ele><time>2026-03-31T07:07:19.999Z</time></trkpt><trkpt lat="45.62455605009387" lon="8.257260560838192"><ele>383.40000000000003</ele><time>2026-03-31T07:07:22.999Z</time></trkpt><trkpt lat="45.62464672908886" lon="8.257175934594404"><ele>379.8</ele><time>2026-03-31T07:07:24.999Z</time></trkpt><trkpt lat="45.624645732491366" lon="8.257072519479305"><ele>376.2</ele><time>2026-03-31T07:07:26.999Z</time></trkpt><trkpt lat="45.62464473248034" lon="8.256904727510113"><ele>372.6</ele><time>2026-03-31T07:07:28.999Z</time></trkpt><trkpt lat="45.62465126315591" lon="8.25679622135294"><ele>369.0</ele><time>2026-03-31T07:07:30.999Z</time></trkpt><trkpt lat="45.624718379937654" lon="8.256688520819457"><ele>369.0</ele><time>2026-03-31T07:07:33.999Z</time></trkpt><trkpt lat="45.62477864599243" lon="8.256617557030701"><ele>369.0</ele><time>2026-03-31T07:07:35.999Z</time></trkpt><trkpt lat="45.6248461631058" lon="8.25659350424897"><ele>369.0</ele><time>2026-03-31T07:07:39.999Z</time></trkpt><trkpt lat="45.624895334817914" lon="8.256524814352758"><ele>369.0</ele><time>2026-03-31T07:07:42.999Z</time></trkpt><trkpt lat="45.62497766800572" lon="8.256529147816778"><ele>369.0</ele><time>2026-03-31T07:07:44.999Z</time></trkpt><trkpt lat="45.62503967790935" lon="8.25648261535538"><ele>369.0</ele><time>2026-03-31T07:07:47Z</time></trkpt><trkpt lat="45.625129576221966" lon="8.256454249438395"><ele>369.5</ele><time>2026-03-31T07:07:49Z</time></trkpt><trkpt lat="45.6251706840622" lon="8.256384483493804"><ele>370.0</ele><time>2026-03-31T07:07:52Z</time></trkpt><trkpt lat="45.62524741808635" lon="8.25638517647728"><ele>370.5</ele><time>2026-03-31T07:07:54Z</time></trkpt><trkpt lat="45.62531875972312" lon="8.25636609332186"><ele>371.0</ele><time>2026-03-31T07:07:56Z</time></trkpt><trkpt lat="45.625340280381344" lon="8.2562574121215"><ele>371.5</ele><time>2026-03-31T07:07:59Z</time></trkpt><trkpt lat="45.625394365599945" lon="8.256203753928977"><ele>372.0</ele><time>2026-03-31T07:08:01Z</time></trkpt><trkpt lat="45.625438587247025" lon="8.256088525343797"><ele>370.8333333333333</ele><time>2026-03-31T07:08:03Z</time></trkpt><trkpt lat="45.62553134387196" lon="8.256003953569053"><ele>369.6666666666667</ele><time>2026-03-31T07:08:06Z</time></trkpt><trkpt lat="45.625583163436154" lon="8.255906839129484"><ele>368.5</ele><time>2026-03-31T07:08:08Z</time></trkpt><trkpt lat="45.62560832927493" lon="8.25580424389144"><ele>367.33333333333337</ele><time>2026-03-31T07:08:09Z</time></trkpt><trkpt lat="45.62562524400376" lon="8.255710296687553"><ele>366.1666666666667</ele><time>2026-03-31T07:08:10Z</time></trkpt><trkpt lat="45.62566920005248" lon="8.255601672209767"><ele>365.0</ele><time>2026-03-31T07:08:11Z</time></trkpt><trkpt lat="45.62567710652882" lon="8.255504067638464"><ele>363.0</ele><time>2026-03-31T07:08:13Z</time></trkpt><trkpt lat="45.625690804565416" lon="8.25537558975814"><ele>361.0</ele><time>2026-03-31T07:08:15Z</time></trkpt><trkpt lat="45.62568872716372" lon="8.255250149676165"><ele>359.0</ele><time>2026-03-31T07:08:17Z</time></trkpt><trkpt lat="45.62566919424163" lon="8.255117831045064"><ele>357.0</ele><time>2026-03-31T07:08:19Z</time></trkpt><trkpt lat="45.625690828846025" lon="8.255010497402676"><ele>355.0</ele><time>2026-03-31T07:08:21Z</time></trkpt><trkpt lat="45.62573807606444" lon="8.254872335318426"><ele>355.0</ele><time>2026-03-31T07:08:23Z</time></trkpt><trkpt lat="45.62576971184753" lon="8.254741761686029"><ele>355.0</ele><time>2026-03-31T07:08:25Z</time></trkpt><trkpt lat="45.62577382476687" lon="8.254832994879301"><ele>355.0</ele><time>2026-03-31T07:08:26Z</time></trkpt><trkpt lat="45.62584186990238" lon="8.254788627937257"><ele>355.0</ele><time>2026-03-31T07:08:30Z</time></trkpt><trkpt lat="45.62586794309367" lon="8.254675929270434"><ele>355.0</ele><time>2026-03-31T07:08:32Z</time></trkpt><trkpt lat="45.625894650642806" lon="8.254558032996174"><ele>355.0</ele><time>2026-03-31T07:08:34Z</time></trkpt><trkpt lat="45.625866567240195" lon="8.254463282408661"><ele>354.8</ele><time>2026-03-31T07:08:36Z</time></trkpt><trkpt lat="45.625863227437364" lon="8.25429354804967"><ele>354.6</ele><time>2026-03-31T07:08:37Z</time></trkpt><trkpt lat="45.62582120453634" lon="8.254100633872781"><ele>354.4</ele><time>2026-03-31T07:08:39Z</time></trkpt><trkpt lat="45.62580617997842" lon="8.253988312105179"><ele>354.2</ele><time>2026-03-31T07:08:40Z</time></trkpt><trkpt lat="45.62579110070413" lon="8.25389206603596"><ele>354.0</ele><time>2026-03-31T07:08:41Z</time></trkpt><trkpt lat="45.62578382508824" lon="8.253797278167882"><ele>353.6666666666667</ele><time>2026-03-31T07:08:42Z</time></trkpt><trkpt lat="45.62577589717815" lon="8.25369187129566"><ele>353.3333333333333</ele><time>2026-03-31T07:08:43Z</time></trkpt><trkpt lat="45.62576264110139" lon="8.253578661334972"><ele>353.0</ele><time>2026-03-31T07:08:44Z</time></trkpt><trkpt lat="45.62574377101805" lon="8.253482343589681"><ele>352.66666666666663</ele><time>2026-03-31T07:08:45Z</time></trkpt><trkpt lat="45.62572525020756" lon="8.253386918071048"><ele>352.3333333333333</ele><time>2026-03-31T07:08:46Z</time></trkpt><trkpt lat="45.62573777605865" lon="8.253235864293718"><ele>352.0</ele><time>2026-03-31T07:08:48Z</time></trkpt><trkpt lat="45.6257951140099" lon="8.25309599672892"><ele>352.0</ele><time>2026-03-31T07:08:50Z</time></trkpt><trkpt lat="45.62583087853698" lon="8.25301678917431"><ele>352.0</ele><time>2026-03-31T07:08:51Z</time></trkpt><trkpt lat="45.62587136027344" lon="8.252947268973768"><ele>352.0</ele><time>2026-03-31T07:08:52Z</time></trkpt><trkpt lat="45.62591870925832" lon="8.252877335505785"><ele>352.0</ele><time>2026-03-31T07:08:53Z</time></trkpt><trkpt lat="45.62596675628094" lon="8.25279981421512"><ele>352.0</ele><time>2026-03-31T07:08:54Z</time></trkpt><trkpt lat="45.6260204732167" lon="8.252720339386958"><ele>352.0</ele><time>2026-03-31T07:08:55Z</time></trkpt><trkpt lat="45.62612193559735" lon="8.25267784226886"><ele>352.5</ele><time>2026-03-31T07:08:57Z</time></trkpt><trkpt lat="45.62623258090364" lon="8.252706285715616"><ele>353.0</ele><time>2026-03-31T07:08:58Z</time></trkpt><trkpt lat="45.626283095269464" lon="8.252651794808331"><ele>353.5</ele><time>2026-03-31T07:08:59Z</time></trkpt><trkpt lat="45.626335079306955" lon="8.252524298005861"><ele>354.0</ele><time>2026-03-31T07:09:00Z</time></trkpt><trkpt lat="45.62637695815773" lon="8.25244881475228"><ele>354.5</ele><time>2026-03-31T07:09:01Z</time></trkpt><trkpt lat="45.62637754210151" lon="8.25235045442371"><ele>355.0</ele><time>2026-03-31T07:09:03Z</time></trkpt><trkpt lat="45.626391544024216" lon="8.252225799233022"><ele>356.5</ele><time>2026-03-31T07:09:05Z</time></trkpt><trkpt lat="45.62633482168933" lon="8.252133451246047"><ele>358.0</ele><time>2026-03-31T07:09:07Z</time></trkpt><trkpt lat="45.6263397784704" lon="8.252042046244803"><ele>359.5</ele><time>2026-03-31T07:09:12Z</time></trkpt><trkpt lat="45.62634254546493" lon="8.251945458929255"><ele>361.0</ele><time>2026-03-31T07:09:20Z</time></trkpt><trkpt lat="45.62642504777935" lon="8.251954030097945"><ele>362.5</ele><time>2026-03-31T07:09:31.999Z</time></trkpt><trkpt lat="45.626486953032085" lon="8.25202848000586"><ele>364.0</ele><time>2026-03-31T07:09:33.999Z</time></trkpt><trkpt lat="45.626552620510246" lon="8.252064047961454"><ele>364.0</ele><time>2026-03-31T07:09:36.999Z</time></trkpt><trkpt lat="45.6266563776928" lon="8.252082017433048"><ele>364.0</ele><time>2026-03-31T07:09:38.999Z</time></trkpt><trkpt lat="45.626744867798976" lon="8.252077614063381"><ele>364.0</ele><time>2026-03-31T07:09:40.999Z</time></trkpt><trkpt lat="45.62683170140754" lon="8.252077971010918"><ele>364.0</ele><time>2026-03-31T07:09:42.999Z</time></trkpt><trkpt lat="45.62690896226289" lon="8.252087537920925"><ele>364.0</ele><time>2026-03-31T07:09:44.999Z</time></trkpt><trkpt lat="45.6269847626472" lon="8.252114344969943"><ele>364.0</ele><time>2026-03-31T07:09:46.999Z</time></trkpt><trkpt lat="45.62706102385718" lon="8.252166691355123"><ele>364.8333333333333</ele><time>2026-03-31T07:09:48.999Z</time></trkpt><trkpt lat="45.62713959315464" lon="8.252213931836737"><ele>365.66666666666663</ele><time>2026-03-31T07:09:50.999Z</time></trkpt><trkpt lat="45.627216172734215" lon="8.252238830548825"><ele>366.5</ele><time>2026-03-31T07:09:53Z</time></trkpt><trkpt lat="45.62729167935494" lon="8.252274284960242"><ele>367.3333333333333</ele><time>2026-03-31T07:09:55Z</time></trkpt><trkpt lat="45.62735408552678" lon="8.25228704204718"><ele>368.1666666666667</ele><time>2026-03-31T07:09:57Z</time></trkpt><trkpt lat="45.62747278212865" lon="8.252332150622633"><ele>369.0</ele><time>2026-03-31T07:09:59Z</time></trkpt><trkpt lat="45.62759838374882" lon="8.252393898125153"><ele>367.4</ele><time>2026-03-31T07:10:00Z</time></trkpt><trkpt lat="45.627666036654304" lon="8.25243611765706"><ele>365.79999999999995</ele><time>2026-03-31T07:10:01Z</time></trkpt><trkpt lat="45.62772726011037" lon="8.252491674792736"><ele>364.20000000000005</ele><time>2026-03-31T07:10:02Z</time></trkpt><trkpt lat="45.62780303228238" lon="8.25257243197417"><ele>362.6</ele><time>2026-03-31T07:10:03Z</time></trkpt><trkpt lat="45.627930624969444" lon="8.252684111030934"><ele>361.0</ele><time>2026-03-31T07:10:04Z</time></trkpt><trkpt lat="45.62807207645194" lon="8.252801035933574"><ele>361.0</ele><time>2026-03-31T07:10:05Z</time></trkpt><trkpt lat="45.628179467580715" lon="8.25287936963713"><ele>361.0</ele><time>2026-03-31T07:10:06Z</time></trkpt><trkpt lat="45.62824889898795" lon="8.252996277013585"><ele>361.0</ele><time>2026-03-31T07:10:08Z</time></trkpt><trkpt lat="45.628272556383166" lon="8.25310932191242"><ele>361.0</ele><time>2026-03-31T07:10:09Z</time></trkpt><trkpt lat="45.62826580249365" lon="8.253276339381097"><ele>361.0</ele><time>2026-03-31T07:10:10Z</time></trkpt><trkpt lat="45.62824478374072" lon="8.253445485363192"><ele>361.66666666666663</ele><time>2026-03-31T07:10:11Z</time></trkpt><trkpt lat="45.62822230763878" lon="8.253680308930596"><ele>362.3333333333333</ele><time>2026-03-31T07:10:12Z</time></trkpt><trkpt lat="45.62822797431518" lon="8.25393450679318"><ele>363.0</ele><time>2026-03-31T07:10:13Z</time></trkpt><trkpt lat="45.62823679443765" lon="8.254098293317691"><ele>364.59999999999997</ele><time>2026-03-31T07:10:14Z</time></trkpt><trkpt lat="45.62823357687517" lon="8.254234963180926"><ele>366.2</ele><time>2026-03-31T07:10:15Z</time></trkpt><trkpt lat="45.628247618890995" lon="8.254366312645374"><ele>367.8</ele><time>2026-03-31T07:10:16Z</time></trkpt><trkpt lat="45.628284245028006" lon="8.254454279829764"><ele>369.4</ele><time>2026-03-31T07:10:19Z</time></trkpt><trkpt lat="45.62837893520444" lon="8.254536069813343"><ele>371.0</ele><time>2026-03-31T07:10:20Z</time></trkpt><trkpt lat="45.62844053051199" lon="8.254654892648519"><ele>371.0</ele><time>2026-03-31T07:10:21Z</time></trkpt><trkpt lat="45.628549739348934" lon="8.254765647900467"><ele>371.0</ele><time>2026-03-31T07:10:22Z</time></trkpt><trkpt lat="45.62871471677728" lon="8.254821961447648"><ele>371.0</ele><time>2026-03-31T07:10:23Z</time></trkpt><trkpt lat="45.62886577818746" lon="8.254895232553796"><ele>371.0</ele><time>2026-03-31T07:10:24Z</time></trkpt><trkpt lat="45.628961406399405" lon="8.254941864902852"><ele>371.0</ele><time>2026-03-31T07:10:25Z</time></trkpt><trkpt lat="45.629046608260914" lon="8.254988032572275"><ele>371.0</ele><time>2026-03-31T07:10:26Z</time></trkpt><trkpt lat="45.629128943913706" lon="8.255002155154072"><ele>371.0</ele><time>2026-03-31T07:10:29Z</time></trkpt><trkpt lat="45.629242341635575" lon="8.255047332509903"><ele>371.0</ele><time>2026-03-31T07:10:31Z</time></trkpt><trkpt lat="45.62924422310395" lon="8.255260050326273"><ele>371.0</ele><time>2026-03-31T07:10:44Z</time></trkpt><trkpt lat="45.629276371402725" lon="8.255366813001011"><ele>371.0</ele><time>2026-03-31T07:10:45Z</time></trkpt><trkpt lat="45.62932855586613" lon="8.255488744061132"><ele>371.0</ele><time>2026-03-31T07:10:46Z</time></trkpt><trkpt lat="45.62941527153129" lon="8.255602854449924"><ele>371.0</ele><time>2026-03-31T07:10:47Z</time></trkpt><trkpt lat="45.62948953632799" lon="8.255705511819228"><ele>371.0</ele><time>2026-03-31T07:10:48Z</time></trkpt><trkpt lat="45.62954086078327" lon="8.255801707216174"><ele>371.5</ele><time>2026-03-31T07:10:49Z</time></trkpt><trkpt lat="45.629559095717504" lon="8.255901035181747"><ele>372.0</ele><time>2026-03-31T07:10:50Z</time></trkpt><trkpt lat="45.6295759311155" lon="8.25600754910178"><ele>372.5</ele><time>2026-03-31T07:10:51Z</time></trkpt><trkpt lat="45.62958365888506" lon="8.256122172303346"><ele>373.0</ele><time>2026-03-31T07:10:52Z</time></trkpt><trkpt lat="45.629570783385994" lon="8.256232514123798"><ele>373.5</ele><time>2026-03-31T07:10:53Z</time></trkpt><trkpt lat="45.62953585956396" lon="8.256332820507545"><ele>374.0</ele><time>2026-03-31T07:10:54Z</time></trkpt><trkpt lat="45.62948399912174" lon="8.256441675043613"><ele>374.5</ele><time>2026-03-31T07:10:55Z</time></trkpt><trkpt lat="45.629424381127954" lon="8.256554063679028"><ele>375.0</ele><time>2026-03-31T07:10:56Z</time></trkpt><trkpt lat="45.629388255937485" lon="8.256654596981958"><ele>375.5</ele><time>2026-03-31T07:10:57Z</time></trkpt><trkpt lat="45.629355274052784" lon="8.256766792399802"><ele>376.0</ele><time>2026-03-31T07:10:58Z</time></trkpt><trkpt lat="45.629309881037706" lon="8.256874575579898"><ele>376.5</ele><time>2026-03-31T07:10:59Z</time></trkpt><trkpt lat="45.6292408912215" lon="8.256967338312712"><ele>377.0</ele><time>2026-03-31T07:11:00Z</time></trkpt><trkpt lat="45.62916428887276" lon="8.257048720329454"><ele>377.0</ele><time>2026-03-31T07:11:01Z</time></trkpt><trkpt lat="45.62908996052729" lon="8.257125056389526"><ele>377.0</ele><time>2026-03-31T07:11:02Z</time></trkpt><trkpt lat="45.629029241504014" lon="8.257201442923368"><ele>377.0</ele><time>2026-03-31T07:11:03Z</time></trkpt><trkpt lat="45.62898949715284" lon="8.257302783565361"><ele>377.0</ele><time>2026-03-31T07:11:04Z</time></trkpt><trkpt lat="45.6289798394955" lon="8.257430595225083"><ele>377.0</ele><time>2026-03-31T07:11:05Z</time></trkpt><trkpt lat="45.62898838029408" lon="8.257563280600783"><ele>377.0</ele><time>2026-03-31T07:11:06Z</time></trkpt><trkpt lat="45.62899198930636" lon="8.257683130864605"><ele>376.20000000000005</ele><time>2026-03-31T07:11:07Z</time></trkpt><trkpt lat="45.62894519734517" lon="8.257787090461168"><ele>375.4</ele><time>2026-03-31T07:11:08Z</time></trkpt><trkpt lat="45.62887275435402" lon="8.257877083041077"><ele>374.6</ele><time>2026-03-31T07:11:09Z</time></trkpt><trkpt lat="45.62879573460686" lon="8.257949696619187"><ele>373.79999999999995</ele><time>2026-03-31T07:11:10Z</time></trkpt><trkpt lat="45.628719102748285" lon="8.258019360734789"><ele>373.0</ele><time>2026-03-31T07:11:11Z</time></trkpt><trkpt lat="45.62865279777062" lon="8.25809641105197"><ele>371.3333333333333</ele><time>2026-03-31T07:11:12Z</time></trkpt><trkpt lat="45.62860378254216" lon="8.258191477319821"><ele>369.66666666666663</ele><time>2026-03-31T07:11:13Z</time></trkpt><trkpt lat="45.62859446992744" lon="8.258298474025496"><ele>368.0</ele><time>2026-03-31T07:11:14Z</time></trkpt><trkpt lat="45.62862908649276" lon="8.258396924440946"><ele>366.3333333333333</ele><time>2026-03-31T07:11:15Z</time></trkpt><trkpt lat="45.62868641700439" lon="8.258459148511495"><ele>364.6666666666667</ele><time>2026-03-31T07:11:16Z</time></trkpt><trkpt lat="45.628757438768474" lon="8.25849108786198"><ele>363.0</ele><time>2026-03-31T07:11:17Z</time></trkpt><trkpt lat="45.628840596845215" lon="8.25850686458148"><ele>363.0</ele><time>2026-03-31T07:11:18Z</time></trkpt><trkpt lat="45.62891430711696" lon="8.25854215926217"><ele>363.0</ele><time>2026-03-31T07:11:19Z</time></trkpt><trkpt lat="45.62896911617039" lon="8.258616639891454"><ele>363.0</ele><time>2026-03-31T07:11:20Z</time></trkpt><trkpt lat="45.62899974811411" lon="8.258732121559216"><ele>363.0</ele><time>2026-03-31T07:11:21Z</time></trkpt><trkpt lat="45.62901683384289" lon="8.258857864228485"><ele>363.0</ele><time>2026-03-31T07:11:22Z</time></trkpt><trkpt lat="45.62902934202396" lon="8.258983597968907"><ele>363.0</ele><time>2026-03-31T07:11:23Z</time></trkpt><trkpt lat="45.62903851167835" lon="8.25911055843169"><ele>362.3333333333333</ele><time>2026-03-31T07:11:24Z</time></trkpt><trkpt lat="45.62904199686263" lon="8.259237061906239"><ele>361.6666666666667</ele><time>2026-03-31T07:11:25Z</time></trkpt><trkpt lat="45.629030761506066" lon="8.259360700986749"><ele>361.0</ele><time>2026-03-31T07:11:26Z</time></trkpt><trkpt lat="45.62898997852258" lon="8.259469006727183"><ele>360.33333333333337</ele><time>2026-03-31T07:11:27Z</time></trkpt><trkpt lat="45.628929740931405" lon="8.259556783181372"><ele>359.6666666666667</ele><time>2026-03-31T07:11:28Z</time></trkpt><trkpt lat="45.62884135036384" lon="8.25959586252975"><ele>359.0</ele><time>2026-03-31T07:11:29Z</time></trkpt><trkpt lat="45.628751169055384" lon="8.259594035180815"><ele>359.0</ele><time>2026-03-31T07:11:30Z</time></trkpt><trkpt lat="45.62866445474961" lon="8.259566228251554"><ele>359.0</ele><time>2026-03-31T07:11:31Z</time></trkpt><trkpt lat="45.62857941652544" lon="8.25954459445567"><ele>359.0</ele><time>2026-03-31T07:11:32Z</time></trkpt><trkpt lat="45.628495339702596" lon="8.25953655598523"><ele>359.0</ele><time>2026-03-31T07:11:33Z</time></trkpt><trkpt lat="45.62840872779747" lon="8.259535849637988"><ele>359.0</ele><time>2026-03-31T07:11:34Z</time></trkpt><trkpt lat="45.6283198549229" lon="8.259534319831605"><ele>359.0</ele><time>2026-03-31T07:11:35Z</time></trkpt><trkpt lat="45.62823283214546" lon="8.259522589385668"><ele>362.5</ele><time>2026-03-31T07:11:36Z</time></trkpt><trkpt lat="45.62814366946841" lon="8.259515589430187"><ele>366.0</ele><time>2026-03-31T07:11:37Z</time></trkpt><trkpt lat="45.62805586776399" lon="8.259536933572003"><ele>369.5</ele><time>2026-03-31T07:11:38Z</time></trkpt><trkpt lat="45.627976202050796" lon="8.259597148204435"><ele>373.0</ele><time>2026-03-31T07:11:39Z</time></trkpt><trkpt lat="45.62790381031824" lon="8.259673681195794"><ele>376.5</ele><time>2026-03-31T07:11:40Z</time></trkpt><trkpt lat="45.62783122856526" lon="8.259735560080744"><ele>380.0</ele><time>2026-03-31T07:11:40.999Z</time></trkpt><trkpt lat="45.62775198030742" lon="8.259779055029776"><ele>380.1666666666667</ele><time>2026-03-31T07:11:41.999Z</time></trkpt><trkpt lat="45.627665777162726" lon="8.259798236456772"><ele>380.33333333333337</ele><time>2026-03-31T07:11:42.999Z</time></trkpt><trkpt lat="45.62757772321884" lon="8.259787080075384"><ele>380.5</ele><time>2026-03-31T07:11:43.999Z</time></trkpt><trkpt lat="45.627492469032575" lon="8.259750808412566"><ele>380.6666666666667</ele><time>2026-03-31T07:11:44.998Z</time></trkpt><trkpt lat="45.627412996196206" lon="8.259709703891541"><ele>380.8333333333333</ele><time>2026-03-31T07:11:45.998Z</time></trkpt><trkpt lat="45.62734655768665" lon="8.259707385435233"><ele>381.0</ele><time>2026-03-31T07:11:46.998Z</time></trkpt><trkpt lat="45.627290258832566" lon="8.259762344775103"><ele>381.0</ele><time>2026-03-31T07:11:47.998Z</time></trkpt><trkpt lat="45.627253082691" lon="8.259851793661298"><ele>381.0</ele><time>2026-03-31T07:11:48.998Z</time></trkpt><trkpt lat="45.62724955105523" lon="8.259954993459875"><ele>381.0</ele><time>2026-03-31T07:11:49.998Z</time></trkpt><trkpt lat="45.62728566436044" lon="8.260063947479134"><ele>381.0</ele><time>2026-03-31T07:11:50.998Z</time></trkpt><trkpt lat="45.62735497859237" lon="8.260169901997372"><ele>381.0</ele><time>2026-03-31T07:11:51.998Z</time></trkpt><trkpt lat="45.62743299269296" lon="8.260264843329946"><ele>381.0</ele><time>2026-03-31T07:11:52.998Z</time></trkpt><trkpt lat="45.62750578491834" lon="8.260348694741584"><ele>381.0</ele><time>2026-03-31T07:11:53.998Z</time></trkpt><trkpt lat="45.62755845227699" lon="8.26045096096984"><ele>381.0</ele><time>2026-03-31T07:11:54.998Z</time></trkpt><trkpt lat="45.627572114478355" lon="8.260588454831971"><ele>381.0</ele><time>2026-03-31T07:11:55.998Z</time></trkpt><trkpt lat="45.62758239291958" lon="8.260725229215662"><ele>381.0</ele><time>2026-03-31T07:11:56.998Z</time></trkpt><trkpt lat="45.62757377468489" lon="8.26086684460777"><ele>381.0</ele><time>2026-03-31T07:11:58Z</time></trkpt><trkpt lat="45.627558176403454" lon="8.261032187810027"><ele>381.75</ele><time>2026-03-31T07:11:59Z</time></trkpt><trkpt lat="45.62755278642083" lon="8.26119683855894"><ele>382.5</ele><time>2026-03-31T07:12:00Z</time></trkpt><trkpt lat="45.6275489559096" lon="8.261362189555628"><ele>383.25</ele><time>2026-03-31T07:12:01Z</time></trkpt><trkpt lat="45.627586228564965" lon="8.261514596815102"><ele>384.0</ele><time>2026-03-31T07:12:02Z</time></trkpt><trkpt lat="45.62769013303155" lon="8.26158395000683"><ele>382.79999999999995</ele><time>2026-03-31T07:12:03Z</time></trkpt><trkpt lat="45.62777978095698" lon="8.261636307935984"><ele>381.59999999999997</ele><time>2026-03-31T07:12:04Z</time></trkpt><trkpt lat="45.62787825556716" lon="8.261696602464994"><ele>380.4</ele><time>2026-03-31T07:12:05Z</time></trkpt><trkpt lat="45.627943122821655" lon="8.261791652386252"><ele>379.2</ele><time>2026-03-31T07:12:06Z</time></trkpt><trkpt lat="45.62798121496254" lon="8.261910567656347"><ele>378.0</ele><time>2026-03-31T07:12:07Z</time></trkpt><trkpt lat="45.6280173745719" lon="8.262022117895032"><ele>378.0</ele><time>2026-03-31T07:12:08Z</time></trkpt><trkpt lat="45.628060395524805" lon="8.262112921830495"><ele>378.0</ele><time>2026-03-31T07:12:09Z</time></trkpt><trkpt lat="45.62811665490102" lon="8.262200812021424"><ele>378.0</ele><time>2026-03-31T07:12:10Z</time></trkpt><trkpt lat="45.62818211613434" lon="8.262289460107146"><ele>378.0</ele><time>2026-03-31T07:12:11Z</time></trkpt><trkpt lat="45.628226272094686" lon="8.262413724127128"><ele>378.0</ele><time>2026-03-31T07:12:12Z</time></trkpt><trkpt lat="45.6282589821231" lon="8.262542392907621"><ele>378.0</ele><time>2026-03-31T07:12:13Z</time></trkpt><trkpt lat="45.62825775919147" lon="8.262682470350162"><ele>378.4</ele><time>2026-03-31T07:12:14Z</time></trkpt><trkpt lat="45.62824859625953" lon="8.262830935578743"><ele>378.79999999999995</ele><time>2026-03-31T07:12:14.999Z</time></trkpt><trkpt lat="45.62823878267496" lon="8.262985155555322"><ele>379.2</ele><time>2026-03-31T07:12:15.999Z</time></trkpt><trkpt lat="45.62822727014053" lon="8.263139312813593"><ele>379.6</ele><time>2026-03-31T07:12:16.999Z</time></trkpt><trkpt lat="45.628215914733794" lon="8.263290481482791"><ele>380.0</ele><time>2026-03-31T07:12:17.999Z</time></trkpt><trkpt lat="45.62820548914998" lon="8.26345111138922"><ele>378.6</ele><time>2026-03-31T07:12:18.999Z</time></trkpt><trkpt lat="45.628198823861545" lon="8.263608172842536"><ele>377.2</ele><time>2026-03-31T07:12:19.999Z</time></trkpt><trkpt lat="45.62819413289349" lon="8.26375649666167"><ele>375.79999999999995</ele><time>2026-03-31T07:12:20.999Z</time></trkpt><trkpt lat="45.62819527283498" lon="8.263918136639973"><ele>374.4</ele><time>2026-03-31T07:12:21.999Z</time></trkpt><trkpt lat="45.62820695313438" lon="8.264091064806523"><ele>373.0</ele><time>2026-03-31T07:12:22.999Z</time></trkpt><trkpt lat="45.62823392826767" lon="8.264273141335826"><ele>370.75</ele><time>2026-03-31T07:12:23.999Z</time></trkpt><trkpt lat="45.62826843587045" lon="8.26445593209295"><ele>368.5</ele><time>2026-03-31T07:12:24.999Z</time></trkpt><trkpt lat="45.62830028179094" lon="8.26463978735135"><ele>366.25</ele><time>2026-03-31T07:12:25.999Z</time></trkpt><trkpt lat="45.62832019665525" lon="8.264832758897649"><ele>364.0</ele><time>2026-03-31T07:12:26.999Z</time></trkpt><trkpt lat="45.62832961795093" lon="8.265030062445877"><ele>362.0</ele><time>2026-03-31T07:12:27.999Z</time></trkpt><trkpt lat="45.628337801563184" lon="8.26521737478418"><ele>360.0</ele><time>2026-03-31T07:12:28.999Z</time></trkpt><trkpt lat="45.62835347566944" lon="8.265389818738791"><ele>358.0</ele><time>2026-03-31T07:12:29.999Z</time></trkpt><trkpt lat="45.628383750466" lon="8.265553070756678"><ele>356.0</ele><time>2026-03-31T07:12:30.999Z</time></trkpt><trkpt lat="45.628424769461716" lon="8.265706442674547"><ele>354.0</ele><time>2026-03-31T07:12:31.999Z</time></trkpt><trkpt lat="45.62848412040124" lon="8.26583458247175"><ele>352.0</ele><time>2026-03-31T07:12:32.999Z</time></trkpt><trkpt lat="45.62852591587221" lon="8.265984667373761"><ele>350.0</ele><time>2026-03-31T07:12:33.999Z</time></trkpt><trkpt lat="45.62858874543508" lon="8.266125520240351"><ele>348.0</ele><time>2026-03-31T07:12:34.999Z</time></trkpt><trkpt lat="45.62865542010502" lon="8.266257048721556"><ele>346.59999999999997</ele><time>2026-03-31T07:12:35.999Z</time></trkpt><trkpt lat="45.62872595355271" lon="8.266380985467086"><ele>345.2</ele><time>2026-03-31T07:12:36.999Z</time></trkpt><trkpt lat="45.628794707469325" lon="8.266492180524555"><ele>343.8</ele><time>2026-03-31T07:12:37.999Z</time></trkpt><trkpt lat="45.62886238514726" lon="8.266592375174852"><ele>342.4</ele><time>2026-03-31T07:12:38.999Z</time></trkpt><trkpt lat="45.628929840267084" lon="8.266687158691823"><ele>341.0</ele><time>2026-03-31T07:12:39.999Z</time></trkpt><trkpt lat="45.62899903209988" lon="8.26677574415251"><ele>339.20000000000005</ele><time>2026-03-31T07:12:40.999Z</time></trkpt><trkpt lat="45.6290721554341" lon="8.266860153871656"><ele>337.40000000000003</ele><time>2026-03-31T07:12:41.999Z</time></trkpt><trkpt lat="45.62915427029375" lon="8.2669230105556"><ele>335.6</ele><time>2026-03-31T07:12:42.999Z</time></trkpt><trkpt lat="45.6292194546199" lon="8.267014158813888"><ele>333.8</ele><time>2026-03-31T07:12:43.999Z</time></trkpt><trkpt lat="45.629284739576775" lon="8.267104185248384"><ele>332.0</ele><time>2026-03-31T07:12:44.999Z</time></trkpt><trkpt lat="45.62934916478161" lon="8.267190418611412"><ele>332.0</ele><time>2026-03-31T07:12:45.999Z</time></trkpt><trkpt lat="45.62941134184367" lon="8.267274378846608"><ele>332.0</ele><time>2026-03-31T07:12:46.999Z</time></trkpt><trkpt lat="45.62947559904753" lon="8.267350668801825"><ele>332.0</ele><time>2026-03-31T07:12:47.999Z</time></trkpt><trkpt lat="45.62954103972633" lon="8.267419738236985"><ele>332.0</ele><time>2026-03-31T07:12:48.999Z</time></trkpt><trkpt lat="45.62961100596055" lon="8.267474278572532"><ele>332.0</ele><time>2026-03-31T07:12:49.999Z</time></trkpt><trkpt lat="45.629681176112655" lon="8.26750342898542"><ele>332.0</ele><time>2026-03-31T07:12:50.999Z</time></trkpt><trkpt lat="45.6297444965829" lon="8.267489429863065"><ele>329.6666666666667</ele><time>2026-03-31T07:12:51.999Z</time></trkpt><trkpt lat="45.62982339671008" lon="8.26737577459813"><ele>327.33333333333337</ele><time>2026-03-31T07:12:53.999Z</time></trkpt><trkpt lat="45.62982871833498" lon="8.267273398936807"><ele>325.0</ele><time>2026-03-31T07:12:54.999Z</time></trkpt><trkpt lat="45.62982297999281" lon="8.267161880862869"><ele>322.6666666666667</ele><time>2026-03-31T07:12:55.999Z</time></trkpt><trkpt lat="45.62980862129042" lon="8.267055128273569"><ele>320.3333333333333</ele><time>2026-03-31T07:12:56.999Z</time></trkpt><trkpt lat="45.62978737732274" lon="8.26695371685602"><ele>318.0</ele><time>2026-03-31T07:12:57.999Z</time></trkpt><trkpt lat="45.62975943783365" lon="8.266852970288681"><ele>318.0</ele><time>2026-03-31T07:12:58.999Z</time></trkpt><trkpt lat="45.6297325384079" lon="8.266690652488778"><ele>318.0</ele><time>2026-03-31T07:13:00.999Z</time></trkpt><trkpt lat="45.629779075182796" lon="8.266569878717624"><ele>318.0</ele><time>2026-03-31T07:13:02.999Z</time></trkpt><trkpt lat="45.62983838640666" lon="8.266536317123421"><ele>318.0</ele><time>2026-03-31T07:13:03.999Z</time></trkpt><trkpt lat="45.629936663674165" lon="8.266534924305033"><ele>318.0</ele><time>2026-03-31T07:13:04.999Z</time></trkpt><trkpt lat="45.63003470396247" lon="8.266537078666305"><ele>318.0</ele><time>2026-03-31T07:13:05.999Z</time></trkpt><trkpt lat="45.63011092371021" lon="8.266572386306843"><ele>318.0</ele><time>2026-03-31T07:13:06.999Z</time></trkpt><trkpt lat="45.6301703605614" lon="8.266637830488483"><ele>318.0</ele><time>2026-03-31T07:13:07.999Z</time></trkpt><trkpt lat="45.63021030707049" lon="8.266745600183633"><ele>318.0</ele><time>2026-03-31T07:13:08.999Z</time></trkpt><trkpt lat="45.63023850790761" lon="8.26688372522522"><ele>318.0</ele><time>2026-03-31T07:13:09.999Z</time></trkpt><trkpt lat="45.63027817306277" lon="8.267006644103054"><ele>318.0</ele><time>2026-03-31T07:13:10.999Z</time></trkpt><trkpt lat="45.63033076695897" lon="8.267103665193314"><ele>318.8333333333333</ele><time>2026-03-31T07:13:11.999Z</time></trkpt><trkpt lat="45.63039202759533" lon="8.267170940791532"><ele>319.6666666666667</ele><time>2026-03-31T07:13:12.999Z</time></trkpt><trkpt lat="45.63045507570374" lon="8.267215649484669"><ele>320.5</ele><time>2026-03-31T07:13:13.999Z</time></trkpt><trkpt lat="45.6305076464737" lon="8.267273088796355"><ele>321.33333333333337</ele><time>2026-03-31T07:13:14.999Z</time></trkpt><trkpt lat="45.63055457277562" lon="8.267387044503852"><ele>322.1666666666667</ele><time>2026-03-31T07:13:15.999Z</time></trkpt><trkpt lat="45.63059561791376" lon="8.267557513366729"><ele>323.0</ele><time>2026-03-31T07:13:16.999Z</time></trkpt><trkpt lat="45.63061655847093" lon="8.267724612052074"><ele>323.0</ele><time>2026-03-31T07:13:17.999Z</time></trkpt><trkpt lat="45.630632669087184" lon="8.267879961945118"><ele>323.0</ele><time>2026-03-31T07:13:18.999Z</time></trkpt><trkpt lat="45.63065629387537" lon="8.268029494992714"><ele>323.0</ele><time>2026-03-31T07:13:19.999Z</time></trkpt><trkpt lat="45.63068396913101" lon="8.268179388253133"><ele>323.0</ele><time>2026-03-31T07:13:20.999Z</time></trkpt><trkpt lat="45.63071172553618" lon="8.268330842536953"><ele>323.0</ele><time>2026-03-31T07:13:21.999Z</time></trkpt><trkpt lat="45.630735852151275" lon="8.268479436938643"><ele>323.4</ele><time>2026-03-31T07:13:22.999Z</time></trkpt><trkpt lat="45.63075841955853" lon="8.268626361159344"><ele>323.79999999999995</ele><time>2026-03-31T07:13:23.999Z</time></trkpt><trkpt lat="45.630781870212076" lon="8.268772647559642"><ele>324.2</ele><time>2026-03-31T07:13:24.999Z</time></trkpt><trkpt lat="45.63080625282261" lon="8.26890845442485"><ele>324.6</ele><time>2026-03-31T07:13:25.999Z</time></trkpt><trkpt lat="45.63082574911028" lon="8.269042109079258"><ele>325.0</ele><time>2026-03-31T07:13:26.999Z</time></trkpt><trkpt lat="45.63084489994517" lon="8.269170797023998"><ele>325.0</ele><time>2026-03-31T07:13:27.999Z</time></trkpt><trkpt lat="45.63086033714887" lon="8.269299353850869"><ele>325.0</ele><time>2026-03-31T07:13:28.999Z</time></trkpt><trkpt lat="45.630870688136056" lon="8.269439354145108"><ele>325.0</ele><time>2026-03-31T07:13:29.999Z</time></trkpt><trkpt lat="45.630871371488205" lon="8.269588649555649"><ele>325.0</ele><time>2026-03-31T07:13:30.999Z</time></trkpt><trkpt lat="45.63086637595311" lon="8.269740719408247"><ele>325.0</ele><time>2026-03-31T07:13:31.999Z</time></trkpt><trkpt lat="45.630857745533575" lon="8.269893440243273"><ele>325.0</ele><time>2026-03-31T07:13:32.999Z</time></trkpt><trkpt lat="45.63084931900703" lon="8.27004454638989"><ele>325.0</ele><time>2026-03-31T07:13:33.999Z</time></trkpt><trkpt lat="45.63084384993924" lon="8.270198458297145"><ele>325.0</ele><time>2026-03-31T07:13:34.999Z</time></trkpt><trkpt lat="45.6308441901128" lon="8.270350102828626"><ele>325.0</ele><time>2026-03-31T07:13:35.999Z</time></trkpt><trkpt lat="45.63085104116729" lon="8.270505012660934"><ele>325.0</ele><time>2026-03-31T07:13:36.999Z</time></trkpt><trkpt lat="45.63085968028342" lon="8.2706622781358"><ele>324.4</ele><time>2026-03-31T07:13:37.999Z</time></trkpt><trkpt lat="45.6308652761196" lon="8.270820206873415"><ele>323.8</ele><time>2026-03-31T07:13:38.999Z</time></trkpt><trkpt lat="45.63087549853475" lon="8.270977746209187"><ele>323.20000000000005</ele><time>2026-03-31T07:13:39.999Z</time></trkpt><trkpt lat="45.63089430758407" lon="8.27112618784493"><ele>322.6</ele><time>2026-03-31T07:13:40.999Z</time></trkpt><trkpt lat="45.63091572700793" lon="8.271267027032486"><ele>322.0</ele><time>2026-03-31T07:13:41.999Z</time></trkpt><trkpt lat="45.63093728185714" lon="8.271402922983643"><ele>321.20000000000005</ele><time>2026-03-31T07:13:42.999Z</time></trkpt><trkpt lat="45.63096182119238" lon="8.271540641385792"><ele>320.40000000000003</ele><time>2026-03-31T07:13:43.999Z</time></trkpt><trkpt lat="45.63099475410934" lon="8.271678908726784"><ele>319.6</ele><time>2026-03-31T07:13:44.999Z</time></trkpt><trkpt lat="45.63103649861542" lon="8.27181737131694"><ele>318.8</ele><time>2026-03-31T07:13:45.999Z</time></trkpt><trkpt lat="45.631079711147756" lon="8.271960436719693"><ele>318.0</ele><time>2026-03-31T07:13:46.999Z</time></trkpt><trkpt lat="45.63111512991796" lon="8.272097266531427"><ele>319.8</ele><time>2026-03-31T07:13:47.999Z</time></trkpt><trkpt lat="45.63115131598506" lon="8.27222494208986"><ele>321.6</ele><time>2026-03-31T07:13:48.999Z</time></trkpt><trkpt lat="45.63119705819903" lon="8.272358403473355"><ele>323.40000000000003</ele><time>2026-03-31T07:13:49.999Z</time></trkpt><trkpt lat="45.63123266215061" lon="8.272495057567944"><ele>325.20000000000005</ele><time>2026-03-31T07:13:50.999Z</time></trkpt><trkpt lat="45.63126190129423" lon="8.272638136656683"><ele>327.0</ele><time>2026-03-31T07:13:51.999Z</time></trkpt><trkpt lat="45.63128215064916" lon="8.272787697055527"><ele>327.0</ele><time>2026-03-31T07:13:52.999Z</time></trkpt><trkpt lat="45.63128451425373" lon="8.272936723586994"><ele>327.0</ele><time>2026-03-31T07:13:53.999Z</time></trkpt><trkpt lat="45.63128436177256" lon="8.273087334601014"><ele>327.0</ele><time>2026-03-31T07:13:54.999Z</time></trkpt><trkpt lat="45.6312898511091" lon="8.273224354288748"><ele>327.0</ele><time>2026-03-31T07:13:55.999Z</time></trkpt><trkpt lat="45.6312944949916" lon="8.273372488771283"><ele>327.0</ele><time>2026-03-31T07:13:56.998Z</time></trkpt><trkpt lat="45.631298144245484" lon="8.273521132942914"><ele>326.3333333333333</ele><time>2026-03-31T07:13:57.998Z</time></trkpt><trkpt lat="45.631300940756226" lon="8.27365715896612"><ele>325.6666666666667</ele><time>2026-03-31T07:13:58.998Z</time></trkpt><trkpt lat="45.63130537695629" lon="8.273779509607332"><ele>325.0</ele><time>2026-03-31T07:13:59.998Z</time></trkpt><trkpt lat="45.63131050000737" lon="8.273889516523212"><ele>324.33333333333337</ele><time>2026-03-31T07:14:00.998Z</time></trkpt><trkpt lat="45.63131449785659" lon="8.273987741384202"><ele>323.6666666666667</ele><time>2026-03-31T07:14:01.998Z</time></trkpt><trkpt lat="45.63131728386252" lon="8.274080300365195"><ele>323.0</ele><time>2026-03-31T07:14:02.998Z</time></trkpt><trkpt lat="45.63132171672535" lon="8.274252098021957"><ele>321.4</ele><time>2026-03-31T07:14:05Z</time></trkpt><trkpt lat="45.631333118109914" lon="8.274374198656826"><ele>319.79999999999995</ele><time>2026-03-31T07:14:07Z</time></trkpt><trkpt lat="45.6313693164735" lon="8.274461110972435"><ele>318.2</ele><time>2026-03-31T07:14:09Z</time></trkpt><trkpt lat="45.63144951342137" lon="8.274419921915603"><ele>316.6</ele><time>2026-03-31T07:14:11Z</time></trkpt><trkpt lat="45.63146778826643" lon="8.274257410079018"><ele>315.0</ele><time>2026-03-31T07:14:13Z</time></trkpt><trkpt lat="45.63154788750106" lon="8.27418054415674"><ele>315.0</ele><time>2026-03-31T07:14:15Z</time></trkpt><trkpt lat="45.63162691591763" lon="8.274095411927798"><ele>315.0</ele><time>2026-03-31T07:14:17Z</time></trkpt><trkpt lat="45.6316926112319" lon="8.273999363461655"><ele>315.0</ele><time>2026-03-31T07:14:20Z</time></trkpt><trkpt lat="45.631733813130246" lon="8.273927351306117"><ele>315.0</ele><time>2026-03-31T07:14:21Z</time></trkpt><trkpt lat="45.63178834382349" lon="8.273863468379052"><ele>315.0</ele><time>2026-03-31T07:14:22Z</time></trkpt><trkpt lat="45.63188080364349" lon="8.27377141889359"><ele>315.0</ele><time>2026-03-31T07:14:24Z</time></trkpt><trkpt lat="45.631973067520114" lon="8.273657931456485"><ele>317.1666666666667</ele><time>2026-03-31T07:14:26Z</time></trkpt><trkpt lat="45.632112155995806" lon="8.273582940358033"><ele>319.3333333333333</ele><time>2026-03-31T07:14:28Z</time></trkpt><trkpt lat="45.632176661144456" lon="8.27352695406448"><ele>321.5</ele><time>2026-03-31T07:14:29Z</time></trkpt><trkpt lat="45.632235787942385" lon="8.273467672652538"><ele>323.66666666666663</ele><time>2026-03-31T07:14:30Z</time></trkpt><trkpt lat="45.632290594610396" lon="8.27342240678589"><ele>325.8333333333333</ele><time>2026-03-31T07:14:31Z</time></trkpt><trkpt lat="45.63235216597041" lon="8.273330457133925"><ele>328.0</ele><time>2026-03-31T07:14:32.999Z</time></trkpt><trkpt lat="45.632408306535886" lon="8.273257572711639"><ele>328.0</ele><time>2026-03-31T07:14:33.999Z</time></trkpt><trkpt lat="45.63248781607856" lon="8.27315760969532"><ele>328.0</ele><time>2026-03-31T07:14:34.999Z</time></trkpt><trkpt lat="45.63256987075273" lon="8.2730502255271"><ele>328.0</ele><time>2026-03-31T07:14:35.999Z</time></trkpt><trkpt lat="45.632633467776586" lon="8.27297401209545"><ele>328.0</ele><time>2026-03-31T07:14:36.999Z</time></trkpt><trkpt lat="45.6326925560227" lon="8.272905776360055"><ele>328.0</ele><time>2026-03-31T07:14:37.999Z</time></trkpt><trkpt lat="45.63275440841704" lon="8.272837488781194"><ele>330.0</ele><time>2026-03-31T07:14:38.999Z</time></trkpt><trkpt lat="45.63281434373579" lon="8.272769469618357"><ele>332.0</ele><time>2026-03-31T07:14:39.999Z</time></trkpt><trkpt lat="45.632876199280474" lon="8.272709931869608"><ele>334.0</ele><time>2026-03-31T07:14:40.999Z</time></trkpt><trkpt lat="45.632942226450375" lon="8.27265813358212"><ele>336.0</ele><time>2026-03-31T07:14:41.999Z</time></trkpt><trkpt lat="45.63302029352853" lon="8.272610235244137"><ele>338.0</ele><time>2026-03-31T07:14:42.999Z</time></trkpt><trkpt lat="45.633112109556926" lon="8.272559470111757"><ele>340.0</ele><time>2026-03-31T07:14:43.999Z</time></trkpt><trkpt lat="45.633206381463815" lon="8.272512362777391"><ele>340.0</ele><time>2026-03-31T07:14:44.999Z</time></trkpt><trkpt lat="45.633302709785234" lon="8.272463720393818"><ele>340.0</ele><time>2026-03-31T07:14:45.999Z</time></trkpt><trkpt lat="45.63340415822288" lon="8.272403562197402"><ele>340.0</ele><time>2026-03-31T07:14:46.999Z</time></trkpt><trkpt lat="45.63349346010586" lon="8.27234351772473"><ele>340.0</ele><time>2026-03-31T07:14:47.999Z</time></trkpt><trkpt lat="45.63356601144262" lon="8.272284600701862"><ele>340.0</ele><time>2026-03-31T07:14:48.999Z</time></trkpt><trkpt lat="45.63365245169229" lon="8.272243937871098"><ele>342.6</ele><time>2026-03-31T07:14:49.999Z</time></trkpt><trkpt lat="45.63374959061396" lon="8.272212117229762"><ele>345.2</ele><time>2026-03-31T07:14:50.999Z</time></trkpt><trkpt lat="45.633849506595055" lon="8.272197434888989"><ele>347.79999999999995</ele><time>2026-03-31T07:14:51.999Z</time></trkpt><trkpt lat="45.633951043895095" lon="8.27219999585561"><ele>350.4</ele><time>2026-03-31T07:14:52.999Z</time></trkpt><trkpt lat="45.63405925919768" lon="8.272217043995255"><ele>353.0</ele><time>2026-03-31T07:14:53.999Z</time></trkpt><trkpt lat="45.63416081725842" lon="8.272246392265952"><ele>353.0</ele><time>2026-03-31T07:14:54.999Z</time></trkpt><trkpt lat="45.63427004048465" lon="8.272271271743934"><ele>353.0</ele><time>2026-03-31T07:14:55.999Z</time></trkpt><trkpt lat="45.63437276562662" lon="8.272292251845535"><ele>353.0</ele><time>2026-03-31T07:14:56.999Z</time></trkpt><trkpt lat="45.63446800632433" lon="8.272303982501157"><ele>353.0</ele><time>2026-03-31T07:14:57.999Z</time></trkpt><trkpt lat="45.63455273983262" lon="8.272315658290369"><ele>353.0</ele><time>2026-03-31T07:14:58.999Z</time></trkpt><trkpt lat="45.63465495546182" lon="8.2723373742505"><ele>352.33333333333337</ele><time>2026-03-31T07:14:59.999Z</time></trkpt><trkpt lat="45.63474733800052" lon="8.27235626987679"><ele>351.6666666666667</ele><time>2026-03-31T07:15:00.999Z</time></trkpt><trkpt lat="45.63483155701661" lon="8.272374566859158"><ele>351.0</ele><time>2026-03-31T07:15:01.999Z</time></trkpt><trkpt lat="45.63491513531766" lon="8.272383724504035"><ele>350.3333333333333</ele><time>2026-03-31T07:15:02.999Z</time></trkpt><trkpt lat="45.63498312461174" lon="8.272397341026112"><ele>349.66666666666663</ele><time>2026-03-31T07:15:03.999Z</time></trkpt><trkpt lat="45.635082031977475" lon="8.272359944292583"><ele>349.0</ele><time>2026-03-31T07:15:05.999Z</time></trkpt><trkpt lat="45.635119385471036" lon="8.27221709740474"><ele>350.3333333333333</ele><time>2026-03-31T07:15:07.999Z</time></trkpt><trkpt lat="45.63509428881962" lon="8.272113280388634"><ele>351.66666666666663</ele><time>2026-03-31T07:15:08.999Z</time></trkpt><trkpt lat="45.63505815304833" lon="8.272003474598202"><ele>353.0</ele><time>2026-03-31T07:15:09.999Z</time></trkpt><trkpt lat="45.63503508143671" lon="8.27187953172655"><ele>354.3333333333333</ele><time>2026-03-31T07:15:10.999Z</time></trkpt><trkpt lat="45.635035077350594" lon="8.27175235828854"><ele>355.6666666666667</ele><time>2026-03-31T07:15:11.999Z</time></trkpt><trkpt lat="45.63501391271673" lon="8.27166593654758"><ele>357.0</ele><time>2026-03-31T07:15:12.999Z</time></trkpt><trkpt lat="45.63489400014118" lon="8.271614783240608"><ele>357.0</ele><time>2026-03-31T07:15:14.999Z</time></trkpt><trkpt lat="45.634790206343204" lon="8.271627718177097"><ele>357.0</ele><time>2026-03-31T07:15:16.999Z</time></trkpt><trkpt lat="45.63477591099438" lon="8.271508118868887"><ele>357.0</ele><time>2026-03-31T07:15:18.999Z</time></trkpt><trkpt lat="45.63482157809305" lon="8.271422553887723"><ele>357.0</ele><time>2026-03-31T07:15:19.999Z</time></trkpt><trkpt lat="45.63485664601721" lon="8.271335470067719"><ele>357.0</ele><time>2026-03-31T07:15:20.999Z</time></trkpt><trkpt lat="45.634878217600566" lon="8.27115039512057"><ele>357.2857142857143</ele><time>2026-03-31T07:15:22.999Z</time></trkpt><trkpt lat="45.63487977632284" lon="8.271049491960358"><ele>357.57142857142856</ele><time>2026-03-31T07:15:23.999Z</time></trkpt><trkpt lat="45.634873096909914" lon="8.270953077758973"><ele>357.8571428571429</ele><time>2026-03-31T07:15:24.999Z</time></trkpt><trkpt lat="45.63490494861809" lon="8.270869927339755"><ele>358.1428571428571</ele><time>2026-03-31T07:15:25.999Z</time></trkpt><trkpt lat="45.634974920052976" lon="8.270805679675885"><ele>358.42857142857144</ele><time>2026-03-31T07:15:26.999Z</time></trkpt><trkpt lat="45.63504423184042" lon="8.27076066882787"><ele>358.7142857142857</ele><time>2026-03-31T07:15:27.999Z</time></trkpt><trkpt lat="45.63510325701908" lon="8.27071867270244"><ele>359.0</ele><time>2026-03-31T07:15:28.999Z</time></trkpt><trkpt lat="45.63515741081117" lon="8.270668291594921"><ele>358.79999999999995</ele><time>2026-03-31T07:15:29.999Z</time></trkpt><trkpt lat="45.63523874558813" lon="8.270542791101244"><ele>358.59999999999997</ele><time>2026-03-31T07:15:31.999Z</time></trkpt><trkpt lat="45.63527444162504" lon="8.270468567095424"><ele>358.4</ele><time>2026-03-31T07:15:32.999Z</time></trkpt><trkpt lat="45.635325201465776" lon="8.270322397353798"><ele>358.2</ele><time>2026-03-31T07:15:34.999Z</time></trkpt><trkpt lat="45.63535428535664" lon="8.270188566176254"><ele>358.0</ele><time>2026-03-31T07:15:36.999Z</time></trkpt><trkpt lat="45.63537279255083" lon="8.270037991017336"><ele>359.3333333333333</ele><time>2026-03-31T07:15:38.999Z</time></trkpt><trkpt lat="45.63538207220586" lon="8.269947331566781"><ele>360.66666666666663</ele><time>2026-03-31T07:15:39.999Z</time></trkpt><trkpt lat="45.63538876085792" lon="8.269839937365871"><ele>362.0</ele><time>2026-03-31T07:15:40.999Z</time></trkpt><trkpt lat="45.63539708594754" lon="8.269711257726243"><ele>363.3333333333333</ele><time>2026-03-31T07:15:41.999Z</time></trkpt><trkpt lat="45.63540918053285" lon="8.269579071559324"><ele>364.6666666666667</ele><time>2026-03-31T07:15:42.999Z</time></trkpt><trkpt lat="45.63541995510799" lon="8.269452169484898"><ele>366.0</ele><time>2026-03-31T07:15:43.999Z</time></trkpt><trkpt lat="45.63542617606856" lon="8.269338744772702"><ele>366.8333333333333</ele><time>2026-03-31T07:15:44.999Z</time></trkpt><trkpt lat="45.63543445686388" lon="8.26922581395731"><ele>367.6666666666667</ele><time>2026-03-31T07:15:45.999Z</time></trkpt><trkpt lat="45.63544611614686" lon="8.269112714330088"><ele>368.5</ele><time>2026-03-31T07:15:46.999Z</time></trkpt><trkpt lat="45.635456265594726" lon="8.268994966514978"><ele>369.33333333333337</ele><time>2026-03-31T07:15:47.999Z</time></trkpt><trkpt lat="45.63547232326074" lon="8.268884660679806"><ele>370.1666666666667</ele><time>2026-03-31T07:15:48.999Z</time></trkpt><trkpt lat="45.63549624114777" lon="8.268789059318538"><ele>371.0</ele><time>2026-03-31T07:15:49.999Z</time></trkpt><trkpt lat="45.63553108958222" lon="8.26868031772464"><ele>371.6666666666667</ele><time>2026-03-31T07:15:50.999Z</time></trkpt><trkpt lat="45.63558062433925" lon="8.268531497731034"><ele>372.33333333333337</ele><time>2026-03-31T07:15:51.999Z</time></trkpt><trkpt lat="45.63562123566392" lon="8.268405769100974"><ele>373.0</ele><time>2026-03-31T07:15:52.999Z</time></trkpt><trkpt lat="45.63565603947147" lon="8.268315251350678"><ele>373.6666666666667</ele><time>2026-03-31T07:15:53.999Z</time></trkpt><trkpt lat="45.63570069079976" lon="8.268221765273777"><ele>374.3333333333333</ele><time>2026-03-31T07:15:54.999Z</time></trkpt><trkpt lat="45.63575125243642" lon="8.268129013888318"><ele>375.0</ele><time>2026-03-31T07:15:55.999Z</time></trkpt><trkpt lat="45.63580284164129" lon="8.268048302907484"><ele>375.0</ele><time>2026-03-31T07:15:56.999Z</time></trkpt><trkpt lat="45.63584993578672" lon="8.2679755484494"><ele>375.0</ele><time>2026-03-31T07:15:57.999Z</time></trkpt><trkpt lat="45.635922954862416" lon="8.267853074123122"><ele>375.0</ele><time>2026-03-31T07:15:59.999Z</time></trkpt><trkpt lat="45.6359927840095" lon="8.267736896721"><ele>375.0</ele><time>2026-03-31T07:16:01.999Z</time></trkpt><trkpt lat="45.63606884186301" lon="8.267602769280453"><ele>375.0</ele><time>2026-03-31T07:16:03.999Z</time></trkpt><trkpt lat="45.636149266181114" lon="8.267476621330989"><ele>374.6</ele><time>2026-03-31T07:16:05.999Z</time></trkpt><trkpt lat="45.63621840624647" lon="8.267355171769278"><ele>374.2</ele><time>2026-03-31T07:16:07.999Z</time></trkpt><trkpt lat="45.63628471389125" lon="8.26725271547291"><ele>373.79999999999995</ele><time>2026-03-31T07:16:10Z</time></trkpt><trkpt lat="45.63636172084794" lon="8.267131377272172"><ele>373.4</ele><time>2026-03-31T07:16:12Z</time></trkpt><trkpt lat="45.63641261516238" lon="8.26707732162884"><ele>373.0</ele><time>2026-03-31T07:16:13Z</time></trkpt><trkpt lat="45.63647117029857" lon="8.267024836035025"><ele>373.57142857142856</ele><time>2026-03-31T07:16:14Z</time></trkpt><trkpt lat="45.63653572377921" lon="8.266971953790193"><ele>374.14285714285717</ele><time>2026-03-31T07:16:15Z</time></trkpt><trkpt lat="45.636599167159076" lon="8.266915818994756"><ele>374.71428571428567</ele><time>2026-03-31T07:16:16Z</time></trkpt><trkpt lat="45.636650634043505" lon="8.266854236753694"><ele>375.2857142857143</ele><time>2026-03-31T07:16:17Z</time></trkpt><trkpt lat="45.636688292213286" lon="8.266776851332809"><ele>375.85714285714283</ele><time>2026-03-31T07:16:18Z</time></trkpt><trkpt lat="45.636716054829826" lon="8.266685652319897"><ele>376.4285714285714</ele><time>2026-03-31T07:16:19Z</time></trkpt><trkpt lat="45.63673451302302" lon="8.266587793628599"><ele>377.0</ele><time>2026-03-31T07:16:20Z</time></trkpt><trkpt lat="45.636764108795276" lon="8.266432741092103"><ele>377.33333333333337</ele><time>2026-03-31T07:16:22Z</time></trkpt><trkpt lat="45.63678540043894" lon="8.266347333860868"><ele>377.6666666666667</ele><time>2026-03-31T07:16:23Z</time></trkpt><trkpt lat="45.63681000156442" lon="8.266230821479297"><ele>378.0</ele><time>2026-03-31T07:16:25Z</time></trkpt><trkpt lat="45.636825932988074" lon="8.266101129519187"><ele>378.3333333333333</ele><time>2026-03-31T07:16:32Z</time></trkpt><trkpt lat="45.63682552355836" lon="8.265994456455678"><ele>378.66666666666663</ele><time>2026-03-31T07:16:33Z</time></trkpt><trkpt lat="45.636847046733145" lon="8.265893539296522"><ele>379.0</ele><time>2026-03-31T07:16:35Z</time></trkpt><trkpt lat="45.63692597550876" lon="8.26590110224892"><ele>383.0</ele><time>2026-03-31T07:16:38Z</time></trkpt><trkpt lat="45.63699667965601" lon="8.266006917003903"><ele>387.0</ele><time>2026-03-31T07:16:40Z</time></trkpt><trkpt lat="45.63707788561339" lon="8.266087649252052"><ele>391.0</ele><time>2026-03-31T07:16:42Z</time></trkpt><trkpt lat="45.63718024704858" lon="8.266152011940369"><ele>395.0</ele><time>2026-03-31T07:16:44Z</time></trkpt><trkpt lat="45.63725337849863" lon="8.266180223596978"><ele>399.0</ele><time>2026-03-31T07:16:45Z</time></trkpt><trkpt lat="45.63733629939972" lon="8.266150896825488"><ele>399.0</ele><time>2026-03-31T07:16:46.999Z</time></trkpt><trkpt lat="45.637416572800106" lon="8.266084717652522"><ele>399.0</ele><time>2026-03-31T07:16:48.999Z</time></trkpt><trkpt lat="45.637482020323574" lon="8.26605642301482"><ele>399.0</ele><time>2026-03-31T07:16:51.999Z</time></trkpt><trkpt lat="45.63754055452416" lon="8.265921205976522"><ele>399.0</ele><time>2026-03-31T07:16:53.999Z</time></trkpt><trkpt lat="45.63750805657666" lon="8.26582298618063"><ele>399.0</ele><time>2026-03-31T07:17:03.999Z</time></trkpt><trkpt lat="45.63749589614051" lon="8.265702503182853"><ele>399.0</ele><time>2026-03-31T07:17:06.999Z</time></trkpt><trkpt lat="45.637555757557806" lon="8.265620923697261"><ele>402.79999999999995</ele><time>2026-03-31T07:17:08.999Z</time></trkpt><trkpt lat="45.63756132147966" lon="8.265393585523109"><ele>406.59999999999997</ele><time>2026-03-31T07:17:11.999Z</time></trkpt><trkpt lat="45.637554450071875" lon="8.265293674496457"><ele>410.4</ele><time>2026-03-31T07:17:12.999Z</time></trkpt><trkpt lat="45.63754609024372" lon="8.26520210507358"><ele>414.2</ele><time>2026-03-31T07:17:13.999Z</time></trkpt><trkpt lat="45.63755384492128" lon="8.265064049151086"><ele>418.0</ele><time>2026-03-31T07:17:15.999Z</time></trkpt><trkpt lat="45.637546624413815" lon="8.26495722017308"><ele>418.00000000000006</ele><time>2026-03-31T07:17:18.999Z</time></trkpt><trkpt lat="45.637573707330716" lon="8.26486724049374"><ele>418.0</ele><time>2026-03-31T07:17:54.999Z</time></trkpt><trkpt lat="45.63754681911183" lon="8.26474866670747"><ele>418.0</ele><time>2026-03-31T07:17:59.999Z</time></trkpt><trkpt lat="45.637594821272785" lon="8.264595436077323"><ele>418.0</ele><time>2026-03-31T07:18:21Z</time></trkpt><trkpt lat="45.63760466420171" lon="8.264491795897223"><ele>418.00000000000006</ele><time>2026-03-31T07:18:24Z</time></trkpt><trkpt lat="45.637670018934465" lon="8.264426070629867"><ele>418.0</ele><time>2026-03-31T07:18:28Z</time></trkpt><trkpt lat="45.63769617682144" lon="8.264340250635955"><ele>420.1666666666667</ele><time>2026-03-31T07:18:34Z</time></trkpt><trkpt lat="45.637751835447794" lon="8.264253403080092"><ele>422.33333333333337</ele><time>2026-03-31T07:18:38Z</time></trkpt><trkpt lat="45.637823846428184" lon="8.264183323069572"><ele>424.5</ele><time>2026-03-31T07:18:41Z</time></trkpt><trkpt lat="45.6378257110487" lon="8.264064060477498"><ele>426.66666666666663</ele><time>2026-03-31T07:18:44Z</time></trkpt><trkpt lat="45.637889990194196" lon="8.263932031484066"><ele>428.8333333333333</ele><time>2026-03-31T07:18:46Z</time></trkpt><trkpt lat="45.637928660291124" lon="8.263830312719255"><ele>431.0</ele><time>2026-03-31T07:18:48Z</time></trkpt><trkpt lat="45.637915234064124" lon="8.263708002472235"><ele>434.42857142857144</ele><time>2026-03-31T07:18:50Z</time></trkpt><trkpt lat="45.63793383995661" lon="8.263604641720283"><ele>437.85714285714283</ele><time>2026-03-31T07:18:52Z</time></trkpt><trkpt lat="45.637985268587514" lon="8.263501625725361"><ele>441.2857142857143</ele><time>2026-03-31T07:18:54Z</time></trkpt><trkpt lat="45.63804876472665" lon="8.263453016103945"><ele>444.7142857142857</ele><time>2026-03-31T07:18:55.999Z</time></trkpt><trkpt lat="45.63812286046504" lon="8.263382650891044"><ele>448.1428571428571</ele><time>2026-03-31T07:18:58.999Z</time></trkpt><trkpt lat="45.63818582551511" lon="8.26338770012659"><ele>451.57142857142856</ele><time>2026-03-31T07:19:01.999Z</time></trkpt><trkpt lat="45.63820497216394" lon="8.263395972050997"><ele>455.0</ele><time>2026-03-31T07:28:32.997Z</time></trkpt><trkpt lat="45.6382421319326" lon="8.263288796544694"><ele>454.99999999999994</ele><time>2026-03-31T07:29:24Z</time></trkpt><trkpt lat="45.63831631467487" lon="8.263231206226418"><ele>455.0</ele><time>2026-03-31T07:29:26Z</time></trkpt><trkpt lat="45.63837548020374" lon="8.26317859402389"><ele>455.0</ele><time>2026-03-31T07:29:27Z</time></trkpt><trkpt lat="45.63843610346274" lon="8.2631095688131"><ele>455.0</ele><time>2026-03-31T07:29:28Z</time></trkpt><trkpt lat="45.63848239595177" lon="8.263044992938903"><ele>454.99999999999994</ele><time>2026-03-31T07:29:29Z</time></trkpt><trkpt lat="45.638566771482964" lon="8.262993519250413"><ele>455.0</ele><time>2026-03-31T07:29:31Z</time></trkpt><trkpt lat="45.63866755190356" lon="8.262996900657607"><ele>450.8</ele><time>2026-03-31T07:29:34Z</time></trkpt><trkpt lat="45.63875296510741" lon="8.263011624988128"><ele>446.6</ele><time>2026-03-31T07:29:35Z</time></trkpt><trkpt lat="45.63886029332794" lon="8.263023954795647"><ele>442.4</ele><time>2026-03-31T07:29:37Z</time></trkpt><trkpt lat="45.63896619914295" lon="8.263023655170354"><ele>438.2</ele><time>2026-03-31T07:29:39Z</time></trkpt><trkpt lat="45.63907351299069" lon="8.262933786733045"><ele>434.0</ele><time>2026-03-31T07:29:41Z</time></trkpt><trkpt lat="45.63914896977317" lon="8.262856386497964"><ele>434.0</ele><time>2026-03-31T07:29:43Z</time></trkpt><trkpt lat="45.63924756496651" lon="8.262845273824428"><ele>434.0</ele><time>2026-03-31T07:29:45Z</time></trkpt><trkpt lat="45.63936875501485" lon="8.26285987277251"><ele>434.0</ele><time>2026-03-31T07:29:47Z</time></trkpt><trkpt lat="45.639452602689154" lon="8.262902902573336"><ele>434.0</ele><time>2026-03-31T07:29:49Z</time></trkpt><trkpt lat="45.639509166921805" lon="8.262957208639566"><ele>434.0</ele><time>2026-03-31T07:29:51Z</time></trkpt><trkpt lat="45.63960965304775" lon="8.26305072699298"><ele>432.2</ele><time>2026-03-31T07:29:53Z</time></trkpt><trkpt lat="45.63966859308248" lon="8.26299545820254"><ele>430.4</ele><time>2026-03-31T07:29:58Z</time></trkpt><trkpt lat="45.63972760380812" lon="8.262885221715216"><ele>428.6</ele><time>2026-03-31T07:30:01Z</time></trkpt><trkpt lat="45.6397942781401" lon="8.262728488232138"><ele>426.8</ele><time>2026-03-31T07:30:03Z</time></trkpt><trkpt lat="45.639831268867205" lon="8.262651450207928"><ele>425.0</ele><time>2026-03-31T07:30:04Z</time></trkpt><trkpt lat="45.639886472886786" lon="8.262512545712319"><ele>425.0</ele><time>2026-03-31T07:30:06Z</time></trkpt><trkpt lat="45.639981126489225" lon="8.262470739930006"><ele>425.0</ele><time>2026-03-31T07:30:09Z</time></trkpt><trkpt lat="45.640087852188884" lon="8.262506273146188"><ele>425.0</ele><time>2026-03-31T07:30:11Z</time></trkpt><trkpt lat="45.640162333426865" lon="8.26254643784234"><ele>425.0</ele><time>2026-03-31T07:30:12Z</time></trkpt><trkpt lat="45.640229412382496" lon="8.262591372823994"><ele>425.0</ele><time>2026-03-31T07:30:13Z</time></trkpt><trkpt lat="45.640342410542495" lon="8.262665449657007"><ele>422.3333333333333</ele><time>2026-03-31T07:30:14Z</time></trkpt><trkpt lat="45.64044513856314" lon="8.26272741071401"><ele>419.66666666666663</ele><time>2026-03-31T07:30:16Z</time></trkpt><trkpt lat="45.64051481656637" lon="8.262772948463141"><ele>417.0</ele><time>2026-03-31T07:30:17Z</time></trkpt><trkpt lat="45.64058031114676" lon="8.262816236524728"><ele>414.33333333333337</ele><time>2026-03-31T07:30:18Z</time></trkpt><trkpt lat="45.640660807771525" lon="8.262871696820202"><ele>411.6666666666667</ele><time>2026-03-31T07:30:19Z</time></trkpt><trkpt lat="45.640722211560174" lon="8.262916433865717"><ele>409.0</ele><time>2026-03-31T07:30:20Z</time></trkpt><trkpt lat="45.640791675993825" lon="8.262968446141288"><ele>409.00000000000006</ele><time>2026-03-31T07:30:21Z</time></trkpt><trkpt lat="45.64085965936001" lon="8.263041166487662"><ele>409.0</ele><time>2026-03-31T07:30:22Z</time></trkpt><trkpt lat="45.640913269546395" lon="8.263116999827398"><ele>409.0</ele><time>2026-03-31T07:30:23Z</time></trkpt><trkpt lat="45.64097150650502" lon="8.263180746986755"><ele>409.0</ele><time>2026-03-31T07:30:24Z</time></trkpt><trkpt lat="45.641037780414145" lon="8.263229304336988"><ele>409.00000000000006</ele><time>2026-03-31T07:30:25Z</time></trkpt><trkpt lat="45.64111104861266" lon="8.263247763331705"><ele>409.0</ele><time>2026-03-31T07:30:26Z</time></trkpt><trkpt lat="45.641188922697204" lon="8.263261827548462"><ele>408.6666666666667</ele><time>2026-03-31T07:30:27Z</time></trkpt><trkpt lat="45.641266841178265" lon="8.263269469421575"><ele>408.33333333333337</ele><time>2026-03-31T07:30:28Z</time></trkpt><trkpt lat="45.64133778847686" lon="8.263264238767"><ele>408.0</ele><time>2026-03-31T07:30:29Z</time></trkpt><trkpt lat="45.64138616993971" lon="8.26320515513352"><ele>407.66666666666663</ele><time>2026-03-31T07:30:30Z</time></trkpt><trkpt lat="45.641416765926024" lon="8.263082812923587"><ele>407.3333333333333</ele><time>2026-03-31T07:30:32Z</time></trkpt><trkpt lat="45.64138933510415" lon="8.262926308797255"><ele>407.0</ele><time>2026-03-31T07:30:34Z</time></trkpt><trkpt lat="45.64136890698193" lon="8.262767583946342"><ele>407.16666666666663</ele><time>2026-03-31T07:30:36Z</time></trkpt><trkpt lat="45.64138356085814" lon="8.26267913058606"><ele>407.3333333333333</ele><time>2026-03-31T07:30:37Z</time></trkpt><trkpt lat="45.64144269095698" lon="8.262529703925901"><ele>407.5</ele><time>2026-03-31T07:30:39Z</time></trkpt><trkpt lat="45.641482570873755" lon="8.26242868569588"><ele>407.66666666666663</ele><time>2026-03-31T07:30:40Z</time></trkpt><trkpt lat="45.64152429039576" lon="8.2623443888748"><ele>407.8333333333333</ele><time>2026-03-31T07:30:41Z</time></trkpt><trkpt lat="45.64157627258486" lon="8.262262143116862"><ele>408.0</ele><time>2026-03-31T07:30:42Z</time></trkpt><trkpt lat="45.641632702958425" lon="8.2621981366653"><ele>408.0</ele><time>2026-03-31T07:30:43Z</time></trkpt><trkpt lat="45.64168870547946" lon="8.262147738782193"><ele>408.0</ele><time>2026-03-31T07:30:43.999Z</time></trkpt><trkpt lat="45.6417617507219" lon="8.262084922589974"><ele>408.0</ele><time>2026-03-31T07:30:44.999Z</time></trkpt><trkpt lat="45.64183204149004" lon="8.262033140543515"><ele>408.0</ele><time>2026-03-31T07:30:45.999Z</time></trkpt><trkpt lat="45.641970733121674" lon="8.26195769067992"><ele>408.0</ele><time>2026-03-31T07:30:47.999Z</time></trkpt><trkpt lat="45.642049389701334" lon="8.261940329055758"><ele>410.6666666666667</ele><time>2026-03-31T07:30:48.999Z</time></trkpt><trkpt lat="45.642112918024786" lon="8.261935696607889"><ele>413.33333333333337</ele><time>2026-03-31T07:30:49.999Z</time></trkpt><trkpt lat="45.64218723110698" lon="8.26192466417705"><ele>416.0</ele><time>2026-03-31T07:30:50.999Z</time></trkpt><trkpt lat="45.64226434937305" lon="8.261884998029375"><ele>418.6666666666667</ele><time>2026-03-31T07:30:51.999Z</time></trkpt><trkpt lat="45.64232140959588" lon="8.261824264257852"><ele>421.33333333333337</ele><time>2026-03-31T07:30:52.999Z</time></trkpt><trkpt lat="45.642387038521306" lon="8.261684461403906"><ele>424.0</ele><time>2026-03-31T07:30:54.999Z</time></trkpt><trkpt lat="45.642423905418255" lon="8.261597463946245"><ele>422.83333333333337</ele><time>2026-03-31T07:30:55.999Z</time></trkpt><trkpt lat="45.64246478423663" lon="8.261441132535158"><ele>421.6666666666667</ele><time>2026-03-31T07:30:57.999Z</time></trkpt><trkpt lat="45.64251087941199" lon="8.26136987304665"><ele>420.5</ele><time>2026-03-31T07:30:58.999Z</time></trkpt><trkpt lat="45.64256601715189" lon="8.261285871606226"><ele>419.33333333333337</ele><time>2026-03-31T07:30:59.999Z</time></trkpt><trkpt lat="45.642643933533385" lon="8.261244641271961"><ele>418.1666666666667</ele><time>2026-03-31T07:31:00.999Z</time></trkpt><trkpt lat="45.64272920775915" lon="8.261225616935349"><ele>417.0</ele><time>2026-03-31T07:31:01.999Z</time></trkpt><trkpt lat="45.64279894456739" lon="8.26120655928049"><ele>419.8333333333333</ele><time>2026-03-31T07:31:02.999Z</time></trkpt><trkpt lat="45.642867632002506" lon="8.261139268177336"><ele>422.66666666666663</ele><time>2026-03-31T07:31:03.999Z</time></trkpt><trkpt lat="45.64290111308814" lon="8.261051777392124"><ele>425.5</ele><time>2026-03-31T07:31:04.999Z</time></trkpt><trkpt lat="45.642945485644496" lon="8.260983971307311"><ele>428.3333333333333</ele><time>2026-03-31T07:31:05.999Z</time></trkpt><trkpt lat="45.642996342407464" lon="8.260930265522285"><ele>431.16666666666663</ele><time>2026-03-31T07:31:06.999Z</time></trkpt><trkpt lat="45.64309997097763" lon="8.260968264100416"><ele>434.0</ele><time>2026-03-31T07:31:08.999Z</time></trkpt><trkpt lat="45.64316992919644" lon="8.261006221034322"><ele>434.0</ele><time>2026-03-31T07:31:09.999Z</time></trkpt><trkpt lat="45.64329104373402" lon="8.260991725123747"><ele>434.0</ele><time>2026-03-31T07:31:11.999Z</time></trkpt><trkpt lat="45.643348894062186" lon="8.260939467810934"><ele>434.0</ele><time>2026-03-31T07:31:12.999Z</time></trkpt><trkpt lat="45.643388051778516" lon="8.2608651206089"><ele>434.0</ele><time>2026-03-31T07:31:13.999Z</time></trkpt><trkpt lat="45.64342045442465" lon="8.260698888302286"><ele>434.0</ele><time>2026-03-31T07:31:15.999Z</time></trkpt><trkpt lat="45.64343308245615" lon="8.26051774065562"><ele>432.4</ele><time>2026-03-31T07:31:17.999Z</time></trkpt><trkpt lat="45.64345860399063" lon="8.260379123757048"><ele>430.79999999999995</ele><time>2026-03-31T07:31:19.999Z</time></trkpt><trkpt lat="45.64349106679531" lon="8.260292787248423"><ele>429.20000000000005</ele><time>2026-03-31T07:31:20.999Z</time></trkpt><trkpt lat="45.64359562054839" lon="8.260202582503421"><ele>427.6</ele><time>2026-03-31T07:31:22.999Z</time></trkpt><trkpt lat="45.64362678511636" lon="8.260123008594046"><ele>426.0</ele><time>2026-03-31T07:31:23.999Z</time></trkpt><trkpt lat="45.64371904901692" lon="8.259964786622144"><ele>426.0</ele><time>2026-03-31T07:31:25.999Z</time></trkpt><trkpt lat="45.643797071354804" lon="8.25988626701993"><ele>426.0</ele><time>2026-03-31T07:31:27Z</time></trkpt><trkpt lat="45.64385294898541" lon="8.259817058745805"><ele>426.0</ele><time>2026-03-31T07:31:28Z</time></trkpt><trkpt lat="45.64390938460897" lon="8.259765027802406"><ele>426.0</ele><time>2026-03-31T07:31:29Z</time></trkpt><trkpt lat="45.64401260081774" lon="8.259666358965774"><ele>426.0</ele><time>2026-03-31T07:31:31Z</time></trkpt><trkpt lat="45.6440837313376" lon="8.259611619779355"><ele>426.0</ele><time>2026-03-31T07:31:32Z</time></trkpt><trkpt lat="45.64415330076449" lon="8.259600125729753"><ele>425.20000000000005</ele><time>2026-03-31T07:31:33Z</time></trkpt><trkpt lat="45.64421012232964" lon="8.259557498047862"><ele>424.40000000000003</ele><time>2026-03-31T07:31:34Z</time></trkpt><trkpt lat="45.644304021670315" lon="8.259476793572826"><ele>423.6</ele><time>2026-03-31T07:31:36Z</time></trkpt><trkpt lat="45.64437115586551" lon="8.259370847019184"><ele>422.8</ele><time>2026-03-31T07:31:38Z</time></trkpt><trkpt lat="45.64447127958831" lon="8.259397243488905"><ele>422.0</ele><time>2026-03-31T07:31:40Z</time></trkpt><trkpt lat="45.644583863470935" lon="8.259442818304347"><ele>426.99999999999994</ele><time>2026-03-31T07:31:42Z</time></trkpt><trkpt lat="45.644693399901364" lon="8.259414104105678"><ele>432.0</ele><time>2026-03-31T07:31:44Z</time></trkpt><trkpt lat="45.644761483862816" lon="8.259402178760803"><ele>437.0</ele><time>2026-03-31T07:31:45Z</time></trkpt><trkpt lat="45.64485692852911" lon="8.259342750107056"><ele>442.0</ele><time>2026-03-31T07:31:48Z</time></trkpt><trkpt lat="45.64492429742924" lon="8.259324441571186"><ele>446.99999999999994</ele><time>2026-03-31T07:31:49Z</time></trkpt><trkpt lat="45.64498567818832" lon="8.2592857314122"><ele>452.0</ele><time>2026-03-31T07:31:50Z</time></trkpt><trkpt lat="45.64510166450956" lon="8.259264778403612"><ele>451.99999999999994</ele><time>2026-03-31T07:31:52Z</time></trkpt><trkpt lat="45.64517853305364" lon="8.259263277624724"><ele>452.0</ele><time>2026-03-31T07:31:53Z</time></trkpt><trkpt lat="45.645282889218095" lon="8.25920674088206"><ele>452.0</ele><time>2026-03-31T07:31:55Z</time></trkpt><trkpt lat="45.6453321260194" lon="8.259122509106664"><ele>452.0</ele><time>2026-03-31T07:31:56Z</time></trkpt><trkpt lat="45.64538050372017" lon="8.259055098383099"><ele>451.99999999999994</ele><time>2026-03-31T07:31:57Z</time></trkpt><trkpt lat="45.645476552431795" lon="8.259002935281496"><ele>452.0</ele><time>2026-03-31T07:31:59Z</time></trkpt><trkpt lat="45.645599150944655" lon="8.258961713802393"><ele>449.8333333333333</ele><time>2026-03-31T07:32:01Z</time></trkpt><trkpt lat="45.64567488566819" lon="8.258930545303336"><ele>447.66666666666663</ele><time>2026-03-31T07:32:02Z</time></trkpt><trkpt lat="45.645767110509375" lon="8.258922105611123"><ele>445.5</ele><time>2026-03-31T07:32:03Z</time></trkpt><trkpt lat="45.64584872876105" lon="8.258920876506078"><ele>443.33333333333337</ele><time>2026-03-31T07:32:04Z</time></trkpt><trkpt lat="45.64595371054041" lon="8.258896090370547"><ele>441.1666666666667</ele><time>2026-03-31T07:32:06Z</time></trkpt><trkpt lat="45.64602410282172" lon="8.258891810020648"><ele>439.0</ele><time>2026-03-31T07:32:07Z</time></trkpt><trkpt lat="45.646087944232384" lon="8.258879107447193"><ele>439.79999999999995</ele><time>2026-03-31T07:32:08Z</time></trkpt><trkpt lat="45.64615560301359" lon="8.258869441919568"><ele>440.59999999999997</ele><time>2026-03-31T07:32:09Z</time></trkpt><trkpt lat="45.64622898936428" lon="8.258824002449181"><ele>441.4</ele><time>2026-03-31T07:32:11Z</time></trkpt><trkpt lat="45.646343574602696" lon="8.258851526942943"><ele>442.2</ele><time>2026-03-31T07:32:13Z</time></trkpt><trkpt lat="45.646473128874746" lon="8.25893176249798"><ele>443.0</ele><time>2026-03-31T07:32:15Z</time></trkpt><trkpt lat="45.64657404046363" lon="8.258998828426362"><ele>446.4</ele><time>2026-03-31T07:32:17Z</time></trkpt><trkpt lat="45.64666909434272" lon="8.259036350590709"><ele>449.79999999999995</ele><time>2026-03-31T07:32:19Z</time></trkpt><trkpt lat="45.646733075625136" lon="8.259033461128059"><ele>453.2</ele><time>2026-03-31T07:32:20Z</time></trkpt><trkpt lat="45.646898457471345" lon="8.258968189496537"><ele>456.6</ele><time>2026-03-31T07:32:22Z</time></trkpt><trkpt lat="45.64699600442223" lon="8.25902348907925"><ele>460.0</ele><time>2026-03-31T07:32:24Z</time></trkpt><trkpt lat="45.64708898644129" lon="8.259008467394533"><ele>460.0</ele><time>2026-03-31T07:32:26Z</time></trkpt><trkpt lat="45.64721953124469" lon="8.25899625808092"><ele>460.0</ele><time>2026-03-31T07:32:28Z</time></trkpt><trkpt lat="45.64731627508194" lon="8.258940363969376"><ele>460.0</ele><time>2026-03-31T07:32:30Z</time></trkpt><trkpt lat="45.64742543002113" lon="8.258875042238394"><ele>460.0</ele><time>2026-03-31T07:32:32Z</time></trkpt><trkpt lat="45.64749933527087" lon="8.258851107851298"><ele>460.0</ele><time>2026-03-31T07:32:33Z</time></trkpt><trkpt lat="45.64757694359507" lon="8.258820662291694"><ele>459.33333333333337</ele><time>2026-03-31T07:32:34Z</time></trkpt><trkpt lat="45.64765273064544" lon="8.258802629214339"><ele>458.6666666666667</ele><time>2026-03-31T07:32:35Z</time></trkpt><trkpt lat="45.647727744717734" lon="8.258820408490685"><ele>458.0</ele><time>2026-03-31T07:32:36Z</time></trkpt><trkpt lat="45.647803063189045" lon="8.258858864596705"><ele>457.33333333333337</ele><time>2026-03-31T07:32:37Z</time></trkpt><trkpt lat="45.64788636148878" lon="8.258885918167367"><ele>456.6666666666667</ele><time>2026-03-31T07:32:38Z</time></trkpt><trkpt lat="45.64796286700016" lon="8.258912394293455"><ele>456.0</ele><time>2026-03-31T07:32:39Z</time></trkpt><trkpt lat="45.648052250893564" lon="8.258933883305414"><ele>456.0</ele><time>2026-03-31T07:32:40Z</time></trkpt><trkpt lat="45.64814338356086" lon="8.258974179885035"><ele>456.0</ele><time>2026-03-31T07:32:41Z</time></trkpt><trkpt lat="45.648231612268084" lon="8.2589806030918"><ele>456.0</ele><time>2026-03-31T07:32:42Z</time></trkpt><trkpt lat="45.648331666075386" lon="8.258958532120532"><ele>456.0</ele><time>2026-03-31T07:32:44Z</time></trkpt><trkpt lat="45.648440197657834" lon="8.258839181617667"><ele>456.0</ele><time>2026-03-31T07:32:46Z</time></trkpt><trkpt lat="45.64850611894994" lon="8.258775439652553"><ele>456.0</ele><time>2026-03-31T07:32:47Z</time></trkpt><trkpt lat="45.6485788888223" lon="8.25877903810199"><ele>456.0</ele><time>2026-03-31T07:32:48Z</time></trkpt><trkpt lat="45.648639061581626" lon="8.258812541418267"><ele>456.0</ele><time>2026-03-31T07:32:49Z</time></trkpt><trkpt lat="45.64870346488245" lon="8.258843310337797"><ele>456.0</ele><time>2026-03-31T07:32:50Z</time></trkpt><trkpt lat="45.64876691001814" lon="8.258850091180904"><ele>456.0</ele><time>2026-03-31T07:32:51Z</time></trkpt><trkpt lat="45.64889184442488" lon="8.258810879080109"><ele>456.0</ele><time>2026-03-31T07:32:52.999Z</time></trkpt><trkpt lat="45.64895909047647" lon="8.258790151889752"><ele>455.0</ele><time>2026-03-31T07:32:53.999Z</time></trkpt><trkpt lat="45.649023831319795" lon="8.258771174302288"><ele>454.0</ele><time>2026-03-31T07:32:54.999Z</time></trkpt><trkpt lat="45.6491006384299" lon="8.258778806819453"><ele>453.0</ele><time>2026-03-31T07:32:55.999Z</time></trkpt><trkpt lat="45.64918027301351" lon="8.258788619427415"><ele>452.0</ele><time>2026-03-31T07:32:56.999Z</time></trkpt><trkpt lat="45.649252651180646" lon="8.25878269006474"><ele>451.0</ele><time>2026-03-31T07:32:57.999Z</time></trkpt><trkpt lat="45.64932629195681" lon="8.258774452855054"><ele>450.0</ele><time>2026-03-31T07:32:58.999Z</time></trkpt><trkpt lat="45.649425071576644" lon="8.25870705380605"><ele>449.4</ele><time>2026-03-31T07:33:00.999Z</time></trkpt><trkpt lat="45.64954043239526" lon="8.258609950119615"><ele>448.8</ele><time>2026-03-31T07:33:02.999Z</time></trkpt><trkpt lat="45.64963982165612" lon="8.258550868251143"><ele>448.20000000000005</ele><time>2026-03-31T07:33:04.999Z</time></trkpt><trkpt lat="45.64971255804135" lon="8.258556976033102"><ele>447.6</ele><time>2026-03-31T07:33:06.999Z</time></trkpt><trkpt lat="45.64981574173607" lon="8.2585734239714"><ele>447.0</ele><time>2026-03-31T07:33:08.999Z</time></trkpt><trkpt lat="45.64987796432059" lon="8.258614772046606"><ele>447.0</ele><time>2026-03-31T07:33:09.999Z</time></trkpt><trkpt lat="45.64994979836183" lon="8.258614900523149"><ele>447.00000000000006</ele><time>2026-03-31T07:33:10.999Z</time></trkpt><trkpt lat="45.6500815153687" lon="8.258625139393633"><ele>447.00000000000006</ele><time>2026-03-31T07:33:12.999Z</time></trkpt><trkpt lat="45.65019168213531" lon="8.258652017634256"><ele>447.0</ele><time>2026-03-31T07:33:14.999Z</time></trkpt><trkpt lat="45.65028529616325" lon="8.258633374111485"><ele>447.0</ele><time>2026-03-31T07:33:16.999Z</time></trkpt><trkpt lat="45.65034376449314" lon="8.258666986614081"><ele>446.20000000000005</ele><time>2026-03-31T07:33:17.999Z</time></trkpt><trkpt lat="45.65045489110004" lon="8.25874594429618"><ele>445.40000000000003</ele><time>2026-03-31T07:33:19.999Z</time></trkpt><trkpt lat="45.650528148387885" lon="8.258799663005812"><ele>444.59999999999997</ele><time>2026-03-31T07:33:20.999Z</time></trkpt><trkpt lat="45.65061628836341" lon="8.258860238344019"><ele>443.79999999999995</ele><time>2026-03-31T07:33:21.999Z</time></trkpt><trkpt lat="45.65070436848009" lon="8.258904789719878"><ele>443.0</ele><time>2026-03-31T07:33:22.999Z</time></trkpt><trkpt lat="45.65076944633185" lon="8.258946300837604"><ele>442.99999999999994</ele><time>2026-03-31T07:33:23.999Z</time></trkpt><trkpt lat="45.65085677187511" lon="8.258992697451616"><ele>443.0</ele><time>2026-03-31T07:33:25.999Z</time></trkpt><trkpt lat="45.65092096936849" lon="8.258952487158195"><ele>443.0</ele><time>2026-03-31T07:33:27.999Z</time></trkpt><trkpt lat="45.65099162816963" lon="8.258897007249722"><ele>443.0</ele><time>2026-03-31T07:33:29.999Z</time></trkpt><trkpt lat="45.65108100258023" lon="8.258888798132958"><ele>442.99999999999994</ele><time>2026-03-31T07:33:31.999Z</time></trkpt><trkpt lat="45.65115004859575" lon="8.258894665292129"><ele>443.0</ele><time>2026-03-31T07:33:33Z</time></trkpt><trkpt lat="45.65125529980669" lon="8.258922614583307"><ele>443.3333333333333</ele><time>2026-03-31T07:33:35Z</time></trkpt><trkpt lat="45.65132844405812" lon="8.258975676861517"><ele>443.66666666666663</ele><time>2026-03-31T07:33:37Z</time></trkpt><trkpt lat="45.6513541157821" lon="8.25906378450964"><ele>444.0</ele><time>2026-03-31T07:33:40Z</time></trkpt><trkpt lat="45.6514091727615" lon="8.259145174059174"><ele>444.33333333333337</ele><time>2026-03-31T07:33:42Z</time></trkpt><trkpt lat="45.65147559430669" lon="8.259286234857063"><ele>444.6666666666667</ele><time>2026-03-31T07:33:44Z</time></trkpt><trkpt lat="45.651494233058" lon="8.259384154436885"><ele>445.0</ele><time>2026-03-31T07:33:45Z</time></trkpt><trkpt lat="45.651469593857826" lon="8.25947592230007"><ele>445.0</ele><time>2026-03-31T07:33:46Z</time></trkpt><trkpt lat="45.6513657388915" lon="8.259633300400456"><ele>445.0</ele><time>2026-03-31T07:33:47Z</time></trkpt><trkpt lat="45.65129497302319" lon="8.259657767506432"><ele>445.0</ele><time>2026-03-31T07:33:48Z</time></trkpt><trkpt lat="45.65121350756733" lon="8.259755137044214"><ele>445.0</ele><time>2026-03-31T07:33:50Z</time></trkpt><trkpt lat="45.65113850204112" lon="8.259775714501219"><ele>445.0</ele><time>2026-03-31T07:33:52Z</time></trkpt><trkpt lat="45.65109199077296" lon="8.259837682379722"><ele>443.25</ele><time>2026-03-31T07:33:54Z</time></trkpt><trkpt lat="45.651031637292185" lon="8.259891095081407"><ele>441.5</ele><time>2026-03-31T07:33:56Z</time></trkpt><trkpt lat="45.65099792865182" lon="8.259979571093421"><ele>439.75</ele><time>2026-03-31T07:33:58Z</time></trkpt><trkpt lat="45.65084453802335" lon="8.260219319385"><ele>438.0</ele><time>2026-03-31T07:34:00Z</time></trkpt><trkpt lat="45.65083249470513" lon="8.260385965067888"><ele>438.0</ele><time>2026-03-31T07:34:02Z</time></trkpt><trkpt lat="45.650886668417826" lon="8.260518112107647"><ele>437.99999999999994</ele><time>2026-03-31T07:34:04Z</time></trkpt><trkpt lat="45.650984099053794" lon="8.260604054327567"><ele>437.99999999999994</ele><time>2026-03-31T07:34:06Z</time></trkpt><trkpt lat="45.65108386405336" lon="8.260672758969339"><ele>438.0</ele><time>2026-03-31T07:34:08Z</time></trkpt><trkpt lat="45.651163190393895" lon="8.260684837124984"><ele>438.0</ele><time>2026-03-31T07:34:10Z</time></trkpt><trkpt lat="45.65122846696325" lon="8.260698082986728"><ele>436.4</ele><time>2026-03-31T07:34:12Z</time></trkpt><trkpt lat="45.651301221313695" lon="8.260738384372125"><ele>434.79999999999995</ele><time>2026-03-31T07:34:14Z</time></trkpt><trkpt lat="45.65138332906387" lon="8.260843543320533"><ele>433.2</ele><time>2026-03-31T07:34:16Z</time></trkpt><trkpt lat="45.6514719721185" lon="8.260958894892045"><ele>431.6</ele><time>2026-03-31T07:34:18Z</time></trkpt><trkpt lat="45.65152968094588" lon="8.2610233073923"><ele>430.0</ele><time>2026-03-31T07:34:19Z</time></trkpt><trkpt lat="45.65165119032378" lon="8.261055754364673"><ele>430.00000000000006</ele><time>2026-03-31T07:34:21Z</time></trkpt><trkpt lat="45.65175976450309" lon="8.261099149620199"><ele>430.0</ele><time>2026-03-31T07:34:23Z</time></trkpt><trkpt lat="45.651814170739094" lon="8.261172669128355"><ele>430.0</ele><time>2026-03-31T07:34:24Z</time></trkpt><trkpt lat="45.65186513650936" lon="8.261227068828449"><ele>430.0</ele><time>2026-03-31T07:34:25Z</time></trkpt><trkpt lat="45.651921618640706" lon="8.261272711870676"><ele>430.00000000000006</ele><time>2026-03-31T07:34:26Z</time></trkpt><trkpt lat="45.652030005465235" lon="8.261323233215197"><ele>430.0</ele><time>2026-03-31T07:34:28Z</time></trkpt><trkpt lat="45.65209770166536" lon="8.261330291658165"><ele>430.2</ele><time>2026-03-31T07:34:29Z</time></trkpt><trkpt lat="45.65216700260125" lon="8.2613162029256"><ele>430.4</ele><time>2026-03-31T07:34:30Z</time></trkpt><trkpt lat="45.65223650058534" lon="8.261307989019205"><ele>430.6</ele><time>2026-03-31T07:34:31Z</time></trkpt><trkpt lat="45.652352099620536" lon="8.261393045802853"><ele>430.8</ele><time>2026-03-31T07:34:33Z</time></trkpt><trkpt lat="45.65249325883387" lon="8.261424183908712"><ele>431.0</ele><time>2026-03-31T07:34:35Z</time></trkpt><trkpt lat="45.65260833227479" lon="8.26132006788814"><ele>431.0</ele><time>2026-03-31T07:34:37Z</time></trkpt><trkpt lat="45.652733254607455" lon="8.261262299880597"><ele>431.0</ele><time>2026-03-31T07:34:39Z</time></trkpt><trkpt lat="45.65279915705421" lon="8.261209012078071"><ele>431.0</ele><time>2026-03-31T07:34:40Z</time></trkpt><trkpt lat="45.652851389121295" lon="8.261113506917027"><ele>431.0</ele><time>2026-03-31T07:34:42Z</time></trkpt><trkpt lat="45.652926104597455" lon="8.261045016507888"><ele>431.0</ele><time>2026-03-31T07:34:44Z</time></trkpt><trkpt lat="45.65297796701169" lon="8.260976271453798"><ele>428.4</ele><time>2026-03-31T07:34:45Z</time></trkpt><trkpt lat="45.65304711492374" lon="8.260841944671604"><ele>425.8</ele><time>2026-03-31T07:34:47Z</time></trkpt><trkpt lat="45.65312969499032" lon="8.26078137071213"><ele>423.2</ele><time>2026-03-31T07:34:48Z</time></trkpt><trkpt lat="45.65319513953277" lon="8.260760276000255"><ele>420.59999999999997</ele><time>2026-03-31T07:34:49Z</time></trkpt><trkpt lat="45.65329796303069" lon="8.26073670289937"><ele>418.0</ele><time>2026-03-31T07:34:51Z</time></trkpt><trkpt lat="45.65352208023313" lon="8.260628586245552"><ele>418.50000000000006</ele><time>2026-03-31T07:34:53Z</time></trkpt><trkpt lat="45.653597251628966" lon="8.26059537979871"><ele>419.0</ele><time>2026-03-31T07:34:54Z</time></trkpt><trkpt lat="45.65366538617522" lon="8.260540841664572"><ele>419.5</ele><time>2026-03-31T07:34:55Z</time></trkpt><trkpt lat="45.653733778836155" lon="8.260483399011665"><ele>420.0</ele><time>2026-03-31T07:34:56Z</time></trkpt><trkpt lat="45.65379977483135" lon="8.26044752032326"><ele>420.50000000000006</ele><time>2026-03-31T07:34:57Z</time></trkpt><trkpt lat="45.653870989486805" lon="8.260405471580565"><ele>421.0</ele><time>2026-03-31T07:34:58Z</time></trkpt><trkpt lat="45.653951842765856" lon="8.26036505927671"><ele>421.00000000000006</ele><time>2026-03-31T07:34:59Z</time></trkpt><trkpt lat="45.65403839659505" lon="8.260367048266737"><ele>421.0</ele><time>2026-03-31T07:35:00Z</time></trkpt><trkpt lat="45.65412290457545" lon="8.260341870440895"><ele>421.0</ele><time>2026-03-31T07:35:01Z</time></trkpt><trkpt lat="45.65418419252807" lon="8.260303905857976"><ele>421.0</ele><time>2026-03-31T07:35:02Z</time></trkpt><trkpt lat="45.65423994550574" lon="8.260259433958968"><ele>421.00000000000006</ele><time>2026-03-31T07:35:03Z</time></trkpt><trkpt lat="45.65429807297587" lon="8.260189308642794"><ele>421.0</ele><time>2026-03-31T07:35:05Z</time></trkpt><trkpt lat="45.654384310582515" lon="8.260146425944402"><ele>421.20000000000005</ele><time>2026-03-31T07:35:07Z</time></trkpt><trkpt lat="45.65445849527394" lon="8.260197446500204"><ele>421.40000000000003</ele><time>2026-03-31T07:35:08Z</time></trkpt><trkpt lat="45.65451397108755" lon="8.26029104346431"><ele>421.6</ele><time>2026-03-31T07:35:09Z</time></trkpt><trkpt lat="45.65455072623346" lon="8.260400484882702"><ele>421.8</ele><time>2026-03-31T07:35:10Z</time></trkpt><trkpt lat="45.654593762599404" lon="8.260529998038576"><ele>422.0</ele><time>2026-03-31T07:35:11Z</time></trkpt><trkpt lat="45.65463417062017" lon="8.260662027918528"><ele>421.99999999999994</ele><time>2026-03-31T07:35:12Z</time></trkpt><trkpt lat="45.654666532915" lon="8.260784823590956"><ele>422.0</ele><time>2026-03-31T07:35:13Z</time></trkpt><trkpt lat="45.654705124162795" lon="8.260888673750161"><ele>422.0</ele><time>2026-03-31T07:35:14Z</time></trkpt><trkpt lat="45.65473690923866" lon="8.26099973610403"><ele>422.0</ele><time>2026-03-31T07:35:15Z</time></trkpt><trkpt lat="45.65477416339345" lon="8.261087430087017"><ele>421.99999999999994</ele><time>2026-03-31T07:35:16Z</time></trkpt><trkpt lat="45.65481851750939" lon="8.261209263841288"><ele>422.0</ele><time>2026-03-31T07:35:16.999Z</time></trkpt><trkpt lat="45.65487257633043" lon="8.26132233570872"><ele>421.99999999999994</ele><time>2026-03-31T07:35:17.999Z</time></trkpt><trkpt lat="45.65492390812305" lon="8.261430487248274"><ele>422.0</ele><time>2026-03-31T07:35:18.999Z</time></trkpt><trkpt lat="45.654970562933926" lon="8.261535983583984"><ele>422.0</ele><time>2026-03-31T07:35:19.999Z</time></trkpt><trkpt lat="45.65501621994076" lon="8.261640719551846"><ele>422.0</ele><time>2026-03-31T07:35:20.999Z</time></trkpt><trkpt lat="45.65505606598073" lon="8.261733509460253"><ele>421.99999999999994</ele><time>2026-03-31T07:35:21.999Z</time></trkpt><trkpt lat="45.655073015548254" lon="8.26182849566116"><ele>422.0</ele><time>2026-03-31T07:35:22.999Z</time></trkpt><trkpt lat="45.65506027538038" lon="8.261929401603444"><ele>419.66666666666663</ele><time>2026-03-31T07:35:23.999Z</time></trkpt><trkpt lat="45.65498181984841" lon="8.261984713636629"><ele>417.3333333333333</ele><time>2026-03-31T07:35:24.999Z</time></trkpt><trkpt lat="45.654925648996965" lon="8.262074551761069"><ele>415.0</ele><time>2026-03-31T07:35:25.999Z</time></trkpt><trkpt lat="45.654885063339655" lon="8.262175746190195"><ele>412.66666666666663</ele><time>2026-03-31T07:35:26.999Z</time></trkpt><trkpt lat="45.65483727554285" lon="8.262278586693233"><ele>410.3333333333333</ele><time>2026-03-31T07:35:27.999Z</time></trkpt><trkpt lat="45.654790989651204" lon="8.262400964976127"><ele>408.0</ele><time>2026-03-31T07:35:28.999Z</time></trkpt><trkpt lat="45.654759300254696" lon="8.2625191156771"><ele>407.59999999999997</ele><time>2026-03-31T07:35:29.999Z</time></trkpt><trkpt lat="45.65473902450753" lon="8.262639643234438"><ele>407.2</ele><time>2026-03-31T07:35:30.999Z</time></trkpt><trkpt lat="45.65471832447213" lon="8.262745323800786"><ele>406.8</ele><time>2026-03-31T07:35:31.999Z</time></trkpt><trkpt lat="45.65473643299446" lon="8.262845621533724"><ele>406.4</ele><time>2026-03-31T07:35:32.999Z</time></trkpt><trkpt lat="45.654728718745815" lon="8.262940523286197"><ele>406.0</ele><time>2026-03-31T07:35:34.999Z</time></trkpt><trkpt lat="45.654812436184876" lon="8.263140418623262"><ele>405.6</ele><time>2026-03-31T07:35:35.999Z</time></trkpt><trkpt lat="45.65487926505048" lon="8.263257983842077"><ele>405.20000000000005</ele><time>2026-03-31T07:35:36.999Z</time></trkpt><trkpt lat="45.6549339212654" lon="8.263358224861324"><ele>404.79999999999995</ele><time>2026-03-31T07:35:38Z</time></trkpt><trkpt lat="45.655010771381946" lon="8.263454084603312"><ele>404.4</ele><time>2026-03-31T07:35:39Z</time></trkpt><trkpt lat="45.655026100618805" lon="8.263548699014647"><ele>404.0</ele><time>2026-03-31T07:35:40Z</time></trkpt><trkpt lat="45.65505602861324" lon="8.263734264375556"><ele>404.0</ele><time>2026-03-31T07:35:41Z</time></trkpt><trkpt lat="45.65508599468435" lon="8.263868563676112"><ele>404.0</ele><time>2026-03-31T07:35:42Z</time></trkpt><trkpt lat="45.655141954155184" lon="8.264080441726305"><ele>404.0</ele><time>2026-03-31T07:35:44Z</time></trkpt><trkpt lat="45.655175744106344" lon="8.264176473134153"><ele>404.0</ele><time>2026-03-31T07:35:45Z</time></trkpt><trkpt lat="45.655206518706784" lon="8.264263606477739"><ele>404.0</ele><time>2026-03-31T07:35:46Z</time></trkpt><trkpt lat="45.65525147422377" lon="8.264390890905736"><ele>402.6</ele><time>2026-03-31T07:35:47Z</time></trkpt><trkpt lat="45.65525288025023" lon="8.264561235662006"><ele>401.2</ele><time>2026-03-31T07:35:49Z</time></trkpt><trkpt lat="45.65522762334449" lon="8.264653411101214"><ele>399.8</ele><time>2026-03-31T07:35:50Z</time></trkpt><trkpt lat="45.65514423032974" lon="8.264809767852038"><ele>398.40000000000003</ele><time>2026-03-31T07:35:52Z</time></trkpt><trkpt lat="45.65511282022829" lon="8.264893085661082"><ele>397.0</ele><time>2026-03-31T07:35:53Z</time></trkpt><trkpt lat="45.655064033418455" lon="8.26500275729064"><ele>396.0</ele><time>2026-03-31T07:35:54Z</time></trkpt><trkpt lat="45.655029318466816" lon="8.26512886412068"><ele>395.0</ele><time>2026-03-31T07:35:55Z</time></trkpt><trkpt lat="45.655018781808" lon="8.2652460935852"><ele>394.0</ele><time>2026-03-31T07:35:56Z</time></trkpt><trkpt lat="45.655081307074106" lon="8.265418728905413"><ele>393.0</ele><time>2026-03-31T07:35:57Z</time></trkpt><trkpt lat="45.65501719332036" lon="8.265585537613932"><ele>392.0</ele><time>2026-03-31T07:35:59Z</time></trkpt><trkpt lat="45.654978814049194" lon="8.265856724881651"><ele>392.0</ele><time>2026-03-31T07:36:01Z</time></trkpt><trkpt lat="45.6549911390067" lon="8.265986214976852"><ele>392.0</ele><time>2026-03-31T07:36:03Z</time></trkpt><trkpt lat="45.655050394737884" lon="8.266072023743444"><ele>392.0</ele><time>2026-03-31T07:36:04Z</time></trkpt><trkpt lat="45.65509659521072" lon="8.266168144219634"><ele>392.0</ele><time>2026-03-31T07:36:05Z</time></trkpt><trkpt lat="45.65518214518204" lon="8.266318198230014"><ele>392.0</ele><time>2026-03-31T07:36:06Z</time></trkpt><trkpt lat="45.65522418899571" lon="8.266452887680535"><ele>392.0</ele><time>2026-03-31T07:36:07Z</time></trkpt><trkpt lat="45.65524193139527" lon="8.266577769647945"><ele>392.0</ele><time>2026-03-31T07:36:08Z</time></trkpt><trkpt lat="45.65525567312983" lon="8.266745650521935"><ele>392.0</ele><time>2026-03-31T07:36:10Z</time></trkpt><trkpt lat="45.65517279269202" lon="8.266799370172333"><ele>392.0</ele><time>2026-03-31T07:36:12Z</time></trkpt><trkpt lat="45.65507520447138" lon="8.26674412745225"><ele>392.0</ele><time>2026-03-31T07:36:14Z</time></trkpt><trkpt lat="45.65498261920418" lon="8.266705069609777"><ele>392.0</ele><time>2026-03-31T07:36:15Z</time></trkpt><trkpt lat="45.654870230651824" lon="8.266646213333251"><ele>392.0</ele><time>2026-03-31T07:36:16Z</time></trkpt><trkpt lat="45.654747504992095" lon="8.26657682950374"><ele>392.0</ele><time>2026-03-31T07:36:17Z</time></trkpt><trkpt lat="45.65464507893983" lon="8.26651724800999"><ele>392.0</ele><time>2026-03-31T07:36:18Z</time></trkpt><trkpt lat="45.65455255298696" lon="8.266460100110637"><ele>391.8</ele><time>2026-03-31T07:36:19Z</time></trkpt><trkpt lat="45.654459228676814" lon="8.26640095397961"><ele>391.6</ele><time>2026-03-31T07:36:20Z</time></trkpt><trkpt lat="45.654366556845964" lon="8.266342221365852"><ele>391.40000000000003</ele><time>2026-03-31T07:36:21Z</time></trkpt><trkpt lat="45.65427337348985" lon="8.266287275489484"><ele>391.20000000000005</ele><time>2026-03-31T07:36:22Z</time></trkpt><trkpt lat="45.654191804460915" lon="8.26624603421231"><ele>391.0</ele><time>2026-03-31T07:36:23Z</time></trkpt><trkpt lat="45.654104635725474" lon="8.266210961451106"><ele>390.25</ele><time>2026-03-31T07:36:24Z</time></trkpt><trkpt lat="45.6539834718671" lon="8.266251236424644"><ele>389.5</ele><time>2026-03-31T07:36:27Z</time></trkpt><trkpt lat="45.653906543465865" lon="8.266335883145183"><ele>388.75</ele><time>2026-03-31T07:36:30Z</time></trkpt><trkpt lat="45.65399890059786" lon="8.26651293097473"><ele>388.0</ele><time>2026-03-31T07:36:34Z</time></trkpt><trkpt lat="45.65407462647979" lon="8.266545737376758"><ele>389.0</ele><time>2026-03-31T07:36:35Z</time></trkpt><trkpt lat="45.6541913272058" lon="8.266595981597325"><ele>390.0</ele><time>2026-03-31T07:36:36Z</time></trkpt><trkpt lat="45.65429950144401" lon="8.266643305804873"><ele>391.0</ele><time>2026-03-31T07:36:37Z</time></trkpt><trkpt lat="45.65441636585687" lon="8.266727592203047"><ele>392.0</ele><time>2026-03-31T07:36:38Z</time></trkpt><trkpt lat="45.65451372893503" lon="8.266791160005596"><ele>391.99999999999994</ele><time>2026-03-31T07:36:39Z</time></trkpt><trkpt lat="45.6545776689771" lon="8.266821251267729"><ele>392.0</ele><time>2026-03-31T07:36:40Z</time></trkpt><trkpt lat="45.65466170486549" lon="8.266868752835213"><ele>392.0</ele><time>2026-03-31T07:36:41Z</time></trkpt><trkpt lat="45.654757444060714" lon="8.266939802543869"><ele>392.0</ele><time>2026-03-31T07:36:42Z</time></trkpt><trkpt lat="45.654842705293305" lon="8.266991762753591"><ele>391.99999999999994</ele><time>2026-03-31T07:36:43Z</time></trkpt><trkpt lat="45.6549158027358" lon="8.267044924889356"><ele>392.0</ele><time>2026-03-31T07:36:44Z</time></trkpt><trkpt lat="45.65495824533279" lon="8.267117757231818"><ele>392.0</ele><time>2026-03-31T07:36:45Z</time></trkpt><trkpt lat="45.65492064230635" lon="8.267270480834314"><ele>392.0</ele><time>2026-03-31T07:36:46Z</time></trkpt><trkpt lat="45.65495561350831" lon="8.267400275312248"><ele>392.0</ele><time>2026-03-31T07:36:47Z</time></trkpt><trkpt lat="45.654996548345345" lon="8.267522750239456"><ele>392.0</ele><time>2026-03-31T07:36:48Z</time></trkpt><trkpt lat="45.65503418883166" lon="8.267631027233751"><ele>392.0</ele><time>2026-03-31T07:36:49Z</time></trkpt><trkpt lat="45.65506534244457" lon="8.267720149641786"><ele>393.99999999999994</ele><time>2026-03-31T07:36:50Z</time></trkpt><trkpt lat="45.65509056891328" lon="8.267858989469062"><ele>396.0</ele><time>2026-03-31T07:36:52Z</time></trkpt><trkpt lat="45.65503479295484" lon="8.268012261893917"><ele>398.0</ele><time>2026-03-31T07:36:54Z</time></trkpt><trkpt lat="45.65500256047192" lon="8.268120260622045"><ele>400.0</ele><time>2026-03-31T07:36:55Z</time></trkpt><trkpt lat="45.65498226265844" lon="8.26820916518714"><ele>401.99999999999994</ele><time>2026-03-31T07:36:56Z</time></trkpt><trkpt lat="45.65497839974856" lon="8.268322113907436"><ele>404.0</ele><time>2026-03-31T07:36:58Z</time></trkpt><trkpt lat="45.65495265376245" lon="8.268404455612949"><ele>405.2</ele><time>2026-03-31T07:37:01Z</time></trkpt><trkpt lat="45.65488948420173" lon="8.268369098262214"><ele>406.4</ele><time>2026-03-31T07:37:02Z</time></trkpt><trkpt lat="45.65480460467399" lon="8.268404753073083"><ele>407.6</ele><time>2026-03-31T07:37:04Z</time></trkpt><trkpt lat="45.65472932805807" lon="8.268444516804447"><ele>408.8</ele><time>2026-03-31T07:37:06Z</time></trkpt><trkpt lat="45.65462300090593" lon="8.268512365518326"><ele>410.0</ele><time>2026-03-31T07:37:08Z</time></trkpt><trkpt lat="45.65454317081004" lon="8.268596184083648"><ele>410.0</ele><time>2026-03-31T07:37:09Z</time></trkpt><trkpt lat="45.65448640331085" lon="8.268692709077067"><ele>410.0</ele><time>2026-03-31T07:37:10Z</time></trkpt><trkpt lat="45.65436108693114" lon="8.268775722373357"><ele>410.0</ele><time>2026-03-31T07:37:12Z</time></trkpt><trkpt lat="45.65426167756626" lon="8.268841628925088"><ele>410.0</ele><time>2026-03-31T07:37:13Z</time></trkpt><trkpt lat="45.654174023031224" lon="8.268912895885363"><ele>410.0</ele><time>2026-03-31T07:37:14Z</time></trkpt><trkpt lat="45.65408483835019" lon="8.268989074549985"><ele>409.0</ele><time>2026-03-31T07:37:15Z</time></trkpt><trkpt lat="45.654000109229415" lon="8.269066170521134"><ele>408.0</ele><time>2026-03-31T07:37:16Z</time></trkpt><trkpt lat="45.65391414363044" lon="8.269143164756073"><ele>407.0</ele><time>2026-03-31T07:37:17Z</time></trkpt><trkpt lat="45.65383068058681" lon="8.269214035680376"><ele>406.0</ele><time>2026-03-31T07:37:18Z</time></trkpt><trkpt lat="45.65374645078262" lon="8.269290510158608"><ele>405.0</ele><time>2026-03-31T07:37:19Z</time></trkpt><trkpt lat="45.65365253290871" lon="8.269393855884319"><ele>405.2</ele><time>2026-03-31T07:37:20Z</time></trkpt><trkpt lat="45.65356506740188" lon="8.269498325409165"><ele>405.4</ele><time>2026-03-31T07:37:21Z</time></trkpt><trkpt lat="45.653488611316035" lon="8.269593387197316"><ele>405.6</ele><time>2026-03-31T07:37:22Z</time></trkpt><trkpt lat="45.65344559106906" lon="8.269716033288743"><ele>405.8</ele><time>2026-03-31T07:37:23Z</time></trkpt><trkpt lat="45.65337913939618" lon="8.269788396037605"><ele>406.0</ele><time>2026-03-31T07:37:24Z</time></trkpt><trkpt lat="45.653310437000044" lon="8.26986769430701"><ele>406.00000000000006</ele><time>2026-03-31T07:37:25Z</time></trkpt><trkpt lat="45.653241119577594" lon="8.269928640429807"><ele>406.0</ele><time>2026-03-31T07:37:25.999Z</time></trkpt><trkpt lat="45.653176364863285" lon="8.269991642284001"><ele>406.0</ele><time>2026-03-31T07:37:26.999Z</time></trkpt><trkpt lat="45.65316772502541" lon="8.270108025535382"><ele>406.0</ele><time>2026-03-31T07:37:27.999Z</time></trkpt><trkpt lat="45.65314213511503" lon="8.2702343128497"><ele>406.00000000000006</ele><time>2026-03-31T07:37:28.999Z</time></trkpt><trkpt lat="45.653132953401396" lon="8.27035861845385"><ele>406.0</ele><time>2026-03-31T07:37:29.999Z</time></trkpt><trkpt lat="45.65313175096352" lon="8.27046798014141"><ele>406.00000000000006</ele><time>2026-03-31T07:37:30.999Z</time></trkpt><trkpt lat="45.65313537691021" lon="8.270575555244774"><ele>406.0</ele><time>2026-03-31T07:37:31.999Z</time></trkpt><trkpt lat="45.65316742404202" lon="8.270687565744897"><ele>406.0</ele><time>2026-03-31T07:37:32.999Z</time></trkpt><trkpt lat="45.65323962399587" lon="8.270767621578164"><ele>406.0</ele><time>2026-03-31T07:37:33.999Z</time></trkpt><trkpt lat="45.653280568734615" lon="8.27087093627832"><ele>406.00000000000006</ele><time>2026-03-31T07:37:34.999Z</time></trkpt><trkpt lat="45.653328145897724" lon="8.270963867368515"><ele>406.0</ele><time>2026-03-31T07:37:35.999Z</time></trkpt><trkpt lat="45.6533759474447" lon="8.271056133440856"><ele>405.50000000000006</ele><time>2026-03-31T07:37:36.999Z</time></trkpt><trkpt lat="45.653422430117224" lon="8.271143661038495"><ele>405.0</ele><time>2026-03-31T07:37:37.999Z</time></trkpt><trkpt lat="45.65347071821545" lon="8.271234588290845"><ele>404.5</ele><time>2026-03-31T07:37:38.999Z</time></trkpt><trkpt lat="45.65351301774079" lon="8.271323931178205"><ele>404.0</ele><time>2026-03-31T07:37:39.999Z</time></trkpt><trkpt lat="45.65352692968808" lon="8.271440701572539"><ele>403.50000000000006</ele><time>2026-03-31T07:37:40.999Z</time></trkpt><trkpt lat="45.65347870853733" lon="8.271543105632547"><ele>403.0</ele><time>2026-03-31T07:37:41.999Z</time></trkpt><trkpt lat="45.653457170704186" lon="8.271656505625833"><ele>402.00000000000006</ele><time>2026-03-31T07:37:42.999Z</time></trkpt><trkpt lat="45.65343872547594" lon="8.271772375129162"><ele>401.0</ele><time>2026-03-31T07:37:44Z</time></trkpt><trkpt lat="45.65343297296861" lon="8.27189619286919"><ele>400.0</ele><time>2026-03-31T07:37:45Z</time></trkpt><trkpt lat="45.65343701290967" lon="8.27202471388422"><ele>399.0</ele><time>2026-03-31T07:37:46Z</time></trkpt><trkpt lat="45.65344304161222" lon="8.272141384155116"><ele>398.00000000000006</ele><time>2026-03-31T07:37:47Z</time></trkpt><trkpt lat="45.653449661705196" lon="8.272263268462453"><ele>397.0</ele><time>2026-03-31T07:37:48Z</time></trkpt><trkpt lat="45.65345714103036" lon="8.27237793734578"><ele>396.1666666666667</ele><time>2026-03-31T07:37:49Z</time></trkpt><trkpt lat="45.653463235169724" lon="8.272467701022833"><ele>395.33333333333337</ele><time>2026-03-31T07:37:50Z</time></trkpt><trkpt lat="45.65344358524764" lon="8.272592110566519"><ele>394.5</ele><time>2026-03-31T07:37:52Z</time></trkpt><trkpt lat="45.65334119989059" lon="8.272699125572018"><ele>393.66666666666663</ele><time>2026-03-31T07:37:54Z</time></trkpt><trkpt lat="45.65327799072175" lon="8.272748358141026"><ele>392.8333333333333</ele><time>2026-03-31T07:37:55Z</time></trkpt><trkpt lat="45.65321880737098" lon="8.272812660042641"><ele>392.0</ele><time>2026-03-31T07:37:56Z</time></trkpt><trkpt lat="45.653162294003316" lon="8.272893725496154"><ele>391.99999999999994</ele><time>2026-03-31T07:37:57Z</time></trkpt><trkpt lat="45.65309108046831" lon="8.272968920283557"><ele>392.0</ele><time>2026-03-31T07:37:58Z</time></trkpt><trkpt lat="45.65303294901557" lon="8.273057338702396"><ele>392.0</ele><time>2026-03-31T07:37:59Z</time></trkpt><trkpt lat="45.65297085567674" lon="8.273150275059404"><ele>392.0</ele><time>2026-03-31T07:38:00Z</time></trkpt><trkpt lat="45.65290673543148" lon="8.273243354040869"><ele>391.99999999999994</ele><time>2026-03-31T07:38:01Z</time></trkpt><trkpt lat="45.6528474300757" lon="8.273325806455126"><ele>392.0</ele><time>2026-03-31T07:38:02Z</time></trkpt><trkpt lat="45.65278002475103" lon="8.273419520272416"><ele>391.49999999999994</ele><time>2026-03-31T07:38:03Z</time></trkpt><trkpt lat="45.652716675116984" lon="8.273517109852808"><ele>391.0</ele><time>2026-03-31T07:38:04Z</time></trkpt><trkpt lat="45.65265857021522" lon="8.273609320817732"><ele>390.5</ele><time>2026-03-31T07:38:05Z</time></trkpt><trkpt lat="45.6525980609079" lon="8.27368860578754"><ele>390.0</ele><time>2026-03-31T07:38:06Z</time></trkpt><trkpt lat="45.65253492632132" lon="8.273757798103107"><ele>389.49999999999994</ele><time>2026-03-31T07:38:07Z</time></trkpt><trkpt lat="45.65246536296952" lon="8.273827796015086"><ele>389.0</ele><time>2026-03-31T07:38:08Z</time></trkpt><trkpt lat="45.652394869366105" lon="8.273892522993448"><ele>389.6</ele><time>2026-03-31T07:38:09Z</time></trkpt><trkpt lat="45.65232376983685" lon="8.273950745415103"><ele>390.2</ele><time>2026-03-31T07:38:10Z</time></trkpt><trkpt lat="45.65224590069657" lon="8.274017925011844"><ele>390.8</ele><time>2026-03-31T07:38:11Z</time></trkpt><trkpt lat="45.65217433369997" lon="8.274096311865021"><ele>391.40000000000003</ele><time>2026-03-31T07:38:12Z</time></trkpt><trkpt lat="45.65211468840224" lon="8.274217120141977"><ele>392.0</ele><time>2026-03-31T07:38:13Z</time></trkpt><trkpt lat="45.65204865240748" lon="8.274346302659424"><ele>392.0</ele><time>2026-03-31T07:38:14Z</time></trkpt><trkpt lat="45.651978393677794" lon="8.274477408069636"><ele>392.0</ele><time>2026-03-31T07:38:15Z</time></trkpt><trkpt lat="45.65190897006472" lon="8.274579042968657"><ele>392.0</ele><time>2026-03-31T07:38:16Z</time></trkpt><trkpt lat="45.651851916934326" lon="8.274672456185712"><ele>392.0</ele><time>2026-03-31T07:38:17Z</time></trkpt><trkpt lat="45.65180162623942" lon="8.274763468880643"><ele>392.0</ele><time>2026-03-31T07:38:18Z</time></trkpt><trkpt lat="45.651755052544736" lon="8.274839594415562"><ele>391.3333333333333</ele><time>2026-03-31T07:38:19Z</time></trkpt><trkpt lat="45.651701792060386" lon="8.274922027273819"><ele>390.66666666666663</ele><time>2026-03-31T07:38:20Z</time></trkpt><trkpt lat="45.65164149588054" lon="8.275007088355693"><ele>390.0</ele><time>2026-03-31T07:38:21Z</time></trkpt><trkpt lat="45.65157509493439" lon="8.275089591309301"><ele>389.33333333333337</ele><time>2026-03-31T07:38:22Z</time></trkpt><trkpt lat="45.6514956200509" lon="8.275172793185817"><ele>388.6666666666667</ele><time>2026-03-31T07:38:23Z</time></trkpt><trkpt lat="45.6514164843038" lon="8.27524530944964"><ele>388.0</ele><time>2026-03-31T07:38:24Z</time></trkpt><trkpt lat="45.651342713461304" lon="8.275298950006915"><ele>388.0</ele><time>2026-03-31T07:38:25Z</time></trkpt><trkpt lat="45.65127618250418" lon="8.275349907491186"><ele>388.0</ele><time>2026-03-31T07:38:26Z</time></trkpt><trkpt lat="45.65121427622451" lon="8.275396734024968"><ele>388.0</ele><time>2026-03-31T07:38:27Z</time></trkpt><trkpt lat="45.651111587625614" lon="8.275474408799292"><ele>388.0</ele><time>2026-03-31T07:38:29Z</time></trkpt><trkpt lat="45.65111304708227" lon="8.275674395347142"><ele>388.0</ele><time>2026-03-31T07:38:30Z</time></trkpt><trkpt lat="45.651089088014466" lon="8.275775488702585"><ele>388.1666666666667</ele><time>2026-03-31T07:38:31Z</time></trkpt><trkpt lat="45.650999837253046" lon="8.275865163577889"><ele>388.33333333333337</ele><time>2026-03-31T07:38:33Z</time></trkpt><trkpt lat="45.65094401658902" lon="8.275935144676831"><ele>388.5</ele><time>2026-03-31T07:38:34Z</time></trkpt><trkpt lat="45.65090056176805" lon="8.276034204296272"><ele>388.66666666666663</ele><time>2026-03-31T07:38:35Z</time></trkpt><trkpt lat="45.65084405178813" lon="8.276130271525938"><ele>388.8333333333333</ele><time>2026-03-31T07:38:36Z</time></trkpt><trkpt lat="45.650768242117195" lon="8.276174939597995"><ele>389.0</ele><time>2026-03-31T07:38:37Z</time></trkpt><trkpt lat="45.65071086170023" lon="8.276239957760723"><ele>389.0</ele><time>2026-03-31T07:38:38Z</time></trkpt><trkpt lat="45.650649509158995" lon="8.276311394702413"><ele>389.0</ele><time>2026-03-31T07:38:39Z</time></trkpt><trkpt lat="45.65057435186147" lon="8.276387554230913"><ele>389.0</ele><time>2026-03-31T07:38:40Z</time></trkpt><trkpt lat="45.65049263115578" lon="8.276434515935625"><ele>389.0</ele><time>2026-03-31T07:38:41Z</time></trkpt><trkpt lat="45.650386726030504" lon="8.276530204026214"><ele>389.0</ele><time>2026-03-31T07:38:42Z</time></trkpt><trkpt lat="45.650311788269505" lon="8.276593875969805"><ele>389.3333333333333</ele><time>2026-03-31T07:38:43Z</time></trkpt><trkpt lat="45.650243741410605" lon="8.276654093877589"><ele>389.66666666666663</ele><time>2026-03-31T07:38:44Z</time></trkpt><trkpt lat="45.65018935783273" lon="8.276704058973033"><ele>390.0</ele><time>2026-03-31T07:38:45Z</time></trkpt><trkpt lat="45.65011991189771" lon="8.276830569641966"><ele>390.33333333333337</ele><time>2026-03-31T07:38:47Z</time></trkpt><trkpt lat="45.65005589345679" lon="8.276958464259604"><ele>390.6666666666667</ele><time>2026-03-31T07:38:49Z</time></trkpt><trkpt lat="45.65005865018478" lon="8.277063351702166"><ele>391.0</ele><time>2026-03-31T07:38:50Z</time></trkpt><trkpt lat="45.650109169162654" lon="8.277256400740008"><ele>391.83333333333337</ele><time>2026-03-31T07:38:52Z</time></trkpt><trkpt lat="45.650191258921616" lon="8.277330363874295"><ele>392.6666666666667</ele><time>2026-03-31T07:38:53Z</time></trkpt><trkpt lat="45.650252081317454" lon="8.27740734694084"><ele>393.5</ele><time>2026-03-31T07:38:54Z</time></trkpt><trkpt lat="45.65030900988461" lon="8.277472242927562"><ele>394.33333333333337</ele><time>2026-03-31T07:38:55Z</time></trkpt><trkpt lat="45.650367788366516" lon="8.277519566583338"><ele>395.1666666666667</ele><time>2026-03-31T07:38:56Z</time></trkpt><trkpt lat="45.65043723790592" lon="8.277548373787182"><ele>396.0</ele><time>2026-03-31T07:38:57Z</time></trkpt><trkpt lat="45.65051638908728" lon="8.277593398494743"><ele>397.6666666666667</ele><time>2026-03-31T07:38:58Z</time></trkpt><trkpt lat="45.650594216503464" lon="8.277644894062783"><ele>399.33333333333337</ele><time>2026-03-31T07:38:59Z</time></trkpt><trkpt lat="45.650671193782735" lon="8.277683988823258"><ele>401.0</ele><time>2026-03-31T07:39:00Z</time></trkpt><trkpt lat="45.650741242541166" lon="8.277744996033892"><ele>402.6666666666667</ele><time>2026-03-31T07:39:01Z</time></trkpt><trkpt lat="45.65081040983214" lon="8.277759031096489"><ele>404.33333333333337</ele><time>2026-03-31T07:39:02Z</time></trkpt><trkpt lat="45.650879099878104" lon="8.277800856547973"><ele>406.0</ele><time>2026-03-31T07:39:03Z</time></trkpt><trkpt lat="45.650961021391865" lon="8.277805696836827"><ele>406.00000000000006</ele><time>2026-03-31T07:39:04Z</time></trkpt><trkpt lat="45.65104324873523" lon="8.277792133529822"><ele>406.0</ele><time>2026-03-31T07:39:05Z</time></trkpt><trkpt lat="45.65112182018555" lon="8.277802835982682"><ele>406.0</ele><time>2026-03-31T07:39:06Z</time></trkpt><trkpt lat="45.65118806869622" lon="8.277906752237882"><ele>406.0</ele><time>2026-03-31T07:39:08Z</time></trkpt><trkpt lat="45.651173876069514" lon="8.278016764661617"><ele>406.00000000000006</ele><time>2026-03-31T07:39:11Z</time></trkpt><trkpt lat="45.65115979951233" lon="8.278104889166881"><ele>406.0</ele><time>2026-03-31T07:39:13Z</time></trkpt><trkpt lat="45.65120093500445" lon="8.27823823956592"><ele>403.4</ele><time>2026-03-31T07:39:15Z</time></trkpt><trkpt lat="45.65127540360876" lon="8.278376205498937"><ele>400.8</ele><time>2026-03-31T07:39:17Z</time></trkpt><trkpt lat="45.65136196305279" lon="8.278485737160452"><ele>398.2</ele><time>2026-03-31T07:39:19Z</time></trkpt><trkpt lat="45.65141850777555" lon="8.278530176420276"><ele>395.59999999999997</ele><time>2026-03-31T07:39:20Z</time></trkpt><trkpt lat="45.65147762921702" lon="8.278565019166187"><ele>393.0</ele><time>2026-03-31T07:39:21Z</time></trkpt><trkpt lat="45.65158034454821" lon="8.278665096617827"><ele>393.0</ele><time>2026-03-31T07:39:23Z</time></trkpt><trkpt lat="45.65168983009022" lon="8.278728106016745"><ele>393.0</ele><time>2026-03-31T07:39:25Z</time></trkpt><trkpt lat="45.651808869219856" lon="8.278774628044232"><ele>393.0</ele><time>2026-03-31T07:39:27Z</time></trkpt><trkpt lat="45.651870062589204" lon="8.278800080423101"><ele>393.0</ele><time>2026-03-31T07:39:29Z</time></trkpt><trkpt lat="45.651952924415475" lon="8.278826888791327"><ele>393.0</ele><time>2026-03-31T07:39:30Z</time></trkpt><trkpt lat="45.65204631677535" lon="8.278845382839826"><ele>395.2</ele><time>2026-03-31T07:39:31Z</time></trkpt><trkpt lat="45.652128297907254" lon="8.278847802199815"><ele>397.4</ele><time>2026-03-31T07:39:32Z</time></trkpt><trkpt lat="45.65224580882266" lon="8.27886421601808"><ele>399.59999999999997</ele><time>2026-03-31T07:39:34Z</time></trkpt><trkpt lat="45.652346279185174" lon="8.27895591526986"><ele>401.79999999999995</ele><time>2026-03-31T07:39:36Z</time></trkpt><trkpt lat="45.652426217730884" lon="8.279069864040032"><ele>404.0</ele><time>2026-03-31T07:39:37.999Z</time></trkpt><trkpt lat="45.65252401565793" lon="8.279123880719157"><ele>400.0</ele><time>2026-03-31T07:39:39.999Z</time></trkpt><trkpt lat="45.65257863971224" lon="8.279170579317537"><ele>396.0</ele><time>2026-03-31T07:39:40.999Z</time></trkpt><trkpt lat="45.65268362598686" lon="8.2792282948617"><ele>392.0</ele><time>2026-03-31T07:39:42.999Z</time></trkpt><trkpt lat="45.65280178095595" lon="8.279246009906101"><ele>388.0</ele><time>2026-03-31T07:39:44.999Z</time></trkpt><trkpt lat="45.65286495414225" lon="8.279263572763961"><ele>384.0</ele><time>2026-03-31T07:39:45.999Z</time></trkpt><trkpt lat="45.6529549014547" lon="8.279222313855822"><ele>384.0</ele><time>2026-03-31T07:39:47.999Z</time></trkpt><trkpt lat="45.65306924786986" lon="8.279172448997876"><ele>384.0</ele><time>2026-03-31T07:39:50.001Z</time></trkpt><trkpt lat="45.65313157225899" lon="8.27914523759782"><ele>384.0</ele><time>2026-03-31T07:39:51.001Z</time></trkpt><trkpt lat="45.65323035868563" lon="8.27921323703014"><ele>384.0</ele><time>2026-03-31T07:39:53.001Z</time></trkpt><trkpt lat="45.653325666396526" lon="8.27930744504308"><ele>384.0</ele><time>2026-03-31T07:39:55.001Z</time></trkpt><trkpt lat="45.653386461596725" lon="8.279354898472786"><ele>384.0</ele><time>2026-03-31T07:39:56.001Z</time></trkpt><trkpt lat="45.65344030945452" lon="8.279401799941201"><ele>384.0</ele><time>2026-03-31T07:39:57.001Z</time></trkpt><trkpt lat="45.65350877603137" lon="8.279451210681582"><ele>384.0</ele><time>2026-03-31T07:39:58Z</time></trkpt><trkpt lat="45.653587368797766" lon="8.279483896161933"><ele>384.0</ele><time>2026-03-31T07:39:59Z</time></trkpt><trkpt lat="45.653662529198755" lon="8.279496584650431"><ele>384.0</ele><time>2026-03-31T07:40:00Z</time></trkpt><trkpt lat="45.65373625405717" lon="8.279499212797893"><ele>384.0</ele><time>2026-03-31T07:40:01Z</time></trkpt><trkpt lat="45.6538221234149" lon="8.279493234649857"><ele>384.5</ele><time>2026-03-31T07:40:02Z</time></trkpt><trkpt lat="45.653913258394645" lon="8.279480504834789"><ele>385.0</ele><time>2026-03-31T07:40:03Z</time></trkpt><trkpt lat="45.653991078359724" lon="8.279461171058635"><ele>385.5</ele><time>2026-03-31T07:40:04Z</time></trkpt><trkpt lat="45.65406357118689" lon="8.279439542194192"><ele>386.0</ele><time>2026-03-31T07:40:05Z</time></trkpt><trkpt lat="45.65413454804908" lon="8.279418365619417"><ele>386.5</ele><time>2026-03-31T07:40:06Z</time></trkpt><trkpt lat="45.6542020731245" lon="8.279400488181517"><ele>387.0</ele><time>2026-03-31T07:40:06.999Z</time></trkpt><trkpt lat="45.65431342722058" lon="8.279378351547672"><ele>387.0</ele><time>2026-03-31T07:40:08.999Z</time></trkpt><trkpt lat="45.65440225904806" lon="8.279378557433649"><ele>387.0</ele><time>2026-03-31T07:40:10.999Z</time></trkpt><trkpt lat="45.65449819497694" lon="8.279437046187548"><ele>387.0</ele><time>2026-03-31T07:40:12.999Z</time></trkpt><trkpt lat="45.65455949025023" lon="8.279462902034417"><ele>387.0</ele><time>2026-03-31T07:40:13.999Z</time></trkpt><trkpt lat="45.65461392281663" lon="8.27950830761724"><ele>387.0</ele><time>2026-03-31T07:40:14.999Z</time></trkpt><trkpt lat="45.654670711919316" lon="8.279557045076027"><ele>387.0</ele><time>2026-03-31T07:40:15.999Z</time></trkpt><trkpt lat="45.65477443748708" lon="8.279627227056546"><ele>386.40000000000003</ele><time>2026-03-31T07:40:17.999Z</time></trkpt><trkpt lat="45.65488879712045" lon="8.279636327232616"><ele>385.8</ele><time>2026-03-31T07:40:19.999Z</time></trkpt><trkpt lat="45.65498207847772" lon="8.279611571268791"><ele>385.2</ele><time>2026-03-31T07:40:21.999Z</time></trkpt><trkpt lat="45.65506693899314" lon="8.279576020442422"><ele>384.6</ele><time>2026-03-31T07:40:23.999Z</time></trkpt><trkpt lat="45.65516958171474" lon="8.279546523230437"><ele>384.0</ele><time>2026-03-31T07:40:25.999Z</time></trkpt><trkpt lat="45.65529697350338" lon="8.279551405509238"><ele>385.0</ele><time>2026-03-31T07:40:27.999Z</time></trkpt><trkpt lat="45.65537183869426" lon="8.279570705296356"><ele>386.0</ele><time>2026-03-31T07:40:28.999Z</time></trkpt><trkpt lat="45.6554415190707" lon="8.279591022944123"><ele>387.0</ele><time>2026-03-31T07:40:29.999Z</time></trkpt><trkpt lat="45.655510184345474" lon="8.279613135937517"><ele>388.0</ele><time>2026-03-31T07:40:30.999Z</time></trkpt><trkpt lat="45.6555891299008" lon="8.279616755546408"><ele>389.0</ele><time>2026-03-31T07:40:31.999Z</time></trkpt><trkpt lat="45.65566870214092" lon="8.279651877494349"><ele>390.0</ele><time>2026-03-31T07:40:32.999Z</time></trkpt><trkpt lat="45.65576336974228" lon="8.279692498454516"><ele>390.0</ele><time>2026-03-31T07:40:33.999Z</time></trkpt><trkpt lat="45.655843849273225" lon="8.27971577735756"><ele>390.0</ele><time>2026-03-31T07:40:34.999Z</time></trkpt><trkpt lat="45.655975988379865" lon="8.279753150196973"><ele>390.0</ele><time>2026-03-31T07:40:36.999Z</time></trkpt><trkpt lat="45.656058269121466" lon="8.279772913027735"><ele>390.0</ele><time>2026-03-31T07:40:37.999Z</time></trkpt><trkpt lat="45.656127381398086" lon="8.279789512947188"><ele>390.0</ele><time>2026-03-31T07:40:38.999Z</time></trkpt><trkpt lat="45.65625157055662" lon="8.279817486399496"><ele>388.0</ele><time>2026-03-31T07:40:40.999Z</time></trkpt><trkpt lat="45.65637663821449" lon="8.279830541718468"><ele>386.0</ele><time>2026-03-31T07:40:42.999Z</time></trkpt><trkpt lat="45.65643997796798" lon="8.27987510317721"><ele>384.0</ele><time>2026-03-31T07:40:43.999Z</time></trkpt><trkpt lat="45.65650894112931" lon="8.2798690607421"><ele>382.0</ele><time>2026-03-31T07:40:44.999Z</time></trkpt><trkpt lat="45.65658434419131" lon="8.27988070483264"><ele>380.0</ele><time>2026-03-31T07:40:45.999Z</time></trkpt><trkpt lat="45.65665128057326" lon="8.279902583566589"><ele>378.0</ele><time>2026-03-31T07:40:46.999Z</time></trkpt><trkpt lat="45.65673143001358" lon="8.279900208672801"><ele>378.0</ele><time>2026-03-31T07:40:47.999Z</time></trkpt><trkpt lat="45.65681392278423" lon="8.27990741270806"><ele>378.0</ele><time>2026-03-31T07:40:48.999Z</time></trkpt><trkpt lat="45.656889846611456" lon="8.279911557025352"><ele>378.0</ele><time>2026-03-31T07:40:49.999Z</time></trkpt><trkpt lat="45.65695784766072" lon="8.279912130846656"><ele>378.0</ele><time>2026-03-31T07:40:50.999Z</time></trkpt><trkpt lat="45.65703199347402" lon="8.279906581893117"><ele>378.0</ele><time>2026-03-31T07:40:51.999Z</time></trkpt><trkpt lat="45.657113689799445" lon="8.279892023732904"><ele>378.0</ele><time>2026-03-31T07:40:52.999Z</time></trkpt><trkpt lat="45.65720164728299" lon="8.279873951820676"><ele>378.1666666666667</ele><time>2026-03-31T07:40:53.999Z</time></trkpt><trkpt lat="45.65728847383938" lon="8.279862586869607"><ele>378.3333333333333</ele><time>2026-03-31T07:40:54.999Z</time></trkpt><trkpt lat="45.657371569402414" lon="8.279853650272345"><ele>378.5</ele><time>2026-03-31T07:40:55.999Z</time></trkpt><trkpt lat="45.657458857914314" lon="8.279844262734347"><ele>378.66666666666663</ele><time>2026-03-31T07:40:56.999Z</time></trkpt><trkpt lat="45.657537621461394" lon="8.279835792026272"><ele>378.8333333333333</ele><time>2026-03-31T07:40:57.999Z</time></trkpt><trkpt lat="45.657610115495515" lon="8.279829004676195"><ele>379.0</ele><time>2026-03-31T07:40:58.999Z</time></trkpt><trkpt lat="45.65768615234362" lon="8.279823779577502"><ele>379.0</ele><time>2026-03-31T07:40:59.999Z</time></trkpt><trkpt lat="45.65776638657156" lon="8.27982289023702"><ele>379.0</ele><time>2026-03-31T07:41:00.999Z</time></trkpt><trkpt lat="45.65783908888833" lon="8.279803174918728"><ele>379.0</ele><time>2026-03-31T07:41:01.999Z</time></trkpt><trkpt lat="45.657913912945595" lon="8.279819618788347"><ele>379.0</ele><time>2026-03-31T07:41:02.999Z</time></trkpt><trkpt lat="45.65798323913216" lon="8.279860321671052"><ele>379.0</ele><time>2026-03-31T07:41:03.999Z</time></trkpt><trkpt lat="45.658053946921925" lon="8.279891690006489"><ele>379.0</ele><time>2026-03-31T07:41:04.999Z</time></trkpt><trkpt lat="45.6581231263405" lon="8.27992993304703"><ele>380.0</ele><time>2026-03-31T07:41:05.999Z</time></trkpt><trkpt lat="45.65819248576542" lon="8.279969028275287"><ele>381.0</ele><time>2026-03-31T07:41:06.999Z</time></trkpt><trkpt lat="45.65826781022672" lon="8.279987698704579"><ele>382.0</ele><time>2026-03-31T07:41:07.999Z</time></trkpt><trkpt lat="45.65833165276602" lon="8.280031610864427"><ele>383.0</ele><time>2026-03-31T07:41:08.999Z</time></trkpt><trkpt lat="45.65840106903039" lon="8.280062701109241"><ele>384.00000000000006</ele><time>2026-03-31T07:41:09.999Z</time></trkpt><trkpt lat="45.658478790345086" lon="8.280095899670435"><ele>385.0</ele><time>2026-03-31T07:41:10.999Z</time></trkpt><trkpt lat="45.65856938702054" lon="8.280107239349194"><ele>386.6666666666667</ele><time>2026-03-31T07:41:11.999Z</time></trkpt><trkpt lat="45.65865203168295" lon="8.28010984546163"><ele>388.33333333333337</ele><time>2026-03-31T07:41:12.999Z</time></trkpt><trkpt lat="45.65874119929743" lon="8.280111897013725"><ele>390.0</ele><time>2026-03-31T07:41:13.999Z</time></trkpt><trkpt lat="45.658822194253645" lon="8.280115633410082"><ele>391.66666666666663</ele><time>2026-03-31T07:41:14.999Z</time></trkpt><trkpt lat="45.65890301023129" lon="8.28013017977574"><ele>393.3333333333333</ele><time>2026-03-31T07:41:15.999Z</time></trkpt><trkpt lat="45.658967648584465" lon="8.280145709556567"><ele>395.0</ele><time>2026-03-31T07:41:16.999Z</time></trkpt><trkpt lat="45.65904354809459" lon="8.280167250729757"><ele>395.0</ele><time>2026-03-31T07:41:17.999Z</time></trkpt><trkpt lat="45.659113087525505" lon="8.28018883273845"><ele>395.0</ele><time>2026-03-31T07:41:18.999Z</time></trkpt><trkpt lat="45.659240562941505" lon="8.280253799420134"><ele>395.0</ele><time>2026-03-31T07:41:20.999Z</time></trkpt><trkpt lat="45.659333453953906" lon="8.2802597043513"><ele>395.0</ele><time>2026-03-31T07:41:21.999Z</time></trkpt><trkpt lat="45.65941029066471" lon="8.280279450373355"><ele>395.0</ele><time>2026-03-31T07:41:22.999Z</time></trkpt><trkpt lat="45.65948199000884" lon="8.280290674452337"><ele>396.6</ele><time>2026-03-31T07:41:23.999Z</time></trkpt><trkpt lat="45.659615636624885" lon="8.280303843213375"><ele>398.2</ele><time>2026-03-31T07:41:25.999Z</time></trkpt><trkpt lat="45.65968976908436" lon="8.280305289342518"><ele>399.79999999999995</ele><time>2026-03-31T07:41:26.999Z</time></trkpt><trkpt lat="45.659761773560206" lon="8.280359016669223"><ele>401.4</ele><time>2026-03-31T07:41:27.999Z</time></trkpt><trkpt lat="45.659849772311354" lon="8.280375779301536"><ele>403.0</ele><time>2026-03-31T07:41:28.999Z</time></trkpt><trkpt lat="45.659926596162286" lon="8.280436764629862"><ele>403.00000000000006</ele><time>2026-03-31T07:41:29.999Z</time></trkpt><trkpt lat="45.66000407084745" lon="8.28048030917332"><ele>403.0</ele><time>2026-03-31T07:41:30.999Z</time></trkpt><trkpt lat="45.660081888187634" lon="8.280503025135177"><ele>403.0</ele><time>2026-03-31T07:41:31.999Z</time></trkpt><trkpt lat="45.66014617249008" lon="8.280540556825054"><ele>403.0</ele><time>2026-03-31T07:41:32.999Z</time></trkpt><trkpt lat="45.660209869070556" lon="8.28059710710254"><ele>403.00000000000006</ele><time>2026-03-31T07:41:33.999Z</time></trkpt><trkpt lat="45.66028199950182" lon="8.280638043724439"><ele>403.0</ele><time>2026-03-31T07:41:34.999Z</time></trkpt><trkpt lat="45.6603517770207" lon="8.280677644978676"><ele>402.33333333333337</ele><time>2026-03-31T07:41:35.999Z</time></trkpt><trkpt lat="45.660454903151326" lon="8.280623787780403"><ele>401.6666666666667</ele><time>2026-03-31T07:41:36.999Z</time></trkpt><trkpt lat="45.66051292337146" lon="8.28068351875614"><ele>401.0</ele><time>2026-03-31T07:41:37.999Z</time></trkpt><trkpt lat="45.660589280189996" lon="8.280728475273897"><ele>400.33333333333337</ele><time>2026-03-31T07:41:38.999Z</time></trkpt><trkpt lat="45.66066832306507" lon="8.280777039596982"><ele>399.6666666666667</ele><time>2026-03-31T07:41:39.998Z</time></trkpt><trkpt lat="45.66074013446706" lon="8.280822692705849"><ele>399.0</ele><time>2026-03-31T07:41:40.998Z</time></trkpt><trkpt lat="45.6608038726434" lon="8.28086620986573"><ele>399.0</ele><time>2026-03-31T07:41:41.998Z</time></trkpt><trkpt lat="45.660871832369985" lon="8.280905529682144"><ele>399.0</ele><time>2026-03-31T07:41:42.998Z</time></trkpt><trkpt lat="45.66095124095447" lon="8.280947688036644"><ele>399.0</ele><time>2026-03-31T07:41:43.998Z</time></trkpt><trkpt lat="45.661026752201664" lon="8.2809865824877"><ele>399.0</ele><time>2026-03-31T07:41:44.998Z</time></trkpt><trkpt lat="45.661101629077386" lon="8.28102584390158"><ele>399.0</ele><time>2026-03-31T07:41:45.998Z</time></trkpt><trkpt lat="45.66117687171144" lon="8.28104508149526"><ele>399.0</ele><time>2026-03-31T07:41:46.998Z</time></trkpt><trkpt lat="45.66125437263259" lon="8.281066251769957"><ele>399.4</ele><time>2026-03-31T07:41:47.998Z</time></trkpt><trkpt lat="45.66137408845785" lon="8.28109577317153"><ele>399.79999999999995</ele><time>2026-03-31T07:41:49.998Z</time></trkpt><trkpt lat="45.6614646670848" lon="8.28115260864367"><ele>400.20000000000005</ele><time>2026-03-31T07:41:51.998Z</time></trkpt><trkpt lat="45.661510066598815" lon="8.281281602284654"><ele>400.6</ele><time>2026-03-31T07:41:53.998Z</time></trkpt><trkpt lat="45.661562100990196" lon="8.281392498839248"><ele>401.0</ele><time>2026-03-31T07:41:56Z</time></trkpt><trkpt lat="45.661643526811815" lon="8.281515047454999"><ele>401.0</ele><time>2026-03-31T07:41:58Z</time></trkpt><trkpt lat="45.661686001653386" lon="8.281598243958685"><ele>401.0</ele><time>2026-03-31T07:41:59Z</time></trkpt><trkpt lat="45.66173125611085" lon="8.281682579454156"><ele>401.0</ele><time>2026-03-31T07:42:00Z</time></trkpt><trkpt lat="45.66178126550022" lon="8.281840309459522"><ele>401.0</ele><time>2026-03-31T07:42:02Z</time></trkpt><trkpt lat="45.66187964156901" lon="8.281940118328285"><ele>401.0</ele><time>2026-03-31T07:42:04Z</time></trkpt><trkpt lat="45.66195029666699" lon="8.281968772485426"><ele>402.3333333333333</ele><time>2026-03-31T07:42:05Z</time></trkpt><trkpt lat="45.66202389597158" lon="8.281993025954094"><ele>403.66666666666663</ele><time>2026-03-31T07:42:06Z</time></trkpt><trkpt lat="45.66210365714933" lon="8.282036908741546"><ele>405.0</ele><time>2026-03-31T07:42:07Z</time></trkpt><trkpt lat="45.66217638004282" lon="8.282104090802063"><ele>406.33333333333337</ele><time>2026-03-31T07:42:08Z</time></trkpt><trkpt lat="45.66224344241445" lon="8.282153857776725"><ele>407.6666666666667</ele><time>2026-03-31T07:42:09Z</time></trkpt><trkpt lat="45.662294684043815" lon="8.282209247183086"><ele>409.0</ele><time>2026-03-31T07:42:10Z</time></trkpt><trkpt lat="45.662323288759026" lon="8.282319361676803"><ele>409.00000000000006</ele><time>2026-03-31T07:42:11Z</time></trkpt><trkpt lat="45.66234134742363" lon="8.282425838067635"><ele>409.0</ele><time>2026-03-31T07:42:12Z</time></trkpt><trkpt lat="45.662372701517896" lon="8.282511137196634"><ele>409.0</ele><time>2026-03-31T07:42:13Z</time></trkpt><trkpt lat="45.66243060951708" lon="8.282570304369992"><ele>409.0</ele><time>2026-03-31T07:42:14Z</time></trkpt><trkpt lat="45.6625050150305" lon="8.28260930188758"><ele>409.00000000000006</ele><time>2026-03-31T07:42:15Z</time></trkpt><trkpt lat="45.662591861675224" lon="8.282664886107113"><ele>409.0</ele><time>2026-03-31T07:42:16Z</time></trkpt><trkpt lat="45.66265115070629" lon="8.28274595485426"><ele>409.00000000000006</ele><time>2026-03-31T07:42:17Z</time></trkpt><trkpt lat="45.66270408562692" lon="8.282825634851209"><ele>409.0</ele><time>2026-03-31T07:42:18Z</time></trkpt><trkpt lat="45.66277061917421" lon="8.282877578336128"><ele>409.0</ele><time>2026-03-31T07:42:18.999Z</time></trkpt><trkpt lat="45.66284551421259" lon="8.282928258941146"><ele>409.0</ele><time>2026-03-31T07:42:19.999Z</time></trkpt><trkpt lat="45.66291942563574" lon="8.282974567774172"><ele>409.00000000000006</ele><time>2026-03-31T07:42:20.999Z</time></trkpt><trkpt lat="45.66299364629945" lon="8.283019174287782"><ele>409.0</ele><time>2026-03-31T07:42:21.999Z</time></trkpt><trkpt lat="45.663059383539405" lon="8.283048298953249"><ele>411.6</ele><time>2026-03-31T07:42:22.999Z</time></trkpt><trkpt lat="45.663177028967446" lon="8.283046685546497"><ele>414.2</ele><time>2026-03-31T07:42:24.999Z</time></trkpt><trkpt lat="45.66326692869311" lon="8.282907401171038"><ele>416.8</ele><time>2026-03-31T07:42:26.999Z</time></trkpt><trkpt lat="45.66332370139004" lon="8.282826866803026"><ele>419.40000000000003</ele><time>2026-03-31T07:42:27.999Z</time></trkpt><trkpt lat="45.66338560249019" lon="8.28278630339958"><ele>422.0</ele><time>2026-03-31T07:42:28.999Z</time></trkpt><trkpt lat="45.66344861558089" lon="8.282754687912735"><ele>421.99999999999994</ele><time>2026-03-31T07:42:29.999Z</time></trkpt><trkpt lat="45.66352163741654" lon="8.28265335292855"><ele>422.0</ele><time>2026-03-31T07:42:31.999Z</time></trkpt><trkpt lat="45.66354988377572" lon="8.282546719864664"><ele>422.0</ele><time>2026-03-31T07:42:33.999Z</time></trkpt><trkpt lat="45.663614343571645" lon="8.282521627167883"><ele>422.0</ele><time>2026-03-31T07:42:37.999Z</time></trkpt><trkpt lat="45.663647321828925" lon="8.282653629662818"><ele>421.99999999999994</ele><time>2026-03-31T07:42:41.999Z</time></trkpt><trkpt lat="45.6636328813075" lon="8.282764526399847"><ele>422.0</ele><time>2026-03-31T07:42:44.999Z</time></trkpt><trkpt lat="45.66360485055917" lon="8.282948175135587"><ele>422.0</ele><time>2026-03-31T07:42:45.999Z</time></trkpt><trkpt lat="45.663609974606054" lon="8.283069097560945"><ele>422.0</ele><time>2026-03-31T07:42:47.999Z</time></trkpt><trkpt lat="45.663696756623956" lon="8.28307095916001"><ele>422.0</ele><time>2026-03-31T07:42:49.999Z</time></trkpt><trkpt lat="45.66377249123769" lon="8.283037291086037"><ele>422.0</ele><time>2026-03-31T07:42:50.999Z</time></trkpt><trkpt lat="45.663879390719586" lon="8.283060978193467"><ele>422.0</ele><time>2026-03-31T07:42:52.999Z</time></trkpt><trkpt lat="45.66397958918841" lon="8.283162708447595"><ele>421.3333333333333</ele><time>2026-03-31T07:42:54.999Z</time></trkpt><trkpt lat="45.66404909634125" lon="8.283214584347364"><ele>420.66666666666663</ele><time>2026-03-31T07:42:55.999Z</time></trkpt><trkpt lat="45.66410619592882" lon="8.283293007811949"><ele>420.0</ele><time>2026-03-31T07:42:56.999Z</time></trkpt><trkpt lat="45.66416179257266" lon="8.283369045246236"><ele>419.33333333333337</ele><time>2026-03-31T07:42:57.999Z</time></trkpt><trkpt lat="45.66422499768231" lon="8.283423046837472"><ele>418.6666666666667</ele><time>2026-03-31T07:42:58.999Z</time></trkpt><trkpt lat="45.6642971310185" lon="8.283478698800504"><ele>418.0</ele><time>2026-03-31T07:42:59.999Z</time></trkpt><trkpt lat="45.664368921625034" lon="8.283515228043928"><ele>418.00000000000006</ele><time>2026-03-31T07:43:00.999Z</time></trkpt><trkpt lat="45.66444388095668" lon="8.283524722151322"><ele>418.0</ele><time>2026-03-31T07:43:01.999Z</time></trkpt><trkpt lat="45.66452142300992" lon="8.28351409378581"><ele>418.0</ele><time>2026-03-31T07:43:02.999Z</time></trkpt><trkpt lat="45.664601759696446" lon="8.283497033929944"><ele>418.0</ele><time>2026-03-31T07:43:03.999Z</time></trkpt><trkpt lat="45.66467831848699" lon="8.283495925904946"><ele>418.00000000000006</ele><time>2026-03-31T07:43:04.999Z</time></trkpt><trkpt lat="45.66479826838695" lon="8.283526234235879"><ele>418.0</ele><time>2026-03-31T07:43:06.999Z</time></trkpt><trkpt lat="45.66484920342004" lon="8.283581500589804"><ele>418.42857142857144</ele><time>2026-03-31T07:43:07.999Z</time></trkpt><trkpt lat="45.66489927437488" lon="8.283655339966577"><ele>418.85714285714283</ele><time>2026-03-31T07:43:08.999Z</time></trkpt><trkpt lat="45.664930023301736" lon="8.283740656987714"><ele>419.28571428571433</ele><time>2026-03-31T07:43:09.999Z</time></trkpt><trkpt lat="45.66497426834108" lon="8.283809443200273"><ele>419.7142857142857</ele><time>2026-03-31T07:43:10.999Z</time></trkpt><trkpt lat="45.665035436711165" lon="8.283853850370573"><ele>420.14285714285717</ele><time>2026-03-31T07:43:11.999Z</time></trkpt><trkpt lat="45.66510806595378" lon="8.283895787944752"><ele>420.5714285714286</ele><time>2026-03-31T07:43:12.999Z</time></trkpt><trkpt lat="45.66517857361734" lon="8.28393158985355"><ele>421.0</ele><time>2026-03-31T07:43:13.999Z</time></trkpt><trkpt lat="45.66528159772511" lon="8.283922618871422"><ele>421.0</ele><time>2026-03-31T07:43:15.999Z</time></trkpt><trkpt lat="45.6653595257437" lon="8.283899386828002"><ele>421.0</ele><time>2026-03-31T07:43:19.999Z</time></trkpt><trkpt lat="45.66536754736992" lon="8.284030554299267"><ele>421.0</ele><time>2026-03-31T07:43:22.999Z</time></trkpt><trkpt lat="45.66529378565305" lon="8.28408855047981"><ele>421.0</ele><time>2026-03-31T07:43:23.999Z</time></trkpt><trkpt lat="45.66517700786225" lon="8.28420546805053"><ele>421.0</ele><time>2026-03-31T07:43:25.999Z</time></trkpt><trkpt lat="45.66517612838639" lon="8.284311981484601"><ele>421.00000000000006</ele><time>2026-03-31T07:43:26.999Z</time></trkpt><trkpt lat="45.66520822531958" lon="8.284394884297281"><ele>421.0</ele><time>2026-03-31T07:43:27.999Z</time></trkpt><trkpt lat="45.66532676750691" lon="8.284353484277373"><ele>421.0</ele><time>2026-03-31T07:43:29.999Z</time></trkpt><trkpt lat="45.66538464903988" lon="8.284286646104961"><ele>421.0</ele><time>2026-03-31T07:43:30.999Z</time></trkpt><trkpt lat="45.665437604620195" lon="8.284236447281602"><ele>421.00000000000006</ele><time>2026-03-31T07:43:31.999Z</time></trkpt><trkpt lat="45.6655519101124" lon="8.284242956256595"><ele>421.0</ele><time>2026-03-31T07:43:33.999Z</time></trkpt><trkpt lat="45.665546632740025" lon="8.28439987422594"><ele>422.50000000000006</ele><time>2026-03-31T07:43:35.999Z</time></trkpt><trkpt lat="45.66552648135026" lon="8.284504669887397"><ele>424.0</ele><time>2026-03-31T07:43:36.999Z</time></trkpt><trkpt lat="45.665489248255156" lon="8.284582636760327"><ele>425.5</ele><time>2026-03-31T07:43:37.999Z</time></trkpt><trkpt lat="45.665523535870086" lon="8.284705151285763"><ele>427.0</ele><time>2026-03-31T07:43:39.999Z</time></trkpt><trkpt lat="45.665559725805934" lon="8.28481569302249"><ele>428.50000000000006</ele><time>2026-03-31T07:43:40.999Z</time></trkpt><trkpt lat="45.66559100835943" lon="8.284911550907749"><ele>430.0</ele><time>2026-03-31T07:43:41.999Z</time></trkpt><trkpt lat="45.66565404350373" lon="8.284932995704928"><ele>432.0</ele><time>2026-03-31T07:43:42.999Z</time></trkpt><trkpt lat="45.66573037749568" lon="8.284950877646002"><ele>434.0</ele><time>2026-03-31T07:43:43.999Z</time></trkpt><trkpt lat="45.66572981500628" lon="8.285111037581979"><ele>436.0</ele><time>2026-03-31T07:43:45.999Z</time></trkpt><trkpt lat="45.665660573284654" lon="8.28526683048475"><ele>438.0</ele><time>2026-03-31T07:43:47.999Z</time></trkpt><trkpt lat="45.66567836095331" lon="8.285425618333926"><ele>440.0</ele><time>2026-03-31T07:43:49.999Z</time></trkpt><trkpt lat="45.665794024939395" lon="8.285516246511108"><ele>440.0</ele><time>2026-03-31T07:43:51.999Z</time></trkpt><trkpt lat="45.66584424393867" lon="8.285577976702308"><ele>440.0</ele><time>2026-03-31T07:43:52.999Z</time></trkpt><trkpt lat="45.66595826952631" lon="8.285677311500292"><ele>440.0</ele><time>2026-03-31T07:43:53.999Z</time></trkpt><trkpt lat="45.6660588073855" lon="8.285753721420507"><ele>440.0</ele><time>2026-03-31T07:43:54.999Z</time></trkpt><trkpt lat="45.6661231878082" lon="8.285810379762038"><ele>440.0</ele><time>2026-03-31T07:43:55.999Z</time></trkpt><trkpt lat="45.666188822132035" lon="8.285876083886519"><ele>446.0</ele><time>2026-03-31T07:43:56.999Z</time></trkpt><trkpt lat="45.66627840158013" lon="8.285961545678308"><ele>452.0</ele><time>2026-03-31T07:43:57.999Z</time></trkpt><trkpt lat="45.666383728525815" lon="8.286078844058672"><ele>458.0</ele><time>2026-03-31T07:43:58.999Z</time></trkpt><trkpt lat="45.666475645521636" lon="8.28619736953124"><ele>464.0</ele><time>2026-03-31T07:43:59.999Z</time></trkpt><trkpt lat="45.666529102762816" lon="8.286310572910176"><ele>464.0</ele><time>2026-03-31T07:44:01Z</time></trkpt><trkpt lat="45.66663382564757" lon="8.286371935915575"><ele>464.0</ele><time>2026-03-31T07:44:03Z</time></trkpt><trkpt lat="45.666750511731045" lon="8.28643320993445"><ele>464.0</ele><time>2026-03-31T07:44:04Z</time></trkpt><trkpt lat="45.66683548505031" lon="8.286515795500344"><ele>464.0</ele><time>2026-03-31T07:44:05Z</time></trkpt><trkpt lat="45.66695508843243" lon="8.286576127812252"><ele>467.4</ele><time>2026-03-31T07:44:06Z</time></trkpt><trkpt lat="45.66708800148279" lon="8.286645583721612"><ele>470.79999999999995</ele><time>2026-03-31T07:44:07Z</time></trkpt><trkpt lat="45.66716818870225" lon="8.286686975667719"><ele>474.20000000000005</ele><time>2026-03-31T07:44:08Z</time></trkpt><trkpt lat="45.66722871777358" lon="8.28674419111964"><ele>477.6</ele><time>2026-03-31T07:44:10Z</time></trkpt><trkpt lat="45.667160245611946" lon="8.286890141897208"><ele>481.0</ele><time>2026-03-31T07:44:12Z</time></trkpt><trkpt lat="45.667082209663256" lon="8.286951058351404"><ele>481.0</ele><time>2026-03-31T07:44:13Z</time></trkpt><trkpt lat="45.66701853668551" lon="8.287025382983687"><ele>481.0</ele><time>2026-03-31T07:44:14Z</time></trkpt><trkpt lat="45.66703309134691" lon="8.287195252468226"><ele>481.0</ele><time>2026-03-31T07:44:16Z</time></trkpt><trkpt lat="45.667055380638125" lon="8.2873216188864"><ele>481.0</ele><time>2026-03-31T07:44:17Z</time></trkpt><trkpt lat="45.667109068634836" lon="8.287415579475992"><ele>481.0</ele><time>2026-03-31T07:44:18Z</time></trkpt><trkpt lat="45.6671766706346" lon="8.287476690995149"><ele>481.4</ele><time>2026-03-31T07:44:19Z</time></trkpt><trkpt lat="45.667239614136975" lon="8.287575144969335"><ele>481.8</ele><time>2026-03-31T07:44:20Z</time></trkpt><trkpt lat="45.66731040793416" lon="8.287680791529144"><ele>482.19999999999993</ele><time>2026-03-31T07:44:21Z</time></trkpt><trkpt lat="45.667368281058884" lon="8.287829027322092"><ele>482.59999999999997</ele><time>2026-03-31T07:44:22Z</time></trkpt><trkpt lat="45.66736470947078" lon="8.287964031301701"><ele>483.0</ele><time>2026-03-31T07:44:23Z</time></trkpt><trkpt lat="45.66736708783487" lon="8.288067955929225"><ele>484.2</ele><time>2026-03-31T07:44:24Z</time></trkpt><trkpt lat="45.66745903667111" lon="8.288152847525062"><ele>485.4</ele><time>2026-03-31T07:44:26Z</time></trkpt><trkpt lat="45.66754839309789" lon="8.288224123836347"><ele>486.59999999999997</ele><time>2026-03-31T07:44:28Z</time></trkpt><trkpt lat="45.667600988578876" lon="8.28829083464731"><ele>487.79999999999995</ele><time>2026-03-31T07:44:29Z</time></trkpt><trkpt lat="45.667629333124275" lon="8.28838166426569"><ele>489.0</ele><time>2026-03-31T07:44:30Z</time></trkpt><trkpt lat="45.66761275560713" lon="8.288520863804873"><ele>489.0</ele><time>2026-03-31T07:44:31Z</time></trkpt><trkpt lat="45.66762028716788" lon="8.288710499564543"><ele>489.0</ele><time>2026-03-31T07:44:32Z</time></trkpt><trkpt lat="45.667667067986756" lon="8.288812304721676"><ele>489.0</ele><time>2026-03-31T07:44:32.999Z</time></trkpt><trkpt lat="45.66760925147896" lon="8.289024919527607"><ele>489.0</ele><time>2026-03-31T07:44:34.999Z</time></trkpt><trkpt lat="45.66758011898621" lon="8.289169786331534"><ele>491.2</ele><time>2026-03-31T07:44:35.999Z</time></trkpt><trkpt lat="45.66753575750207" lon="8.289235990117241"><ele>493.4</ele><time>2026-03-31T07:44:36.999Z</time></trkpt><trkpt lat="45.66746440657303" lon="8.28933122730948"><ele>495.6</ele><time>2026-03-31T07:44:37.999Z</time></trkpt><trkpt lat="45.66745858769919" lon="8.289502714825762"><ele>497.8</ele><time>2026-03-31T07:44:39.999Z</time></trkpt><trkpt lat="45.66742939085441" lon="8.289638486354395"><ele>500.0</ele><time>2026-03-31T07:44:40.999Z</time></trkpt><trkpt lat="45.667385536143" lon="8.289725229739927"><ele>503.0</ele><time>2026-03-31T07:44:41.999Z</time></trkpt><trkpt lat="45.667371637080514" lon="8.289846525700904"><ele>506.0</ele><time>2026-03-31T07:44:42.999Z</time></trkpt><trkpt lat="45.66741895297202" lon="8.290040650241764"><ele>509.0</ele><time>2026-03-31T07:44:44.999Z</time></trkpt><trkpt lat="45.66742196763718" lon="8.29018941511874"><ele>512.0</ele><time>2026-03-31T07:44:45.999Z</time></trkpt><trkpt lat="45.667426942866754" lon="8.290305137921255"><ele>515.0</ele><time>2026-03-31T07:44:48.999Z</time></trkpt><trkpt lat="45.66741569860267" lon="8.290402874877266"><ele>515.0</ele><time>2026-03-31T07:44:57.999Z</time></trkpt><trkpt lat="45.667450582741644" lon="8.290300247108602"><ele>515.0</ele><time>2026-03-31T07:45:03.999Z</time></trkpt><trkpt lat="45.667406932868246" lon="8.290368384631973"><ele>515.0</ele><time>2026-03-31T07:45:48.999Z</time></trkpt><trkpt lat="45.667325058139724" lon="8.290291018451388"><ele>515.0</ele><time>2026-03-31T07:45:51.999Z</time></trkpt><trkpt lat="45.66724967210621" lon="8.2901983069037"><ele>515.0</ele><time>2026-03-31T07:45:53.999Z</time></trkpt><trkpt lat="45.66716219697581" lon="8.290180742784926"><ele>515.0</ele><time>2026-03-31T07:45:56.999Z</time></trkpt><trkpt lat="45.66710434558694" lon="8.290239231189048"><ele>515.0</ele><time>2026-03-31T07:45:58.999Z</time></trkpt><trkpt lat="45.66701302615715" lon="8.290287010620947"><ele>515.0</ele><time>2026-03-31T07:46:00.999Z</time></trkpt><trkpt lat="45.66688380173953" lon="8.29033106256447"><ele>515.0</ele><time>2026-03-31T07:46:02.999Z</time></trkpt><trkpt lat="45.666785634915186" lon="8.290364832779469"><ele>515.0</ele><time>2026-03-31T07:46:03.999Z</time></trkpt><trkpt lat="45.666710469782146" lon="8.2904124950338"><ele>515.0</ele><time>2026-03-31T07:46:04.999Z</time></trkpt><trkpt lat="45.666637648065475" lon="8.290470241275647"><ele>519.2</ele><time>2026-03-31T07:46:06Z</time></trkpt><trkpt lat="45.66655574411604" lon="8.290604017974967"><ele>523.4</ele><time>2026-03-31T07:46:08Z</time></trkpt><trkpt lat="45.66653472764671" lon="8.29069464230236"><ele>527.6</ele><time>2026-03-31T07:46:09Z</time></trkpt><trkpt lat="45.66650609646945" lon="8.290850009845178"><ele>531.8</ele><time>2026-03-31T07:46:11Z</time></trkpt><trkpt lat="45.666484231402556" lon="8.291009810685658"><ele>536.0</ele><time>2026-03-31T07:46:13Z</time></trkpt><trkpt lat="45.66644128751014" lon="8.291149062501942"><ele>536.0</ele><time>2026-03-31T07:46:15Z</time></trkpt><trkpt lat="45.6663844455918" lon="8.291202700363884"><ele>536.0</ele><time>2026-03-31T07:46:16Z</time></trkpt><trkpt lat="45.666310016272796" lon="8.291174850349702"><ele>536.0</ele><time>2026-03-31T07:46:17Z</time></trkpt><trkpt lat="45.66624620202302" lon="8.291115035065879"><ele>536.0</ele><time>2026-03-31T07:46:18Z</time></trkpt><trkpt lat="45.666136644826345" lon="8.290989251458091"><ele>536.0</ele><time>2026-03-31T07:46:19Z</time></trkpt><trkpt lat="45.666026646738295" lon="8.290855858087035"><ele>536.6</ele><time>2026-03-31T07:46:20Z</time></trkpt><trkpt lat="45.66596613011897" lon="8.290742310339716"><ele>537.2</ele><time>2026-03-31T07:46:21Z</time></trkpt><trkpt lat="45.66596395889379" lon="8.290625940259654"><ele>537.8</ele><time>2026-03-31T07:46:22Z</time></trkpt><trkpt lat="45.66595627584049" lon="8.290507154290665"><ele>538.4</ele><time>2026-03-31T07:46:23Z</time></trkpt><trkpt lat="45.66594758212113" lon="8.290377969324068"><ele>539.0</ele><time>2026-03-31T07:46:24Z</time></trkpt><trkpt lat="45.66590532172717" lon="8.290221643650733"><ele>539.0</ele><time>2026-03-31T07:46:25Z</time></trkpt><trkpt lat="45.6658866176912" lon="8.290123677204722"><ele>539.0</ele><time>2026-03-31T07:46:26Z</time></trkpt><trkpt lat="45.66582016084601" lon="8.290016407150775"><ele>539.0</ele><time>2026-03-31T07:46:28Z</time></trkpt><trkpt lat="45.665747511003964" lon="8.29001777276924"><ele>539.0</ele><time>2026-03-31T07:46:29Z</time></trkpt><trkpt lat="45.66566712417873" lon="8.290038666830677"><ele>539.0</ele><time>2026-03-31T07:46:30Z</time></trkpt><trkpt lat="45.665596096959334" lon="8.290087121414086"><ele>539.0</ele><time>2026-03-31T07:46:31Z</time></trkpt><trkpt lat="45.665540797387685" lon="8.290154555133114"><ele>539.0</ele><time>2026-03-31T07:46:32Z</time></trkpt><trkpt lat="45.665465655454746" lon="8.290257214269056"><ele>539.0</ele><time>2026-03-31T07:46:33Z</time></trkpt><trkpt lat="45.66542388880924" lon="8.290400553430404"><ele>539.0</ele><time>2026-03-31T07:46:34Z</time></trkpt><trkpt lat="45.6653782120796" lon="8.2905815652025"><ele>539.0</ele><time>2026-03-31T07:46:35Z</time></trkpt><trkpt lat="45.66518830234053" lon="8.290611303377206"><ele>547.5</ele><time>2026-03-31T07:46:36Z</time></trkpt><trkpt lat="45.6651061728157" lon="8.29067539799381"><ele>556.0</ele><time>2026-03-31T07:46:37Z</time></trkpt><trkpt lat="45.664991217575725" lon="8.29071750390897"><ele>564.5</ele><time>2026-03-31T07:46:38Z</time></trkpt><trkpt lat="45.66486398927584" lon="8.290746892392564"><ele>573.0</ele><time>2026-03-31T07:46:39Z</time></trkpt><trkpt lat="45.66474792361631" lon="8.29078066228725"><ele>573.0</ele><time>2026-03-31T07:46:40Z</time></trkpt><trkpt lat="45.664612546492705" lon="8.290814971138808"><ele>573.0</ele><time>2026-03-31T07:46:41Z</time></trkpt><trkpt lat="45.664508648852056" lon="8.290869620278281"><ele>573.0</ele><time>2026-03-31T07:46:42Z</time></trkpt><trkpt lat="45.6644316519224" lon="8.29083982325189"><ele>573.0</ele><time>2026-03-31T07:46:44Z</time></trkpt><trkpt lat="45.66436352474875" lon="8.2907457579741"><ele>573.0</ele><time>2026-03-31T07:46:45Z</time></trkpt><trkpt lat="45.664315737148044" lon="8.290641406311263"><ele>572.5</ele><time>2026-03-31T07:46:45.999Z</time></trkpt><trkpt lat="45.66423186451058" lon="8.290722815804836"><ele>572.0</ele><time>2026-03-31T07:46:49.999Z</time></trkpt><trkpt lat="45.66426289492218" lon="8.290820131022304"><ele>571.5</ele><time>2026-03-31T07:46:51.999Z</time></trkpt><trkpt lat="45.664204150575195" lon="8.290907937034717"><ele>571.0</ele><time>2026-03-31T07:46:53.999Z</time></trkpt><trkpt lat="45.66406476215997" lon="8.291333958644962"><ele>576.0</ele><time>2026-03-31T07:46:55.999Z</time></trkpt><trkpt lat="45.66402726214639" lon="8.291456537012849"><ele>581.0</ele><time>2026-03-31T07:46:56.999Z</time></trkpt><trkpt lat="45.66398932709014" lon="8.291574154216542"><ele>586.0</ele><time>2026-03-31T07:46:57.999Z</time></trkpt><trkpt lat="45.663956312295845" lon="8.291677683870283"><ele>591.0</ele><time>2026-03-31T07:46:58.999Z</time></trkpt><trkpt lat="45.663894930044215" lon="8.291780727596676"><ele>596.0</ele><time>2026-03-31T07:47:00.999Z</time></trkpt><trkpt lat="45.66381688954298" lon="8.29168230464283"><ele>596.0</ele><time>2026-03-31T07:47:02.999Z</time></trkpt><trkpt lat="45.66375126186741" lon="8.291512890196154"><ele>596.0</ele><time>2026-03-31T07:47:04.999Z</time></trkpt><trkpt lat="45.66369887135775" lon="8.291377954768716"><ele>596.0</ele><time>2026-03-31T07:47:05.999Z</time></trkpt><trkpt lat="45.663626551278455" lon="8.291254802999708"><ele>596.0</ele><time>2026-03-31T07:47:06.999Z</time></trkpt><trkpt lat="45.66355901125741" lon="8.291202693998677"><ele>596.0</ele><time>2026-03-31T07:47:07.999Z</time></trkpt><trkpt lat="45.663492340054525" lon="8.291222133134289"><ele>588.8</ele><time>2026-03-31T07:47:08.999Z</time></trkpt><trkpt lat="45.66342190287626" lon="8.291273255090529"><ele>581.6</ele><time>2026-03-31T07:47:09.999Z</time></trkpt><trkpt lat="45.66331837333893" lon="8.291342013213933"><ele>574.4</ele><time>2026-03-31T07:47:10.999Z</time></trkpt><trkpt lat="45.6632039251918" lon="8.291408483393651"><ele>567.2</ele><time>2026-03-31T07:47:11.999Z</time></trkpt><trkpt lat="45.66308540907073" lon="8.291405715733243"><ele>560.0</ele><time>2026-03-31T07:47:12.999Z</time></trkpt><trkpt lat="45.6629576761642" lon="8.291400471653807"><ele>564.0</ele><time>2026-03-31T07:47:13.999Z</time></trkpt><trkpt lat="45.662775516985434" lon="8.291365921781495"><ele>568.0</ele><time>2026-03-31T07:47:14.999Z</time></trkpt><trkpt lat="45.66266734358528" lon="8.291338064729663"><ele>572.0</ele><time>2026-03-31T07:47:15.999Z</time></trkpt><trkpt lat="45.66257154875724" lon="8.291235534332039"><ele>576.0</ele><time>2026-03-31T07:47:16.999Z</time></trkpt><trkpt lat="45.66244439785465" lon="8.291090051510352"><ele>576.0</ele><time>2026-03-31T07:47:17.999Z</time></trkpt><trkpt lat="45.66236889986129" lon="8.291021262673883"><ele>576.0</ele><time>2026-03-31T07:47:18.999Z</time></trkpt><trkpt lat="45.66228419026744" lon="8.29097234577025"><ele>576.0</ele><time>2026-03-31T07:47:19.999Z</time></trkpt><trkpt lat="45.66220424120457" lon="8.290972687863176"><ele>576.0</ele><time>2026-03-31T07:47:20.999Z</time></trkpt><trkpt lat="45.662148037448254" lon="8.291020664385853"><ele>576.0</ele><time>2026-03-31T07:47:22.999Z</time></trkpt><trkpt lat="45.66211405364597" lon="8.291110864301256"><ele>576.0</ele><time>2026-03-31T07:47:26.999Z</time></trkpt><trkpt lat="45.66219306753967" lon="8.29119755488801"><ele>576.0</ele><time>2026-03-31T07:48:24Z</time></trkpt><trkpt lat="45.66227579284766" lon="8.291199360227278"><ele>576.0</ele><time>2026-03-31T07:48:25Z</time></trkpt><trkpt lat="45.66234827669543" lon="8.291241433927638"><ele>576.0</ele><time>2026-03-31T07:48:27Z</time></trkpt><trkpt lat="45.66231357312224" lon="8.29136373786625"><ele>576.0</ele><time>2026-03-31T07:49:58.999Z</time></trkpt><trkpt lat="45.66222354788623" lon="8.29145775862672"><ele>576.0</ele><time>2026-03-31T07:50:00.999Z</time></trkpt><trkpt lat="45.66219383486494" lon="8.291564816847524"><ele>576.0</ele><time>2026-03-31T07:50:02.999Z</time></trkpt><trkpt lat="45.662286464350416" lon="8.291565638334845"><ele>580.5</ele><time>2026-03-31T07:50:04.999Z</time></trkpt><trkpt lat="45.66235114898723" lon="8.291540974065375"><ele>585.0</ele><time>2026-03-31T07:50:07.999Z</time></trkpt><trkpt lat="45.66243342889729" lon="8.29154177173865"><ele>589.5</ele><time>2026-03-31T07:50:09.999Z</time></trkpt><trkpt lat="45.66238528919995" lon="8.29165195210588"><ele>594.0</ele><time>2026-03-31T07:50:11.999Z</time></trkpt><trkpt lat="45.66231819883191" lon="8.291695930223817"><ele>598.5</ele><time>2026-03-31T07:50:12.999Z</time></trkpt><trkpt lat="45.662285199827295" lon="8.29178320337342"><ele>603.0</ele><time>2026-03-31T07:50:13.999Z</time></trkpt><trkpt lat="45.66230684163446" lon="8.291970692017994"><ele>603.0</ele><time>2026-03-31T07:50:16Z</time></trkpt><trkpt lat="45.66230533969651" lon="8.292068578393366"><ele>603.0</ele><time>2026-03-31T07:50:17Z</time></trkpt><trkpt lat="45.66230477509564" lon="8.292204417130584"><ele>603.0</ele><time>2026-03-31T07:50:18Z</time></trkpt><trkpt lat="45.66227891243036" lon="8.29235701748179"><ele>603.0</ele><time>2026-03-31T07:50:19Z</time></trkpt><trkpt lat="45.66226665872786" lon="8.292488252006336"><ele>603.0</ele><time>2026-03-31T07:50:20Z</time></trkpt><trkpt lat="45.66224020168033" lon="8.292578767478815"><ele>603.0</ele><time>2026-03-31T07:50:21Z</time></trkpt><trkpt lat="45.662194629165555" lon="8.292664320607612"><ele>601.8</ele><time>2026-03-31T07:50:22Z</time></trkpt><trkpt lat="45.662106610190946" lon="8.292751569279838"><ele>600.5999999999999</ele><time>2026-03-31T07:50:23Z</time></trkpt><trkpt lat="45.66203488333496" lon="8.292821298422668"><ele>599.4000000000001</ele><time>2026-03-31T07:50:24Z</time></trkpt><trkpt lat="45.66198966401104" lon="8.292911604173282"><ele>598.2</ele><time>2026-03-31T07:50:25Z</time></trkpt><trkpt lat="45.661939344575416" lon="8.293029429227218"><ele>597.0</ele><time>2026-03-31T07:50:27Z</time></trkpt><trkpt lat="45.66198131986807" lon="8.293144171044096"><ele>604.4</ele><time>2026-03-31T07:50:31Z</time></trkpt><trkpt lat="45.66207785396158" lon="8.293244005243444"><ele>611.8000000000001</ele><time>2026-03-31T07:50:33Z</time></trkpt><trkpt lat="45.66214004145595" lon="8.293343470132806"><ele>619.2</ele><time>2026-03-31T07:50:34Z</time></trkpt><trkpt lat="45.662175496237744" lon="8.293463823751155"><ele>626.6</ele><time>2026-03-31T07:50:35Z</time></trkpt><trkpt lat="45.662181504039374" lon="8.293555873299262"><ele>634.0</ele><time>2026-03-31T07:50:36Z</time></trkpt><trkpt lat="45.66226875990815" lon="8.293672023895907"><ele>634.0</ele><time>2026-03-31T07:50:38Z</time></trkpt><trkpt lat="45.662356082063816" lon="8.2937783559101"><ele>634.0</ele><time>2026-03-31T07:50:40Z</time></trkpt><trkpt lat="45.66237497609726" lon="8.293941581654979"><ele>634.0</ele><time>2026-03-31T07:50:42Z</time></trkpt><trkpt lat="45.6623276794997" lon="8.294110159352414"><ele>634.0</ele><time>2026-03-31T07:50:44Z</time></trkpt><trkpt lat="45.662324648152364" lon="8.294251634721713"><ele>630.6</ele><time>2026-03-31T07:50:46Z</time></trkpt><trkpt lat="45.66230733248404" lon="8.294391421814995"><ele>627.2</ele><time>2026-03-31T07:50:48Z</time></trkpt><trkpt lat="45.66226537446691" lon="8.294522005120832"><ele>623.8000000000001</ele><time>2026-03-31T07:50:50Z</time></trkpt><trkpt lat="45.66223044970747" lon="8.29464025063512"><ele>620.4</ele><time>2026-03-31T07:50:52Z</time></trkpt><trkpt lat="45.662192654176664" lon="8.294717731914622"><ele>617.0</ele><time>2026-03-31T07:50:56Z</time></trkpt><trkpt lat="45.66211976093901" lon="8.29481193892626"><ele>613.0</ele><time>2026-03-31T07:51:01Z</time></trkpt><trkpt lat="45.66205924659552" lon="8.294882066105309"><ele>609.0</ele><time>2026-03-31T07:51:03Z</time></trkpt><trkpt lat="45.661969535846126" lon="8.294960783823033"><ele>605.0</ele><time>2026-03-31T07:51:04.999Z</time></trkpt><trkpt lat="45.66185922278181" lon="8.295039911019536"><ele>601.0</ele><time>2026-03-31T07:51:06.999Z</time></trkpt><trkpt lat="45.661781537922174" lon="8.295131932346331"><ele>597.0</ele><time>2026-03-31T07:51:08.999Z</time></trkpt><trkpt lat="45.661718120630994" lon="8.295280416123795"><ele>596.5714285714287</ele><time>2026-03-31T07:51:10.999Z</time></trkpt><trkpt lat="45.661702698731496" lon="8.295385692399185"><ele>596.1428571428571</ele><time>2026-03-31T07:51:11.999Z</time></trkpt><trkpt lat="45.661686316567646" lon="8.29549609376589"><ele>595.7142857142858</ele><time>2026-03-31T07:51:12.999Z</time></trkpt><trkpt lat="45.66166620942744" lon="8.295582475796476"><ele>595.2857142857143</ele><time>2026-03-31T07:51:13.999Z</time></trkpt><trkpt lat="45.66162687158382" lon="8.295654853192376"><ele>594.8571428571429</ele><time>2026-03-31T07:51:14.999Z</time></trkpt><trkpt lat="45.66155735240823" lon="8.295715797279591"><ele>594.4285714285714</ele><time>2026-03-31T07:51:15.999Z</time></trkpt><trkpt lat="45.661493359028164" lon="8.295764413681088"><ele>594.0</ele><time>2026-03-31T07:51:16.999Z</time></trkpt><trkpt lat="45.66142352348054" lon="8.295811690545646"><ele>595.3333333333334</ele><time>2026-03-31T07:51:17.999Z</time></trkpt><trkpt lat="45.661365663872715" lon="8.295865586483522"><ele>596.6666666666666</ele><time>2026-03-31T07:51:18.999Z</time></trkpt><trkpt lat="45.661312572866294" lon="8.295956111572467"><ele>598.0</ele><time>2026-03-31T07:51:19.999Z</time></trkpt><trkpt lat="45.66127324893776" lon="8.296058381004084"><ele>599.3333333333333</ele><time>2026-03-31T07:51:20.999Z</time></trkpt><trkpt lat="45.6612535794188" lon="8.296173498410713"><ele>600.6666666666666</ele><time>2026-03-31T07:51:21.999Z</time></trkpt><trkpt lat="45.661240050129464" lon="8.296278689087154"><ele>602.0</ele><time>2026-03-31T07:51:22.999Z</time></trkpt><trkpt lat="45.66121053359915" lon="8.29637298373601"><ele>601.8333333333333</ele><time>2026-03-31T07:51:23.999Z</time></trkpt><trkpt lat="45.66116792656086" lon="8.296452682557344"><ele>601.6666666666666</ele><time>2026-03-31T07:51:24.999Z</time></trkpt><trkpt lat="45.6611139165094" lon="8.29651900929548"><ele>601.5</ele><time>2026-03-31T07:51:25.999Z</time></trkpt><trkpt lat="45.66104496339348" lon="8.296563348464407"><ele>601.3333333333334</ele><time>2026-03-31T07:51:26.999Z</time></trkpt><trkpt lat="45.66096797976236" lon="8.296597039495294"><ele>601.1666666666667</ele><time>2026-03-31T07:51:27.999Z</time></trkpt><trkpt lat="45.66089631149712" lon="8.296628384818955"><ele>601.0</ele><time>2026-03-31T07:51:28.999Z</time></trkpt><trkpt lat="45.660817760008726" lon="8.296671166984133"><ele>599.1428571428571</ele><time>2026-03-31T07:51:29.999Z</time></trkpt><trkpt lat="45.66076108409943" lon="8.296716796334488"><ele>597.2857142857143</ele><time>2026-03-31T07:51:30.999Z</time></trkpt><trkpt lat="45.66071970093366" lon="8.296795374444457"><ele>595.4285714285714</ele><time>2026-03-31T07:51:31.999Z</time></trkpt><trkpt lat="45.66068834388577" lon="8.296886313255905"><ele>593.5714285714286</ele><time>2026-03-31T07:51:32.999Z</time></trkpt><trkpt lat="45.660658047416234" lon="8.296993291695696"><ele>591.7142857142858</ele><time>2026-03-31T07:51:33.999Z</time></trkpt><trkpt lat="45.66062027942578" lon="8.297100065920466"><ele>589.8571428571429</ele><time>2026-03-31T07:51:34.999Z</time></trkpt><trkpt lat="45.660574381604576" lon="8.297184704923408"><ele>588.0</ele><time>2026-03-31T07:51:35.999Z</time></trkpt><trkpt lat="45.66052687287449" lon="8.297256730287105"><ele>588.0</ele><time>2026-03-31T07:51:36.999Z</time></trkpt><trkpt lat="45.660470954819715" lon="8.297337675726746"><ele>588.0</ele><time>2026-03-31T07:51:37.999Z</time></trkpt><trkpt lat="45.66041132300226" lon="8.297424356587609"><ele>588.0</ele><time>2026-03-31T07:51:38.999Z</time></trkpt><trkpt lat="45.66035674750983" lon="8.297497919877268"><ele>588.0</ele><time>2026-03-31T07:51:39.999Z</time></trkpt><trkpt lat="45.66030226666111" lon="8.297559742979658"><ele>588.0</ele><time>2026-03-31T07:51:40.999Z</time></trkpt><trkpt lat="45.66024601395936" lon="8.297634010527982"><ele>588.0</ele><time>2026-03-31T07:51:41.999Z</time></trkpt><trkpt lat="45.66018619066441" lon="8.297694410812595"><ele>585.0</ele><time>2026-03-31T07:51:42.999Z</time></trkpt><trkpt lat="45.66005865426281" lon="8.297641634644611"><ele>582.0</ele><time>2026-03-31T07:51:44.999Z</time></trkpt><trkpt lat="45.659899579598935" lon="8.297633702076116"><ele>579.0</ele><time>2026-03-31T07:51:45.999Z</time></trkpt><trkpt lat="45.659709042852114" lon="8.297638248791655"><ele>579.0</ele><time>2026-03-31T07:51:46.999Z</time></trkpt><trkpt lat="45.65956442697997" lon="8.297633000993255"><ele>579.0</ele><time>2026-03-31T07:51:47.999Z</time></trkpt><trkpt lat="45.659448271072726" lon="8.297640901543842"><ele>579.0</ele><time>2026-03-31T07:51:48.999Z</time></trkpt><trkpt lat="45.65932871487046" lon="8.29766445794332"><ele>579.0</ele><time>2026-03-31T07:51:49.999Z</time></trkpt><trkpt lat="45.65922232534104" lon="8.29769751797579"><ele>579.4</ele><time>2026-03-31T07:51:50.999Z</time></trkpt><trkpt lat="45.65912052981861" lon="8.29777436759682"><ele>579.8</ele><time>2026-03-31T07:51:51.999Z</time></trkpt><trkpt lat="45.65904952980282" lon="8.297798218467097"><ele>580.2</ele><time>2026-03-31T07:51:52.999Z</time></trkpt><trkpt lat="45.6589737811806" lon="8.297855647933622"><ele>580.6</ele><time>2026-03-31T07:51:53.999Z</time></trkpt><trkpt lat="45.658882110211046" lon="8.297925149058868"><ele>581.0</ele><time>2026-03-31T07:51:54.999Z</time></trkpt><trkpt lat="45.65879288636087" lon="8.298064004462832"><ele>581.6</ele><time>2026-03-31T07:51:55.999Z</time></trkpt><trkpt lat="45.65868190006614" lon="8.298121462821834"><ele>582.2</ele><time>2026-03-31T07:51:56.999Z</time></trkpt><trkpt lat="45.65858682302714" lon="8.29818763692021"><ele>582.8</ele><time>2026-03-31T07:51:57.999Z</time></trkpt><trkpt lat="45.658497759768274" lon="8.298221600844364"><ele>583.4</ele><time>2026-03-31T07:51:58.999Z</time></trkpt><trkpt lat="45.65839883555534" lon="8.298255868436357"><ele>584.0</ele><time>2026-03-31T07:51:59.999Z</time></trkpt><trkpt lat="45.658310464261326" lon="8.298295317955692"><ele>584.6</ele><time>2026-03-31T07:52:00.999Z</time></trkpt><trkpt lat="45.65823884799652" lon="8.29831118760224"><ele>585.2</ele><time>2026-03-31T07:52:01.999Z</time></trkpt><trkpt lat="45.65815360165731" lon="8.298323151441524"><ele>585.8000000000001</ele><time>2026-03-31T07:52:02.999Z</time></trkpt><trkpt lat="45.65807577232704" lon="8.29830503402244"><ele>586.4</ele><time>2026-03-31T07:52:03.999Z</time></trkpt><trkpt lat="45.65802185225904" lon="8.298094176617802"><ele>587.0</ele><time>2026-03-31T07:52:05.999Z</time></trkpt><trkpt lat="45.65799572131745" lon="8.297922331610527"><ele>587.0</ele><time>2026-03-31T07:52:06.999Z</time></trkpt><trkpt lat="45.6579629193115" lon="8.297768462066534"><ele>587.0</ele><time>2026-03-31T07:52:07.999Z</time></trkpt><trkpt lat="45.65784552172718" lon="8.297666235247272"><ele>587.0</ele><time>2026-03-31T07:52:09.999Z</time></trkpt><trkpt lat="45.65772801033704" lon="8.29757677822993"><ele>587.0</ele><time>2026-03-31T07:52:10.999Z</time></trkpt><trkpt lat="45.65761365500232" lon="8.297460101075004"><ele>586.6666666666666</ele><time>2026-03-31T07:52:11.999Z</time></trkpt><trkpt lat="45.657516065081076" lon="8.297386622958355"><ele>586.3333333333333</ele><time>2026-03-31T07:52:12.999Z</time></trkpt><trkpt lat="45.657460101774696" lon="8.29733877831927"><ele>586.0</ele><time>2026-03-31T07:52:13.999Z</time></trkpt><trkpt lat="45.657382207156274" lon="8.297263545308075"><ele>585.6666666666666</ele><time>2026-03-31T07:52:14.999Z</time></trkpt><trkpt lat="45.65731600657805" lon="8.297187659992478"><ele>585.3333333333334</ele><time>2026-03-31T07:52:15.999Z</time></trkpt><trkpt lat="45.65725085017184" lon="8.297146727291423"><ele>585.0</ele><time>2026-03-31T07:52:16.999Z</time></trkpt><trkpt lat="45.65716677089686" lon="8.297131005527666"><ele>585.0</ele><time>2026-03-31T07:52:17.999Z</time></trkpt><trkpt lat="45.65706946360696" lon="8.297162076805813"><ele>585.0</ele><time>2026-03-31T07:52:18.999Z</time></trkpt><trkpt lat="45.65697220602148" lon="8.297203204965562"><ele>585.0</ele><time>2026-03-31T07:52:19.999Z</time></trkpt><trkpt lat="45.65690723891467" lon="8.297224407196449"><ele>585.0</ele><time>2026-03-31T07:52:20.999Z</time></trkpt><trkpt lat="45.65683130939563" lon="8.29724449288587"><ele>585.0</ele><time>2026-03-31T07:52:23Z</time></trkpt><trkpt lat="45.65675377748339" lon="8.297260086340065"><ele>585.0</ele><time>2026-03-31T07:52:25Z</time></trkpt><trkpt lat="45.656692225529106" lon="8.297282983214687"><ele>585.8</ele><time>2026-03-31T07:52:26Z</time></trkpt><trkpt lat="45.65660394914996" lon="8.297332314774685"><ele>586.6</ele><time>2026-03-31T07:52:28Z</time></trkpt><trkpt lat="45.65653513976156" lon="8.297431523016968"><ele>587.4</ele><time>2026-03-31T07:52:30Z</time></trkpt><trkpt lat="45.65648385532676" lon="8.29753664014038"><ele>588.2</ele><time>2026-03-31T07:52:32Z</time></trkpt><trkpt lat="45.65642199547707" lon="8.297610660732051"><ele>589.0</ele><time>2026-03-31T07:52:34Z</time></trkpt><trkpt lat="45.65633185426679" lon="8.297669845732488"><ele>589.0</ele><time>2026-03-31T07:52:36Z</time></trkpt><trkpt lat="45.65622851104696" lon="8.297711798601158"><ele>589.0</ele><time>2026-03-31T07:52:38Z</time></trkpt><trkpt lat="45.65616760070004" lon="8.297736860177887"><ele>589.0</ele><time>2026-03-31T07:52:39Z</time></trkpt><trkpt lat="45.65610729357688" lon="8.297767495111326"><ele>589.0</ele><time>2026-03-31T07:52:40Z</time></trkpt><trkpt lat="45.65604579910454" lon="8.29781025008838"><ele>589.0</ele><time>2026-03-31T07:52:41Z</time></trkpt><trkpt lat="45.655987910142116" lon="8.297852423874815"><ele>589.0</ele><time>2026-03-31T07:52:42Z</time></trkpt><trkpt lat="45.65593107155028" lon="8.297895543479715"><ele>589.0</ele><time>2026-03-31T07:52:43Z</time></trkpt><trkpt lat="45.65586485784773" lon="8.297946777343673"><ele>588.2</ele><time>2026-03-31T07:52:45Z</time></trkpt><trkpt lat="45.65580912828791" lon="8.297991569453869"><ele>587.4</ele><time>2026-03-31T07:55:07Z</time></trkpt><trkpt lat="45.65575532996379" lon="8.298068247801636"><ele>586.6</ele><time>2026-03-31T07:55:09Z</time></trkpt><trkpt lat="45.655651228949225" lon="8.298124326932436"><ele>585.8</ele><time>2026-03-31T07:55:11Z</time></trkpt><trkpt lat="45.655548250959306" lon="8.29818472046455"><ele>585.0</ele><time>2026-03-31T07:55:13Z</time></trkpt><trkpt lat="45.65545995366952" lon="8.298245485178038"><ele>582.0</ele><time>2026-03-31T07:55:15Z</time></trkpt><trkpt lat="45.65538057851835" lon="8.298286725995071"><ele>579.0</ele><time>2026-03-31T07:55:17Z</time></trkpt><trkpt lat="45.6552997407971" lon="8.29835078608238"><ele>576.0</ele><time>2026-03-31T07:55:19Z</time></trkpt><trkpt lat="45.6552294866143" lon="8.298424601486388"><ele>573.0</ele><time>2026-03-31T07:55:21Z</time></trkpt><trkpt lat="45.65513429984341" lon="8.29849408346493"><ele>570.0</ele><time>2026-03-31T07:55:23Z</time></trkpt><trkpt lat="45.65503110079596" lon="8.29859692938452"><ele>569.4</ele><time>2026-03-31T07:55:25Z</time></trkpt><trkpt lat="45.65493049328198" lon="8.298694978789321"><ele>568.8</ele><time>2026-03-31T07:55:27Z</time></trkpt><trkpt lat="45.65486819778157" lon="8.298750217235794"><ele>568.2</ele><time>2026-03-31T07:55:28Z</time></trkpt><trkpt lat="45.654791889249964" lon="8.298821250808484"><ele>567.6</ele><time>2026-03-31T07:55:28.999Z</time></trkpt><trkpt lat="45.65469219017894" lon="8.29888680302539"><ele>567.0</ele><time>2026-03-31T07:55:29.999Z</time></trkpt><trkpt lat="45.65458357553425" lon="8.29899116325605"><ele>572.75</ele><time>2026-03-31T07:55:30.999Z</time></trkpt><trkpt lat="45.65448133133188" lon="8.299131433188649"><ele>578.5</ele><time>2026-03-31T07:55:31.999Z</time></trkpt><trkpt lat="45.65441852760489" lon="8.299177047512636"><ele>584.25</ele><time>2026-03-31T07:55:32.999Z</time></trkpt><trkpt lat="45.65429179046615" lon="8.299213857381005"><ele>590.0</ele><time>2026-03-31T07:55:34.999Z</time></trkpt><trkpt lat="45.65417952370261" lon="8.299178619038907"><ele>590.0</ele><time>2026-03-31T07:55:35.999Z</time></trkpt><trkpt lat="45.65403889747548" lon="8.299110511097464"><ele>590.0</ele><time>2026-03-31T07:55:36.999Z</time></trkpt><trkpt lat="45.65392908364753" lon="8.299065884487486"><ele>590.0</ele><time>2026-03-31T07:55:37.999Z</time></trkpt><trkpt lat="45.65384850529476" lon="8.299059250480967"><ele>590.0</ele><time>2026-03-31T07:55:38.999Z</time></trkpt><trkpt lat="45.653749998337936" lon="8.299068293211365"><ele>590.0</ele><time>2026-03-31T07:55:39.999Z</time></trkpt><trkpt lat="45.65365827984402" lon="8.299068766702847"><ele>587.2</ele><time>2026-03-31T07:55:40.999Z</time></trkpt><trkpt lat="45.65358007944058" lon="8.299033427693098"><ele>584.4</ele><time>2026-03-31T07:55:41.999Z</time></trkpt><trkpt lat="45.65350818241872" lon="8.298995184031439"><ele>581.6</ele><time>2026-03-31T07:55:42.999Z</time></trkpt><trkpt lat="45.653407613372565" lon="8.298984206250639"><ele>578.8</ele><time>2026-03-31T07:55:43.999Z</time></trkpt><trkpt lat="45.65330659118856" lon="8.299007609544077"><ele>576.0</ele><time>2026-03-31T07:55:44.999Z</time></trkpt><trkpt lat="45.65321272920818" lon="8.29905263889704"><ele>576.0</ele><time>2026-03-31T07:55:45.999Z</time></trkpt><trkpt lat="45.65311661092186" lon="8.299114708621879"><ele>576.0</ele><time>2026-03-31T07:55:46.999Z</time></trkpt><trkpt lat="45.6530137164151" lon="8.299180021499305"><ele>576.0</ele><time>2026-03-31T07:55:47.999Z</time></trkpt><trkpt lat="45.65291699944603" lon="8.299237199144024"><ele>576.0</ele><time>2026-03-31T07:55:48.999Z</time></trkpt><trkpt lat="45.652822661979855" lon="8.299282347308123"><ele>576.0</ele><time>2026-03-31T07:55:49.999Z</time></trkpt><trkpt lat="45.652743043013054" lon="8.299297437883597"><ele>574.1666666666666</ele><time>2026-03-31T07:55:50.999Z</time></trkpt><trkpt lat="45.65267379997229" lon="8.2992918862815"><ele>572.3333333333334</ele><time>2026-03-31T07:55:51.999Z</time></trkpt><trkpt lat="45.65260879440221" lon="8.299270558860009"><ele>570.5</ele><time>2026-03-31T07:55:52.999Z</time></trkpt><trkpt lat="45.65254386025836" lon="8.299232247294995"><ele>568.6666666666667</ele><time>2026-03-31T07:55:53.999Z</time></trkpt><trkpt lat="45.652491321808455" lon="8.299178765404077"><ele>566.8333333333334</ele><time>2026-03-31T07:55:54.999Z</time></trkpt><trkpt lat="45.65243218796276" lon="8.299093783798106"><ele>565.0</ele><time>2026-03-31T07:55:55.999Z</time></trkpt><trkpt lat="45.652359912612404" lon="8.298980577048864"><ele>564.8333333333334</ele><time>2026-03-31T07:55:56.999Z</time></trkpt><trkpt lat="45.65228264437895" lon="8.298904136461468"><ele>564.6666666666667</ele><time>2026-03-31T07:55:57.999Z</time></trkpt><trkpt lat="45.65222777026113" lon="8.298833477119002"><ele>564.5</ele><time>2026-03-31T07:55:58.999Z</time></trkpt><trkpt lat="45.65218962840544" lon="8.298705063716193"><ele>564.3333333333334</ele><time>2026-03-31T07:56:00.999Z</time></trkpt><trkpt lat="45.652185988458335" lon="8.298602455154185"><ele>564.1666666666666</ele><time>2026-03-31T07:56:01.999Z</time></trkpt><trkpt lat="45.652176744408145" lon="8.298469757312542"><ele>564.0</ele><time>2026-03-31T07:56:02.999Z</time></trkpt><trkpt lat="45.6521575661536" lon="8.298350945575923"><ele>564.0</ele><time>2026-03-31T07:56:03.999Z</time></trkpt><trkpt lat="45.65212396150837" lon="8.298254242759386"><ele>564.0</ele><time>2026-03-31T07:56:04.999Z</time></trkpt><trkpt lat="45.65210510138013" lon="8.298160489692611"><ele>564.0</ele><time>2026-03-31T07:56:05.999Z</time></trkpt><trkpt lat="45.652088151427684" lon="8.29806377389231"><ele>564.0</ele><time>2026-03-31T07:56:06.999Z</time></trkpt><trkpt lat="45.65207604987721" lon="8.297967785312387"><ele>564.0</ele><time>2026-03-31T07:56:07.999Z</time></trkpt><trkpt lat="45.652058215158476" lon="8.297846044299215"><ele>564.0</ele><time>2026-03-31T07:56:08.999Z</time></trkpt><trkpt lat="45.652036886806805" lon="8.297740065515075"><ele>564.0</ele><time>2026-03-31T07:56:09.999Z</time></trkpt><trkpt lat="45.65198927095632" lon="8.297665695346867"><ele>560.1666666666666</ele><time>2026-03-31T07:56:10.999Z</time></trkpt><trkpt lat="45.651928593471" lon="8.297631401567786"><ele>556.3333333333334</ele><time>2026-03-31T07:56:11.999Z</time></trkpt><trkpt lat="45.65185547435637" lon="8.297652066859982"><ele>552.5</ele><time>2026-03-31T07:56:13.999Z</time></trkpt><trkpt lat="45.65186944241539" lon="8.297802791313384"><ele>548.6666666666667</ele><time>2026-03-31T07:56:16.999Z</time></trkpt><trkpt lat="45.651904519311955" lon="8.297926830080385"><ele>544.8333333333334</ele><time>2026-03-31T07:56:17.999Z</time></trkpt><trkpt lat="45.651926978404155" lon="8.298045059164673"><ele>541.0</ele><time>2026-03-31T07:56:18.999Z</time></trkpt><trkpt lat="45.65191824901623" lon="8.298157267500935"><ele>540.5</ele><time>2026-03-31T07:56:19.999Z</time></trkpt><trkpt lat="45.65190770606396" lon="8.298268151709463"><ele>540.0</ele><time>2026-03-31T07:56:20.999Z</time></trkpt><trkpt lat="45.651896937942446" lon="8.298386806107777"><ele>539.5</ele><time>2026-03-31T07:56:21.999Z</time></trkpt><trkpt lat="45.65189537420794" lon="8.298507439986661"><ele>539.0</ele><time>2026-03-31T07:56:22.999Z</time></trkpt><trkpt lat="45.651844284772004" lon="8.298642000600628"><ele>538.5</ele><time>2026-03-31T07:56:24.999Z</time></trkpt><trkpt lat="45.65177669848648" lon="8.298702997504293"><ele>538.0</ele><time>2026-03-31T07:56:25.999Z</time></trkpt><trkpt lat="45.65169153995081" lon="8.298754611860069"><ele>538.0</ele><time>2026-03-31T07:56:26.999Z</time></trkpt><trkpt lat="45.651634076124516" lon="8.298816900105852"><ele>538.0</ele><time>2026-03-31T07:56:27.999Z</time></trkpt><trkpt lat="45.65157455954071" lon="8.298930572938417"><ele>538.0</ele><time>2026-03-31T07:56:29.999Z</time></trkpt><trkpt lat="45.65155699375564" lon="8.299035149319606"><ele>538.0</ele><time>2026-03-31T07:56:30.999Z</time></trkpt><trkpt lat="45.651523504567784" lon="8.299200645319035"><ele>538.0</ele><time>2026-03-31T07:56:31.999Z</time></trkpt><trkpt lat="45.651494664550135" lon="8.299313957977889"><ele>538.3333333333334</ele><time>2026-03-31T07:56:32.999Z</time></trkpt><trkpt lat="45.65146519745898" lon="8.299404304749062"><ele>538.6666666666667</ele><time>2026-03-31T07:56:34Z</time></trkpt><trkpt lat="45.65143083548316" lon="8.299500636503923"><ele>539.0</ele><time>2026-03-31T07:56:35Z</time></trkpt><trkpt lat="45.65141006295796" lon="8.29961757581425"><ele>539.3333333333334</ele><time>2026-03-31T07:56:36Z</time></trkpt><trkpt lat="45.6514178681981" lon="8.299729427246898"><ele>539.6666666666666</ele><time>2026-03-31T07:56:37Z</time></trkpt><trkpt lat="45.65141939525529" lon="8.299841216314922"><ele>540.0</ele><time>2026-03-31T07:56:38Z</time></trkpt><trkpt lat="45.65140082804698" lon="8.299958866678846"><ele>538.1666666666666</ele><time>2026-03-31T07:56:39Z</time></trkpt><trkpt lat="45.65136858337315" lon="8.30007370002972"><ele>536.3333333333334</ele><time>2026-03-31T07:56:40Z</time></trkpt><trkpt lat="45.65132413232064" lon="8.300180639519864"><ele>534.5</ele><time>2026-03-31T07:56:41Z</time></trkpt><trkpt lat="45.65127114585413" lon="8.300278266602765"><ele>532.6666666666667</ele><time>2026-03-31T07:56:42Z</time></trkpt><trkpt lat="45.65120927734078" lon="8.300371580579476"><ele>530.8333333333334</ele><time>2026-03-31T07:56:43Z</time></trkpt><trkpt lat="45.651152432059874" lon="8.300471075670199"><ele>529.0</ele><time>2026-03-31T07:56:44Z</time></trkpt><trkpt lat="45.651103106087874" lon="8.30056568194735"><ele>526.3333333333334</ele><time>2026-03-31T07:56:45Z</time></trkpt><trkpt lat="45.651066599733994" lon="8.300641615028145"><ele>523.6666666666667</ele><time>2026-03-31T07:56:46Z</time></trkpt><trkpt lat="45.65102851039086" lon="8.300721705609005"><ele>521.0</ele><time>2026-03-31T07:56:47Z</time></trkpt><trkpt lat="45.65097238686601" lon="8.300826617059586"><ele>518.3333333333334</ele><time>2026-03-31T07:56:49Z</time></trkpt><trkpt lat="45.650906011004466" lon="8.300912664727237"><ele>515.6666666666666</ele><time>2026-03-31T07:56:51Z</time></trkpt><trkpt lat="45.650833995797164" lon="8.300998184297416"><ele>513.0</ele><time>2026-03-31T07:56:53Z</time></trkpt><trkpt lat="45.65076958866663" lon="8.30106511130219"><ele>513.0</ele><time>2026-03-31T07:56:56Z</time></trkpt><trkpt lat="45.65065826460838" lon="8.30111763425942"><ele>513.0</ele><time>2026-03-31T07:56:57Z</time></trkpt><trkpt lat="45.65058834764928" lon="8.301079857243895"><ele>513.0</ele><time>2026-03-31T07:56:59Z</time></trkpt><trkpt lat="45.650508575715726" lon="8.30104033051469"><ele>513.0</ele><time>2026-03-31T08:00:11.999Z</time></trkpt><trkpt lat="45.65041241447087" lon="8.301007672354475"><ele>513.0</ele><time>2026-03-31T08:00:14.999Z</time></trkpt><trkpt lat="45.65030867523015" lon="8.30100150331619"><ele>509.2</ele><time>2026-03-31T08:00:16.999Z</time></trkpt><trkpt lat="45.650222331144896" lon="8.30099041790858"><ele>505.4</ele><time>2026-03-31T08:00:18.999Z</time></trkpt><trkpt lat="45.65011880359203" lon="8.301039703809671"><ele>501.59999999999997</ele><time>2026-03-31T08:00:20.999Z</time></trkpt><trkpt lat="45.65003602098666" lon="8.30091656503692"><ele>497.79999999999995</ele><time>2026-03-31T08:00:22.999Z</time></trkpt><trkpt lat="45.64997010522547" lon="8.30092781942451"><ele>494.0</ele><time>2026-03-31T08:00:25.999Z</time></trkpt><trkpt lat="45.64988465752831" lon="8.300966917665313"><ele>494.0</ele><time>2026-03-31T08:00:27.999Z</time></trkpt><trkpt lat="45.6497911969727" lon="8.300910067554877"><ele>494.0</ele><time>2026-03-31T08:00:29.999Z</time></trkpt><trkpt lat="45.64972903167467" lon="8.300869299527994"><ele>494.0</ele><time>2026-03-31T08:00:30.999Z</time></trkpt><trkpt lat="45.64966397450145" lon="8.300822771913506"><ele>494.0</ele><time>2026-03-31T08:00:32.999Z</time></trkpt><trkpt lat="45.64957621216711" lon="8.300786721968057"><ele>494.0</ele><time>2026-03-31T08:00:35.999Z</time></trkpt><trkpt lat="45.64944668741681" lon="8.30066555740146"><ele>491.3333333333333</ele><time>2026-03-31T08:00:37.999Z</time></trkpt><trkpt lat="45.649362378525204" lon="8.30063435196965"><ele>488.66666666666663</ele><time>2026-03-31T08:00:39.999Z</time></trkpt><trkpt lat="45.649290838982786" lon="8.300705463480238"><ele>486.0</ele><time>2026-03-31T08:00:42.999Z</time></trkpt><trkpt lat="45.64924066813174" lon="8.300778811704069"><ele>483.33333333333337</ele><time>2026-03-31T08:00:44.999Z</time></trkpt><trkpt lat="45.64916081163804" lon="8.300838472392261"><ele>480.6666666666667</ele><time>2026-03-31T08:00:47Z</time></trkpt><trkpt lat="45.64906378610841" lon="8.300908972609124"><ele>478.0</ele><time>2026-03-31T08:00:49Z</time></trkpt><trkpt lat="45.64900350001638" lon="8.30093804269746"><ele>478.00000000000006</ele><time>2026-03-31T08:00:50Z</time></trkpt><trkpt lat="45.6488892132548" lon="8.300965064124862"><ele>478.0</ele><time>2026-03-31T08:00:52Z</time></trkpt><trkpt lat="45.648806675885545" lon="8.300997920842907"><ele>478.0</ele><time>2026-03-31T08:00:54Z</time></trkpt><trkpt lat="45.6487399564084" lon="8.301040122013626"><ele>478.0</ele><time>2026-03-31T08:00:56Z</time></trkpt><trkpt lat="45.64867264219647" lon="8.301081755343915"><ele>478.00000000000006</ele><time>2026-03-31T08:00:59Z</time></trkpt><trkpt lat="45.648602729420105" lon="8.301073744598584"><ele>478.0</ele><time>2026-03-31T08:01:10Z</time></trkpt><trkpt lat="45.648538770626985" lon="8.30103408243173"><ele>478.59999999999997</ele><time>2026-03-31T08:01:12Z</time></trkpt><trkpt lat="45.648414336973346" lon="8.30097387407112"><ele>479.19999999999993</ele><time>2026-03-31T08:01:14Z</time></trkpt><trkpt lat="45.648345950018914" lon="8.3009180659354"><ele>479.8</ele><time>2026-03-31T08:01:15Z</time></trkpt><trkpt lat="45.64828204711782" lon="8.300855073564408"><ele>480.4</ele><time>2026-03-31T08:01:16Z</time></trkpt><trkpt lat="45.648158738457596" lon="8.300813676757718"><ele>481.0</ele><time>2026-03-31T08:01:18Z</time></trkpt><trkpt lat="45.648085922327695" lon="8.30084707769696"><ele>481.00000000000006</ele><time>2026-03-31T08:01:19Z</time></trkpt><trkpt lat="45.64802942767337" lon="8.300904017919807"><ele>481.0</ele><time>2026-03-31T08:01:20Z</time></trkpt><trkpt lat="45.64799706228417" lon="8.301012628196402"><ele>481.0</ele><time>2026-03-31T08:01:21Z</time></trkpt><trkpt lat="45.647971863314666" lon="8.301145511181248"><ele>481.0</ele><time>2026-03-31T08:01:22Z</time></trkpt><trkpt lat="45.647960616376466" lon="8.301269003716069"><ele>481.00000000000006</ele><time>2026-03-31T08:01:23Z</time></trkpt><trkpt lat="45.6479233841442" lon="8.301343099724644"><ele>481.0</ele><time>2026-03-31T08:01:24Z</time></trkpt><trkpt lat="45.647857941984455" lon="8.301406027381013"><ele>482.6666666666667</ele><time>2026-03-31T08:01:25Z</time></trkpt><trkpt lat="45.64779262117814" lon="8.301467630884321"><ele>484.33333333333337</ele><time>2026-03-31T08:01:26Z</time></trkpt><trkpt lat="45.64775298776475" lon="8.301545524237131"><ele>486.0</ele><time>2026-03-31T08:01:27Z</time></trkpt><trkpt lat="45.64771169847728" lon="8.301685670319472"><ele>487.66666666666663</ele><time>2026-03-31T08:01:29Z</time></trkpt><trkpt lat="45.64765349526794" lon="8.301746402272807"><ele>489.3333333333333</ele><time>2026-03-31T08:01:31Z</time></trkpt><trkpt lat="45.647582604967525" lon="8.301755090249756"><ele>491.0</ele><time>2026-03-31T08:01:33Z</time></trkpt><trkpt lat="45.64754650841378" lon="8.30183201993006"><ele>490.99999999999994</ele><time>2026-03-31T08:01:46Z</time></trkpt><trkpt lat="45.64759257482236" lon="8.301917571024457"><ele>491.0</ele><time>2026-03-31T08:01:48Z</time></trkpt><trkpt lat="45.647637835714484" lon="8.302071103719124"><ele>491.0</ele><time>2026-03-31T08:01:50Z</time></trkpt><trkpt lat="45.64765713565823" lon="8.302172904815269"><ele>491.0</ele><time>2026-03-31T08:01:51Z</time></trkpt><trkpt lat="45.647670528024214" lon="8.30227248473308"><ele>490.99999999999994</ele><time>2026-03-31T08:01:52Z</time></trkpt><trkpt lat="45.64767718497957" lon="8.30237098173346"><ele>491.0</ele><time>2026-03-31T08:01:53Z</time></trkpt><trkpt lat="45.647687527962226" lon="8.302474761083069"><ele>488.99999999999994</ele><time>2026-03-31T08:01:54Z</time></trkpt><trkpt lat="45.64770620370163" lon="8.302586241192813"><ele>487.0</ele><time>2026-03-31T08:01:55Z</time></trkpt><trkpt lat="45.64772686039969" lon="8.302685858227639"><ele>485.0</ele><time>2026-03-31T08:01:56Z</time></trkpt><trkpt lat="45.64775644340181" lon="8.302769627731568"><ele>483.0</ele><time>2026-03-31T08:01:57Z</time></trkpt><trkpt lat="45.647802421779666" lon="8.302871089473353"><ele>480.99999999999994</ele><time>2026-03-31T08:01:58Z</time></trkpt><trkpt lat="45.64782816125662" lon="8.302973006794637"><ele>479.0</ele><time>2026-03-31T08:01:59Z</time></trkpt><trkpt lat="45.64784486788124" lon="8.303080074595682"><ele>478.8333333333333</ele><time>2026-03-31T08:02:00Z</time></trkpt><trkpt lat="45.647856052133235" lon="8.303180475773699"><ele>478.66666666666663</ele><time>2026-03-31T08:02:01Z</time></trkpt><trkpt lat="45.64787094549594" lon="8.303269735788389"><ele>478.5</ele><time>2026-03-31T08:02:02Z</time></trkpt><trkpt lat="45.64790954585124" lon="8.303345269327707"><ele>478.33333333333337</ele><time>2026-03-31T08:02:03Z</time></trkpt><trkpt lat="45.64796217118195" lon="8.303419011744952"><ele>478.1666666666667</ele><time>2026-03-31T08:02:05Z</time></trkpt><trkpt lat="45.64787948758139" lon="8.303535365123492"><ele>478.0</ele><time>2026-03-31T08:02:07Z</time></trkpt><trkpt lat="45.647846790906854" lon="8.303659316276528"><ele>478.0</ele><time>2026-03-31T08:02:09Z</time></trkpt><trkpt lat="45.647840517119285" lon="8.303799579621826"><ele>477.99999999999994</ele><time>2026-03-31T08:02:11Z</time></trkpt><trkpt lat="45.647859066753725" lon="8.303949985673215"><ele>477.99999999999994</ele><time>2026-03-31T08:02:13Z</time></trkpt><trkpt lat="45.647927590371204" lon="8.304064561674032"><ele>478.0</ele><time>2026-03-31T08:02:15Z</time></trkpt><trkpt lat="45.64797434736413" lon="8.30418992330694"><ele>478.0</ele><time>2026-03-31T08:02:16.999Z</time></trkpt><trkpt lat="45.6480354749358" lon="8.30432999472336"><ele>478.00000000000006</ele><time>2026-03-31T08:02:18.999Z</time></trkpt><trkpt lat="45.648060291099874" lon="8.30441282395012"><ele>478.0</ele><time>2026-03-31T08:02:19.999Z</time></trkpt><trkpt lat="45.648095058111785" lon="8.304556068870959"><ele>478.0</ele><time>2026-03-31T08:02:21.999Z</time></trkpt><trkpt lat="45.64807341828298" lon="8.304678570120831"><ele>478.0</ele><time>2026-03-31T08:02:23.999Z</time></trkpt><trkpt lat="45.648088058992805" lon="8.30476995607561"><ele>478.00000000000006</ele><time>2026-03-31T08:02:25.999Z</time></trkpt><trkpt lat="45.64813790257772" lon="8.304863294969985"><ele>478.0</ele><time>2026-03-31T08:02:27.999Z</time></trkpt><trkpt lat="45.648209767724985" lon="8.304948533577557"><ele>475.4</ele><time>2026-03-31T08:02:31.999Z</time></trkpt><trkpt lat="45.648270940486356" lon="8.304994159163629"><ele>472.79999999999995</ele><time>2026-03-31T08:02:32.999Z</time></trkpt><trkpt lat="45.648402433178845" lon="8.305034845313253"><ele>470.2</ele><time>2026-03-31T08:02:35.999Z</time></trkpt><trkpt lat="45.648507710122956" lon="8.305043851250566"><ele>467.6</ele><time>2026-03-31T08:02:37.999Z</time></trkpt><trkpt lat="45.64855903635219" lon="8.305145227801264"><ele>465.0</ele><time>2026-03-31T08:02:39.999Z</time></trkpt><trkpt lat="45.64854959270071" lon="8.305263115426035"><ele>465.0</ele><time>2026-03-31T08:02:41.999Z</time></trkpt><trkpt lat="45.64853119747573" lon="8.30544727682623"><ele>465.0</ele><time>2026-03-31T08:02:52Z</time></trkpt><trkpt lat="45.64855678169674" lon="8.305557463967952"><ele>465.0</ele><time>2026-03-31T08:02:53Z</time></trkpt><trkpt lat="45.64857692569737" lon="8.305645180528666"><ele>465.0</ele><time>2026-03-31T08:02:54Z</time></trkpt><trkpt lat="45.648608664171064" lon="8.305730597704711"><ele>465.0</ele><time>2026-03-31T08:02:55Z</time></trkpt><trkpt lat="45.64865213724893" lon="8.305858759010809"><ele>465.0</ele><time>2026-03-31T08:02:56Z</time></trkpt><trkpt lat="45.64867392516501" lon="8.305962608294276"><ele>463.0</ele><time>2026-03-31T08:02:57Z</time></trkpt><trkpt lat="45.64870431916077" lon="8.306045780652134"><ele>461.0</ele><time>2026-03-31T08:02:58Z</time></trkpt><trkpt lat="45.648730086275826" lon="8.306134160357939"><ele>459.0</ele><time>2026-03-31T08:02:59Z</time></trkpt><trkpt lat="45.648761461066854" lon="8.306309043126495"><ele>457.0</ele><time>2026-03-31T08:03:01Z</time></trkpt><trkpt lat="45.64875972407139" lon="8.306399077799696"><ele>455.0</ele><time>2026-03-31T08:03:02Z</time></trkpt><trkpt lat="45.6487551594255" lon="8.306489939436673"><ele>453.0</ele><time>2026-03-31T08:03:03Z</time></trkpt><trkpt lat="45.648792774911186" lon="8.30662081475068"><ele>453.0</ele><time>2026-03-31T08:03:05Z</time></trkpt><trkpt lat="45.64888375996896" lon="8.306719020654285"><ele>453.0</ele><time>2026-03-31T08:03:07Z</time></trkpt><trkpt lat="45.64891962442507" lon="8.306794561224756"><ele>453.0</ele><time>2026-03-31T08:03:08Z</time></trkpt><trkpt lat="45.64895390142736" lon="8.306881609437877"><ele>453.0</ele><time>2026-03-31T08:03:09Z</time></trkpt><trkpt lat="45.649005066070124" lon="8.307043724326908"><ele>453.0</ele><time>2026-03-31T08:03:11Z</time></trkpt><trkpt lat="45.649009312478825" lon="8.307150512606386"><ele>453.0</ele><time>2026-03-31T08:03:12Z</time></trkpt><trkpt lat="45.64901061676403" lon="8.307264067625217"><ele>453.0</ele><time>2026-03-31T08:03:13Z</time></trkpt><trkpt lat="45.64902252421194" lon="8.307373265665424"><ele>453.0</ele><time>2026-03-31T08:03:14Z</time></trkpt><trkpt lat="45.649056700858765" lon="8.307479353334198"><ele>453.0</ele><time>2026-03-31T08:03:15Z</time></trkpt><trkpt lat="45.64909238297381" lon="8.307586241169096"><ele>453.0</ele><time>2026-03-31T08:03:16Z</time></trkpt><trkpt lat="45.649118833265824" lon="8.307701822067356"><ele>453.0</ele><time>2026-03-31T08:03:17Z</time></trkpt><trkpt lat="45.6491229016788" lon="8.307821064001317"><ele>453.0</ele><time>2026-03-31T08:03:18Z</time></trkpt><trkpt lat="45.649110510209546" lon="8.307929300609988"><ele>453.0</ele><time>2026-03-31T08:03:19Z</time></trkpt><trkpt lat="45.64910546973538" lon="8.308031196803727"><ele>453.0</ele><time>2026-03-31T08:03:20Z</time></trkpt><trkpt lat="45.64910537633983" lon="8.308146424422613"><ele>453.0</ele><time>2026-03-31T08:03:21Z</time></trkpt><trkpt lat="45.64910742322332" lon="8.308269599111629"><ele>453.0</ele><time>2026-03-31T08:03:22Z</time></trkpt><trkpt lat="45.64909281335729" lon="8.308366408514786"><ele>453.0</ele><time>2026-03-31T08:03:23Z</time></trkpt><trkpt lat="45.64907222638967" lon="8.308553235036708"><ele>453.0</ele><time>2026-03-31T08:03:25Z</time></trkpt><trkpt lat="45.64905234874587" lon="8.308660635887232"><ele>453.0</ele><time>2026-03-31T08:03:27Z</time></trkpt><trkpt lat="45.64899639595452" lon="8.30871819811155"><ele>453.0</ele><time>2026-03-31T08:03:28Z</time></trkpt><trkpt lat="45.64889998606025" lon="8.308768337784112"><ele>453.0</ele><time>2026-03-31T08:03:30Z</time></trkpt><trkpt lat="45.648834147002766" lon="8.308872001052414"><ele>453.0</ele><time>2026-03-31T08:03:32Z</time></trkpt><trkpt lat="45.64879295276406" lon="8.308973662917241"><ele>453.0</ele><time>2026-03-31T08:03:33Z</time></trkpt><trkpt lat="45.648728177257794" lon="8.309058052130434"><ele>453.0</ele><time>2026-03-31T08:03:35Z</time></trkpt><trkpt lat="45.64872328068856" lon="8.309162617435396"><ele>453.2</ele><time>2026-03-31T08:03:37Z</time></trkpt><trkpt lat="45.64864851647844" lon="8.309226887849553"><ele>453.4</ele><time>2026-03-31T08:03:39Z</time></trkpt><trkpt lat="45.64856806510056" lon="8.309171818488455"><ele>453.59999999999997</ele><time>2026-03-31T08:03:41Z</time></trkpt><trkpt lat="45.648495291090704" lon="8.309164488792014"><ele>453.79999999999995</ele><time>2026-03-31T08:03:43Z</time></trkpt><trkpt lat="45.64840870194556" lon="8.309109167342752"><ele>454.0</ele><time>2026-03-31T08:03:45Z</time></trkpt><trkpt lat="45.64829158406534" lon="8.309103022812602"><ele>454.0</ele><time>2026-03-31T08:03:47Z</time></trkpt><trkpt lat="45.64819744037881" lon="8.309065051156944"><ele>454.0</ele><time>2026-03-31T08:03:49Z</time></trkpt><trkpt lat="45.648117795574585" lon="8.309035505902893"><ele>454.0</ele><time>2026-03-31T08:03:51Z</time></trkpt><trkpt lat="45.64801321160189" lon="8.309077209850221"><ele>454.0</ele><time>2026-03-31T08:03:53Z</time></trkpt><trkpt lat="45.647928397989325" lon="8.30911623425662"><ele>454.0</ele><time>2026-03-31T08:03:55Z</time></trkpt><trkpt lat="45.64781947456391" lon="8.309114742057922"><ele>452.79999999999995</ele><time>2026-03-31T08:03:57Z</time></trkpt><trkpt lat="45.64770292860135" lon="8.309163304541064"><ele>451.59999999999997</ele><time>2026-03-31T08:03:59Z</time></trkpt><trkpt lat="45.64759447174632" lon="8.309288848629445"><ele>450.4</ele><time>2026-03-31T08:04:01Z</time></trkpt><trkpt lat="45.647532805726165" lon="8.30935205080968"><ele>449.2</ele><time>2026-03-31T08:04:02Z</time></trkpt><trkpt lat="45.64745248110314" lon="8.30945364151778"><ele>448.0</ele><time>2026-03-31T08:04:04Z</time></trkpt><trkpt lat="45.64741247386597" lon="8.309579000585874"><ele>448.0</ele><time>2026-03-31T08:04:06Z</time></trkpt><trkpt lat="45.64737751539702" lon="8.309668647910252"><ele>447.99999999999994</ele><time>2026-03-31T08:04:07Z</time></trkpt><trkpt lat="45.6473196394364" lon="8.309789421898115"><ele>447.99999999999994</ele><time>2026-03-31T08:04:09Z</time></trkpt><trkpt lat="45.64722954200947" lon="8.30977964518492"><ele>448.0</ele><time>2026-03-31T08:04:11Z</time></trkpt><trkpt lat="45.64713201765279" lon="8.30971559967916"><ele>448.0</ele><time>2026-03-31T08:04:13Z</time></trkpt><trkpt lat="45.646952988708094" lon="8.30962336102766"><ele>446.59999999999997</ele><time>2026-03-31T08:04:16Z</time></trkpt><trkpt lat="45.64686122529347" lon="8.30961432714835"><ele>445.19999999999993</ele><time>2026-03-31T08:04:18Z</time></trkpt><trkpt lat="45.646780045270816" lon="8.309559235697286"><ele>443.8</ele><time>2026-03-31T08:04:20Z</time></trkpt><trkpt lat="45.64669236991126" lon="8.309572143443207"><ele>442.4</ele><time>2026-03-31T08:04:22Z</time></trkpt><trkpt lat="45.64657782934269" lon="8.309580050708748"><ele>441.0</ele><time>2026-03-31T08:04:24Z</time></trkpt><trkpt lat="45.646514060825595" lon="8.309649180870505"><ele>441.0</ele><time>2026-03-31T08:04:26Z</time></trkpt><trkpt lat="45.64642111870144" lon="8.30974877834635"><ele>441.0</ele><time>2026-03-31T08:04:28Z</time></trkpt><trkpt lat="45.64632162203978" lon="8.309748740333418"><ele>441.0</ele><time>2026-03-31T08:04:29.999Z</time></trkpt><trkpt lat="45.64628009911118" lon="8.309647001250541"><ele>441.0</ele><time>2026-03-31T08:04:32.999Z</time></trkpt><trkpt lat="45.64621980968279" lon="8.30969980469419"><ele>441.0</ele><time>2026-03-31T08:04:35.999Z</time></trkpt><trkpt lat="45.6461490627001" lon="8.309685995018288"><ele>441.0</ele><time>2026-03-31T08:04:38.999Z</time></trkpt><trkpt lat="45.64605609210992" lon="8.309740967793294"><ele>438.4</ele><time>2026-03-31T08:04:41.999Z</time></trkpt><trkpt lat="45.64598268452056" lon="8.309772554346127"><ele>435.8</ele><time>2026-03-31T08:04:43.999Z</time></trkpt><trkpt lat="45.64584381862192" lon="8.309799096387065"><ele>433.19999999999993</ele><time>2026-03-31T08:04:45.999Z</time></trkpt><trkpt lat="45.64574200351439" lon="8.309837143323614"><ele>430.59999999999997</ele><time>2026-03-31T08:04:47.999Z</time></trkpt><trkpt lat="45.64567536120026" lon="8.30987810999111"><ele>428.0</ele><time>2026-03-31T08:04:48.999Z</time></trkpt><trkpt lat="45.6456124515996" lon="8.309883628391075"><ele>427.99999999999994</ele><time>2026-03-31T08:04:49.999Z</time></trkpt><trkpt lat="45.64550668302865" lon="8.309863475952259"><ele>428.0</ele><time>2026-03-31T08:04:51.999Z</time></trkpt><trkpt lat="45.64544319541423" lon="8.309875054308895"><ele>428.0</ele><time>2026-03-31T08:04:53.999Z</time></trkpt><trkpt lat="45.6455153235385" lon="8.309846283741818"><ele>428.0</ele><time>2026-03-31T08:05:06Z</time></trkpt><trkpt lat="45.64541947151422" lon="8.309844406353323"><ele>427.99999999999994</ele><time>2026-03-31T08:05:21Z</time></trkpt><trkpt lat="45.64536038423131" lon="8.309808642345134"><ele>428.0</ele><time>2026-03-31T08:05:22Z</time></trkpt><trkpt lat="45.645297550450536" lon="8.30977728993041"><ele>425.79999999999995</ele><time>2026-03-31T08:05:23Z</time></trkpt><trkpt lat="45.64523335600992" lon="8.309786002205506"><ele>423.59999999999997</ele><time>2026-03-31T08:05:24Z</time></trkpt><trkpt lat="45.64512029524713" lon="8.309817655697241"><ele>421.4</ele><time>2026-03-31T08:05:26Z</time></trkpt><trkpt lat="45.64501468512933" lon="8.309895026956772"><ele>419.20000000000005</ele><time>2026-03-31T08:05:28Z</time></trkpt><trkpt lat="45.64496882521455" lon="8.309971270580112"><ele>417.0</ele><time>2026-03-31T08:05:29Z</time></trkpt><trkpt lat="45.64485260209013" lon="8.310047232791925"><ele>417.0</ele><time>2026-03-31T08:05:31Z</time></trkpt><trkpt lat="45.64476102828205" lon="8.310030942954269"><ele>417.0</ele><time>2026-03-31T08:05:33Z</time></trkpt><trkpt lat="45.64471631883963" lon="8.309961913031545"><ele>417.0</ele><time>2026-03-31T08:05:34Z</time></trkpt><trkpt lat="45.64463457653134" lon="8.309892801014326"><ele>417.0</ele><time>2026-03-31T08:05:35Z</time></trkpt><trkpt lat="45.644553861650635" lon="8.309867957437604"><ele>417.0</ele><time>2026-03-31T08:05:36Z</time></trkpt><trkpt lat="45.644472715633185" lon="8.30984408191345"><ele>417.0</ele><time>2026-03-31T08:05:37Z</time></trkpt><trkpt lat="45.64440482058817" lon="8.309913758460059"><ele>414.0</ele><time>2026-03-31T08:05:40Z</time></trkpt><trkpt lat="45.64429156528414" lon="8.309984915223612"><ele>411.0</ele><time>2026-03-31T08:05:42Z</time></trkpt><trkpt lat="45.64421958062334" lon="8.309985711917824"><ele>408.0</ele><time>2026-03-31T08:05:43Z</time></trkpt><trkpt lat="45.644155022355086" lon="8.309977018635712"><ele>405.0</ele><time>2026-03-31T08:05:44Z</time></trkpt><trkpt lat="45.64404388363259" lon="8.309973060970552"><ele>402.0</ele><time>2026-03-31T08:05:46Z</time></trkpt><trkpt lat="45.64396227487629" lon="8.309972892858841"><ele>402.0</ele><time>2026-03-31T08:05:48Z</time></trkpt><trkpt lat="45.64396412359404" lon="8.310067397616889"><ele>402.0</ele><time>2026-03-31T08:05:49Z</time></trkpt><trkpt lat="45.643931845888254" lon="8.310181567650487"><ele>402.0</ele><time>2026-03-31T08:05:50Z</time></trkpt><trkpt lat="45.6438984383724" lon="8.310264773502078"><ele>402.0</ele><time>2026-03-31T08:05:51Z</time></trkpt><trkpt lat="45.64384796865714" lon="8.31033733401424"><ele>402.0</ele><time>2026-03-31T08:05:52Z</time></trkpt><trkpt lat="45.6437830352428" lon="8.31040378316626"><ele>402.0</ele><time>2026-03-31T08:05:53Z</time></trkpt><trkpt lat="45.64372573278188" lon="8.310469735620172"><ele>402.0</ele><time>2026-03-31T08:05:54Z</time></trkpt><trkpt lat="45.643626409428734" lon="8.310602433026267"><ele>398.40000000000003</ele><time>2026-03-31T08:05:56Z</time></trkpt><trkpt lat="45.64356777440033" lon="8.310701868882001"><ele>394.8</ele><time>2026-03-31T08:05:58Z</time></trkpt><trkpt lat="45.64347087259758" lon="8.310744838215282"><ele>391.2</ele><time>2026-03-31T08:06:00Z</time></trkpt><trkpt lat="45.6433644127033" lon="8.310754987944259"><ele>387.6</ele><time>2026-03-31T08:06:03Z</time></trkpt><trkpt lat="45.643260708827185" lon="8.31082157711481"><ele>384.0</ele><time>2026-03-31T08:06:05Z</time></trkpt><trkpt lat="45.643168749141445" lon="8.310837801026624"><ele>384.0</ele><time>2026-03-31T08:06:07Z</time></trkpt><trkpt lat="45.64310718918781" lon="8.310910756368857"><ele>384.0</ele><time>2026-03-31T08:06:09Z</time></trkpt><trkpt lat="45.643033499115795" lon="8.310890926487078"><ele>384.0</ele><time>2026-03-31T08:06:11Z</time></trkpt><trkpt lat="45.642963262147944" lon="8.310900945841652"><ele>384.0</ele><time>2026-03-31T08:06:13Z</time></trkpt><trkpt lat="45.64288888928894" lon="8.310961136619623"><ele>384.0</ele><time>2026-03-31T08:06:16Z</time></trkpt><trkpt lat="45.642833211826904" lon="8.311042614575127"><ele>384.0</ele><time>2026-03-31T08:06:19Z</time></trkpt><trkpt lat="45.64283581712148" lon="8.311137908551043"><ele>379.8333333333333</ele><time>2026-03-31T08:06:22Z</time></trkpt><trkpt lat="45.64278247001528" lon="8.3112163016524"><ele>375.6666666666667</ele><time>2026-03-31T08:06:24Z</time></trkpt><trkpt lat="45.64275894195485" lon="8.311361671388147"><ele>371.5</ele><time>2026-03-31T08:06:26Z</time></trkpt><trkpt lat="45.64273962329137" lon="8.311462095010395"><ele>367.33333333333337</ele><time>2026-03-31T08:06:27Z</time></trkpt><trkpt lat="45.6426965469223" lon="8.311564419880497"><ele>363.1666666666667</ele><time>2026-03-31T08:06:29Z</time></trkpt><trkpt lat="45.64259087702252" lon="8.311595091771801"><ele>359.0</ele><time>2026-03-31T08:07:40Z</time></trkpt><trkpt lat="45.642530708043246" lon="8.31153968369495"><ele>358.83333333333337</ele><time>2026-03-31T08:07:41Z</time></trkpt><trkpt lat="45.64245659631659" lon="8.311467614980964"><ele>358.6666666666667</ele><time>2026-03-31T08:07:43Z</time></trkpt><trkpt lat="45.64242205311192" lon="8.311565591312371"><ele>358.5</ele><time>2026-03-31T08:07:45Z</time></trkpt><trkpt lat="45.642369856108715" lon="8.311653708496925"><ele>358.3333333333333</ele><time>2026-03-31T08:07:47Z</time></trkpt><trkpt lat="45.64230722652253" lon="8.311676404797202"><ele>358.16666666666663</ele><time>2026-03-31T08:07:48Z</time></trkpt><trkpt lat="45.64220945912172" lon="8.311704261206357"><ele>358.0</ele><time>2026-03-31T08:07:50Z</time></trkpt><trkpt lat="45.64215451043411" lon="8.311794660267777"><ele>358.0</ele><time>2026-03-31T08:07:52Z</time></trkpt><trkpt lat="45.64206107548612" lon="8.31187768766343"><ele>358.0</ele><time>2026-03-31T08:07:54Z</time></trkpt><trkpt lat="45.64199508385551" lon="8.311910350026197"><ele>358.0</ele><time>2026-03-31T08:07:55Z</time></trkpt><trkpt lat="45.64189648047175" lon="8.31199142689538"><ele>358.0</ele><time>2026-03-31T08:07:57Z</time></trkpt><trkpt lat="45.64180390406689" lon="8.311978640207595"><ele>358.0</ele><time>2026-03-31T08:07:59Z</time></trkpt><trkpt lat="45.64175303145228" lon="8.312032273389935"><ele>355.8333333333333</ele><time>2026-03-31T08:08:02Z</time></trkpt><trkpt lat="45.64171617563611" lon="8.312133295526666"><ele>353.66666666666663</ele><time>2026-03-31T08:08:05Z</time></trkpt><trkpt lat="45.641614337493635" lon="8.312242978959214"><ele>351.5</ele><time>2026-03-31T08:08:06Z</time></trkpt><trkpt lat="45.64152483921688" lon="8.312284238864898"><ele>349.3333333333333</ele><time>2026-03-31T08:08:08Z</time></trkpt><trkpt lat="45.641464892105404" lon="8.312322244644305"><ele>347.1666666666667</ele><time>2026-03-31T08:08:10Z</time></trkpt><trkpt lat="45.64142688501772" lon="8.312401866147669"><ele>345.0</ele><time>2026-03-31T08:08:12Z</time></trkpt><trkpt lat="45.641413153136014" lon="8.312505688358796"><ele>345.0</ele><time>2026-03-31T08:08:14Z</time></trkpt><trkpt lat="45.641416442184266" lon="8.31262598771179"><ele>345.0</ele><time>2026-03-31T08:08:16Z</time></trkpt><trkpt lat="45.64143735965871" lon="8.312725060426207"><ele>345.0</ele><time>2026-03-31T08:08:18Z</time></trkpt><trkpt lat="45.641412307029846" lon="8.312826674403688"><ele>345.0</ele><time>2026-03-31T08:08:20Z</time></trkpt><trkpt lat="45.641349696535414" lon="8.312939274780689"><ele>345.0</ele><time>2026-03-31T08:08:22Z</time></trkpt><trkpt lat="45.64127173364337" lon="8.313024456188167"><ele>345.0</ele><time>2026-03-31T08:08:24Z</time></trkpt><trkpt lat="45.641193504169934" lon="8.313142033219913"><ele>345.2</ele><time>2026-03-31T08:08:26Z</time></trkpt><trkpt lat="45.641146040828616" lon="8.313264267721232"><ele>345.4</ele><time>2026-03-31T08:08:28Z</time></trkpt><trkpt lat="45.64107119750091" lon="8.313390329826216"><ele>345.6</ele><time>2026-03-31T08:08:30Z</time></trkpt><trkpt lat="45.64100807649229" lon="8.313502602272592"><ele>345.8</ele><time>2026-03-31T08:08:32Z</time></trkpt><trkpt lat="45.64099597691549" lon="8.313667798458917"><ele>346.0</ele><time>2026-03-31T08:08:34Z</time></trkpt><trkpt lat="45.64100038198969" lon="8.313790742402839"><ele>344.75</ele><time>2026-03-31T08:08:35Z</time></trkpt><trkpt lat="45.640948591885184" lon="8.31393652744859"><ele>343.5</ele><time>2026-03-31T08:08:37Z</time></trkpt><trkpt lat="45.6408818553941" lon="8.31408016291083"><ele>342.25</ele><time>2026-03-31T08:08:39Z</time></trkpt><trkpt lat="45.640856486022855" lon="8.31423559668116"><ele>341.0</ele><time>2026-03-31T08:08:41Z</time></trkpt><trkpt lat="45.640807969264245" lon="8.31440486852931"><ele>341.0</ele><time>2026-03-31T08:08:43Z</time></trkpt><trkpt lat="45.6407688372249" lon="8.31448656889968"><ele>341.0</ele><time>2026-03-31T08:08:44Z</time></trkpt><trkpt lat="45.640706337847355" lon="8.314633064045724"><ele>341.0</ele><time>2026-03-31T08:08:46Z</time></trkpt><trkpt lat="45.64071032439174" lon="8.314814210039332"><ele>341.0</ele><time>2026-03-31T08:08:48Z</time></trkpt><trkpt lat="45.64070411093211" lon="8.314911949987449"><ele>341.0</ele><time>2026-03-31T08:08:49Z</time></trkpt><trkpt lat="45.640689571547895" lon="8.315015598752824"><ele>340.83333333333337</ele><time>2026-03-31T08:08:50Z</time></trkpt><trkpt lat="45.64067469415911" lon="8.315108968427523"><ele>340.6666666666667</ele><time>2026-03-31T08:08:51Z</time></trkpt><trkpt lat="45.640640624748926" lon="8.315238973319257"><ele>340.5</ele><time>2026-03-31T08:08:53Z</time></trkpt><trkpt lat="45.64060297648157" lon="8.315399465840793"><ele>340.3333333333333</ele><time>2026-03-31T08:08:55Z</time></trkpt><trkpt lat="45.640544893514495" lon="8.315479643678938"><ele>340.16666666666663</ele><time>2026-03-31T08:08:58.999Z</time></trkpt><trkpt lat="45.64049181169908" lon="8.315558149060019"><ele>340.0</ele><time>2026-03-31T08:09:25Z</time></trkpt><trkpt lat="45.64042685317107" lon="8.315602400129382"><ele>339.5714285714286</ele><time>2026-03-31T08:09:31Z</time></trkpt><trkpt lat="45.64036991955849" lon="8.31566173532552"><ele>339.1428571428571</ele><time>2026-03-31T08:09:41.999Z</time></trkpt><trkpt lat="45.640350780393" lon="8.315773721447458"><ele>338.7142857142857</ele><time>2026-03-31T08:10:32.999Z</time></trkpt><trkpt lat="45.64030176343281" lon="8.315832305868085"><ele>338.28571428571433</ele><time>2026-03-31T08:10:35.999Z</time></trkpt><trkpt lat="45.64023021265238" lon="8.315836711331636"><ele>337.8571428571429</ele><time>2026-03-31T08:10:39.999Z</time></trkpt><trkpt lat="45.64016617571001" lon="8.315822092878985"><ele>337.42857142857144</ele><time>2026-03-31T08:10:43.999Z</time></trkpt><trkpt lat="45.64009646073297" lon="8.315800921807291"><ele>337.0</ele><time>2026-03-31T08:10:46.999Z</time></trkpt><trkpt lat="45.640029744472216" lon="8.315793132353496"><ele>336.66666666666663</ele><time>2026-03-31T08:10:49.999Z</time></trkpt><trkpt lat="45.639963754721606" lon="8.315784766581091"><ele>336.3333333333333</ele><time>2026-03-31T08:10:58.999Z</time></trkpt><trkpt lat="45.63990990973057" lon="8.315736973635435"><ele>336.0</ele><time>2026-03-31T08:11:07.999Z</time></trkpt><trkpt lat="45.639991715852275" lon="8.315716856971598"><ele>335.6666666666667</ele><time>2026-03-31T08:11:11.999Z</time></trkpt><trkpt lat="45.64005913792726" lon="8.31575535583983"><ele>335.33333333333337</ele><time>2026-03-31T08:11:14.999Z</time></trkpt><trkpt lat="45.640179700535505" lon="8.315810165913284"><ele>335.0</ele><time>2026-03-31T08:11:16Z</time></trkpt><trkpt lat="45.64025729343656" lon="8.315805498840783"><ele>335.0</ele><time>2026-03-31T08:11:18Z</time></trkpt><trkpt lat="45.640333204427094" lon="8.315777341111602"><ele>335.0</ele><time>2026-03-31T08:11:21Z</time></trkpt><trkpt lat="45.64039530606119" lon="8.315654387108111"><ele>335.0</ele><time>2026-03-31T08:11:44Z</time></trkpt><trkpt lat="45.640442562348234" lon="8.315565953391202"><ele>335.0</ele><time>2026-03-31T08:11:50.999Z</time></trkpt><trkpt lat="45.640367722826035" lon="8.315568173310952"><ele>335.0</ele><time>2026-03-31T08:11:55.999Z</time></trkpt><trkpt lat="45.64031386213262" lon="8.315617062470649"><ele>335.0</ele><time>2026-03-31T08:11:58.999Z</time></trkpt><trkpt lat="45.64025769314508" lon="8.31567179194442"><ele>335.0</ele><time>2026-03-31T08:12:02.999Z</time></trkpt><trkpt lat="45.64019963881987" lon="8.31561270490208"><ele>335.0</ele><time>2026-03-31T08:12:10.999Z</time></trkpt><trkpt lat="45.640127341973" lon="8.315579042935038"><ele>335.0</ele><time>2026-03-31T08:12:13.999Z</time></trkpt><trkpt lat="45.640042641587165" lon="8.315537723966544"><ele>335.0</ele><time>2026-03-31T08:12:14.999Z</time></trkpt><trkpt lat="45.63996031042929" lon="8.315492683042999"><ele>335.0</ele><time>2026-03-31T08:12:15.999Z</time></trkpt><trkpt lat="45.63989512869224" lon="8.315459206404276"><ele>335.0</ele><time>2026-03-31T08:12:17.999Z</time></trkpt><trkpt lat="45.639832525456704" lon="8.31541729731228"><ele>335.1666666666667</ele><time>2026-03-31T08:12:19.999Z</time></trkpt><trkpt lat="45.63976043140039" lon="8.315402312785201"><ele>335.33333333333337</ele><time>2026-03-31T08:12:21.999Z</time></trkpt><trkpt lat="45.63969660581419" lon="8.315403747761106"><ele>335.5</ele><time>2026-03-31T08:12:23.999Z</time></trkpt><trkpt lat="45.63961896460359" lon="8.315411495074025"><ele>335.6666666666667</ele><time>2026-03-31T08:12:25.999Z</time></trkpt><trkpt lat="45.63952925385854" lon="8.315454993879259"><ele>335.8333333333333</ele><time>2026-03-31T08:12:27.999Z</time></trkpt><trkpt lat="45.63941097085714" lon="8.315494148934166"><ele>336.0</ele><time>2026-03-31T08:12:29.999Z</time></trkpt><trkpt lat="45.639334605150594" lon="8.315518197420928"><ele>335.6666666666667</ele><time>2026-03-31T08:12:30.999Z</time></trkpt><trkpt lat="45.639253831393" lon="8.315540540128907"><ele>335.3333333333333</ele><time>2026-03-31T08:12:31.999Z</time></trkpt><trkpt lat="45.63918457916516" lon="8.3155651943898"><ele>335.0</ele><time>2026-03-31T08:12:32.999Z</time></trkpt><trkpt lat="45.639122425247486" lon="8.315604878047528"><ele>334.66666666666663</ele><time>2026-03-31T08:12:33.999Z</time></trkpt><trkpt lat="45.63907457931312" lon="8.31569739256221"><ele>334.3333333333333</ele><time>2026-03-31T08:12:34.999Z</time></trkpt><trkpt lat="45.638994663275774" lon="8.315832580695343"><ele>334.0</ele><time>2026-03-31T08:12:36.999Z</time></trkpt><trkpt lat="45.63890326519895" lon="8.315876885651527"><ele>334.0</ele><time>2026-03-31T08:12:37.999Z</time></trkpt><trkpt lat="45.63876765713295" lon="8.315872047900099"><ele>334.0</ele><time>2026-03-31T08:12:38.999Z</time></trkpt><trkpt lat="45.63861597910735" lon="8.315884083785036"><ele>334.0</ele><time>2026-03-31T08:12:39.999Z</time></trkpt><trkpt lat="45.63846303776501" lon="8.315934171837062"><ele>334.0</ele><time>2026-03-31T08:12:40.999Z</time></trkpt><trkpt lat="45.63830692259864" lon="8.315984129718352"><ele>334.66666666666663</ele><time>2026-03-31T08:12:41.999Z</time></trkpt><trkpt lat="45.638158769916615" lon="8.315954080211503"><ele>335.3333333333333</ele><time>2026-03-31T08:12:42.999Z</time></trkpt><trkpt lat="45.637967386409905" lon="8.31589524159213"><ele>336.0</ele><time>2026-03-31T08:12:43.999Z</time></trkpt><trkpt lat="45.63778327560767" lon="8.315929790831698"><ele>334.3333333333333</ele><time>2026-03-31T08:12:44.999Z</time></trkpt><trkpt lat="45.63758472362052" lon="8.31600606447372"><ele>332.66666666666663</ele><time>2026-03-31T08:12:45.999Z</time></trkpt><trkpt lat="45.63737056517426" lon="8.316082238852328"><ele>331.0</ele><time>2026-03-31T08:12:46.999Z</time></trkpt><trkpt lat="45.63720212205832" lon="8.316136244511394"><ele>331.0</ele><time>2026-03-31T08:12:47.999Z</time></trkpt><trkpt lat="45.637059936697945" lon="8.316198387824688"><ele>331.0</ele><time>2026-03-31T08:12:48.999Z</time></trkpt><trkpt lat="45.636979319398776" lon="8.316222936987483"><ele>331.0</ele><time>2026-03-31T08:12:49.999Z</time></trkpt><trkpt lat="45.63691722860901" lon="8.316247944103369"><ele>331.0</ele><time>2026-03-31T08:12:50.999Z</time></trkpt><trkpt lat="45.63681923861044" lon="8.316328942989733"><ele>331.0</ele><time>2026-03-31T08:12:52.999Z</time></trkpt><trkpt lat="45.63675892426308" lon="8.316387494556707"><ele>331.0</ele><time>2026-03-31T08:12:54.999Z</time></trkpt><trkpt lat="45.636676725945684" lon="8.31642805688095"><ele>331.0</ele><time>2026-03-31T08:13:08.999Z</time></trkpt><trkpt lat="45.63659846880355" lon="8.316492440506977"><ele>331.0</ele><time>2026-03-31T08:13:10.999Z</time></trkpt><trkpt lat="45.63651789374646" lon="8.316482237259969"><ele>331.0</ele><time>2026-03-31T08:13:13.999Z</time></trkpt><trkpt lat="45.63644828871743" lon="8.316498569482492"><ele>331.0</ele><time>2026-03-31T08:13:15.999Z</time></trkpt><trkpt lat="45.636386421360086" lon="8.316537158563944"><ele>331.0</ele><time>2026-03-31T08:13:17.999Z</time></trkpt><trkpt lat="45.63628732150904" lon="8.316583824122175"><ele>331.0</ele><time>2026-03-31T08:13:19.999Z</time></trkpt><trkpt lat="45.636271637236405" lon="8.316674321089302"><ele>331.0</ele><time>2026-03-31T08:13:23Z</time></trkpt><trkpt lat="45.63633658585688" lon="8.316694820474378"><ele>331.0</ele><time>2026-03-31T08:13:24Z</time></trkpt><trkpt lat="45.63642351731112" lon="8.316694799518215"><ele>331.0</ele><time>2026-03-31T08:13:25Z</time></trkpt><trkpt lat="45.63650719084245" lon="8.31670804647247"><ele>331.0</ele><time>2026-03-31T08:13:26Z</time></trkpt><trkpt lat="45.63657065932701" lon="8.316764328690503"><ele>331.0</ele><time>2026-03-31T08:13:27Z</time></trkpt><trkpt lat="45.636641476510206" lon="8.316820483771956"><ele>331.0</ele><time>2026-03-31T08:13:28Z</time></trkpt><trkpt lat="45.63671080670632" lon="8.31687486157086"><ele>331.0</ele><time>2026-03-31T08:13:29Z</time></trkpt><trkpt lat="45.636778489251924" lon="8.316907799502816"><ele>331.0</ele><time>2026-03-31T08:13:30Z</time></trkpt><trkpt lat="45.63684624499963" lon="8.316953237038843"><ele>331.0</ele><time>2026-03-31T08:13:31Z</time></trkpt><trkpt lat="45.63689578561291" lon="8.317018241207439"><ele>331.0</ele><time>2026-03-31T08:13:32Z</time></trkpt><trkpt lat="45.63694777848756" lon="8.317078245845313"><ele>331.0</ele><time>2026-03-31T08:13:33Z</time></trkpt><trkpt lat="45.63699783192005" lon="8.317155155562853"><ele>331.0</ele><time>2026-03-31T08:13:34Z</time></trkpt><trkpt lat="45.63706236794925" lon="8.317261229979126"><ele>331.66666666666663</ele><time>2026-03-31T08:13:35Z</time></trkpt><trkpt lat="45.637137791880214" lon="8.317350636632021"><ele>332.3333333333333</ele><time>2026-03-31T08:13:36Z</time></trkpt><trkpt lat="45.637225179102245" lon="8.31739845997489"><ele>333.0</ele><time>2026-03-31T08:13:37Z</time></trkpt><trkpt lat="45.6372989578446" lon="8.317424865703094"><ele>333.6666666666667</ele><time>2026-03-31T08:13:38Z</time></trkpt><trkpt lat="45.63736139579795" lon="8.3174582391652"><ele>334.33333333333337</ele><time>2026-03-31T08:13:39Z</time></trkpt><trkpt lat="45.637400414042006" lon="8.317531320056105"><ele>335.0</ele><time>2026-03-31T08:13:40Z</time></trkpt><trkpt lat="45.6374211106694" lon="8.317638490576414"><ele>335.0</ele><time>2026-03-31T08:13:41Z</time></trkpt><trkpt lat="45.63749376493046" lon="8.317663603881995"><ele>335.0</ele><time>2026-03-31T08:13:44Z</time></trkpt><trkpt lat="45.63750016206401" lon="8.317796979334434"><ele>335.0</ele><time>2026-03-31T08:14:02.999Z</time></trkpt><trkpt lat="45.6375320952838" lon="8.317945686070118"><ele>335.0</ele><time>2026-03-31T08:14:04.999Z</time></trkpt><trkpt lat="45.63756237316262" lon="8.318053997952063"><ele>335.0</ele><time>2026-03-31T08:14:06.999Z</time></trkpt><trkpt lat="45.63749026715447" lon="8.318197148824142"><ele>336.6</ele><time>2026-03-31T08:14:08.999Z</time></trkpt><trkpt lat="45.637437136006916" lon="8.318349484186774"><ele>338.2</ele><time>2026-03-31T08:14:10.999Z</time></trkpt><trkpt lat="45.6374252345173" lon="8.318448156232364"><ele>339.79999999999995</ele><time>2026-03-31T08:14:11.999Z</time></trkpt><trkpt lat="45.637395050070715" lon="8.318566545159339"><ele>341.4</ele><time>2026-03-31T08:14:13.999Z</time></trkpt><trkpt lat="45.6372635760661" lon="8.318595234895055"><ele>343.0</ele><time>2026-03-31T08:14:15.999Z</time></trkpt><trkpt lat="45.637169220562505" lon="8.318627981311764"><ele>343.0</ele><time>2026-03-31T08:14:16.999Z</time></trkpt><trkpt lat="45.637130452856994" lon="8.318742234017575"><ele>343.0</ele><time>2026-03-31T08:14:18.999Z</time></trkpt><trkpt lat="45.63702587108155" lon="8.318821128696854"><ele>343.0</ele><time>2026-03-31T08:14:41.999Z</time></trkpt><trkpt lat="45.63694427471656" lon="8.31879656430761"><ele>343.0</ele><time>2026-03-31T08:14:44.999Z</time></trkpt><trkpt lat="45.63687773719232" lon="8.318780751246608"><ele>343.0</ele><time>2026-03-31T08:14:45.999Z</time></trkpt><trkpt lat="45.63687179318484" lon="8.318871157149843"><ele>343.0</ele><time>2026-03-31T08:14:47.999Z</time></trkpt><trkpt lat="45.636904851535654" lon="8.318975989690472"><ele>344.3333333333333</ele><time>2026-03-31T08:14:51.999Z</time></trkpt><trkpt lat="45.636983243601605" lon="8.319044472421037"><ele>345.66666666666663</ele><time>2026-03-31T08:14:54.999Z</time></trkpt><trkpt lat="45.63701530530609" lon="8.319138941398107"><ele>347.0</ele><time>2026-03-31T08:14:56.999Z</time></trkpt><trkpt lat="45.6370066499651" lon="8.319300336794948"><ele>348.3333333333333</ele><time>2026-03-31T08:14:59.999Z</time></trkpt><trkpt lat="45.63707969294814" lon="8.319337225836303"><ele>349.6666666666667</ele><time>2026-03-31T08:15:00.999Z</time></trkpt><trkpt lat="45.6371514313263" lon="8.319421570054056"><ele>351.0</ele><time>2026-03-31T08:15:01.999Z</time></trkpt><trkpt lat="45.63721357432078" lon="8.319473485981547"><ele>351.0</ele><time>2026-03-31T08:15:02.999Z</time></trkpt><trkpt lat="45.637273870101744" lon="8.319527476398285"><ele>351.0</ele><time>2026-03-31T08:15:03.999Z</time></trkpt><trkpt lat="45.63731541161514" lon="8.3195992064874"><ele>351.0</ele><time>2026-03-31T08:15:04.999Z</time></trkpt><trkpt lat="45.63728358560624" lon="8.319812577876656"><ele>351.0</ele><time>2026-03-31T08:15:06.999Z</time></trkpt><trkpt lat="45.637265604953136" lon="8.3199008875933"><ele>351.0</ele><time>2026-03-31T08:15:07.999Z</time></trkpt><trkpt lat="45.637329139944164" lon="8.319935836087758"><ele>351.0</ele><time>2026-03-31T08:15:08.999Z</time></trkpt><trkpt lat="45.637442550037825" lon="8.320039689146821"><ele>351.8333333333333</ele><time>2026-03-31T08:15:10.999Z</time></trkpt><trkpt lat="45.63752185336691" lon="8.320126289155143"><ele>352.6666666666667</ele><time>2026-03-31T08:15:11.999Z</time></trkpt><trkpt lat="45.637558046249914" lon="8.32022023051743"><ele>353.5</ele><time>2026-03-31T08:15:12.999Z</time></trkpt><trkpt lat="45.63761084660733" lon="8.320270311596484"><ele>354.33333333333337</ele><time>2026-03-31T08:15:13.999Z</time></trkpt><trkpt lat="45.63770951167032" lon="8.32029285944007"><ele>355.1666666666667</ele><time>2026-03-31T08:15:15.999Z</time></trkpt><trkpt lat="45.63779804731856" lon="8.320377218275242"><ele>356.0</ele><time>2026-03-31T08:15:17.999Z</time></trkpt><trkpt lat="45.63785138284061" lon="8.32049190834805"><ele>357.6</ele><time>2026-03-31T08:15:19.999Z</time></trkpt><trkpt lat="45.63788950964989" lon="8.320627436457352"><ele>359.20000000000005</ele><time>2026-03-31T08:15:21.999Z</time></trkpt><trkpt lat="45.637946027065425" lon="8.320714493642537"><ele>360.79999999999995</ele><time>2026-03-31T08:15:23.999Z</time></trkpt><trkpt lat="45.637949050300705" lon="8.320850507911738"><ele>362.4</ele><time>2026-03-31T08:15:28Z</time></trkpt><trkpt lat="45.63793216210721" lon="8.32100260406096"><ele>364.0</ele><time>2026-03-31T08:15:30Z</time></trkpt><trkpt lat="45.6379305289018" lon="8.321133625525261"><ele>364.0</ele><time>2026-03-31T08:15:32Z</time></trkpt><trkpt lat="45.63793763050098" lon="8.321276206773298"><ele>364.0</ele><time>2026-03-31T08:15:34Z</time></trkpt><trkpt lat="45.63805630048487" lon="8.321385980185704"><ele>364.0</ele><time>2026-03-31T08:15:36Z</time></trkpt><trkpt lat="45.63813296173558" lon="8.321439548511515"><ele>364.0</ele><time>2026-03-31T08:15:38Z</time></trkpt><trkpt lat="45.63823159420379" lon="8.321365740268442"><ele>364.0</ele><time>2026-03-31T08:15:43Z</time></trkpt><trkpt lat="45.63838406865587" lon="8.321388524962684"><ele>365.0</ele><time>2026-03-31T08:15:44Z</time></trkpt><trkpt lat="45.63850287738018" lon="8.321399235122625"><ele>366.0</ele><time>2026-03-31T08:15:45Z</time></trkpt><trkpt lat="45.63856037038616" lon="8.321463556292347"><ele>367.0</ele><time>2026-03-31T08:15:46Z</time></trkpt><trkpt lat="45.63861775843771" lon="8.321524794610855"><ele>368.0</ele><time>2026-03-31T08:15:47Z</time></trkpt><trkpt lat="45.63868836506831" lon="8.321581002485198"><ele>369.0</ele><time>2026-03-31T08:15:48Z</time></trkpt><trkpt lat="45.63880959642886" lon="8.321610648915884"><ele>369.6</ele><time>2026-03-31T08:15:50Z</time></trkpt><trkpt lat="45.63892221266137" lon="8.321724771529604"><ele>370.2</ele><time>2026-03-31T08:15:52Z</time></trkpt><trkpt lat="45.63898585306265" lon="8.321827331943714"><ele>370.8</ele><time>2026-03-31T08:15:54Z</time></trkpt><trkpt lat="45.63901055018592" lon="8.321927668609973"><ele>371.40000000000003</ele><time>2026-03-31T08:15:55Z</time></trkpt><trkpt lat="45.639114149547744" lon="8.32194259676308"><ele>372.0</ele><time>2026-03-31T08:15:57Z</time></trkpt><trkpt lat="45.639178043494795" lon="8.321976736856916"><ele>372.0</ele><time>2026-03-31T08:15:58Z</time></trkpt><trkpt lat="45.639240797733194" lon="8.322102287811147"><ele>372.0</ele><time>2026-03-31T08:16:00Z</time></trkpt><trkpt lat="45.63925976573866" lon="8.32223568020202"><ele>372.0</ele><time>2026-03-31T08:16:02Z</time></trkpt><trkpt lat="45.63928586581364" lon="8.322353983344932"><ele>372.0</ele><time>2026-03-31T08:16:04Z</time></trkpt><trkpt lat="45.63933126739345" lon="8.322417536914552"><ele>372.0</ele><time>2026-03-31T08:16:05Z</time></trkpt><trkpt lat="45.63937579541964" lon="8.322578579448278"><ele>373.6666666666667</ele><time>2026-03-31T08:16:07Z</time></trkpt><trkpt lat="45.639412356150466" lon="8.322752959740553"><ele>375.3333333333333</ele><time>2026-03-31T08:16:08.999Z</time></trkpt><trkpt lat="45.63942061746002" lon="8.322855473677865"><ele>377.0</ele><time>2026-03-31T08:16:09.999Z</time></trkpt><trkpt lat="45.63943124623795" lon="8.322945244632173"><ele>378.66666666666663</ele><time>2026-03-31T08:16:10.999Z</time></trkpt><trkpt lat="45.63943580927883" lon="8.32304299076933"><ele>380.3333333333333</ele><time>2026-03-31T08:16:11.999Z</time></trkpt><trkpt lat="45.63942581157218" lon="8.323184026715163"><ele>382.0</ele><time>2026-03-31T08:16:13.999Z</time></trkpt><trkpt lat="45.63950912944481" lon="8.323245666180023"><ele>382.6</ele><time>2026-03-31T08:16:15.999Z</time></trkpt><trkpt lat="45.63946366602986" lon="8.323414295773887"><ele>383.20000000000005</ele><time>2026-03-31T08:16:17.999Z</time></trkpt><trkpt lat="45.63947013198508" lon="8.323555625485604"><ele>383.8</ele><time>2026-03-31T08:16:19.999Z</time></trkpt><trkpt lat="45.63948597988661" lon="8.323650002337311"><ele>384.4</ele><time>2026-03-31T08:16:20.999Z</time></trkpt><trkpt lat="45.63946377090866" lon="8.323777294700369"><ele>385.0</ele><time>2026-03-31T08:16:22.999Z</time></trkpt><trkpt lat="45.639479236887254" lon="8.323878078197833"><ele>387.6666666666667</ele><time>2026-03-31T08:16:25.999Z</time></trkpt><trkpt lat="45.639480286625776" lon="8.324029843121906"><ele>390.33333333333337</ele><time>2026-03-31T08:16:28.999Z</time></trkpt><trkpt lat="45.63952494016211" lon="8.324107874716884"><ele>393.0</ele><time>2026-03-31T08:16:31.999Z</time></trkpt><trkpt lat="45.639580553647" lon="8.324188301008892"><ele>395.66666666666663</ele><time>2026-03-31T08:16:33.999Z</time></trkpt><trkpt lat="45.63964501747305" lon="8.32421214210427"><ele>398.3333333333333</ele><time>2026-03-31T08:16:36.999Z</time></trkpt><trkpt lat="45.63970358973957" lon="8.324279553749816"><ele>401.0</ele><time>2026-03-31T08:16:46.999Z</time></trkpt><trkpt lat="45.63969181729034" lon="8.324377579047923"><ele>400.99999999999994</ele><time>2026-03-31T08:16:48.999Z</time></trkpt><trkpt lat="45.63968269132445" lon="8.324490727435196"><ele>401.0</ele><time>2026-03-31T08:16:49.999Z</time></trkpt><trkpt lat="45.63971126337123" lon="8.324574258487527"><ele>401.0</ele><time>2026-03-31T08:16:50.999Z</time></trkpt><trkpt lat="45.63972936258834" lon="8.324727910721137"><ele>401.0</ele><time>2026-03-31T08:16:52.999Z</time></trkpt><trkpt lat="45.639720846168906" lon="8.324826192916305"><ele>400.99999999999994</ele><time>2026-03-31T08:16:53.999Z</time></trkpt><trkpt lat="45.63973044205823" lon="8.324984567230326"><ele>401.0</ele><time>2026-03-31T08:16:55.999Z</time></trkpt><trkpt lat="45.63971335315377" lon="8.325128553574324"><ele>402.8</ele><time>2026-03-31T08:16:57.999Z</time></trkpt><trkpt lat="45.639784800048766" lon="8.325263691603697"><ele>404.6</ele><time>2026-03-31T08:16:59.999Z</time></trkpt><trkpt lat="45.63974265029884" lon="8.325417189237879"><ele>406.4</ele><time>2026-03-31T08:17:01.999Z</time></trkpt><trkpt lat="45.63971228087142" lon="8.325599712801964"><ele>408.2</ele><time>2026-03-31T08:17:03.999Z</time></trkpt><trkpt lat="45.63967594469497" lon="8.325681577198086"><ele>410.0</ele><time>2026-03-31T08:17:04.999Z</time></trkpt><trkpt lat="45.639578630024474" lon="8.32577066146654"><ele>411.16666666666663</ele><time>2026-03-31T08:17:06.999Z</time></trkpt><trkpt lat="45.63949488477702" lon="8.325861551710638"><ele>412.3333333333333</ele><time>2026-03-31T08:17:08.999Z</time></trkpt><trkpt lat="45.63945571451109" lon="8.325994760980226"><ele>413.5</ele><time>2026-03-31T08:17:10.999Z</time></trkpt><trkpt lat="45.639426167296214" lon="8.326114730220262"><ele>414.66666666666663</ele><time>2026-03-31T08:17:12.999Z</time></trkpt><trkpt lat="45.639457323182164" lon="8.32622446326493"><ele>415.8333333333333</ele><time>2026-03-31T08:17:14.999Z</time></trkpt><trkpt lat="45.639458062306424" lon="8.326314619835768"><ele>417.0</ele><time>2026-03-31T08:17:15.999Z</time></trkpt><trkpt lat="45.63943363342455" lon="8.326448791968568"><ele>419.40000000000003</ele><time>2026-03-31T08:17:17.999Z</time></trkpt><trkpt lat="45.639485809156334" lon="8.326525238867934"><ele>421.8</ele><time>2026-03-31T08:17:19.999Z</time></trkpt><trkpt lat="45.6395406388374" lon="8.326607915581153"><ele>424.2</ele><time>2026-03-31T08:17:21.999Z</time></trkpt><trkpt lat="45.63953796414534" lon="8.326744584365429"><ele>426.6</ele><time>2026-03-31T08:17:24.999Z</time></trkpt><trkpt lat="45.639540354026515" lon="8.326923009242382"><ele>429.0</ele><time>2026-03-31T08:17:26.999Z</time></trkpt><trkpt lat="45.63957905657761" lon="8.327024780742194"><ele>429.0</ele><time>2026-03-31T08:17:28.999Z</time></trkpt><trkpt lat="45.63961282727881" lon="8.327156553315914"><ele>429.0</ele><time>2026-03-31T08:17:30.999Z</time></trkpt><trkpt lat="45.6396374252891" lon="8.327255753823609"><ele>429.0</ele><time>2026-03-31T08:17:32.999Z</time></trkpt><trkpt lat="45.63963605076208" lon="8.32736088177452"><ele>429.0</ele><time>2026-03-31T08:17:35Z</time></trkpt><trkpt lat="45.63960333142553" lon="8.32746454150445"><ele>429.0</ele><time>2026-03-31T08:17:37Z</time></trkpt><trkpt lat="45.6395426357682" lon="8.32756330066488"><ele>429.0</ele><time>2026-03-31T08:17:39Z</time></trkpt><trkpt lat="45.63951540405663" lon="8.327680226452449"><ele>430.6666666666667</ele><time>2026-03-31T08:17:42Z</time></trkpt><trkpt lat="45.63952699499261" lon="8.327798767175418"><ele>432.33333333333337</ele><time>2026-03-31T08:17:45Z</time></trkpt><trkpt lat="45.63961845054585" lon="8.327851097726615"><ele>434.0</ele><time>2026-03-31T08:17:48Z</time></trkpt><trkpt lat="45.639620835391995" lon="8.327966600060853"><ele>435.6666666666667</ele><time>2026-03-31T08:17:50Z</time></trkpt><trkpt lat="45.63965377345903" lon="8.328095083954635"><ele>437.33333333333337</ele><time>2026-03-31T08:17:52Z</time></trkpt><trkpt lat="45.63969019463743" lon="8.328202781387771"><ele>439.0</ele><time>2026-03-31T08:17:54Z</time></trkpt><trkpt lat="45.63974704105616" lon="8.328311787201349"><ele>440.0</ele><time>2026-03-31T08:17:56Z</time></trkpt><trkpt lat="45.63973167010673" lon="8.328485724879659"><ele>441.0</ele><time>2026-03-31T08:17:58Z</time></trkpt><trkpt lat="45.63976261449267" lon="8.32857359212148"><ele>442.0</ele><time>2026-03-31T08:17:59Z</time></trkpt><trkpt lat="45.63980148111825" lon="8.328739317070806"><ele>443.0</ele><time>2026-03-31T08:18:01Z</time></trkpt><trkpt lat="45.63980537509593" lon="8.328835538094097"><ele>444.0</ele><time>2026-03-31T08:18:02Z</time></trkpt><trkpt lat="45.63981056181739" lon="8.329008621675442"><ele>445.2</ele><time>2026-03-31T08:18:04Z</time></trkpt><trkpt lat="45.63979916990247" lon="8.32913396258531"><ele>446.4</ele><time>2026-03-31T08:18:05Z</time></trkpt><trkpt lat="45.63976555360895" lon="8.329255311149854"><ele>447.6</ele><time>2026-03-31T08:18:06Z</time></trkpt><trkpt lat="45.639707356399526" lon="8.329380135130975"><ele>448.8</ele><time>2026-03-31T08:18:08Z</time></trkpt><trkpt lat="45.639696996927945" lon="8.329541613484448"><ele>450.0</ele><time>2026-03-31T08:18:10Z</time></trkpt><trkpt lat="45.63969336686523" lon="8.32963511726522"><ele>451.1666666666667</ele><time>2026-03-31T08:18:11Z</time></trkpt><trkpt lat="45.639693798320735" lon="8.329731171313483"><ele>452.33333333333337</ele><time>2026-03-31T08:18:12Z</time></trkpt><trkpt lat="45.63968720248882" lon="8.329828515067803"><ele>453.5</ele><time>2026-03-31T08:18:13Z</time></trkpt><trkpt lat="45.63966202544943" lon="8.329983863996066"><ele>454.6666666666667</ele><time>2026-03-31T08:18:15Z</time></trkpt><trkpt lat="45.63971072890241" lon="8.33006245326865"><ele>455.83333333333337</ele><time>2026-03-31T08:18:17Z</time></trkpt><trkpt lat="45.639740170384854" lon="8.330148163768563"><ele>457.0</ele><time>2026-03-31T08:18:20Z</time></trkpt><trkpt lat="45.63972832969874" lon="8.330261858369667"><ele>457.00000000000006</ele><time>2026-03-31T08:18:22Z</time></trkpt><trkpt lat="45.63972686964696" lon="8.330404697027753"><ele>457.0</ele><time>2026-03-31T08:18:23.999Z</time></trkpt><trkpt lat="45.63973574391654" lon="8.330517829779279"><ele>457.0</ele><time>2026-03-31T08:18:25.999Z</time></trkpt><trkpt lat="45.639807693943524" lon="8.330557059681029"><ele>457.0</ele><time>2026-03-31T08:18:27.999Z</time></trkpt><trkpt lat="45.63988866185754" lon="8.330618765339128"><ele>457.00000000000006</ele><time>2026-03-31T08:18:29.999Z</time></trkpt><trkpt lat="45.63990790853195" lon="8.3307470946543"><ele>457.0</ele><time>2026-03-31T08:18:31.999Z</time></trkpt><trkpt lat="45.63996888410746" lon="8.330834957453103"><ele>458.1666666666667</ele><time>2026-03-31T08:18:34.999Z</time></trkpt><trkpt lat="45.640001560761014" lon="8.330920719799876"><ele>459.33333333333337</ele><time>2026-03-31T08:18:35.999Z</time></trkpt><trkpt lat="45.640057934444336" lon="8.331022593872428"><ele>460.5</ele><time>2026-03-31T08:18:37.999Z</time></trkpt><trkpt lat="45.64010999950538" lon="8.331086891447661"><ele>461.66666666666663</ele><time>2026-03-31T08:18:39.999Z</time></trkpt><trkpt lat="45.64016940068207" lon="8.33113573233212"><ele>462.8333333333333</ele><time>2026-03-31T08:18:40.999Z</time></trkpt><trkpt lat="45.640239683120186" lon="8.33123885219595"><ele>464.0</ele><time>2026-03-31T08:18:42.999Z</time></trkpt><trkpt lat="45.64027894530058" lon="8.331354945275985"><ele>467.79999999999995</ele><time>2026-03-31T08:18:45.999Z</time></trkpt><trkpt lat="45.64030430149817" lon="8.331458900387062"><ele>471.59999999999997</ele><time>2026-03-31T08:18:47.999Z</time></trkpt><trkpt lat="45.64035246239802" lon="8.331585848769803"><ele>475.4</ele><time>2026-03-31T08:18:49.999Z</time></trkpt><trkpt lat="45.64040263309638" lon="8.331642379294344"><ele>479.2</ele><time>2026-03-31T08:18:51.999Z</time></trkpt><trkpt lat="45.64049410938563" lon="8.33181035278349"><ele>483.0</ele><time>2026-03-31T08:18:52.999Z</time></trkpt><trkpt lat="45.640521871109385" lon="8.331998983619291"><ele>483.0</ele><time>2026-03-31T08:18:54.999Z</time></trkpt><trkpt lat="45.64054896546279" lon="8.332111930696348"><ele>483.0</ele><time>2026-03-31T08:18:55.999Z</time></trkpt><trkpt lat="45.640580914628714" lon="8.33220591955351"><ele>483.0</ele><time>2026-03-31T08:18:56.999Z</time></trkpt><trkpt lat="45.64059752878968" lon="8.332295109427788"><ele>483.0</ele><time>2026-03-31T08:18:57.999Z</time></trkpt><trkpt lat="45.64053938167535" lon="8.332410127318212"><ele>483.0</ele><time>2026-03-31T08:18:58.999Z</time></trkpt><trkpt lat="45.640492442963826" lon="8.332536316613032"><ele>483.0</ele><time>2026-03-31T08:18:59.999Z</time></trkpt><trkpt lat="45.64042281359924" lon="8.33268516567974"><ele>484.25</ele><time>2026-03-31T08:19:00.999Z</time></trkpt><trkpt lat="45.640375006881776" lon="8.332790717433301"><ele>485.5</ele><time>2026-03-31T08:19:01.999Z</time></trkpt><trkpt lat="45.64035913465869" lon="8.332991407311175"><ele>486.75</ele><time>2026-03-31T08:19:03.999Z</time></trkpt><trkpt lat="45.64035444347768" lon="8.333219910448387"><ele>488.0</ele><time>2026-03-31T08:19:04.999Z</time></trkpt><trkpt lat="45.64033714958167" lon="8.333444471949868"><ele>487.99999999999994</ele><time>2026-03-31T08:19:05.999Z</time></trkpt><trkpt lat="45.640331246542836" lon="8.333599114022704"><ele>488.0</ele><time>2026-03-31T08:19:06.999Z</time></trkpt><trkpt lat="45.640309459580166" lon="8.333731667242906"><ele>488.0</ele><time>2026-03-31T08:19:07.999Z</time></trkpt><trkpt lat="45.64032206484129" lon="8.333826618391816"><ele>488.0</ele><time>2026-03-31T08:19:10.999Z</time></trkpt><trkpt lat="45.640378976553485" lon="8.333885962212344"><ele>487.99999999999994</ele><time>2026-03-31T08:19:13.999Z</time></trkpt><trkpt lat="45.64044709644013" lon="8.333952580280462"><ele>488.0</ele><time>2026-03-31T08:19:15.999Z</time></trkpt><trkpt lat="45.64054270063781" lon="8.334045881997756"><ele>488.0</ele><time>2026-03-31T08:19:17.999Z</time></trkpt><trkpt lat="45.64061494734748" lon="8.333996331529866"><ele>487.99999999999994</ele><time>2026-03-31T08:19:19.999Z</time></trkpt><trkpt lat="45.64062676041977" lon="8.333858480936946"><ele>487.99999999999994</ele><time>2026-03-31T08:19:21.999Z</time></trkpt><trkpt lat="45.6406017681132" lon="8.333664491018794"><ele>488.0</ele><time>2026-03-31T08:19:23.999Z</time></trkpt><trkpt lat="45.64059772604337" lon="8.33353594357289"><ele>488.0</ele><time>2026-03-31T08:19:24.999Z</time></trkpt><trkpt lat="45.6406304932551" lon="8.333439845665763"><ele>487.99999999999994</ele><time>2026-03-31T08:19:25.999Z</time></trkpt><trkpt lat="45.64065999729693" lon="8.333358737311567"><ele>488.0</ele><time>2026-03-31T08:19:26.999Z</time></trkpt><trkpt lat="45.64070272958722" lon="8.333246176995676"><ele>488.0</ele><time>2026-03-31T08:19:28.999Z</time></trkpt><trkpt lat="45.64074961250588" lon="8.333132383563566"><ele>488.0</ele><time>2026-03-31T08:19:30.999Z</time></trkpt><trkpt lat="45.640790345941575" lon="8.333047171901752"><ele>487.99999999999994</ele><time>2026-03-31T08:19:31.999Z</time></trkpt><trkpt lat="45.64087133299824" lon="8.332946447400841"><ele>488.0</ele><time>2026-03-31T08:19:33.999Z</time></trkpt><trkpt lat="45.64094407452371" lon="8.332860663139765"><ele>488.4</ele><time>2026-03-31T08:19:34.999Z</time></trkpt><trkpt lat="45.64102343922012" lon="8.332765075400026"><ele>488.79999999999995</ele><time>2026-03-31T08:19:35.999Z</time></trkpt><trkpt lat="45.6410949468655" lon="8.332678331478066"><ele>489.2</ele><time>2026-03-31T08:19:36.999Z</time></trkpt><trkpt lat="45.641156769060984" lon="8.332604977106538"><ele>489.6</ele><time>2026-03-31T08:19:37.999Z</time></trkpt><trkpt lat="45.64118674702687" lon="8.3324981490261"><ele>490.0</ele><time>2026-03-31T08:19:40Z</time></trkpt><trkpt lat="45.64121659974508" lon="8.332323872973408"><ele>491.33333333333337</ele><time>2026-03-31T08:19:42Z</time></trkpt><trkpt lat="45.64123897885132" lon="8.332205805296736"><ele>492.6666666666667</ele><time>2026-03-31T08:19:43Z</time></trkpt><trkpt lat="45.64126497797685" lon="8.332097505693703"><ele>494.0</ele><time>2026-03-31T08:19:44Z</time></trkpt><trkpt lat="45.64132821372826" lon="8.332020024817679"><ele>495.33333333333337</ele><time>2026-03-31T08:19:46Z</time></trkpt><trkpt lat="45.64139217964502" lon="8.332034267296077"><ele>496.6666666666667</ele><time>2026-03-31T08:19:48Z</time></trkpt><trkpt lat="45.64144006248767" lon="8.332143554193499"><ele>498.0</ele><time>2026-03-31T08:19:51Z</time></trkpt><trkpt lat="45.641497183547365" lon="8.332290149323189"><ele>500.4285714285714</ele><time>2026-03-31T08:19:53Z</time></trkpt><trkpt lat="45.64154625609267" lon="8.332386162902191"><ele>502.8571428571428</ele><time>2026-03-31T08:19:55Z</time></trkpt><trkpt lat="45.64159427944037" lon="8.332478927979992"><ele>505.2857142857143</ele><time>2026-03-31T08:19:57Z</time></trkpt><trkpt lat="45.64164141192548" lon="8.332570817965937"><ele>507.71428571428567</ele><time>2026-03-31T08:20:00Z</time></trkpt><trkpt lat="45.64157959946041" lon="8.33252785182355"><ele>510.1428571428571</ele><time>2026-03-31T08:20:05Z</time></trkpt><trkpt lat="45.64152220145126" lon="8.332593892146114"><ele>512.5714285714286</ele><time>2026-03-31T08:20:09Z</time></trkpt><trkpt lat="45.64147384711688" lon="8.332538535067918"><ele>515.0</ele><time>2026-03-31T08:28:24Z</time></trkpt><trkpt lat="45.64145335927425" lon="8.332626755375374"><ele>515.0</ele><time>2026-03-31T08:30:20Z</time></trkpt><trkpt lat="45.64145507456108" lon="8.332510698244176"><ele>515.0</ele><time>2026-03-31T08:31:02Z</time></trkpt><trkpt lat="45.64148494632054" lon="8.332403506122734"><ele>515.0</ele><time>2026-03-31T08:31:06Z</time></trkpt><trkpt lat="45.641512918528385" lon="8.332305525327243"><ele>515.0</ele><time>2026-03-31T08:31:09Z</time></trkpt><trkpt lat="45.641467652460285" lon="8.332222311123834"><ele>515.0</ele><time>2026-03-31T08:31:11Z</time></trkpt><trkpt lat="45.64144385090144" lon="8.33209474453113"><ele>515.0</ele><time>2026-03-31T08:31:13Z</time></trkpt><trkpt lat="45.64143114131682" lon="8.331992590734721"><ele>515.0</ele><time>2026-03-31T08:31:15Z</time></trkpt><trkpt lat="45.64137393682278" lon="8.332041522081477"><ele>515.0</ele><time>2026-03-31T08:31:55.999Z</time></trkpt><trkpt lat="45.64129540203892" lon="8.33209349303848"><ele>515.0</ele><time>2026-03-31T08:31:57.999Z</time></trkpt><trkpt lat="45.64124795076209" lon="8.332190368030911"><ele>515.0</ele><time>2026-03-31T08:31:58.999Z</time></trkpt><trkpt lat="45.641230177588604" lon="8.332295508503408"><ele>515.0</ele><time>2026-03-31T08:31:59.999Z</time></trkpt><trkpt lat="45.64121058176515" lon="8.332399346486035"><ele>515.0</ele><time>2026-03-31T08:32:00.999Z</time></trkpt><trkpt lat="45.64118550490584" lon="8.332509259718583"><ele>515.0</ele><time>2026-03-31T08:32:01.999Z</time></trkpt><trkpt lat="45.64115943412075" lon="8.33261183382637"><ele>515.0</ele><time>2026-03-31T08:32:03Z</time></trkpt><trkpt lat="45.641121824369876" lon="8.332710534157028"><ele>515.0</ele><time>2026-03-31T08:32:04Z</time></trkpt><trkpt lat="45.64107828766562" lon="8.33279258374448"><ele>515.0</ele><time>2026-03-31T08:32:05Z</time></trkpt><trkpt lat="45.6410296512516" lon="8.33285278890243"><ele>515.0</ele><time>2026-03-31T08:32:06Z</time></trkpt><trkpt lat="45.64093456660118" lon="8.332939373398565"><ele>515.0</ele><time>2026-03-31T08:32:08Z</time></trkpt><trkpt lat="45.64086955311736" lon="8.33301943747086"><ele>510.49999999999994</ele><time>2026-03-31T08:32:09Z</time></trkpt><trkpt lat="45.64081695965552" lon="8.333100565512616"><ele>506.0</ele><time>2026-03-31T08:32:10Z</time></trkpt><trkpt lat="45.64075403827698" lon="8.333225481585021"><ele>501.5</ele><time>2026-03-31T08:32:12Z</time></trkpt><trkpt lat="45.640713992344736" lon="8.333307766506216"><ele>497.0</ele><time>2026-03-31T08:32:13Z</time></trkpt><trkpt lat="45.64063483635771" lon="8.333444406113218"><ele>492.49999999999994</ele><time>2026-03-31T08:32:15Z</time></trkpt><trkpt lat="45.64063116633348" lon="8.333539077394612"><ele>488.0</ele><time>2026-03-31T08:32:16Z</time></trkpt><trkpt lat="45.64062519821716" lon="8.333708160392275"><ele>487.99999999999994</ele><time>2026-03-31T08:32:18Z</time></trkpt><trkpt lat="45.640615034168135" lon="8.333866730228502"><ele>488.0</ele><time>2026-03-31T08:32:20Z</time></trkpt><trkpt lat="45.64059943642129" lon="8.333963468152447"><ele>488.0</ele><time>2026-03-31T08:32:21Z</time></trkpt><trkpt lat="45.640551736296025" lon="8.33403224417144"><ele>488.0</ele><time>2026-03-31T08:32:23Z</time></trkpt><trkpt lat="45.640490144900255" lon="8.333990678419925"><ele>487.99999999999994</ele><time>2026-03-31T08:32:24Z</time></trkpt><trkpt lat="45.6404396435776" lon="8.333915859242945"><ele>488.0</ele><time>2026-03-31T08:32:25Z</time></trkpt><trkpt lat="45.64035796824272" lon="8.333848678571774"><ele>487.99999999999994</ele><time>2026-03-31T08:32:27Z</time></trkpt><trkpt lat="45.64032589185445" lon="8.333766546749166"><ele>488.0</ele><time>2026-03-31T08:32:31Z</time></trkpt><trkpt lat="45.64034866152369" lon="8.333665070912746"><ele>488.0</ele><time>2026-03-31T08:32:34Z</time></trkpt><trkpt lat="45.64034981477275" lon="8.333557303408437"><ele>488.0</ele><time>2026-03-31T08:32:35Z</time></trkpt><trkpt lat="45.6403431451343" lon="8.333434903598416"><ele>487.99999999999994</ele><time>2026-03-31T08:32:36Z</time></trkpt><trkpt lat="45.64034554014543" lon="8.33327130214857"><ele>488.0</ele><time>2026-03-31T08:32:38Z</time></trkpt><trkpt lat="45.640342274631735" lon="8.333172563492216"><ele>487.99999999999994</ele><time>2026-03-31T08:32:39Z</time></trkpt><trkpt lat="45.64035060694437" lon="8.333077639351986"><ele>488.0</ele><time>2026-03-31T08:32:40Z</time></trkpt><trkpt lat="45.64035593156335" lon="8.332910955530696"><ele>488.0</ele><time>2026-03-31T08:32:42Z</time></trkpt><trkpt lat="45.640379887469805" lon="8.332748828765167"><ele>488.0</ele><time>2026-03-31T08:32:44Z</time></trkpt><trkpt lat="45.64040537578125" lon="8.332665892260817"><ele>487.99999999999994</ele><time>2026-03-31T08:32:45Z</time></trkpt><trkpt lat="45.64043811762335" lon="8.332582152187546"><ele>488.0</ele><time>2026-03-31T08:32:46Z</time></trkpt><trkpt lat="45.64048571351643" lon="8.332506365008637"><ele>488.4</ele><time>2026-03-31T08:32:47Z</time></trkpt><trkpt lat="45.64052854343181" lon="8.332431806168199"><ele>488.79999999999995</ele><time>2026-03-31T08:32:48Z</time></trkpt><trkpt lat="45.64058519757553" lon="8.33228635799366"><ele>489.2</ele><time>2026-03-31T08:32:50Z</time></trkpt><trkpt lat="45.64057166890417" lon="8.332190495550678"><ele>489.6</ele><time>2026-03-31T08:32:51Z</time></trkpt><trkpt lat="45.640526811231176" lon="8.332111995881704"><ele>490.0</ele><time>2026-03-31T08:32:52Z</time></trkpt><trkpt lat="45.64047331101598" lon="8.331938878922612"><ele>488.83333333333337</ele><time>2026-03-31T08:32:54Z</time></trkpt><trkpt lat="45.640420185338144" lon="8.331787961593186"><ele>487.6666666666667</ele><time>2026-03-31T08:32:56Z</time></trkpt><trkpt lat="45.6403647875106" lon="8.331718917308045"><ele>486.5</ele><time>2026-03-31T08:32:57Z</time></trkpt><trkpt lat="45.64028755852344" lon="8.331695544193634"><ele>485.33333333333337</ele><time>2026-03-31T08:32:58Z</time></trkpt><trkpt lat="45.640211605939534" lon="8.331671939430402"><ele>484.1666666666667</ele><time>2026-03-31T08:32:59Z</time></trkpt><trkpt lat="45.64014704937812" lon="8.331641325310025"><ele>483.0</ele><time>2026-03-31T08:33:00Z</time></trkpt><trkpt lat="45.640080776613544" lon="8.331601373221579"><ele>479.8333333333333</ele><time>2026-03-31T08:33:01Z</time></trkpt><trkpt lat="45.64002280522238" lon="8.331545970561441"><ele>476.66666666666663</ele><time>2026-03-31T08:33:02Z</time></trkpt><trkpt lat="45.63997379783378" lon="8.331474744192331"><ele>473.5</ele><time>2026-03-31T08:33:03Z</time></trkpt><trkpt lat="45.63993460677842" lon="8.331389513999065"><ele>470.3333333333333</ele><time>2026-03-31T08:33:04Z</time></trkpt><trkpt lat="45.63989026852485" lon="8.331322183663895"><ele>467.16666666666663</ele><time>2026-03-31T08:33:05Z</time></trkpt><trkpt lat="45.639795304946354" lon="8.33121485726492"><ele>464.0</ele><time>2026-03-31T08:33:07Z</time></trkpt><trkpt lat="45.63974352874238" lon="8.331158363981055"><ele>464.0</ele><time>2026-03-31T08:33:08Z</time></trkpt><trkpt lat="45.63964879861143" lon="8.331035903729976"><ele>464.0</ele><time>2026-03-31T08:33:10Z</time></trkpt><trkpt lat="45.6395978853521" lon="8.330975386019237"><ele>464.0</ele><time>2026-03-31T08:33:11Z</time></trkpt><trkpt lat="45.63954137477468" lon="8.330823254260988"><ele>464.0</ele><time>2026-03-31T08:33:13Z</time></trkpt><trkpt lat="45.6394898327472" lon="8.330659020759535"><ele>464.0</ele><time>2026-03-31T08:33:15Z</time></trkpt><trkpt lat="45.63944650760076" lon="8.330579451432245"><ele>460.3333333333333</ele><time>2026-03-31T08:33:16Z</time></trkpt><trkpt lat="45.63939257113093" lon="8.330516033376778"><ele>456.66666666666663</ele><time>2026-03-31T08:33:17Z</time></trkpt><trkpt lat="45.63933284039524" lon="8.330466545675492"><ele>453.0</ele><time>2026-03-31T08:33:18Z</time></trkpt><trkpt lat="45.63928378613856" lon="8.330398734728435"><ele>449.33333333333337</ele><time>2026-03-31T08:33:19Z</time></trkpt><trkpt lat="45.63922622207548" lon="8.33025088982879"><ele>445.6666666666667</ele><time>2026-03-31T08:33:21Z</time></trkpt><trkpt lat="45.639209793526426" lon="8.330155678956423"><ele>442.0</ele><time>2026-03-31T08:33:22Z</time></trkpt><trkpt lat="45.63920859583271" lon="8.330057007322878"><ele>442.00000000000006</ele><time>2026-03-31T08:33:23Z</time></trkpt><trkpt lat="45.63919934071011" lon="8.329959121709669"><ele>442.0</ele><time>2026-03-31T08:33:24Z</time></trkpt><trkpt lat="45.63915824710041" lon="8.32987017578139"><ele>442.0</ele><time>2026-03-31T08:33:25Z</time></trkpt><trkpt lat="45.63909450007521" lon="8.329806115778888"><ele>442.0</ele><time>2026-03-31T08:33:26Z</time></trkpt><trkpt lat="45.639010759490205" lon="8.329781979730388"><ele>442.00000000000006</ele><time>2026-03-31T08:33:27Z</time></trkpt><trkpt lat="45.63892943787657" lon="8.329759209204047"><ele>442.0</ele><time>2026-03-31T08:33:28Z</time></trkpt><trkpt lat="45.638858427637174" lon="8.329717120983684"><ele>441.00000000000006</ele><time>2026-03-31T08:33:29Z</time></trkpt><trkpt lat="45.638802853009594" lon="8.329672850724513"><ele>440.0</ele><time>2026-03-31T08:33:30Z</time></trkpt><trkpt lat="45.63875185433451" lon="8.329614897705039"><ele>439.0</ele><time>2026-03-31T08:33:31Z</time></trkpt><trkpt lat="45.63868685884345" lon="8.329467994012365"><ele>438.0</ele><time>2026-03-31T08:33:33Z</time></trkpt><trkpt lat="45.638604434276054" lon="8.32933421228213"><ele>437.00000000000006</ele><time>2026-03-31T08:33:35Z</time></trkpt><trkpt lat="45.63854727514107" lon="8.329290831630116"><ele>436.0</ele><time>2026-03-31T08:33:36Z</time></trkpt><trkpt lat="45.63848562952363" lon="8.329244459899304"><ele>434.00000000000006</ele><time>2026-03-31T08:33:37Z</time></trkpt><trkpt lat="45.63841474910316" lon="8.329209978595346"><ele>432.0</ele><time>2026-03-31T08:33:38Z</time></trkpt><trkpt lat="45.63833791333516" lon="8.32920156487239"><ele>430.0</ele><time>2026-03-31T08:33:39Z</time></trkpt><trkpt lat="45.63826626870195" lon="8.329192631645718"><ele>428.0</ele><time>2026-03-31T08:33:40Z</time></trkpt><trkpt lat="45.63819041697045" lon="8.329174357280394"><ele>426.00000000000006</ele><time>2026-03-31T08:33:41Z</time></trkpt><trkpt lat="45.63811239570588" lon="8.32913809322588"><ele>424.0</ele><time>2026-03-31T08:33:42Z</time></trkpt><trkpt lat="45.63804916097254" lon="8.329072430194856"><ele>424.00000000000006</ele><time>2026-03-31T08:33:43Z</time></trkpt><trkpt lat="45.63799290750677" lon="8.328992332934908"><ele>424.0</ele><time>2026-03-31T08:33:43.999Z</time></trkpt><trkpt lat="45.637910963698744" lon="8.328963238096474"><ele>424.0</ele><time>2026-03-31T08:33:44.999Z</time></trkpt><trkpt lat="45.637826908638736" lon="8.328961335251185"><ele>424.0</ele><time>2026-03-31T08:33:45.999Z</time></trkpt><trkpt lat="45.637755018168704" lon="8.328956884098698"><ele>424.00000000000006</ele><time>2026-03-31T08:33:46.999Z</time></trkpt><trkpt lat="45.63768797715888" lon="8.328971792301889"><ele>424.0</ele><time>2026-03-31T08:33:47.999Z</time></trkpt><trkpt lat="45.63762694913147" lon="8.32902854797816"><ele>423.6666666666667</ele><time>2026-03-31T08:33:48.999Z</time></trkpt><trkpt lat="45.63755301495647" lon="8.32908398022653"><ele>423.33333333333337</ele><time>2026-03-31T08:33:49.999Z</time></trkpt><trkpt lat="45.63747262205498" lon="8.329117902784168"><ele>423.0</ele><time>2026-03-31T08:33:50.999Z</time></trkpt><trkpt lat="45.63738946356627" lon="8.329113466053855"><ele>422.66666666666663</ele><time>2026-03-31T08:33:51.999Z</time></trkpt><trkpt lat="45.637306463840446" lon="8.32910535311656"><ele>422.3333333333333</ele><time>2026-03-31T08:33:52.999Z</time></trkpt><trkpt lat="45.63723454234456" lon="8.329100174386959"><ele>422.0</ele><time>2026-03-31T08:33:53.999Z</time></trkpt><trkpt lat="45.637155374042294" lon="8.32911795119546"><ele>421.99999999999994</ele><time>2026-03-31T08:33:54.999Z</time></trkpt><trkpt lat="45.637058077870876" lon="8.32912081221576"><ele>422.0</ele><time>2026-03-31T08:33:55.999Z</time></trkpt><trkpt lat="45.636973254129565" lon="8.329107145797268"><ele>422.0</ele><time>2026-03-31T08:33:56.999Z</time></trkpt><trkpt lat="45.63689016284556" lon="8.329094335016098"><ele>422.0</ele><time>2026-03-31T08:33:57.999Z</time></trkpt><trkpt lat="45.63681384072698" lon="8.329097222680334"><ele>421.99999999999994</ele><time>2026-03-31T08:33:58.999Z</time></trkpt><trkpt lat="45.63672658689555" lon="8.3291233548433"><ele>422.0</ele><time>2026-03-31T08:33:59.999Z</time></trkpt><trkpt lat="45.636650881377165" lon="8.329166546836683"><ele>421.42857142857144</ele><time>2026-03-31T08:34:00.999Z</time></trkpt><trkpt lat="45.63657510018155" lon="8.329222905567866"><ele>420.8571428571429</ele><time>2026-03-31T08:34:01.999Z</time></trkpt><trkpt lat="45.636499445294575" lon="8.329242827233019"><ele>420.2857142857143</ele><time>2026-03-31T08:34:02.999Z</time></trkpt><trkpt lat="45.6364334532514" lon="8.3292270711535"><ele>419.7142857142857</ele><time>2026-03-31T08:34:03.999Z</time></trkpt><trkpt lat="45.636368950332994" lon="8.329201545840546"><ele>419.1428571428571</ele><time>2026-03-31T08:34:04.999Z</time></trkpt><trkpt lat="45.63630718727719" lon="8.329182981373231"><ele>418.57142857142856</ele><time>2026-03-31T08:34:05.999Z</time></trkpt><trkpt lat="45.636238222686266" lon="8.32918966152425"><ele>418.0</ele><time>2026-03-31T08:34:06.999Z</time></trkpt><trkpt lat="45.636104976785035" lon="8.32923965256312"><ele>417.33333333333337</ele><time>2026-03-31T08:34:09Z</time></trkpt><trkpt lat="45.636033305172134" lon="8.329246523385343"><ele>416.6666666666667</ele><time>2026-03-31T08:34:10Z</time></trkpt><trkpt lat="45.63596041679917" lon="8.329244516188725"><ele>416.0</ele><time>2026-03-31T08:34:11Z</time></trkpt><trkpt lat="45.6358831335978" lon="8.329256051809097"><ele>415.33333333333337</ele><time>2026-03-31T08:34:12Z</time></trkpt><trkpt lat="45.63581015606011" lon="8.329279236618518"><ele>414.6666666666667</ele><time>2026-03-31T08:34:13Z</time></trkpt><trkpt lat="45.63572815884169" lon="8.329292552537757"><ele>414.0</ele><time>2026-03-31T08:34:14Z</time></trkpt><trkpt lat="45.63564676637391" lon="8.32927608914267"><ele>414.0</ele><time>2026-03-31T08:34:15Z</time></trkpt><trkpt lat="45.635571281005156" lon="8.329247322725989"><ele>414.0</ele><time>2026-03-31T08:34:16Z</time></trkpt><trkpt lat="45.63550320086548" lon="8.329211363055919"><ele>414.0</ele><time>2026-03-31T08:34:17Z</time></trkpt><trkpt lat="45.63543644911451" lon="8.329164338192596"><ele>414.0</ele><time>2026-03-31T08:34:18Z</time></trkpt><trkpt lat="45.63536641482374" lon="8.3291126123327"><ele>414.0</ele><time>2026-03-31T08:34:19Z</time></trkpt><trkpt lat="45.63530181980253" lon="8.329052365818919"><ele>414.0</ele><time>2026-03-31T08:34:20Z</time></trkpt><trkpt lat="45.63523812301769" lon="8.328994505946318"><ele>413.0</ele><time>2026-03-31T08:34:21Z</time></trkpt><trkpt lat="45.635169980082374" lon="8.328941059421997"><ele>412.0</ele><time>2026-03-31T08:34:22Z</time></trkpt><trkpt lat="45.635110084148735" lon="8.32889615693885"><ele>411.0</ele><time>2026-03-31T08:34:23Z</time></trkpt><trkpt lat="45.63504901035353" lon="8.328853725551918"><ele>410.0</ele><time>2026-03-31T08:34:24Z</time></trkpt><trkpt lat="45.634992013561956" lon="8.328808101710353"><ele>409.0</ele><time>2026-03-31T08:34:25Z</time></trkpt><trkpt lat="45.63488555833173" lon="8.328744660373605"><ele>408.0</ele><time>2026-03-31T08:34:27Z</time></trkpt><trkpt lat="45.634821813013424" lon="8.32875182798755"><ele>408.0</ele><time>2026-03-31T08:34:28Z</time></trkpt><trkpt lat="45.63475935817199" lon="8.328788320599276"><ele>408.0</ele><time>2026-03-31T08:34:29Z</time></trkpt><trkpt lat="45.63470123960093" lon="8.328851107555485"><ele>408.0</ele><time>2026-03-31T08:34:30Z</time></trkpt><trkpt lat="45.6346653784792" lon="8.32893046608165"><ele>408.0</ele><time>2026-03-31T08:34:31Z</time></trkpt><trkpt lat="45.63461089711388" lon="8.329092998938211"><ele>408.0</ele><time>2026-03-31T08:34:33Z</time></trkpt><trkpt lat="45.63456694722643" lon="8.32917269828316"><ele>408.0</ele><time>2026-03-31T08:34:34Z</time></trkpt><trkpt lat="45.63450904978873" lon="8.329231451727457"><ele>404.8333333333333</ele><time>2026-03-31T08:34:35Z</time></trkpt><trkpt lat="45.634451844401056" lon="8.329287971618621"><ele>401.66666666666663</ele><time>2026-03-31T08:34:36Z</time></trkpt><trkpt lat="45.63440022977758" lon="8.329350028366997"><ele>398.5</ele><time>2026-03-31T08:34:37Z</time></trkpt><trkpt lat="45.63435229375503" lon="8.329471932306497"><ele>395.3333333333333</ele><time>2026-03-31T08:34:39Z</time></trkpt><trkpt lat="45.63430940893649" lon="8.329568802449357"><ele>392.16666666666663</ele><time>2026-03-31T08:34:41Z</time></trkpt><trkpt lat="45.63421040114061" lon="8.329497238802471"><ele>389.0</ele><time>2026-03-31T08:34:43Z</time></trkpt><trkpt lat="45.63418769929488" lon="8.329401347681198"><ele>389.0</ele><time>2026-03-31T08:34:44Z</time></trkpt><trkpt lat="45.63417427088973" lon="8.329298630823196"><ele>389.0</ele><time>2026-03-31T08:34:45Z</time></trkpt><trkpt lat="45.63414780383884" lon="8.329208347982545"><ele>389.0</ele><time>2026-03-31T08:34:46Z</time></trkpt><trkpt lat="45.63409196186457" lon="8.32914549195175"><ele>389.0</ele><time>2026-03-31T08:34:47Z</time></trkpt><trkpt lat="45.63402659639254" lon="8.329091240780599"><ele>389.0</ele><time>2026-03-31T08:34:48Z</time></trkpt><trkpt lat="45.63397086602337" lon="8.329009320140257"><ele>389.0</ele><time>2026-03-31T08:34:49Z</time></trkpt><trkpt lat="45.633921827069194" lon="8.328934973839985"><ele>389.0</ele><time>2026-03-31T08:34:50Z</time></trkpt><trkpt lat="45.633795108572954" lon="8.328900572162313"><ele>388.99999999999994</ele><time>2026-03-31T08:34:52Z</time></trkpt><trkpt lat="45.633720720292736" lon="8.328909141837675"><ele>389.0</ele><time>2026-03-31T08:34:53Z</time></trkpt><trkpt lat="45.63365065369776" lon="8.32890213660226"><ele>389.0</ele><time>2026-03-31T08:34:54Z</time></trkpt><trkpt lat="45.63358694958493" lon="8.328846218217164"><ele>389.0</ele><time>2026-03-31T08:34:55Z</time></trkpt><trkpt lat="45.633484722338494" lon="8.328778123873104"><ele>388.99999999999994</ele><time>2026-03-31T08:34:57Z</time></trkpt><trkpt lat="45.63339285037292" lon="8.32873089138947"><ele>389.0</ele><time>2026-03-31T08:34:58Z</time></trkpt><trkpt lat="45.63334031157689" lon="8.328657375816787"><ele>385.99999999999994</ele><time>2026-03-31T08:34:59Z</time></trkpt><trkpt lat="45.633293606918755" lon="8.328564907658924"><ele>383.0</ele><time>2026-03-31T08:35:00Z</time></trkpt><trkpt lat="45.63325536620311" lon="8.328449842819433"><ele>380.0</ele><time>2026-03-31T08:35:01Z</time></trkpt><trkpt lat="45.633206246246225" lon="8.32835640085485"><ele>377.0</ele><time>2026-03-31T08:35:02Z</time></trkpt><trkpt lat="45.63313247800441" lon="8.328292074661322"><ele>374.0</ele><time>2026-03-31T08:35:03Z</time></trkpt><trkpt lat="45.633066358655896" lon="8.328251194835659"><ele>371.0</ele><time>2026-03-31T08:35:04Z</time></trkpt><trkpt lat="45.63298061672494" lon="8.328238854025264"><ele>371.0</ele><time>2026-03-31T08:35:05Z</time></trkpt><trkpt lat="45.63290395934674" lon="8.328233736457209"><ele>371.0</ele><time>2026-03-31T08:35:06Z</time></trkpt><trkpt lat="45.632827684035234" lon="8.328231224341769"><ele>371.0</ele><time>2026-03-31T08:35:07Z</time></trkpt><trkpt lat="45.63275345576608" lon="8.328231015865343"><ele>371.0</ele><time>2026-03-31T08:35:08Z</time></trkpt><trkpt lat="45.63266515265061" lon="8.328246584270948"><ele>371.0</ele><time>2026-03-31T08:35:09Z</time></trkpt><trkpt lat="45.63258078753061" lon="8.328259739622613"><ele>371.0</ele><time>2026-03-31T08:35:10Z</time></trkpt><trkpt lat="45.63249918704788" lon="8.328252304487876"><ele>370.8</ele><time>2026-03-31T08:35:11Z</time></trkpt><trkpt lat="45.63242764537716" lon="8.328233753221141"><ele>370.6</ele><time>2026-03-31T08:35:12Z</time></trkpt><trkpt lat="45.63228566416645" lon="8.328240183028528"><ele>370.4</ele><time>2026-03-31T08:35:14Z</time></trkpt><trkpt lat="45.63222080620044" lon="8.328257557441066"><ele>370.2</ele><time>2026-03-31T08:35:15Z</time></trkpt><trkpt lat="45.632134341186024" lon="8.328264014558119"><ele>370.0</ele><time>2026-03-31T08:35:16Z</time></trkpt><trkpt lat="45.63199038945922" lon="8.328209812978615"><ele>369.2</ele><time>2026-03-31T08:35:18Z</time></trkpt><trkpt lat="45.63194656730641" lon="8.32814283126826"><ele>368.4</ele><time>2026-03-31T08:35:19Z</time></trkpt><trkpt lat="45.63189697006424" lon="8.32807593083102"><ele>367.6</ele><time>2026-03-31T08:35:20Z</time></trkpt><trkpt lat="45.63176802968331" lon="8.328071086557886"><ele>366.8</ele><time>2026-03-31T08:35:22Z</time></trkpt><trkpt lat="45.63168574474687" lon="8.328067703641155"><ele>366.0</ele><time>2026-03-31T08:35:23Z</time></trkpt><trkpt lat="45.63158611865385" lon="8.328009301531921"><ele>366.0</ele><time>2026-03-31T08:35:24Z</time></trkpt><trkpt lat="45.63148987652032" lon="8.327974614384377"><ele>366.0</ele><time>2026-03-31T08:35:25Z</time></trkpt><trkpt lat="45.63140657696932" lon="8.327960915987063"><ele>366.0</ele><time>2026-03-31T08:35:26Z</time></trkpt><trkpt lat="45.63133184478803" lon="8.327937821939214"><ele>366.0</ele><time>2026-03-31T08:35:27Z</time></trkpt><trkpt lat="45.631208605491764" lon="8.327863953566577"><ele>366.0</ele><time>2026-03-31T08:35:29Z</time></trkpt><trkpt lat="45.63114004248" lon="8.327827617061612"><ele>364.0</ele><time>2026-03-31T08:35:30Z</time></trkpt><trkpt lat="45.63107170940217" lon="8.327793153890505"><ele>362.0</ele><time>2026-03-31T08:35:31Z</time></trkpt><trkpt lat="45.630999578786" lon="8.327794392348046"><ele>360.0</ele><time>2026-03-31T08:35:32Z</time></trkpt><trkpt lat="45.63094347988086" lon="8.327850613659741"><ele>358.0</ele><time>2026-03-31T08:35:33Z</time></trkpt><trkpt lat="45.63090030258962" lon="8.327930884318594"><ele>356.0</ele><time>2026-03-31T08:35:34Z</time></trkpt><trkpt lat="45.6308212766822" lon="8.328085966992132"><ele>354.0</ele><time>2026-03-31T08:35:36Z</time></trkpt><trkpt lat="45.63072197450892" lon="8.328178654911397"><ele>353.0</ele><time>2026-03-31T08:35:38Z</time></trkpt><trkpt lat="45.63064338284418" lon="8.328204912035977"><ele>352.0</ele><time>2026-03-31T08:35:39Z</time></trkpt><trkpt lat="45.630554451579705" lon="8.328218129720298"><ele>351.0</ele><time>2026-03-31T08:35:40Z</time></trkpt><trkpt lat="45.63041837567825" lon="8.328224418712482"><ele>350.0</ele><time>2026-03-31T08:35:42Z</time></trkpt><trkpt lat="45.63033588697867" lon="8.328214129807474"><ele>349.0</ele><time>2026-03-31T08:35:43Z</time></trkpt><trkpt lat="45.63025683633499" lon="8.328208986044325"><ele>348.5</ele><time>2026-03-31T08:35:44Z</time></trkpt><trkpt lat="45.63017382145997" lon="8.328229266873807"><ele>348.0</ele><time>2026-03-31T08:35:45Z</time></trkpt><trkpt lat="45.6300975798342" lon="8.328257067105914"><ele>347.5</ele><time>2026-03-31T08:35:46Z</time></trkpt><trkpt lat="45.630019868838495" lon="8.32827096294042"><ele>347.0</ele><time>2026-03-31T08:35:47Z</time></trkpt><trkpt lat="45.629947389490965" lon="8.328311788023479"><ele>346.5</ele><time>2026-03-31T08:35:48Z</time></trkpt><trkpt lat="45.629874561664685" lon="8.32834940558273"><ele>346.0</ele><time>2026-03-31T08:35:49Z</time></trkpt><trkpt lat="45.629798070555054" lon="8.328368904443769"><ele>346.0</ele><time>2026-03-31T08:35:50Z</time></trkpt><trkpt lat="45.62971115786797" lon="8.328365645282904"><ele>346.0</ele><time>2026-03-31T08:35:51Z</time></trkpt><trkpt lat="45.62964449584286" lon="8.328355554036294"><ele>346.0</ele><time>2026-03-31T08:35:52Z</time></trkpt><trkpt lat="45.62953483705245" lon="8.328360850180452"><ele>346.0</ele><time>2026-03-31T08:35:54Z</time></trkpt><trkpt lat="45.62945644076091" lon="8.328377810617273"><ele>346.0</ele><time>2026-03-31T08:35:56Z</time></trkpt><trkpt lat="45.62955716939767" lon="8.328454411935466"><ele>346.0</ele><time>2026-03-31T08:35:59.999Z</time></trkpt><trkpt lat="45.62962253041937" lon="8.328463655255339"><ele>346.0</ele><time>2026-03-31T08:36:00.999Z</time></trkpt><trkpt lat="45.62956475364063" lon="8.328567988880282"><ele>346.0</ele><time>2026-03-31T08:36:04.999Z</time></trkpt><trkpt lat="45.62945806567339" lon="8.328532198154855"><ele>346.0</ele><time>2026-03-31T08:36:06.999Z</time></trkpt><trkpt lat="45.6293476305129" lon="8.328509474740882"><ele>346.0</ele><time>2026-03-31T08:36:08.999Z</time></trkpt><trkpt lat="45.629269221493786" lon="8.328514594032526"><ele>344.16666666666663</ele><time>2026-03-31T08:36:09.999Z</time></trkpt><trkpt lat="45.62920746398952" lon="8.328485307108686"><ele>342.3333333333333</ele><time>2026-03-31T08:36:10.999Z</time></trkpt><trkpt lat="45.62909369487866" lon="8.328524871971187"><ele>340.5</ele><time>2026-03-31T08:36:13.999Z</time></trkpt><trkpt lat="45.6290230638477" lon="8.32849405331152"><ele>338.6666666666667</ele><time>2026-03-31T08:36:15.001Z</time></trkpt><trkpt lat="45.62895693143849" lon="8.328476609756292"><ele>336.83333333333337</ele><time>2026-03-31T08:36:16.001Z</time></trkpt><trkpt lat="45.62884788443646" lon="8.328433847138388"><ele>335.0</ele><time>2026-03-31T08:36:18.001Z</time></trkpt><trkpt lat="45.628811623749215" lon="8.328303883435224"><ele>335.0</ele><time>2026-03-31T08:36:19.001Z</time></trkpt><trkpt lat="45.62875697036914" lon="8.328219219813938"><ele>335.0</ele><time>2026-03-31T08:36:20Z</time></trkpt><trkpt lat="45.62872123840717" lon="8.328137034221204"><ele>335.0</ele><time>2026-03-31T08:36:22.001Z</time></trkpt><trkpt lat="45.62865241281865" lon="8.327951404842716"><ele>335.0</ele><time>2026-03-31T08:36:24Z</time></trkpt><trkpt lat="45.62859849345893" lon="8.3278281161555"><ele>335.0</ele><time>2026-03-31T08:36:25Z</time></trkpt><trkpt lat="45.62854214795841" lon="8.327688892789135"><ele>334.2</ele><time>2026-03-31T08:36:26Z</time></trkpt><trkpt lat="45.62846355206496" lon="8.327562035504615"><ele>333.4</ele><time>2026-03-31T08:36:27Z</time></trkpt><trkpt lat="45.62842829394329" lon="8.327432071718851"><ele>332.6</ele><time>2026-03-31T08:36:28Z</time></trkpt><trkpt lat="45.628375706787594" lon="8.32724862938524"><ele>331.8</ele><time>2026-03-31T08:36:30Z</time></trkpt><trkpt lat="45.62833678614903" lon="8.327148421950936"><ele>331.0</ele><time>2026-03-31T08:36:31Z</time></trkpt><trkpt lat="45.62829146131609" lon="8.327045137132838"><ele>329.0</ele><time>2026-03-31T08:36:32Z</time></trkpt><trkpt lat="45.628256176568115" lon="8.326897466671284"><ele>327.0</ele><time>2026-03-31T08:36:33Z</time></trkpt><trkpt lat="45.628203864255084" lon="8.326777184800088"><ele>325.0</ele><time>2026-03-31T08:36:34Z</time></trkpt><trkpt lat="45.628121021612486" lon="8.326678792433276"><ele>323.0</ele><time>2026-03-31T08:36:35Z</time></trkpt><trkpt lat="45.62805304099844" lon="8.326571682715734"><ele>321.0</ele><time>2026-03-31T08:36:36Z</time></trkpt><trkpt lat="45.62797556532766" lon="8.32647477749187"><ele>319.0</ele><time>2026-03-31T08:36:37Z</time></trkpt><trkpt lat="45.62789974026249" lon="8.326387898791591"><ele>317.0</ele><time>2026-03-31T08:36:38Z</time></trkpt><trkpt lat="45.627832551815644" lon="8.326277711176491"><ele>315.0</ele><time>2026-03-31T08:36:39Z</time></trkpt><trkpt lat="45.627745288822815" lon="8.326157906433796"><ele>313.0</ele><time>2026-03-31T08:36:40Z</time></trkpt><trkpt lat="45.627679122708386" lon="8.326050483506442"><ele>311.0</ele><time>2026-03-31T08:36:41Z</time></trkpt><trkpt lat="45.62761271226985" lon="8.325935844905871"><ele>310.2</ele><time>2026-03-31T08:36:42Z</time></trkpt><trkpt lat="45.62754655507643" lon="8.325815875746693"><ele>309.40000000000003</ele><time>2026-03-31T08:36:43Z</time></trkpt><trkpt lat="45.62748102060461" lon="8.325691055553062"><ele>308.6</ele><time>2026-03-31T08:36:44Z</time></trkpt><trkpt lat="45.62742171671145" lon="8.325557795929193"><ele>307.8</ele><time>2026-03-31T08:36:45Z</time></trkpt><trkpt lat="45.627362432814905" lon="8.325437987865524"><ele>307.0</ele><time>2026-03-31T08:36:46Z</time></trkpt><trkpt lat="45.6272968067482" lon="8.325324059125323"><ele>306.4</ele><time>2026-03-31T08:36:47Z</time></trkpt><trkpt lat="45.627233174652694" lon="8.325216745957706"><ele>305.79999999999995</ele><time>2026-03-31T08:36:48Z</time></trkpt><trkpt lat="45.62717132093988" lon="8.325110009159678"><ele>305.2</ele><time>2026-03-31T08:36:49Z</time></trkpt><trkpt lat="45.62711713617352" lon="8.325009018061758"><ele>304.59999999999997</ele><time>2026-03-31T08:36:50Z</time></trkpt><trkpt lat="45.62706447199905" lon="8.324906272766814"><ele>304.0</ele><time>2026-03-31T08:36:51Z</time></trkpt><trkpt lat="45.62701342543767" lon="8.324801130785472"><ele>304.3333333333333</ele><time>2026-03-31T08:36:52Z</time></trkpt><trkpt lat="45.626961875569776" lon="8.32469478810544"><ele>304.66666666666663</ele><time>2026-03-31T08:36:53Z</time></trkpt><trkpt lat="45.626910289371644" lon="8.32458467069799"><ele>305.0</ele><time>2026-03-31T08:36:54Z</time></trkpt><trkpt lat="45.62686021588107" lon="8.32447778235979"><ele>305.3333333333333</ele><time>2026-03-31T08:36:55Z</time></trkpt><trkpt lat="45.62681458576051" lon="8.324380852242678"><ele>305.6666666666667</ele><time>2026-03-31T08:36:56Z</time></trkpt><trkpt lat="45.62677336752068" lon="8.324294704984903"><ele>306.0</ele><time>2026-03-31T08:36:57Z</time></trkpt><trkpt lat="45.626735023398105" lon="8.324214564704285"><ele>306.0</ele><time>2026-03-31T08:36:58Z</time></trkpt><trkpt lat="45.62669724655248" lon="8.324135610050227"><ele>306.0</ele><time>2026-03-31T08:36:59Z</time></trkpt><trkpt lat="45.62666200651362" lon="8.324058346878488"><ele>306.0</ele><time>2026-03-31T08:37:00Z</time></trkpt><trkpt lat="45.626613613987494" lon="8.323924634162944"><ele>306.0</ele><time>2026-03-31T08:37:02Z</time></trkpt><trkpt lat="45.6267737747774" lon="8.323747584908556"><ele>306.0</ele><time>2026-03-31T08:37:05Z</time></trkpt><trkpt lat="45.62684490714504" lon="8.323719004953638"><ele>307.0</ele><time>2026-03-31T08:37:06Z</time></trkpt><trkpt lat="45.62692206408262" lon="8.323705752683018"><ele>308.0</ele><time>2026-03-31T08:37:07Z</time></trkpt><trkpt lat="45.627003830321144" lon="8.323709746293545"><ele>309.0</ele><time>2026-03-31T08:37:08Z</time></trkpt><trkpt lat="45.627090033124134" lon="8.323720133631022"><ele>310.0</ele><time>2026-03-31T08:37:09Z</time></trkpt><trkpt lat="45.62718183219209" lon="8.323725978923653"><ele>311.0</ele><time>2026-03-31T08:37:10Z</time></trkpt><trkpt lat="45.62729346228221" lon="8.323723532117477"><ele>311.5</ele><time>2026-03-31T08:37:11Z</time></trkpt><trkpt lat="45.627418604084966" lon="8.323715219543155"><ele>312.0</ele><time>2026-03-31T08:37:12Z</time></trkpt><trkpt lat="45.62754272048282" lon="8.323706927674142"><ele>312.5</ele><time>2026-03-31T08:37:13Z</time></trkpt><trkpt lat="45.62765464212139" lon="8.323703683609693"><ele>313.0</ele><time>2026-03-31T08:37:14Z</time></trkpt><trkpt lat="45.6277584268796" lon="8.323694332153604"><ele>315.2</ele><time>2026-03-31T08:37:15Z</time></trkpt><trkpt lat="45.627843899474506" lon="8.323683924151656"><ele>317.4</ele><time>2026-03-31T08:37:16Z</time></trkpt><trkpt lat="45.627927077186506" lon="8.32366915324142"><ele>319.59999999999997</ele><time>2026-03-31T08:37:17Z</time></trkpt><trkpt lat="45.628024810359335" lon="8.323659289206931"><ele>321.8</ele><time>2026-03-31T08:37:18Z</time></trkpt><trkpt lat="45.628125312089075" lon="8.323663913548486"><ele>324.0</ele><time>2026-03-31T08:37:19Z</time></trkpt><trkpt lat="45.628218418097525" lon="8.32366878143651"><ele>324.0</ele><time>2026-03-31T08:37:20Z</time></trkpt><trkpt lat="45.62830560479048" lon="8.323679170071589"><ele>324.0</ele><time>2026-03-31T08:37:21Z</time></trkpt><trkpt lat="45.628400818536846" lon="8.323675239677716"><ele>324.0</ele><time>2026-03-31T08:37:22Z</time></trkpt><trkpt lat="45.62849961993612" lon="8.32365512634746"><ele>324.0</ele><time>2026-03-31T08:37:23Z</time></trkpt><trkpt lat="45.628597546458515" lon="8.323616364228597"><ele>324.0</ele><time>2026-03-31T08:37:24Z</time></trkpt><trkpt lat="45.62867631251557" lon="8.323508787760597"><ele>323.2</ele><time>2026-03-31T08:37:25Z</time></trkpt><trkpt lat="45.6287608752936" lon="8.323449991224638"><ele>322.4</ele><time>2026-03-31T08:37:26Z</time></trkpt><trkpt lat="45.62885432820485" lon="8.323409928437597"><ele>321.6</ele><time>2026-03-31T08:37:27Z</time></trkpt><trkpt lat="45.62894667096385" lon="8.323353113668214"><ele>320.8</ele><time>2026-03-31T08:37:28Z</time></trkpt><trkpt lat="45.62903314019367" lon="8.323276015925583"><ele>320.0</ele><time>2026-03-31T08:37:29Z</time></trkpt><trkpt lat="45.629126418758254" lon="8.323249641296183"><ele>320.0</ele><time>2026-03-31T08:37:30Z</time></trkpt><trkpt lat="45.629205179241005" lon="8.323228892270555"><ele>320.0</ele><time>2026-03-31T08:37:31Z</time></trkpt><trkpt lat="45.629279358186466" lon="8.323193321229212"><ele>320.0</ele><time>2026-03-31T08:37:32Z</time></trkpt><trkpt lat="45.629361682002084" lon="8.323146332697753"><ele>320.0</ele><time>2026-03-31T08:37:34Z</time></trkpt><trkpt lat="45.62929923552978" lon="8.323055763301475"><ele>320.0</ele><time>2026-03-31T08:37:39Z</time></trkpt><trkpt lat="45.6291905528775" lon="8.323111773322983"><ele>320.0</ele><time>2026-03-31T08:37:41Z</time></trkpt><trkpt lat="45.62911912061843" lon="8.323142407523632"><ele>320.0</ele><time>2026-03-31T08:37:42Z</time></trkpt><trkpt lat="45.62902996351744" lon="8.323186133497547"><ele>320.0</ele><time>2026-03-31T08:37:43Z</time></trkpt><trkpt lat="45.62893612955697" lon="8.323218348505595"><ele>320.0</ele><time>2026-03-31T08:37:44Z</time></trkpt><trkpt lat="45.62884912372256" lon="8.323226942335692"><ele>320.0</ele><time>2026-03-31T08:37:45Z</time></trkpt><trkpt lat="45.62874641532178" lon="8.323232354062263"><ele>320.0</ele><time>2026-03-31T08:37:46Z</time></trkpt><trkpt lat="45.628659786411575" lon="8.32322759273172"><ele>320.0</ele><time>2026-03-31T08:37:47Z</time></trkpt><trkpt lat="45.62858255261216" lon="8.323163799027784"><ele>320.0</ele><time>2026-03-31T08:37:48Z</time></trkpt><trkpt lat="45.62851337725828" lon="8.323034821336856"><ele>320.0</ele><time>2026-03-31T08:37:49Z</time></trkpt><trkpt lat="45.62843259496525" lon="8.322889781426465"><ele>320.0</ele><time>2026-03-31T08:37:50Z</time></trkpt><trkpt lat="45.62837511604497" lon="8.322826804772452"><ele>323.4</ele><time>2026-03-31T08:37:51Z</time></trkpt><trkpt lat="45.62837380829308" lon="8.32272579274032"><ele>326.8</ele><time>2026-03-31T08:37:52Z</time></trkpt><trkpt lat="45.628358535080935" lon="8.322530259967161"><ele>330.20000000000005</ele><time>2026-03-31T08:37:53Z</time></trkpt><trkpt lat="45.62832486288823" lon="8.322331146139142"><ele>333.6</ele><time>2026-03-31T08:37:54Z</time></trkpt><trkpt lat="45.628300762444034" lon="8.322205295653655"><ele>337.0</ele><time>2026-03-31T08:37:54.999Z</time></trkpt><trkpt lat="45.62831756336813" lon="8.322089407236117"><ele>338.5</ele><time>2026-03-31T08:37:55.999Z</time></trkpt><trkpt lat="45.62826393906765" lon="8.321938059422513"><ele>340.0</ele><time>2026-03-31T08:37:57.999Z</time></trkpt><trkpt lat="45.62822957411968" lon="8.32185635334757"><ele>341.5</ele><time>2026-03-31T08:37:58.999Z</time></trkpt><trkpt lat="45.6281796012335" lon="8.321636961000916"><ele>343.0</ele><time>2026-03-31T08:38:00.999Z</time></trkpt><trkpt lat="45.62816097217948" lon="8.321486228572065"><ele>342.16666666666663</ele><time>2026-03-31T08:38:01.999Z</time></trkpt><trkpt lat="45.62817318340772" lon="8.321376318943962"><ele>341.3333333333333</ele><time>2026-03-31T08:38:06.999Z</time></trkpt><trkpt lat="45.62826135928165" lon="8.321331817101926"><ele>340.5</ele><time>2026-03-31T08:38:10.998Z</time></trkpt><trkpt lat="45.62832880110621" lon="8.321288210171822"><ele>339.6666666666667</ele><time>2026-03-31T08:38:11.998Z</time></trkpt><trkpt lat="45.62841945367044" lon="8.3212830907397"><ele>338.83333333333337</ele><time>2026-03-31T08:38:12.998Z</time></trkpt><trkpt lat="45.62851226448159" lon="8.321286215744502"><ele>338.0</ele><time>2026-03-31T08:38:13.998Z</time></trkpt><trkpt lat="45.6286356484365" lon="8.321274868353784"><ele>340.75</ele><time>2026-03-31T08:38:14.998Z</time></trkpt><trkpt lat="45.628789456036884" lon="8.321254996249817"><ele>343.5</ele><time>2026-03-31T08:38:15.998Z</time></trkpt><trkpt lat="45.62892987982635" lon="8.321237415707389"><ele>346.25</ele><time>2026-03-31T08:38:16.998Z</time></trkpt><trkpt lat="45.62903193048362" lon="8.321246721041184"><ele>349.0</ele><time>2026-03-31T08:38:17.998Z</time></trkpt><trkpt lat="45.629109174861114" lon="8.321263821150389"><ele>349.0</ele><time>2026-03-31T08:38:18.998Z</time></trkpt><trkpt lat="45.629188568591694" lon="8.321248385776421"><ele>349.0</ele><time>2026-03-31T08:38:19.998Z</time></trkpt><trkpt lat="45.62925776734849" lon="8.321226648911287"><ele>349.0</ele><time>2026-03-31T08:38:21Z</time></trkpt><trkpt lat="45.629339685290844" lon="8.321207808042093"><ele>349.0</ele><time>2026-03-31T08:38:22Z</time></trkpt><trkpt lat="45.629419903299926" lon="8.32118190574677"><ele>349.0</ele><time>2026-03-31T08:38:23Z</time></trkpt><trkpt lat="45.62949291917884" lon="8.32113085190296"><ele>349.0</ele><time>2026-03-31T08:38:24Z</time></trkpt><trkpt lat="45.629575878288826" lon="8.321072113491846"><ele>350.0</ele><time>2026-03-31T08:38:25Z</time></trkpt><trkpt lat="45.629657822248824" lon="8.321037273451308"><ele>351.0</ele><time>2026-03-31T08:38:26Z</time></trkpt><trkpt lat="45.629731888605015" lon="8.321037982042625"><ele>352.0</ele><time>2026-03-31T08:38:28Z</time></trkpt><trkpt lat="45.62965726923478" lon="8.321079634699313"><ele>353.0</ele><time>2026-03-31T08:38:31Z</time></trkpt><trkpt lat="45.6297423361996" lon="8.321077752607348"><ele>354.0</ele><time>2026-03-31T08:38:35Z</time></trkpt><trkpt lat="45.62982546818976" lon="8.321081965021774"><ele>355.0</ele><time>2026-03-31T08:38:36Z</time></trkpt><trkpt lat="45.6299361376898" lon="8.321087291914912"><ele>355.0</ele><time>2026-03-31T08:38:37Z</time></trkpt><trkpt lat="45.630057723529205" lon="8.321081442794249"><ele>355.0</ele><time>2026-03-31T08:38:38Z</time></trkpt><trkpt lat="45.630121127643754" lon="8.32108088865669"><ele>355.0</ele><time>2026-03-31T08:38:39Z</time></trkpt><trkpt lat="45.63018817349414" lon="8.320926625177393"><ele>355.0</ele><time>2026-03-31T08:38:40.999Z</time></trkpt><trkpt lat="45.63019895912222" lon="8.32080165123346"><ele>355.0</ele><time>2026-03-31T08:38:41.999Z</time></trkpt><trkpt lat="45.63018113678469" lon="8.320592185338636"><ele>354.8333333333333</ele><time>2026-03-31T08:38:42.999Z</time></trkpt><trkpt lat="45.630176520953285" lon="8.320419720769786"><ele>354.66666666666663</ele><time>2026-03-31T08:38:43.999Z</time></trkpt><trkpt lat="45.6301779222632" lon="8.32030757959319"><ele>354.5</ele><time>2026-03-31T08:38:44.999Z</time></trkpt><trkpt lat="45.63019382987537" lon="8.320212906333479"><ele>354.3333333333333</ele><time>2026-03-31T08:38:45.999Z</time></trkpt><trkpt lat="45.63022602443914" lon="8.320120916706847"><ele>354.1666666666667</ele><time>2026-03-31T08:38:46.999Z</time></trkpt><trkpt lat="45.63026398867943" lon="8.320033358159932"><ele>354.0</ele><time>2026-03-31T08:38:47.999Z</time></trkpt><trkpt lat="45.63030257559268" lon="8.319955745785814"><ele>353.6</ele><time>2026-03-31T08:38:48.999Z</time></trkpt><trkpt lat="45.630336098944575" lon="8.31987781340596"><ele>353.2</ele><time>2026-03-31T08:38:49.999Z</time></trkpt><trkpt lat="45.630377924121504" lon="8.319798627080202"><ele>352.8</ele><time>2026-03-31T08:38:50.999Z</time></trkpt><trkpt lat="45.63047717698753" lon="8.319696109825658"><ele>352.40000000000003</ele><time>2026-03-31T08:38:52.999Z</time></trkpt><trkpt lat="45.6305930590707" lon="8.3196003168819"><ele>352.0</ele><time>2026-03-31T08:38:54.999Z</time></trkpt><trkpt lat="45.63065168343126" lon="8.319510847317101"><ele>352.0</ele><time>2026-03-31T08:38:55.999Z</time></trkpt><trkpt lat="45.63070660475005" lon="8.31942402815504"><ele>352.0</ele><time>2026-03-31T08:38:56.999Z</time></trkpt><trkpt lat="45.63076056397004" lon="8.319354589512384"><ele>352.0</ele><time>2026-03-31T08:38:57.999Z</time></trkpt><trkpt lat="45.63081722047041" lon="8.319295427012179"><ele>352.0</ele><time>2026-03-31T08:38:58.999Z</time></trkpt><trkpt lat="45.63088041017049" lon="8.319260338977502"><ele>352.0</ele><time>2026-03-31T08:38:59.999Z</time></trkpt><trkpt lat="45.630947189404495" lon="8.319250986916167"><ele>352.0</ele><time>2026-03-31T08:39:00.999Z</time></trkpt><trkpt lat="45.63101643126869" lon="8.319275825290696"><ele>352.0</ele><time>2026-03-31T08:39:01.999Z</time></trkpt><trkpt lat="45.63111360746383" lon="8.319335022583928"><ele>351.5</ele><time>2026-03-31T08:39:03.999Z</time></trkpt><trkpt lat="45.6311954106133" lon="8.31936469270921"><ele>351.0</ele><time>2026-03-31T08:39:05.999Z</time></trkpt><trkpt lat="45.63123930953682" lon="8.319276269174166"><ele>350.5</ele><time>2026-03-31T08:39:20.999Z</time></trkpt><trkpt lat="45.6313134715579" lon="8.319063983800635"><ele>350.0</ele><time>2026-03-31T08:39:22.999Z</time></trkpt><trkpt lat="45.631325887159925" lon="8.318879221115823"><ele>350.0</ele><time>2026-03-31T08:39:23.999Z</time></trkpt><trkpt lat="45.63135695168278" lon="8.318779731008274"><ele>350.0</ele><time>2026-03-31T08:39:24.999Z</time></trkpt><trkpt lat="45.63149824291212" lon="8.318707353587385"><ele>350.0</ele><time>2026-03-31T08:39:26.999Z</time></trkpt><trkpt lat="45.63160646738317" lon="8.318688962253264"><ele>350.0</ele><time>2026-03-31T08:39:27.999Z</time></trkpt><trkpt lat="45.631703033434896" lon="8.318662933861061"><ele>350.0</ele><time>2026-03-31T08:39:28.999Z</time></trkpt><trkpt lat="45.631765616084806" lon="8.318699110977787"><ele>350.0</ele><time>2026-03-31T08:39:29.999Z</time></trkpt><trkpt lat="45.63183310053999" lon="8.318728242227623"><ele>350.0</ele><time>2026-03-31T08:39:30.999Z</time></trkpt><trkpt lat="45.631932331465705" lon="8.318654779332054"><ele>350.0</ele><time>2026-03-31T08:39:31.999Z</time></trkpt><trkpt lat="45.63207114130636" lon="8.318621707629774"><ele>350.0</ele><time>2026-03-31T08:39:32.999Z</time></trkpt><trkpt lat="45.63213986569815" lon="8.318647008333564"><ele>350.0</ele><time>2026-03-31T08:39:34.999Z</time></trkpt><trkpt lat="45.632171487893395" lon="8.318489687054383"><ele>350.4</ele><time>2026-03-31T08:39:36.999Z</time></trkpt><trkpt lat="45.63217703579085" lon="8.318347563978397"><ele>350.8</ele><time>2026-03-31T08:39:37.999Z</time></trkpt><trkpt lat="45.6322350575836" lon="8.318308935498708"><ele>351.20000000000005</ele><time>2026-03-31T08:39:38.999Z</time></trkpt><trkpt lat="45.632357919035044" lon="8.31827361306049"><ele>351.6</ele><time>2026-03-31T08:39:39.999Z</time></trkpt><trkpt lat="45.632397056023855" lon="8.318196535100231"><ele>352.0</ele><time>2026-03-31T08:39:40.999Z</time></trkpt><trkpt lat="45.63237490812339" lon="8.318035646557773"><ele>352.16666666666663</ele><time>2026-03-31T08:39:42.999Z</time></trkpt><trkpt lat="45.632387524365804" lon="8.31793178761756"><ele>352.3333333333333</ele><time>2026-03-31T08:39:43.999Z</time></trkpt><trkpt lat="45.632368913653835" lon="8.317831869201814"><ele>352.5</ele><time>2026-03-31T08:39:44.999Z</time></trkpt><trkpt lat="45.63233985373696" lon="8.31773635673743"><ele>352.6666666666667</ele><time>2026-03-31T08:39:45.999Z</time></trkpt><trkpt lat="45.63232636258158" lon="8.31759035408987"><ele>352.83333333333337</ele><time>2026-03-31T08:39:47.999Z</time></trkpt><trkpt lat="45.63234868778032" lon="8.317477302382953"><ele>353.0</ele><time>2026-03-31T08:39:48.999Z</time></trkpt><trkpt lat="45.632285197663535" lon="8.317328507937006"><ele>352.4285714285714</ele><time>2026-03-31T08:39:49.999Z</time></trkpt><trkpt lat="45.63225842447589" lon="8.31721964473248"><ele>351.8571428571429</ele><time>2026-03-31T08:39:51.999Z</time></trkpt><trkpt lat="45.63222378798976" lon="8.317112589157757"><ele>351.2857142857143</ele><time>2026-03-31T08:39:53.999Z</time></trkpt><trkpt lat="45.63222711563425" lon="8.317018563719108"><ele>350.71428571428567</ele><time>2026-03-31T08:39:54.999Z</time></trkpt><trkpt lat="45.63221384146628" lon="8.31692612259884"><ele>350.1428571428571</ele><time>2026-03-31T08:39:55.999Z</time></trkpt><trkpt lat="45.6322810072852" lon="8.316950845699896"><ele>349.57142857142856</ele><time>2026-03-31T08:39:56.999Z</time></trkpt><trkpt lat="45.63221095553732" lon="8.316908087422757"><ele>349.0</ele><time>2026-03-31T08:39:58.999Z</time></trkpt><trkpt lat="45.63216490562125" lon="8.31680764288998"><ele>349.0</ele><time>2026-03-31T08:39:59.999Z</time></trkpt><trkpt lat="45.632090798434746" lon="8.316746762587112"><ele>349.0</ele><time>2026-03-31T08:40:01.999Z</time></trkpt><trkpt lat="45.63202525188445" lon="8.316743337986118"><ele>349.0</ele><time>2026-03-31T08:40:02.999Z</time></trkpt><trkpt lat="45.63193265212747" lon="8.316684911599967"><ele>349.0</ele><time>2026-03-31T08:40:03.999Z</time></trkpt><trkpt lat="45.631851220799845" lon="8.316635923864906"><ele>349.0</ele><time>2026-03-31T08:40:04.999Z</time></trkpt><trkpt lat="45.63182398987943" lon="8.316547327152264"><ele>349.0</ele><time>2026-03-31T08:40:05.999Z</time></trkpt><trkpt lat="45.63182296728479" lon="8.316457218415918"><ele>350.5</ele><time>2026-03-31T08:40:06.999Z</time></trkpt><trkpt lat="45.6317354751772" lon="8.316412695804418"><ele>352.0</ele><time>2026-03-31T08:40:10.999Z</time></trkpt><trkpt lat="45.63164091736575" lon="8.316058293869263"><ele>353.5</ele><time>2026-03-31T08:40:12.999Z</time></trkpt><trkpt lat="45.631574003843774" lon="8.316031596661093"><ele>355.0</ele><time>2026-03-31T08:40:14.999Z</time></trkpt><trkpt lat="45.63151778281107" lon="8.315971668939039"><ele>359.0</ele><time>2026-03-31T08:40:16.999Z</time></trkpt><trkpt lat="45.63152048245467" lon="8.31583415281707"><ele>363.0</ele><time>2026-03-31T08:40:24.998Z</time></trkpt><trkpt lat="45.63151444508457" lon="8.315704800805031"><ele>367.0</ele><time>2026-03-31T08:40:27Z</time></trkpt><trkpt lat="45.63154613662682" lon="8.315543049328195"><ele>371.0</ele><time>2026-03-31T08:40:29Z</time></trkpt><trkpt lat="45.63157730349053" lon="8.315460722244492"><ele>375.0</ele><time>2026-03-31T08:40:30Z</time></trkpt><trkpt lat="45.63164780537996" lon="8.315343466298167"><ele>377.5</ele><time>2026-03-31T08:40:32Z</time></trkpt><trkpt lat="45.631592445891826" lon="8.315228520561313"><ele>380.0</ele><time>2026-03-31T08:40:34Z</time></trkpt><trkpt lat="45.63150706513357" lon="8.315233969887224"><ele>382.5</ele><time>2026-03-31T08:40:36Z</time></trkpt><trkpt lat="45.63144653576146" lon="8.315200974798513"><ele>385.0</ele><time>2026-03-31T08:40:37Z</time></trkpt><trkpt lat="45.63140107488596" lon="8.315128039819875"><ele>387.5</ele><time>2026-03-31T08:40:39Z</time></trkpt><trkpt lat="45.63136308105652" lon="8.315038955961844"><ele>390.0</ele><time>2026-03-31T08:40:41Z</time></trkpt><trkpt lat="45.63137597586463" lon="8.31486432870199"><ele>391.4</ele><time>2026-03-31T08:40:43Z</time></trkpt><trkpt lat="45.63142090246862" lon="8.31472996079057"><ele>392.8</ele><time>2026-03-31T08:40:44Z</time></trkpt><trkpt lat="45.63144588870548" lon="8.314606500063228"><ele>394.20000000000005</ele><time>2026-03-31T08:40:45Z</time></trkpt><trkpt lat="45.63143783579172" lon="8.314456249898926"><ele>395.6</ele><time>2026-03-31T08:40:46Z</time></trkpt><trkpt lat="45.63151454174965" lon="8.314375640511434"><ele>397.0</ele><time>2026-03-31T08:40:47Z</time></trkpt><trkpt lat="45.63157692810334" lon="8.314300799883089"><ele>397.0</ele><time>2026-03-31T08:40:48Z</time></trkpt><trkpt lat="45.631625138669435" lon="8.314225380697698"><ele>397.0</ele><time>2026-03-31T08:40:49Z</time></trkpt><trkpt lat="45.6316861998688" lon="8.314071363921832"><ele>397.0</ele><time>2026-03-31T08:40:50.999Z</time></trkpt><trkpt lat="45.63170389462836" lon="8.313975002073605"><ele>397.0</ele><time>2026-03-31T08:40:51.999Z</time></trkpt><trkpt lat="45.63165731804651" lon="8.313812782390993"><ele>397.0</ele><time>2026-03-31T08:40:53.999Z</time></trkpt><trkpt lat="45.631614218300264" lon="8.313744540407964"><ele>397.50000000000006</ele><time>2026-03-31T08:40:54.999Z</time></trkpt><trkpt lat="45.6315226730214" lon="8.313614027945198"><ele>398.0</ele><time>2026-03-31T08:40:56.999Z</time></trkpt><trkpt lat="45.63147277414742" lon="8.3135447951346"><ele>398.5</ele><time>2026-03-31T08:40:57.999Z</time></trkpt><trkpt lat="45.63144205075936" lon="8.313436556103243"><ele>399.0</ele><time>2026-03-31T08:40:58.999Z</time></trkpt><trkpt lat="45.63141293913854" lon="8.31334220121086"><ele>399.50000000000006</ele><time>2026-03-31T08:40:59.999Z</time></trkpt><trkpt lat="45.63139814727954" lon="8.313236537038533"><ele>400.0</ele><time>2026-03-31T08:41:00.999Z</time></trkpt><trkpt lat="45.63138314373464" lon="8.31312966869786"><ele>400.4</ele><time>2026-03-31T08:41:01.999Z</time></trkpt><trkpt lat="45.63137777403649" lon="8.312953414364225"><ele>400.8</ele><time>2026-03-31T08:41:03.999Z</time></trkpt><trkpt lat="45.631436460603794" lon="8.312916393186212"><ele>401.20000000000005</ele><time>2026-03-31T08:41:04.999Z</time></trkpt><trkpt lat="45.63149208545565" lon="8.312848854959606"><ele>401.6</ele><time>2026-03-31T08:41:05.999Z</time></trkpt><trkpt lat="45.63155268412276" lon="8.312719343146801"><ele>402.0</ele><time>2026-03-31T08:41:07.999Z</time></trkpt><trkpt lat="45.6316043386548" lon="8.312572660772005"><ele>402.0</ele><time>2026-03-31T08:41:09.999Z</time></trkpt><trkpt lat="45.63164087565372" lon="8.31247595791355"><ele>402.0</ele><time>2026-03-31T08:41:10.999Z</time></trkpt><trkpt lat="45.631685384611444" lon="8.312371802437562"><ele>402.0</ele><time>2026-03-31T08:41:11.999Z</time></trkpt><trkpt lat="45.63172272867578" lon="8.312275785193439"><ele>402.0</ele><time>2026-03-31T08:41:12.999Z</time></trkpt><trkpt lat="45.63175044794084" lon="8.312183746688325"><ele>402.0</ele><time>2026-03-31T08:41:13.999Z</time></trkpt><trkpt lat="45.631794508073796" lon="8.312047889066642"><ele>402.0</ele><time>2026-03-31T08:41:15.999Z</time></trkpt><trkpt lat="45.63183041760117" lon="8.311942894101103"><ele>402.0</ele><time>2026-03-31T08:41:18.999Z</time></trkpt><trkpt lat="45.63187042464216" lon="8.311755706141524"><ele>402.0</ele><time>2026-03-31T08:41:29.999Z</time></trkpt><trkpt lat="45.63188117243715" lon="8.311634405814019"><ele>402.0</ele><time>2026-03-31T08:41:30.999Z</time></trkpt><trkpt lat="45.6319500864013" lon="8.311505432628543"><ele>402.0</ele><time>2026-03-31T08:41:33.999Z</time></trkpt><trkpt lat="45.63201295389243" lon="8.311406713724274"><ele>402.0</ele><time>2026-03-31T08:41:35.999Z</time></trkpt><trkpt lat="45.63208417055488" lon="8.311276284113921"><ele>404.85714285714283</ele><time>2026-03-31T08:41:38.999Z</time></trkpt><trkpt lat="45.632150359234835" lon="8.311201853101496"><ele>407.7142857142857</ele><time>2026-03-31T08:41:42.999Z</time></trkpt><trkpt lat="45.63221490598032" lon="8.311196135244572"><ele>410.57142857142856</ele><time>2026-03-31T08:41:44.999Z</time></trkpt><trkpt lat="45.632284326105186" lon="8.311193603953948"><ele>413.42857142857144</ele><time>2026-03-31T08:41:47.999Z</time></trkpt><trkpt lat="45.632349949320606" lon="8.31113260399559"><ele>416.28571428571433</ele><time>2026-03-31T08:41:50.999Z</time></trkpt><trkpt lat="45.63241242465069" lon="8.311092838173384"><ele>419.14285714285717</ele><time>2026-03-31T08:41:52.999Z</time></trkpt><trkpt lat="45.632458459882606" lon="8.31102843164603"><ele>422.0</ele><time>2026-03-31T08:41:54.999Z</time></trkpt><trkpt lat="45.63262113800151" lon="8.310881548166185"><ele>422.0</ele><time>2026-03-31T08:41:56.999Z</time></trkpt><trkpt lat="45.632578014216826" lon="8.310806012282645"><ele>422.0</ele><time>2026-03-31T08:41:58.999Z</time></trkpt><trkpt lat="45.63267499859021" lon="8.310632236389296"><ele>422.0</ele><time>2026-03-31T08:42:00.999Z</time></trkpt><trkpt lat="45.63272765950395" lon="8.310499956528957"><ele>422.0</ele><time>2026-03-31T08:42:02.999Z</time></trkpt><trkpt lat="45.632803067607256" lon="8.31036890158279"><ele>422.0</ele><time>2026-03-31T08:42:04.999Z</time></trkpt><trkpt lat="45.63286437919107" lon="8.31025170325051"><ele>422.16666666666663</ele><time>2026-03-31T08:42:06.999Z</time></trkpt><trkpt lat="45.6328801683984" lon="8.310120617447835"><ele>422.3333333333333</ele><time>2026-03-31T08:42:08.999Z</time></trkpt><trkpt lat="45.63289261577307" lon="8.310022354630572"><ele>422.5</ele><time>2026-03-31T08:42:09.999Z</time></trkpt><trkpt lat="45.63290850834825" lon="8.309930325795236"><ele>422.66666666666663</ele><time>2026-03-31T08:42:10.999Z</time></trkpt><trkpt lat="45.632860438924034" lon="8.309793199347709"><ele>422.8333333333333</ele><time>2026-03-31T08:42:12.999Z</time></trkpt><trkpt lat="45.63279723164906" lon="8.309661939090248"><ele>423.0</ele><time>2026-03-31T08:42:14.999Z</time></trkpt><trkpt lat="45.63273527720615" lon="8.309550365896301"><ele>423.0</ele><time>2026-03-31T08:42:16.999Z</time></trkpt><trkpt lat="45.632659208222705" lon="8.309463473180374"><ele>423.0</ele><time>2026-03-31T08:42:18.999Z</time></trkpt><trkpt lat="45.63260916441225" lon="8.30935373967146"><ele>423.0</ele><time>2026-03-31T08:42:20.999Z</time></trkpt><trkpt lat="45.632556736339346" lon="8.309248834853578"><ele>423.0</ele><time>2026-03-31T08:42:22.999Z</time></trkpt><trkpt lat="45.63248239789781" lon="8.30914185716166"><ele>423.0</ele><time>2026-03-31T08:42:24.999Z</time></trkpt><trkpt lat="45.632460794943654" lon="8.30900279302814"><ele>422.0</ele><time>2026-03-31T08:42:26.999Z</time></trkpt><trkpt lat="45.63244777257933" lon="8.308768293663718"><ele>421.0</ele><time>2026-03-31T08:42:29.999Z</time></trkpt><trkpt lat="45.632412973840474" lon="8.308634218226997"><ele>420.0</ele><time>2026-03-31T08:42:31.998Z</time></trkpt><trkpt lat="45.63243728396312" lon="8.30849214635363"><ele>419.0</ele><time>2026-03-31T08:42:34Z</time></trkpt><trkpt lat="45.6324402745083" lon="8.30835998041722"><ele>419.0</ele><time>2026-03-31T08:42:36Z</time></trkpt><trkpt lat="45.63237927367212" lon="8.308232755924541"><ele>419.0</ele><time>2026-03-31T08:42:38Z</time></trkpt><trkpt lat="45.63232683734744" lon="8.30816928645506"><ele>419.0</ele><time>2026-03-31T08:42:39Z</time></trkpt><trkpt lat="45.63228163046659" lon="8.308098309825056"><ele>419.0</ele><time>2026-03-31T08:42:40Z</time></trkpt><trkpt lat="45.63223302125272" lon="8.307966240879788"><ele>419.0</ele><time>2026-03-31T08:42:42Z</time></trkpt><trkpt lat="45.63213881383177" lon="8.307844975473046"><ele>418.99999999999994</ele><time>2026-03-31T08:42:44Z</time></trkpt><trkpt lat="45.63209175997773" lon="8.307772405753246"><ele>419.0</ele><time>2026-03-31T08:42:45Z</time></trkpt><trkpt lat="45.6320556231517" lon="8.307694964998912"><ele>419.0</ele><time>2026-03-31T08:42:46Z</time></trkpt><trkpt lat="45.63202899366908" lon="8.30760980142781"><ele>419.0</ele><time>2026-03-31T08:42:47Z</time></trkpt><trkpt lat="45.63202169368577" lon="8.30751860311575"><ele>419.0</ele><time>2026-03-31T08:42:48Z</time></trkpt><trkpt lat="45.632088154570816" lon="8.307423895033294"><ele>418.99999999999994</ele><time>2026-03-31T08:42:49Z</time></trkpt><trkpt lat="45.63209486319984" lon="8.30730863492909"><ele>419.0</ele><time>2026-03-31T08:42:50Z</time></trkpt><trkpt lat="45.63208760977634" lon="8.307206874624406"><ele>419.79999999999995</ele><time>2026-03-31T08:42:51Z</time></trkpt><trkpt lat="45.6320907468543" lon="8.307092856829234"><ele>420.59999999999997</ele><time>2026-03-31T08:42:52Z</time></trkpt><trkpt lat="45.6321192444649" lon="8.306951098740415"><ele>421.4</ele><time>2026-03-31T08:42:54Z</time></trkpt><trkpt lat="45.63208756717894" lon="8.306776309264897"><ele>422.2</ele><time>2026-03-31T08:42:56Z</time></trkpt><trkpt lat="45.63206565130326" lon="8.306621349530829"><ele>423.0</ele><time>2026-03-31T08:42:58Z</time></trkpt><trkpt lat="45.63207376727119" lon="8.306486577480479"><ele>421.8333333333333</ele><time>2026-03-31T08:42:59.999Z</time></trkpt><trkpt lat="45.63208594752289" lon="8.306390188491772"><ele>420.66666666666663</ele><time>2026-03-31T08:43:00.999Z</time></trkpt><trkpt lat="45.63208131099609" lon="8.306276929450663"><ele>419.5</ele><time>2026-03-31T08:43:01.999Z</time></trkpt><trkpt lat="45.632052592913716" lon="8.306123150618937"><ele>418.3333333333333</ele><time>2026-03-31T08:43:03.999Z</time></trkpt><trkpt lat="45.63203035438496" lon="8.306016189950546"><ele>417.16666666666663</ele><time>2026-03-31T08:43:04.999Z</time></trkpt><trkpt lat="45.63201892864294" lon="8.305885363021897"><ele>416.0</ele><time>2026-03-31T08:43:05.999Z</time></trkpt><trkpt lat="45.632017666772455" lon="8.305766926979123"><ele>416.0</ele><time>2026-03-31T08:43:06.999Z</time></trkpt><trkpt lat="45.631984724323935" lon="8.305605986667238"><ele>416.0</ele><time>2026-03-31T08:43:08.999Z</time></trkpt><trkpt lat="45.63189884676242" lon="8.305468772003834"><ele>416.0</ele><time>2026-03-31T08:43:10.999Z</time></trkpt><trkpt lat="45.63185191503267" lon="8.305399744543836"><ele>416.0</ele><time>2026-03-31T08:43:11.999Z</time></trkpt><trkpt lat="45.63181808318579" lon="8.305319055027272"><ele>416.0</ele><time>2026-03-31T08:43:12.999Z</time></trkpt><trkpt lat="45.63177554980314" lon="8.30516441742709"><ele>415.66666666666663</ele><time>2026-03-31T08:43:14.999Z</time></trkpt><trkpt lat="45.63167108869272" lon="8.305079383725925"><ele>415.3333333333333</ele><time>2026-03-31T08:43:16.999Z</time></trkpt><trkpt lat="45.6316020167223" lon="8.305042874216499"><ele>415.0</ele><time>2026-03-31T08:43:17.999Z</time></trkpt><trkpt lat="45.6315251144041" lon="8.304938096984914"><ele>414.66666666666663</ele><time>2026-03-31T08:43:19.999Z</time></trkpt><trkpt lat="45.63150070190405" lon="8.304845798851058"><ele>414.3333333333333</ele><time>2026-03-31T08:43:20.999Z</time></trkpt><trkpt lat="45.63145789577959" lon="8.304766545248155"><ele>414.0</ele><time>2026-03-31T08:43:21.999Z</time></trkpt><trkpt lat="45.631410359530335" lon="8.304685986846708"><ele>412.1666666666667</ele><time>2026-03-31T08:43:22.999Z</time></trkpt><trkpt lat="45.63136815653046" lon="8.304601548563362"><ele>410.33333333333337</ele><time>2026-03-31T08:43:23.999Z</time></trkpt><trkpt lat="45.6313288867901" lon="8.304521338901207"><ele>408.5</ele><time>2026-03-31T08:43:24.999Z</time></trkpt><trkpt lat="45.631289236906454" lon="8.304439352132018"><ele>406.6666666666667</ele><time>2026-03-31T08:43:25.999Z</time></trkpt><trkpt lat="45.631230001055386" lon="8.304338869803127"><ele>404.83333333333337</ele><time>2026-03-31T08:43:26.999Z</time></trkpt><trkpt lat="45.63119284214791" lon="8.304233298399287"><ele>403.0</ele><time>2026-03-31T08:43:27.999Z</time></trkpt><trkpt lat="45.6311856347432" lon="8.304121922756112"><ele>403.0</ele><time>2026-03-31T08:43:28.999Z</time></trkpt><trkpt lat="45.63117395413403" lon="8.304023953772736"><ele>403.0</ele><time>2026-03-31T08:43:29.999Z</time></trkpt><trkpt lat="45.631153989256696" lon="8.303932652374575"><ele>403.0</ele><time>2026-03-31T08:43:30.999Z</time></trkpt><trkpt lat="45.63113266838818" lon="8.303832459082134"><ele>403.0</ele><time>2026-03-31T08:43:31.999Z</time></trkpt><trkpt lat="45.631116062360874" lon="8.30371783322922"><ele>403.0</ele><time>2026-03-31T08:43:32.999Z</time></trkpt><trkpt lat="45.631098254226536" lon="8.30360932852323"><ele>403.0</ele><time>2026-03-31T08:43:33.999Z</time></trkpt><trkpt lat="45.6310819933526" lon="8.303515823946881"><ele>403.0</ele><time>2026-03-31T08:43:34.999Z</time></trkpt><trkpt lat="45.63102954200912" lon="8.303381422099903"><ele>404.59999999999997</ele><time>2026-03-31T08:43:36.999Z</time></trkpt><trkpt lat="45.63087530830495" lon="8.303365133405006"><ele>406.2</ele><time>2026-03-31T08:43:38.999Z</time></trkpt><trkpt lat="45.63077187835526" lon="8.303376793218826"><ele>407.8</ele><time>2026-03-31T08:43:39.999Z</time></trkpt><trkpt lat="45.63069447212216" lon="8.303367875976607"><ele>409.4</ele><time>2026-03-31T08:43:40.999Z</time></trkpt><trkpt lat="45.63062776367684" lon="8.303238471112927"><ele>411.0</ele><time>2026-03-31T08:43:42.999Z</time></trkpt><trkpt lat="45.63058823853819" lon="8.303138285658072"><ele>411.20000000000005</ele><time>2026-03-31T08:43:43.999Z</time></trkpt><trkpt lat="45.630547564078626" lon="8.303041861616133"><ele>411.40000000000003</ele><time>2026-03-31T08:43:44.999Z</time></trkpt><trkpt lat="45.63050512145275" lon="8.302928498637174"><ele>411.6</ele><time>2026-03-31T08:43:45.999Z</time></trkpt><trkpt lat="45.6304540522876" lon="8.30280618929011"><ele>411.8</ele><time>2026-03-31T08:43:46.999Z</time></trkpt><trkpt lat="45.63039969507391" lon="8.302676822267712"><ele>412.0</ele><time>2026-03-31T08:43:47.999Z</time></trkpt><trkpt lat="45.63035303102231" lon="8.30255233034063"><ele>410.6666666666667</ele><time>2026-03-31T08:43:48.999Z</time></trkpt><trkpt lat="45.63030807370396" lon="8.302444189421172"><ele>409.33333333333337</ele><time>2026-03-31T08:43:49.999Z</time></trkpt><trkpt lat="45.630262922186965" lon="8.302369365887863"><ele>408.0</ele><time>2026-03-31T08:43:50.999Z</time></trkpt><trkpt lat="45.630229521465935" lon="8.302280991238922"><ele>406.66666666666663</ele><time>2026-03-31T08:43:51.999Z</time></trkpt><trkpt lat="45.63018995138633" lon="8.302167057353907"><ele>405.3333333333333</ele><time>2026-03-31T08:43:52.999Z</time></trkpt><trkpt lat="45.63015716271045" lon="8.302074944607181"><ele>404.0</ele><time>2026-03-31T08:43:53.999Z</time></trkpt><trkpt lat="45.63010745993996" lon="8.301991560628572"><ele>403.49999999999994</ele><time>2026-03-31T08:43:54.999Z</time></trkpt><trkpt lat="45.63005857206685" lon="8.301910689299396"><ele>403.0</ele><time>2026-03-31T08:43:55.999Z</time></trkpt><trkpt lat="45.63001410966815" lon="8.301832217296829"><ele>402.5</ele><time>2026-03-31T08:43:56.999Z</time></trkpt><trkpt lat="45.629991123349164" lon="8.301732427758216"><ele>402.0</ele><time>2026-03-31T08:43:57.999Z</time></trkpt><trkpt lat="45.62996720947871" lon="8.301608261000968"><ele>401.49999999999994</ele><time>2026-03-31T08:43:58.999Z</time></trkpt><trkpt lat="45.62995100141335" lon="8.301503289937903"><ele>401.0</ele><time>2026-03-31T08:43:59.999Z</time></trkpt><trkpt lat="45.62994358837971" lon="8.301396442277365"><ele>401.0</ele><time>2026-03-31T08:44:00.999Z</time></trkpt><trkpt lat="45.62991418356632" lon="8.301283157701434"><ele>401.0</ele><time>2026-03-31T08:44:01.999Z</time></trkpt><trkpt lat="45.62985513922537" lon="8.30114916654851"><ele>401.0</ele><time>2026-03-31T08:44:02.999Z</time></trkpt><trkpt lat="45.629798990172034" lon="8.301054573752346"><ele>401.0</ele><time>2026-03-31T08:44:03.999Z</time></trkpt><trkpt lat="45.62975959235984" lon="8.300978381801501"><ele>401.0</ele><time>2026-03-31T08:44:04.999Z</time></trkpt><trkpt lat="45.62970038733612" lon="8.300841581140313"><ele>401.0</ele><time>2026-03-31T08:44:06.999Z</time></trkpt><trkpt lat="45.62964503649499" lon="8.300790932838643"><ele>401.0</ele><time>2026-03-31T08:44:07.999Z</time></trkpt><trkpt lat="45.62958800654676" lon="8.30070660989032"><ele>401.0</ele><time>2026-03-31T08:44:09.999Z</time></trkpt><trkpt lat="45.62959184555881" lon="8.300612385355054"><ele>401.0</ele><time>2026-03-31T08:44:10.999Z</time></trkpt><trkpt lat="45.62959659789191" lon="8.300511330566788"><ele>401.0</ele><time>2026-03-31T08:44:11.999Z</time></trkpt><trkpt lat="45.629575936310246" lon="8.30042021207149"><ele>401.0</ele><time>2026-03-31T08:44:12.999Z</time></trkpt><trkpt lat="45.62952000232057" lon="8.300368854779427"><ele>401.0</ele><time>2026-03-31T08:44:13.999Z</time></trkpt><trkpt lat="45.62944637893969" lon="8.300352454422327"><ele>399.49999999999994</ele><time>2026-03-31T08:44:14.999Z</time></trkpt><trkpt lat="45.629365378617514" lon="8.300363591908656"><ele>398.0</ele><time>2026-03-31T08:44:15.999Z</time></trkpt><trkpt lat="45.6292992192228" lon="8.300347949040654"><ele>396.5</ele><time>2026-03-31T08:44:16.999Z</time></trkpt><trkpt lat="45.629178980710414" lon="8.300304487405288"><ele>395.0</ele><time>2026-03-31T08:44:18.999Z</time></trkpt><trkpt lat="45.62911623634073" lon="8.300350148933873"><ele>393.49999999999994</ele><time>2026-03-31T08:44:19.999Z</time></trkpt><trkpt lat="45.62905911577627" lon="8.300401353774475"><ele>392.0</ele><time>2026-03-31T08:44:20.999Z</time></trkpt><trkpt lat="45.628992729317986" lon="8.300433319344261"><ele>392.0</ele><time>2026-03-31T08:44:21.999Z</time></trkpt><trkpt lat="45.62892380817942" lon="8.300431589242386"><ele>392.0</ele><time>2026-03-31T08:44:22.999Z</time></trkpt><trkpt lat="45.6288274569671" lon="8.3004254194509"><ele>392.0</ele><time>2026-03-31T08:44:24.999Z</time></trkpt><trkpt lat="45.628735928487885" lon="8.300335410007943"><ele>392.0</ele><time>2026-03-31T08:44:26.999Z</time></trkpt><trkpt lat="45.62866908344447" lon="8.30022929485246"><ele>392.0</ele><time>2026-03-31T08:44:28.999Z</time></trkpt><trkpt lat="45.62871937165589" lon="8.300092665280184"><ele>391.99999999999994</ele><time>2026-03-31T08:44:30.999Z</time></trkpt><trkpt lat="45.62876401872244" lon="8.30001198601526"><ele>392.0</ele><time>2026-03-31T08:44:31.999Z</time></trkpt><trkpt lat="45.62879445006938" lon="8.299908472325267"><ele>392.0</ele><time>2026-03-31T08:44:32.999Z</time></trkpt><trkpt lat="45.628810776493864" lon="8.299787482333189"><ele>392.0</ele><time>2026-03-31T08:44:33.999Z</time></trkpt><trkpt lat="45.62879677846957" lon="8.299672893738649"><ele>391.99999999999994</ele><time>2026-03-31T08:44:34.999Z</time></trkpt><trkpt lat="45.62875139684133" lon="8.299589782236191"><ele>392.0</ele><time>2026-03-31T08:44:35.999Z</time></trkpt><trkpt lat="45.62872171909918" lon="8.299425434298714"><ele>391.49999999999994</ele><time>2026-03-31T08:44:37.999Z</time></trkpt><trkpt lat="45.62872178834078" lon="8.299331039763294"><ele>391.0</ele><time>2026-03-31T08:44:39Z</time></trkpt><trkpt lat="45.62868646609363" lon="8.299168629252302"><ele>390.5</ele><time>2026-03-31T08:44:41Z</time></trkpt><trkpt lat="45.62862976800094" lon="8.299102825270863"><ele>390.0</ele><time>2026-03-31T08:44:42Z</time></trkpt><trkpt lat="45.628558519961416" lon="8.299068122906268"><ele>389.49999999999994</ele><time>2026-03-31T08:44:43Z</time></trkpt><trkpt lat="45.62848478403883" lon="8.299046408717295"><ele>389.0</ele><time>2026-03-31T08:44:44Z</time></trkpt><trkpt lat="45.628415202946876" lon="8.299010744999855"><ele>385.99999999999994</ele><time>2026-03-31T08:44:45Z</time></trkpt><trkpt lat="45.628343305939026" lon="8.298939071100316"><ele>383.0</ele><time>2026-03-31T08:44:46Z</time></trkpt><trkpt lat="45.628274017128135" lon="8.298855939907758"><ele>380.0</ele><time>2026-03-31T08:44:47Z</time></trkpt><trkpt lat="45.628209518665884" lon="8.298793493462746"><ele>377.0</ele><time>2026-03-31T08:44:48Z</time></trkpt><trkpt lat="45.62813496704864" lon="8.298778039489079"><ele>374.0</ele><time>2026-03-31T08:44:49Z</time></trkpt><trkpt lat="45.62805406196247" lon="8.298765574696462"><ele>371.0</ele><time>2026-03-31T08:44:50Z</time></trkpt><trkpt lat="45.62797592138718" lon="8.298719541867758"><ele>369.6666666666667</ele><time>2026-03-31T08:44:51Z</time></trkpt><trkpt lat="45.627902300397345" lon="8.298666799484744"><ele>368.33333333333337</ele><time>2026-03-31T08:44:52Z</time></trkpt><trkpt lat="45.627839452199986" lon="8.298600645843658"><ele>367.0</ele><time>2026-03-31T08:44:53Z</time></trkpt><trkpt lat="45.62779281477193" lon="8.298513287063072"><ele>365.6666666666667</ele><time>2026-03-31T08:44:54Z</time></trkpt><trkpt lat="45.6277576729296" lon="8.298409354952437"><ele>364.3333333333333</ele><time>2026-03-31T08:44:55Z</time></trkpt><trkpt lat="45.62771932682425" lon="8.298306198400685"><ele>363.0</ele><time>2026-03-31T08:44:56Z</time></trkpt><trkpt lat="45.62767431825657" lon="8.298216899334676"><ele>362.3333333333333</ele><time>2026-03-31T08:44:57Z</time></trkpt><trkpt lat="45.627620784855445" lon="8.298104519999633"><ele>361.6666666666667</ele><time>2026-03-31T08:44:58Z</time></trkpt><trkpt lat="45.627540004286736" lon="8.298008133888688"><ele>361.0</ele><time>2026-03-31T08:44:59Z</time></trkpt><trkpt lat="45.627474442413536" lon="8.29792606897478"><ele>360.33333333333337</ele><time>2026-03-31T08:45:00Z</time></trkpt><trkpt lat="45.62742356582619" lon="8.29782998660285"><ele>359.6666666666667</ele><time>2026-03-31T08:45:01Z</time></trkpt><trkpt lat="45.627382633624194" lon="8.29774599740438"><ele>359.0</ele><time>2026-03-31T08:45:02Z</time></trkpt><trkpt lat="45.627362182452224" lon="8.297653709653959"><ele>358.6666666666667</ele><time>2026-03-31T08:45:03Z</time></trkpt><trkpt lat="45.62737767965769" lon="8.297465778762088"><ele>358.33333333333337</ele><time>2026-03-31T08:45:05Z</time></trkpt><trkpt lat="45.62739751821082" lon="8.297364690897354"><ele>358.0</ele><time>2026-03-31T08:45:06Z</time></trkpt><trkpt lat="45.62740284755416" lon="8.297266089965662"><ele>357.6666666666667</ele><time>2026-03-31T08:45:07Z</time></trkpt><trkpt lat="45.627399362065844" lon="8.297173044474588"><ele>357.3333333333333</ele><time>2026-03-31T08:45:08Z</time></trkpt><trkpt lat="45.627388805308115" lon="8.297082588416643"><ele>357.0</ele><time>2026-03-31T08:45:09Z</time></trkpt><trkpt lat="45.627387957996746" lon="8.296975786476"><ele>355.42857142857144</ele><time>2026-03-31T08:45:10Z</time></trkpt><trkpt lat="45.62738834877558" lon="8.296873116380578"><ele>353.8571428571429</ele><time>2026-03-31T08:45:11Z</time></trkpt><trkpt lat="45.62739250230891" lon="8.296781306073283"><ele>352.2857142857143</ele><time>2026-03-31T08:45:12Z</time></trkpt><trkpt lat="45.62738662657134" lon="8.296679208771799"><ele>350.7142857142857</ele><time>2026-03-31T08:45:13Z</time></trkpt><trkpt lat="45.627355062555864" lon="8.296586838834791"><ele>349.14285714285717</ele><time>2026-03-31T08:45:14Z</time></trkpt><trkpt lat="45.62729108835226" lon="8.296525190089174"><ele>347.57142857142856</ele><time>2026-03-31T08:45:15Z</time></trkpt><trkpt lat="45.627207606196734" lon="8.296501876256427"><ele>346.0</ele><time>2026-03-31T08:45:16Z</time></trkpt><trkpt lat="45.627136860919315" lon="8.296541685817212"><ele>346.0</ele><time>2026-03-31T08:45:17Z</time></trkpt><trkpt lat="45.627074843802525" lon="8.296638740362836"><ele>346.0</ele><time>2026-03-31T08:45:17.999Z</time></trkpt><trkpt lat="45.62700723655274" lon="8.296722000738422"><ele>346.0</ele><time>2026-03-31T08:45:18.999Z</time></trkpt><trkpt lat="45.62692594540067" lon="8.296759501977988"><ele>346.0</ele><time>2026-03-31T08:45:19.999Z</time></trkpt><trkpt lat="45.62684798180527" lon="8.296778740779557"><ele>346.0</ele><time>2026-03-31T08:45:20.999Z</time></trkpt><trkpt lat="45.626774040255896" lon="8.296792251993368"><ele>346.0</ele><time>2026-03-31T08:45:21.999Z</time></trkpt><trkpt lat="45.6267008025007" lon="8.296826319798276"><ele>344.66666666666663</ele><time>2026-03-31T08:45:22.999Z</time></trkpt><trkpt lat="45.62662619006596" lon="8.296869249169863"><ele>343.3333333333333</ele><time>2026-03-31T08:45:23.999Z</time></trkpt><trkpt lat="45.62654468600647" lon="8.296926691168924"><ele>342.0</ele><time>2026-03-31T08:45:24.999Z</time></trkpt><trkpt lat="45.62646552697291" lon="8.296983496251537"><ele>340.6666666666667</ele><time>2026-03-31T08:45:25.999Z</time></trkpt><trkpt lat="45.62638505407024" lon="8.297044859618872"><ele>339.33333333333337</ele><time>2026-03-31T08:45:26.999Z</time></trkpt><trkpt lat="45.62631769536387" lon="8.297129672008815"><ele>338.0</ele><time>2026-03-31T08:45:27.999Z</time></trkpt><trkpt lat="45.626261605952244" lon="8.29722906693728"><ele>337.5</ele><time>2026-03-31T08:45:28.999Z</time></trkpt><trkpt lat="45.62620932684062" lon="8.297291799424508"><ele>337.0</ele><time>2026-03-31T08:45:29.999Z</time></trkpt><trkpt lat="45.62609197336688" lon="8.297280058220457"><ele>336.5</ele><time>2026-03-31T08:45:31.999Z</time></trkpt><trkpt lat="45.62602490552108" lon="8.297244424939267"><ele>336.0</ele><time>2026-03-31T08:45:32.999Z</time></trkpt><trkpt lat="45.625931719060226" lon="8.297243558113008"><ele>335.5</ele><time>2026-03-31T08:45:33.999Z</time></trkpt><trkpt lat="45.625844706489225" lon="8.29727975465015"><ele>335.0</ele><time>2026-03-31T08:45:34.999Z</time></trkpt><trkpt lat="45.625768465545384" lon="8.297327321997907"><ele>335.0</ele><time>2026-03-31T08:45:35.999Z</time></trkpt><trkpt lat="45.62569709784293" lon="8.29737654327404"><ele>335.0</ele><time>2026-03-31T08:45:36.999Z</time></trkpt><trkpt lat="45.625623469238015" lon="8.297436792672961"><ele>335.0</ele><time>2026-03-31T08:45:37.999Z</time></trkpt><trkpt lat="45.6255341200443" lon="8.297495956227856"><ele>335.0</ele><time>2026-03-31T08:45:38.999Z</time></trkpt><trkpt lat="45.62546564682946" lon="8.297550227079133"><ele>335.0</ele><time>2026-03-31T08:45:39.999Z</time></trkpt><trkpt lat="45.62540812764987" lon="8.297610600545575"><ele>335.0</ele><time>2026-03-31T08:45:40.999Z</time></trkpt><trkpt lat="45.62536802236624" lon="8.29768062270024"><ele>335.0</ele><time>2026-03-31T08:45:41.999Z</time></trkpt><trkpt lat="45.62528444227083" lon="8.297749692445889"><ele>335.0</ele><time>2026-03-31T08:45:43.999Z</time></trkpt><trkpt lat="45.62523011971593" lon="8.297623812429865"><ele>335.0</ele><time>2026-03-31T08:45:45.999Z</time></trkpt><trkpt lat="45.62524653281276" lon="8.297522741181423"><ele>335.0</ele><time>2026-03-31T08:45:46.999Z</time></trkpt><trkpt lat="45.625281814784245" lon="8.297425023963132"><ele>335.0</ele><time>2026-03-31T08:45:47.999Z</time></trkpt><trkpt lat="45.6253144608121" lon="8.29733514949774"><ele>335.0</ele><time>2026-03-31T08:45:48.999Z</time></trkpt><trkpt lat="45.625335883836044" lon="8.297208365767169"><ele>333.0</ele><time>2026-03-31T08:45:49.999Z</time></trkpt><trkpt lat="45.62537695128071" lon="8.29708685184274"><ele>331.0</ele><time>2026-03-31T08:45:50.999Z</time></trkpt><trkpt lat="45.62543647973006" lon="8.296985757821908"><ele>329.0</ele><time>2026-03-31T08:45:51.999Z</time></trkpt><trkpt lat="45.62550437179489" lon="8.296895567038591"><ele>327.0</ele><time>2026-03-31T08:45:52.999Z</time></trkpt><trkpt lat="45.62557510617833" lon="8.29680621209576"><ele>325.0</ele><time>2026-03-31T08:45:53.999Z</time></trkpt><trkpt lat="45.625637147531755" lon="8.296704795837465"><ele>325.0</ele><time>2026-03-31T08:45:54.999Z</time></trkpt><trkpt lat="45.62569378483372" lon="8.296614576323844"><ele>325.0</ele><time>2026-03-31T08:45:55.999Z</time></trkpt><trkpt lat="45.62575275524413" lon="8.296526177575206"><ele>325.0</ele><time>2026-03-31T08:45:56.999Z</time></trkpt><trkpt lat="45.625817083791475" lon="8.296434890048298"><ele>325.0</ele><time>2026-03-31T08:45:57.999Z</time></trkpt><trkpt lat="45.62587036625056" lon="8.296336131975576"><ele>325.0</ele><time>2026-03-31T08:45:58.999Z</time></trkpt><trkpt lat="45.62590635410116" lon="8.296204096451913"><ele>325.0</ele><time>2026-03-31T08:45:59.999Z</time></trkpt><trkpt lat="45.62590232742543" lon="8.296060995213168"><ele>325.3333333333333</ele><time>2026-03-31T08:46:00.999Z</time></trkpt><trkpt lat="45.62589343971329" lon="8.295935040895898"><ele>325.66666666666663</ele><time>2026-03-31T08:46:01.999Z</time></trkpt><trkpt lat="45.62590025189659" lon="8.295838602546782"><ele>326.0</ele><time>2026-03-31T08:46:02.999Z</time></trkpt><trkpt lat="45.625874321410336" lon="8.295662984673276"><ele>326.3333333333333</ele><time>2026-03-31T08:46:04.999Z</time></trkpt><trkpt lat="45.625812264398654" lon="8.295640702752978"><ele>326.6666666666667</ele><time>2026-03-31T08:46:05.999Z</time></trkpt><trkpt lat="45.625746483189545" lon="8.295659984393735"><ele>327.0</ele><time>2026-03-31T08:46:06.999Z</time></trkpt><trkpt lat="45.62569431057101" lon="8.295735505645323"><ele>327.0</ele><time>2026-03-31T08:46:07.999Z</time></trkpt><trkpt lat="45.6256532513837" lon="8.295840172539165"><ele>327.0</ele><time>2026-03-31T08:46:08.999Z</time></trkpt><trkpt lat="45.62558355974849" lon="8.29596160342784"><ele>327.0</ele><time>2026-03-31T08:46:09.999Z</time></trkpt><trkpt lat="45.625498304012204" lon="8.296076333720517"><ele>327.0</ele><time>2026-03-31T08:46:10.999Z</time></trkpt><trkpt lat="45.62541014609605" lon="8.296143008647439"><ele>327.0</ele><time>2026-03-31T08:46:11.999Z</time></trkpt><trkpt lat="45.625318149622764" lon="8.296173596291338"><ele>330.75</ele><time>2026-03-31T08:46:12.999Z</time></trkpt><trkpt lat="45.625209558781116" lon="8.296205799457786"><ele>334.5</ele><time>2026-03-31T08:46:13.999Z</time></trkpt><trkpt lat="45.625087049936965" lon="8.296247896038736"><ele>338.25</ele><time>2026-03-31T08:46:14.999Z</time></trkpt><trkpt lat="45.624954790871044" lon="8.29627999359209"><ele>342.0</ele><time>2026-03-31T08:46:15.999Z</time></trkpt><trkpt lat="45.62482357268917" lon="8.29630974488177"><ele>342.0</ele><time>2026-03-31T08:46:16.999Z</time></trkpt><trkpt lat="45.62470560448963" lon="8.296382294221738"><ele>342.0</ele><time>2026-03-31T08:46:17.999Z</time></trkpt><trkpt lat="45.62462573469705" lon="8.296462228629169"><ele>342.0</ele><time>2026-03-31T08:46:18.999Z</time></trkpt><trkpt lat="45.62455952667357" lon="8.296575222960401"><ele>342.0</ele><time>2026-03-31T08:46:19.999Z</time></trkpt><trkpt lat="45.62449111459971" lon="8.296701218126403"><ele>342.0</ele><time>2026-03-31T08:46:20.999Z</time></trkpt><trkpt lat="45.62439437890658" lon="8.296752193914912"><ele>341.0</ele><time>2026-03-31T08:46:21.999Z</time></trkpt><trkpt lat="45.624265402415155" lon="8.296775605993155"><ele>340.0</ele><time>2026-03-31T08:46:22.999Z</time></trkpt><trkpt lat="45.62413503857125" lon="8.29684851780283"><ele>339.0</ele><time>2026-03-31T08:46:23.999Z</time></trkpt><trkpt lat="45.6240398548564" lon="8.296946438681367"><ele>338.0</ele><time>2026-03-31T08:46:24.999Z</time></trkpt><trkpt lat="45.623972033408684" lon="8.297004384668833"><ele>338.0</ele><time>2026-03-31T08:46:25.999Z</time></trkpt><trkpt lat="45.62388174697573" lon="8.297087112523174"><ele>338.0</ele><time>2026-03-31T08:46:27.999Z</time></trkpt><trkpt lat="45.62385277112441" lon="8.296973683336061"><ele>338.0</ele><time>2026-03-31T08:46:31.999Z</time></trkpt><trkpt lat="45.62391762127904" lon="8.29683023892743"><ele>338.0</ele><time>2026-03-31T08:46:33.999Z</time></trkpt><trkpt lat="45.62397706147988" lon="8.29674389218059"><ele>338.0</ele><time>2026-03-31T08:46:34.999Z</time></trkpt><trkpt lat="45.6240564081544" lon="8.296642095607842"><ele>338.0</ele><time>2026-03-31T08:46:35.999Z</time></trkpt><trkpt lat="45.62415333350866" lon="8.296516975277585"><ele>338.0</ele><time>2026-03-31T08:46:36.999Z</time></trkpt><trkpt lat="45.62423976768706" lon="8.296394213006467"><ele>338.0</ele><time>2026-03-31T08:46:37.999Z</time></trkpt><trkpt lat="45.62430902879248" lon="8.29628133436961"><ele>338.0</ele><time>2026-03-31T08:46:38.999Z</time></trkpt><trkpt lat="45.62436746702228" lon="8.296182223787426"><ele>338.0</ele><time>2026-03-31T08:46:39.999Z</time></trkpt><trkpt lat="45.62441931700053" lon="8.296099511662103"><ele>338.6666666666667</ele><time>2026-03-31T08:46:40.999Z</time></trkpt><trkpt lat="45.624467853591085" lon="8.296026347435214"><ele>339.33333333333337</ele><time>2026-03-31T08:46:41.999Z</time></trkpt><trkpt lat="45.624519600694676" lon="8.295946101144503"><ele>340.0</ele><time>2026-03-31T08:46:42.999Z</time></trkpt><trkpt lat="45.624575702310395" lon="8.295855872756249"><ele>340.6666666666667</ele><time>2026-03-31T08:46:43.999Z</time></trkpt><trkpt lat="45.62461836000011" lon="8.2957615918318"><ele>341.3333333333333</ele><time>2026-03-31T08:46:45Z</time></trkpt><trkpt lat="45.624633743956466" lon="8.295672733168255"><ele>342.0</ele><time>2026-03-31T08:46:46Z</time></trkpt><trkpt lat="45.62458616820304" lon="8.2955724435616"><ele>343.3333333333333</ele><time>2026-03-31T08:46:49Z</time></trkpt><trkpt lat="45.62433600786111" lon="8.29527407860712"><ele>344.66666666666663</ele><time>2026-03-31T08:46:51Z</time></trkpt><trkpt lat="45.62426683071233" lon="8.29518206443537"><ele>346.0</ele><time>2026-03-31T08:46:52Z</time></trkpt><trkpt lat="45.62418542386748" lon="8.29510488138039"><ele>346.0</ele><time>2026-03-31T08:46:53Z</time></trkpt><trkpt lat="45.62412042135259" lon="8.295024172900037"><ele>346.0</ele><time>2026-03-31T08:46:54Z</time></trkpt><trkpt lat="45.624066320668824" lon="8.294941632723907"><ele>346.0</ele><time>2026-03-31T08:46:55Z</time></trkpt><trkpt lat="45.62401916991048" lon="8.294862211147079"><ele>346.0</ele><time>2026-03-31T08:46:56Z</time></trkpt><trkpt lat="45.62397625823036" lon="8.294781185164927"><ele>346.0</ele><time>2026-03-31T08:46:57Z</time></trkpt><trkpt lat="45.62394836594828" lon="8.294675078076311"><ele>346.0</ele><time>2026-03-31T08:46:58Z</time></trkpt><trkpt lat="45.62392956311115" lon="8.294555371690022"><ele>346.3333333333333</ele><time>2026-03-31T08:46:59Z</time></trkpt><trkpt lat="45.623927328493984" lon="8.294432303474867"><ele>346.66666666666663</ele><time>2026-03-31T08:47:00Z</time></trkpt><trkpt lat="45.623943019187884" lon="8.294313114269405"><ele>347.0</ele><time>2026-03-31T08:47:01Z</time></trkpt><trkpt lat="45.62396801995488" lon="8.29419438471024"><ele>347.3333333333333</ele><time>2026-03-31T08:47:02Z</time></trkpt><trkpt lat="45.62400636090831" lon="8.294082375028488"><ele>347.6666666666667</ele><time>2026-03-31T08:47:03Z</time></trkpt><trkpt lat="45.62406095639286" lon="8.293978136569448"><ele>348.0</ele><time>2026-03-31T08:47:04Z</time></trkpt><trkpt lat="45.624123391343886" lon="8.293870462448249"><ele>347.0</ele><time>2026-03-31T08:47:05Z</time></trkpt><trkpt lat="45.624180678373975" lon="8.293767957130543"><ele>346.0</ele><time>2026-03-31T08:47:06Z</time></trkpt><trkpt lat="45.624239629475085" lon="8.293666840056048"><ele>345.0</ele><time>2026-03-31T08:47:07Z</time></trkpt><trkpt lat="45.62430336169759" lon="8.293599895782576"><ele>344.0</ele><time>2026-03-31T08:47:08Z</time></trkpt><trkpt lat="45.624357086589875" lon="8.293524956084688"><ele>343.0</ele><time>2026-03-31T08:47:09Z</time></trkpt><trkpt lat="45.624406239820665" lon="8.293446809885284"><ele>342.0</ele><time>2026-03-31T08:47:10Z</time></trkpt><trkpt lat="45.624447285417716" lon="8.293361008553113"><ele>343.0</ele><time>2026-03-31T08:47:11Z</time></trkpt><trkpt lat="45.6244988901493" lon="8.29328238265251"><ele>344.0</ele><time>2026-03-31T08:47:12Z</time></trkpt><trkpt lat="45.624562727782866" lon="8.293202346112283"><ele>345.0</ele><time>2026-03-31T08:47:13Z</time></trkpt><trkpt lat="45.62463262658385" lon="8.293120507604039"><ele>346.0</ele><time>2026-03-31T08:47:14Z</time></trkpt><trkpt lat="45.62470800557596" lon="8.293039820606786"><ele>347.0</ele><time>2026-03-31T08:47:15Z</time></trkpt><trkpt lat="45.62478555832619" lon="8.292956271269496"><ele>348.0</ele><time>2026-03-31T08:47:16Z</time></trkpt><trkpt lat="45.62486965683553" lon="8.292878032023786"><ele>348.0</ele><time>2026-03-31T08:47:17Z</time></trkpt><trkpt lat="45.624963065255216" lon="8.292817707352558"><ele>348.0</ele><time>2026-03-31T08:47:18Z</time></trkpt><trkpt lat="45.625060548400256" lon="8.292767359310828"><ele>348.0</ele><time>2026-03-31T08:47:19Z</time></trkpt><trkpt lat="45.62514196097533" lon="8.292715006566276"><ele>348.0</ele><time>2026-03-31T08:47:20Z</time></trkpt><trkpt lat="45.62523204429081" lon="8.292665062448261"><ele>348.0</ele><time>2026-03-31T08:47:21Z</time></trkpt><trkpt lat="45.62530549592571" lon="8.29261650545927"><ele>348.4</ele><time>2026-03-31T08:47:22Z</time></trkpt><trkpt lat="45.625364321760934" lon="8.292567509301504"><ele>348.79999999999995</ele><time>2026-03-31T08:47:23Z</time></trkpt><trkpt lat="45.62539558160881" lon="8.292419077584457"><ele>349.2</ele><time>2026-03-31T08:47:25Z</time></trkpt><trkpt lat="45.62535086447232" lon="8.292276980322304"><ele>349.6</ele><time>2026-03-31T08:47:26Z</time></trkpt><trkpt lat="45.62531266813202" lon="8.292168316351038"><ele>350.0</ele><time>2026-03-31T08:47:27Z</time></trkpt><trkpt lat="45.62528259515888" lon="8.292061680702664"><ele>350.0</ele><time>2026-03-31T08:47:28Z</time></trkpt><trkpt lat="45.62525259615988" lon="8.291951976486578"><ele>350.0</ele><time>2026-03-31T08:47:29Z</time></trkpt><trkpt lat="45.62524231545066" lon="8.291825757189754"><ele>350.0</ele><time>2026-03-31T08:47:30Z</time></trkpt><trkpt lat="45.625231062536244" lon="8.291703647718187"><ele>350.0</ele><time>2026-03-31T08:47:31Z</time></trkpt><trkpt lat="45.62522892263069" lon="8.291585325119712"><ele>350.0</ele><time>2026-03-31T08:47:32Z</time></trkpt><trkpt lat="45.62523570813185" lon="8.291466683910445"><ele>350.0</ele><time>2026-03-31T08:47:33Z</time></trkpt><trkpt lat="45.62524603845184" lon="8.291344782814576"><ele>350.6666666666667</ele><time>2026-03-31T08:47:34Z</time></trkpt><trkpt lat="45.62526025245103" lon="8.291231042002499"><ele>351.33333333333337</ele><time>2026-03-31T08:47:34.999Z</time></trkpt><trkpt lat="45.625271307658984" lon="8.29111208277483"><ele>352.0</ele><time>2026-03-31T08:47:35.999Z</time></trkpt><trkpt lat="45.625275662023626" lon="8.290992937669198"><ele>352.6666666666667</ele><time>2026-03-31T08:47:36.999Z</time></trkpt><trkpt lat="45.625261698641935" lon="8.29087870254523"><ele>353.3333333333333</ele><time>2026-03-31T08:47:37.999Z</time></trkpt><trkpt lat="45.62522462664496" lon="8.290777623698148"><ele>354.0</ele><time>2026-03-31T08:47:38.999Z</time></trkpt><trkpt lat="45.62516536868617" lon="8.290693919330428"><ele>354.0</ele><time>2026-03-31T08:47:39.999Z</time></trkpt><trkpt lat="45.625090911415356" lon="8.290615199197635"><ele>354.0</ele><time>2026-03-31T08:47:40.999Z</time></trkpt><trkpt lat="45.625015921154784" lon="8.290539961747955"><ele>354.0</ele><time>2026-03-31T08:47:41.999Z</time></trkpt><trkpt lat="45.624942534648504" lon="8.290465000065028"><ele>354.0</ele><time>2026-03-31T08:47:42.999Z</time></trkpt><trkpt lat="45.624860365008026" lon="8.290388665153953"><ele>354.0</ele><time>2026-03-31T08:47:43.999Z</time></trkpt><trkpt lat="45.62478346715647" lon="8.290302456125136"><ele>353.0</ele><time>2026-03-31T08:47:44.999Z</time></trkpt><trkpt lat="45.62470734411188" lon="8.290207746933387"><ele>352.0</ele><time>2026-03-31T08:47:45.999Z</time></trkpt><trkpt lat="45.624619810707294" lon="8.290141296496028"><ele>351.0</ele><time>2026-03-31T08:47:46.999Z</time></trkpt><trkpt lat="45.62454046755182" lon="8.290077737583772"><ele>350.0</ele><time>2026-03-31T08:47:47.999Z</time></trkpt><trkpt lat="45.624428845192355" lon="8.290016594379875"><ele>349.0</ele><time>2026-03-31T08:47:48.999Z</time></trkpt><trkpt lat="45.62432726837229" lon="8.289975471718623"><ele>349.0</ele><time>2026-03-31T08:47:49.999Z</time></trkpt><trkpt lat="45.62424069115682" lon="8.289938830375496"><ele>349.0</ele><time>2026-03-31T08:47:50.999Z</time></trkpt><trkpt lat="45.62415416623381" lon="8.289919926533305"><ele>349.0</ele><time>2026-03-31T08:47:51.999Z</time></trkpt><trkpt lat="45.624074823794395" lon="8.289951672861283"><ele>349.0</ele><time>2026-03-31T08:47:52.999Z</time></trkpt><trkpt lat="45.623984455792495" lon="8.290031014683352"><ele>349.0</ele><time>2026-03-31T08:47:53.999Z</time></trkpt><trkpt lat="45.62389774264157" lon="8.290122340340469"><ele>349.0</ele><time>2026-03-31T08:47:54.999Z</time></trkpt><trkpt lat="45.62379704958978" lon="8.29013173460186"><ele>349.0</ele><time>2026-03-31T08:47:55.999Z</time></trkpt><trkpt lat="45.623696891348516" lon="8.290142637365042"><ele>349.0</ele><time>2026-03-31T08:47:56.999Z</time></trkpt><trkpt lat="45.62359360489233" lon="8.290159078724646"><ele>349.0</ele><time>2026-03-31T08:47:57.999Z</time></trkpt><trkpt lat="45.62348648874467" lon="8.290196626463963"><ele>349.0</ele><time>2026-03-31T08:47:58.999Z</time></trkpt><trkpt lat="45.6233757815255" lon="8.290211112312582"><ele>349.0</ele><time>2026-03-31T08:47:59.999Z</time></trkpt><trkpt lat="45.62327107158791" lon="8.290250049013636"><ele>349.0</ele><time>2026-03-31T08:48:00.999Z</time></trkpt><trkpt lat="45.62316967767431" lon="8.290305563912296"><ele>349.0</ele><time>2026-03-31T08:48:01.999Z</time></trkpt><trkpt lat="45.62306608772558" lon="8.290368912924349"><ele>349.0</ele><time>2026-03-31T08:48:02.999Z</time></trkpt><trkpt lat="45.622962370409766" lon="8.290424944764602"><ele>349.0</ele><time>2026-03-31T08:48:03.999Z</time></trkpt><trkpt lat="45.622858627128295" lon="8.290461652448222"><ele>349.75</ele><time>2026-03-31T08:48:04.999Z</time></trkpt><trkpt lat="45.62276087555278" lon="8.290458756695353"><ele>350.5</ele><time>2026-03-31T08:48:05.999Z</time></trkpt><trkpt lat="45.62264746865423" lon="8.290450800483992"><ele>351.25</ele><time>2026-03-31T08:48:06.999Z</time></trkpt><trkpt lat="45.622528087421856" lon="8.290440578208127"><ele>352.0</ele><time>2026-03-31T08:48:07.999Z</time></trkpt><trkpt lat="45.62240762161493" lon="8.290426892108815"><ele>352.0</ele><time>2026-03-31T08:48:08.999Z</time></trkpt><trkpt lat="45.62228974510696" lon="8.290413500179298"><ele>352.0</ele><time>2026-03-31T08:48:09.999Z</time></trkpt><trkpt lat="45.62217143008567" lon="8.290401296290298"><ele>352.0</ele><time>2026-03-31T08:48:10.999Z</time></trkpt><trkpt lat="45.62204764588021" lon="8.2904042151116"><ele>352.0</ele><time>2026-03-31T08:48:11.999Z</time></trkpt><trkpt lat="45.62192213599519" lon="8.290434973975323"><ele>351.25</ele><time>2026-03-31T08:48:12.999Z</time></trkpt><trkpt lat="45.6217970704779" lon="8.29049412651404"><ele>350.5</ele><time>2026-03-31T08:48:13.999Z</time></trkpt><trkpt lat="45.621668590400844" lon="8.290509132747756"><ele>349.75</ele><time>2026-03-31T08:48:14.999Z</time></trkpt><trkpt lat="45.62154291320135" lon="8.290547698090965"><ele>349.0</ele><time>2026-03-31T08:48:15.999Z</time></trkpt><trkpt lat="45.62141842796418" lon="8.290585897668663"><ele>349.5</ele><time>2026-03-31T08:48:16.999Z</time></trkpt><trkpt lat="45.621308874182695" lon="8.290650516591723"><ele>350.0</ele><time>2026-03-31T08:48:17.999Z</time></trkpt><trkpt lat="45.62119104940626" lon="8.290692379416628"><ele>350.5</ele><time>2026-03-31T08:48:18.999Z</time></trkpt><trkpt lat="45.621084699620795" lon="8.290776484236128"><ele>351.0</ele><time>2026-03-31T08:48:19.999Z</time></trkpt><trkpt lat="45.620989805922044" lon="8.290904830929698"><ele>351.0</ele><time>2026-03-31T08:48:20.999Z</time></trkpt><trkpt lat="45.62088376010245" lon="8.291012489093982"><ele>351.0</ele><time>2026-03-31T08:48:21.999Z</time></trkpt><trkpt lat="45.620812822175914" lon="8.29115380137444"><ele>351.0</ele><time>2026-03-31T08:48:22.999Z</time></trkpt><trkpt lat="45.62071626223421" lon="8.291251844783025"><ele>351.0</ele><time>2026-03-31T08:48:23.999Z</time></trkpt><trkpt lat="45.62062119903425" lon="8.291364256617262"><ele>350.75</ele><time>2026-03-31T08:48:24.999Z</time></trkpt><trkpt lat="45.620523398155754" lon="8.291466790769558"><ele>350.5</ele><time>2026-03-31T08:48:25.999Z</time></trkpt><trkpt lat="45.62042333230457" lon="8.291568047459744"><ele>350.25</ele><time>2026-03-31T08:48:26.999Z</time></trkpt><trkpt lat="45.620317756320794" lon="8.291673726303436"><ele>350.0</ele><time>2026-03-31T08:48:27.999Z</time></trkpt><trkpt lat="45.620218020267636" lon="8.291773559520777"><ele>350.4</ele><time>2026-03-31T08:48:28.999Z</time></trkpt><trkpt lat="45.62012270440921" lon="8.291868968245995"><ele>350.8</ele><time>2026-03-31T08:48:29.999Z</time></trkpt><trkpt lat="45.620031585788006" lon="8.29196017563768"><ele>351.20000000000005</ele><time>2026-03-31T08:48:30.999Z</time></trkpt><trkpt lat="45.61994301469103" lon="8.292049322134824"><ele>351.6</ele><time>2026-03-31T08:48:31.999Z</time></trkpt><trkpt lat="45.619863997113114" lon="8.2921298997907"><ele>352.0</ele><time>2026-03-31T08:48:32.999Z</time></trkpt><trkpt lat="45.61978753590377" lon="8.292190563444263"><ele>352.0</ele><time>2026-03-31T08:48:33.999Z</time></trkpt><trkpt lat="45.61969801313698" lon="8.292229010859518"><ele>352.0</ele><time>2026-03-31T08:48:34.999Z</time></trkpt><trkpt lat="45.619598023576636" lon="8.292229770425338"><ele>352.0</ele><time>2026-03-31T08:48:35.999Z</time></trkpt><trkpt lat="45.61949878732529" lon="8.292193969910596"><ele>352.0</ele><time>2026-03-31T08:48:36.999Z</time></trkpt><trkpt lat="45.619405303358306" lon="8.292129209622077"><ele>352.0</ele><time>2026-03-31T08:48:37.999Z</time></trkpt><trkpt lat="45.61933045926652" lon="8.292028488569722"><ele>351.0</ele><time>2026-03-31T08:48:38.999Z</time></trkpt><trkpt lat="45.61925794504893" lon="8.291913936140148"><ele>350.0</ele><time>2026-03-31T08:48:39.999Z</time></trkpt><trkpt lat="45.61918855886002" lon="8.291796186494999"><ele>349.0</ele><time>2026-03-31T08:48:40.999Z</time></trkpt><trkpt lat="45.61912023745086" lon="8.291674803553532"><ele>348.0</ele><time>2026-03-31T08:48:41.999Z</time></trkpt><trkpt lat="45.61905052512089" lon="8.291552351916058"><ele>347.0</ele><time>2026-03-31T08:48:42.999Z</time></trkpt><trkpt lat="45.61897903837044" lon="8.29143212339774"><ele>346.0</ele><time>2026-03-31T08:48:43.999Z</time></trkpt><trkpt lat="45.6188916999976" lon="8.291328773571244"><ele>345.0</ele><time>2026-03-31T08:48:44.999Z</time></trkpt><trkpt lat="45.61879414753268" lon="8.291247976208856"><ele>344.0</ele><time>2026-03-31T08:48:45.999Z</time></trkpt><trkpt lat="45.61869053898783" lon="8.291183816565121"><ele>343.0</ele><time>2026-03-31T08:48:46.999Z</time></trkpt><trkpt lat="45.618589020428466" lon="8.291122221622794"><ele>342.0</ele><time>2026-03-31T08:48:47.999Z</time></trkpt><trkpt lat="45.61850000771951" lon="8.291045707933465"><ele>341.25</ele><time>2026-03-31T08:48:48.999Z</time></trkpt><trkpt lat="45.61840884449945" lon="8.29094726817745"><ele>340.5</ele><time>2026-03-31T08:48:49.999Z</time></trkpt><trkpt lat="45.6183293508337" lon="8.290855675564341"><ele>339.75</ele><time>2026-03-31T08:48:51Z</time></trkpt><trkpt lat="45.618253607707324" lon="8.29078799540481"><ele>339.0</ele><time>2026-03-31T08:48:52Z</time></trkpt><trkpt lat="45.61792208105101" lon="8.29133009376894"><ele>338.6666666666667</ele><time>2026-03-31T08:48:54Z</time></trkpt><trkpt lat="45.61783701173552" lon="8.291574307059618"><ele>338.33333333333337</ele><time>2026-03-31T08:48:55Z</time></trkpt><trkpt lat="45.6177552810591" lon="8.291768479510619"><ele>338.0</ele><time>2026-03-31T08:48:56Z</time></trkpt><trkpt lat="45.617622578149316" lon="8.291902322789355"><ele>337.79999999999995</ele><time>2026-03-31T08:48:57Z</time></trkpt><trkpt lat="45.617501590841336" lon="8.291988297726283"><ele>337.6</ele><time>2026-03-31T08:48:58Z</time></trkpt><trkpt lat="45.61739949241843" lon="8.292024659759385"><ele>337.4</ele><time>2026-03-31T08:48:59Z</time></trkpt><trkpt lat="45.617297343866454" lon="8.292009056412429"><ele>337.20000000000005</ele><time>2026-03-31T08:49:00Z</time></trkpt><trkpt lat="45.61720143956453" lon="8.291994404453547"><ele>337.0</ele><time>2026-03-31T08:49:01Z</time></trkpt><trkpt lat="45.61711929807782" lon="8.292094346356475"><ele>337.3333333333333</ele><time>2026-03-31T08:49:03Z</time></trkpt><trkpt lat="45.61706708259691" lon="8.292259416115314"><ele>337.6666666666667</ele><time>2026-03-31T08:49:04Z</time></trkpt><trkpt lat="45.61697249042531" lon="8.292491817007274"><ele>338.0</ele><time>2026-03-31T08:49:05Z</time></trkpt><trkpt lat="45.616844744103275" lon="8.292720736492614"><ele>337.25</ele><time>2026-03-31T08:49:06Z</time></trkpt><trkpt lat="45.61673121456992" lon="8.292957709134692"><ele>336.5</ele><time>2026-03-31T08:49:07Z</time></trkpt><trkpt lat="45.61667531844955" lon="8.293113693634067"><ele>335.75</ele><time>2026-03-31T08:49:08Z</time></trkpt><trkpt lat="45.616661535560205" lon="8.29320727781652"><ele>335.0</ele><time>2026-03-31T08:49:09Z</time></trkpt><trkpt lat="45.61668260893004" lon="8.293332150700799"><ele>335.0</ele><time>2026-03-31T08:49:10Z</time></trkpt><trkpt lat="45.61668899679971" lon="8.293528277440085"><ele>335.0</ele><time>2026-03-31T08:49:11Z</time></trkpt><trkpt lat="45.616666116628245" lon="8.29373292383549"><ele>335.0</ele><time>2026-03-31T08:49:12Z</time></trkpt><trkpt lat="45.61663130047207" lon="8.293917681208606"><ele>335.0</ele><time>2026-03-31T08:49:13Z</time></trkpt><trkpt lat="45.61664761773963" lon="8.294174459746968"><ele>335.0</ele><time>2026-03-31T08:49:14Z</time></trkpt><trkpt lat="45.616671840519416" lon="8.294413427121842"><ele>335.0</ele><time>2026-03-31T08:49:15Z</time></trkpt><trkpt lat="45.61668752682594" lon="8.294674863614267"><ele>335.0</ele><time>2026-03-31T08:49:16Z</time></trkpt><trkpt lat="45.61669730614797" lon="8.294903777077707"><ele>335.0</ele><time>2026-03-31T08:49:17Z</time></trkpt><trkpt lat="45.6167089461359" lon="8.295109333825986"><ele>335.0</ele><time>2026-03-31T08:49:18Z</time></trkpt><trkpt lat="45.61671035684599" lon="8.295299023778966"><ele>335.0</ele><time>2026-03-31T08:49:19Z</time></trkpt><trkpt lat="45.61666080701274" lon="8.29551042808101"><ele>335.0</ele><time>2026-03-31T08:49:20Z</time></trkpt><trkpt lat="45.61656903539953" lon="8.295791851494016"><ele>334.6666666666667</ele><time>2026-03-31T08:49:21Z</time></trkpt><trkpt lat="45.61648528154066" lon="8.296049262582477"><ele>334.3333333333333</ele><time>2026-03-31T08:49:22Z</time></trkpt><trkpt lat="45.616402860742085" lon="8.296261022244204"><ele>334.0</ele><time>2026-03-31T08:49:22.999Z</time></trkpt><trkpt lat="45.61630253652118" lon="8.296463489295576"><ele>335.0</ele><time>2026-03-31T08:49:23.999Z</time></trkpt><trkpt lat="45.61621785466523" lon="8.29668452405327"><ele>336.0</ele><time>2026-03-31T08:49:24.999Z</time></trkpt><trkpt lat="45.61612577381689" lon="8.296913875289553"><ele>337.0</ele><time>2026-03-31T08:49:25.999Z</time></trkpt><trkpt lat="45.61603677853788" lon="8.297125228830016"><ele>335.25</ele><time>2026-03-31T08:49:26.999Z</time></trkpt><trkpt lat="45.61598556477481" lon="8.297315293925028"><ele>333.5</ele><time>2026-03-31T08:49:27.999Z</time></trkpt><trkpt lat="45.61592829474429" lon="8.297483268238322"><ele>331.75</ele><time>2026-03-31T08:49:28.999Z</time></trkpt><trkpt lat="45.615845725399" lon="8.297680085088503"><ele>330.0</ele><time>2026-03-31T08:49:29.999Z</time></trkpt><trkpt lat="45.615762859468134" lon="8.297852887542346"><ele>330.0</ele><time>2026-03-31T08:49:30.999Z</time></trkpt><trkpt lat="45.61569919435998" lon="8.298027913602766"><ele>330.0</ele><time>2026-03-31T08:49:31.999Z</time></trkpt><trkpt lat="45.61563202299372" lon="8.298208285170068"><ele>330.0</ele><time>2026-03-31T08:49:32.999Z</time></trkpt><trkpt lat="45.61551407509891" lon="8.29839207417043"><ele>328.3333333333333</ele><time>2026-03-31T08:49:33.999Z</time></trkpt><trkpt lat="45.61536412465174" lon="8.2986370444286"><ele>326.66666666666663</ele><time>2026-03-31T08:49:34.999Z</time></trkpt><trkpt lat="45.615297313007495" lon="8.298823309668098"><ele>325.0</ele><time>2026-03-31T08:49:35.999Z</time></trkpt><trkpt lat="45.61522185927035" lon="8.29904905078953"><ele>325.0</ele><time>2026-03-31T08:49:36.999Z</time></trkpt><trkpt lat="45.61517759074318" lon="8.299236794518709"><ele>325.0</ele><time>2026-03-31T08:49:37.999Z</time></trkpt><trkpt lat="45.615151900858585" lon="8.299350423783169"><ele>325.0</ele><time>2026-03-31T08:49:38.999Z</time></trkpt><trkpt lat="45.61503655575847" lon="8.299458193417626"><ele>325.0</ele><time>2026-03-31T08:49:40.999Z</time></trkpt><trkpt lat="45.6149020363461" lon="8.299514162691915"><ele>325.0</ele><time>2026-03-31T08:49:41.999Z</time></trkpt><trkpt lat="45.6147153090755" lon="8.299588899316817"><ele>325.0</ele><time>2026-03-31T08:49:42.999Z</time></trkpt><trkpt lat="45.614506856885384" lon="8.299716908290236"><ele>325.0</ele><time>2026-03-31T08:49:43.999Z</time></trkpt><trkpt lat="45.61433729214873" lon="8.299835561360457"><ele>324.5</ele><time>2026-03-31T08:49:44.999Z</time></trkpt><trkpt lat="45.614212054733514" lon="8.299928988685586"><ele>324.0</ele><time>2026-03-31T08:49:45.999Z</time></trkpt><trkpt lat="45.61410664411125" lon="8.300013367788095"><ele>323.5</ele><time>2026-03-31T08:49:46.999Z</time></trkpt><trkpt lat="45.61398509458361" lon="8.300166117168754"><ele>323.0</ele><time>2026-03-31T08:49:47.999Z</time></trkpt><trkpt lat="45.61387231492348" lon="8.300300206116477"><ele>323.0</ele><time>2026-03-31T08:49:48.999Z</time></trkpt><trkpt lat="45.61374244276989" lon="8.300407571408291"><ele>323.0</ele><time>2026-03-31T08:49:49.999Z</time></trkpt><trkpt lat="45.613646826702144" lon="8.300459114746246"><ele>323.0</ele><time>2026-03-31T08:49:50.999Z</time></trkpt><trkpt lat="45.613569317386656" lon="8.300562455977968"><ele>323.0</ele><time>2026-03-31T08:49:51.999Z</time></trkpt><trkpt lat="45.613486413312756" lon="8.300685809695846"><ele>322.6666666666667</ele><time>2026-03-31T08:49:52.999Z</time></trkpt><trkpt lat="45.613430845253625" lon="8.30073836866249"><ele>322.33333333333337</ele><time>2026-03-31T08:49:54.999Z</time></trkpt><trkpt lat="45.61336062325847" lon="8.300811858135175"><ele>322.0</ele><time>2026-03-31T08:49:58.999Z</time></trkpt><trkpt lat="45.61330180108812" lon="8.30090615563387"><ele>321.6666666666667</ele><time>2026-03-31T08:50:33.999Z</time></trkpt><trkpt lat="45.61323710343364" lon="8.301040837724658"><ele>321.3333333333333</ele><time>2026-03-31T08:50:35.999Z</time></trkpt><trkpt lat="45.61319235671381" lon="8.301151340336427"><ele>321.0</ele><time>2026-03-31T08:50:36.999Z</time></trkpt><trkpt lat="45.613155343100935" lon="8.301267956208958"><ele>321.0</ele><time>2026-03-31T08:50:37.999Z</time></trkpt><trkpt lat="45.61311943464851" lon="8.301375283755553"><ele>321.0</ele><time>2026-03-31T08:50:38.999Z</time></trkpt><trkpt lat="45.6130801252225" lon="8.301484946270769"><ele>321.0</ele><time>2026-03-31T08:50:39.999Z</time></trkpt><trkpt lat="45.61303343485301" lon="8.301590420152671"><ele>321.0</ele><time>2026-03-31T08:50:40.999Z</time></trkpt><trkpt lat="45.612969278020735" lon="8.301680712416841"><ele>321.0</ele><time>2026-03-31T08:50:41.999Z</time></trkpt><trkpt lat="45.61289158911504" lon="8.301754503952676"><ele>321.0</ele><time>2026-03-31T08:50:42.999Z</time></trkpt><trkpt lat="45.61279993438449" lon="8.301794823875126"><ele>321.4</ele><time>2026-03-31T08:50:43.999Z</time></trkpt><trkpt lat="45.61270423352545" lon="8.301812141480404"><ele>321.8</ele><time>2026-03-31T08:50:44.999Z</time></trkpt><trkpt lat="45.61260152380689" lon="8.30183027241883"><ele>322.2</ele><time>2026-03-31T08:50:45.999Z</time></trkpt><trkpt lat="45.612488717060096" lon="8.30186208367718"><ele>322.59999999999997</ele><time>2026-03-31T08:50:46.999Z</time></trkpt><trkpt lat="45.61238456921538" lon="8.30189480971008"><ele>323.0</ele><time>2026-03-31T08:50:47.999Z</time></trkpt><trkpt lat="45.61228041220222" lon="8.301955174440412"><ele>323.0</ele><time>2026-03-31T08:50:48.999Z</time></trkpt><trkpt lat="45.612175271828065" lon="8.302007152899042"><ele>323.0</ele><time>2026-03-31T08:50:49.999Z</time></trkpt><trkpt lat="45.6120754353814" lon="8.302053283926211"><ele>323.0</ele><time>2026-03-31T08:50:50.999Z</time></trkpt><trkpt lat="45.61197881004065" lon="8.302075894357621"><ele>323.0</ele><time>2026-03-31T08:50:51.999Z</time></trkpt><trkpt lat="45.611870597918575" lon="8.302105737358312"><ele>323.0</ele><time>2026-03-31T08:50:52.998Z</time></trkpt><trkpt lat="45.611766899943106" lon="8.30210261578665"><ele>322.4</ele><time>2026-03-31T08:50:53.998Z</time></trkpt><trkpt lat="45.61166233494645" lon="8.302096490808152"><ele>321.79999999999995</ele><time>2026-03-31T08:50:54.998Z</time></trkpt><trkpt lat="45.61155501911471" lon="8.302091974454699"><ele>321.2</ele><time>2026-03-31T08:50:55.998Z</time></trkpt><trkpt lat="45.61144821621963" lon="8.302088336643683"><ele>320.6</ele><time>2026-03-31T08:50:57Z</time></trkpt><trkpt lat="45.61133298632589" lon="8.30211508209915"><ele>320.0</ele><time>2026-03-31T08:50:58Z</time></trkpt><trkpt lat="45.61122617001452" lon="8.302148066852558"><ele>319.5</ele><time>2026-03-31T08:50:59Z</time></trkpt><trkpt lat="45.61111355910235" lon="8.30219018117195"><ele>319.0</ele><time>2026-03-31T08:51:00Z</time></trkpt><trkpt lat="45.610993247773344" lon="8.302234406294806"><ele>318.5</ele><time>2026-03-31T08:51:01Z</time></trkpt><trkpt lat="45.61088250124826" lon="8.302268519704482"><ele>318.0</ele><time>2026-03-31T08:51:02Z</time></trkpt><trkpt lat="45.61077602895572" lon="8.302294841576156"><ele>318.0</ele><time>2026-03-31T08:51:03Z</time></trkpt><trkpt lat="45.61068147441273" lon="8.302322551084552"><ele>318.0</ele><time>2026-03-31T08:51:04Z</time></trkpt><trkpt lat="45.610588291021166" lon="8.30235067089381"><ele>318.0</ele><time>2026-03-31T08:51:05Z</time></trkpt><trkpt lat="45.610502499027206" lon="8.302383731455192"><ele>318.0</ele><time>2026-03-31T08:51:06Z</time></trkpt><trkpt lat="45.61041335778333" lon="8.3024209519289"><ele>318.0</ele><time>2026-03-31T08:51:07Z</time></trkpt><trkpt lat="45.61030005649753" lon="8.30246761177342"><ele>317.6</ele><time>2026-03-31T08:51:08Z</time></trkpt><trkpt lat="45.61019096238189" lon="8.302439716128417"><ele>317.20000000000005</ele><time>2026-03-31T08:51:09Z</time></trkpt><trkpt lat="45.61009615745414" lon="8.302419000880388"><ele>316.8</ele><time>2026-03-31T08:51:10Z</time></trkpt><trkpt lat="45.60999348775066" lon="8.302397230762624"><ele>316.40000000000003</ele><time>2026-03-31T08:51:11Z</time></trkpt><trkpt lat="45.6098925928444" lon="8.302374224569164"><ele>316.0</ele><time>2026-03-31T08:51:12Z</time></trkpt><trkpt lat="45.6098041467351" lon="8.302354622839593"><ele>316.0</ele><time>2026-03-31T08:51:13Z</time></trkpt><trkpt lat="45.60972592657957" lon="8.302338188727813"><ele>316.0</ele><time>2026-03-31T08:51:14Z</time></trkpt><trkpt lat="45.609632487816604" lon="8.302294584005796"><ele>316.0</ele><time>2026-03-31T08:51:16Z</time></trkpt><trkpt lat="45.60968006441291" lon="8.302129957022869"><ele>316.0</ele><time>2026-03-31T08:51:17Z</time></trkpt><trkpt lat="45.60969829818094" lon="8.301963223832901"><ele>316.0</ele><time>2026-03-31T08:51:18Z</time></trkpt><trkpt lat="45.609705571963225" lon="8.301793008007163"><ele>316.0</ele><time>2026-03-31T08:51:19Z</time></trkpt><trkpt lat="45.60972702150872" lon="8.301646164823474"><ele>316.0</ele><time>2026-03-31T08:51:20Z</time></trkpt><trkpt lat="45.609738823397585" lon="8.30151611640639"><ele>316.0</ele><time>2026-03-31T08:51:21Z</time></trkpt><trkpt lat="45.60973751209684" lon="8.301406788099161"><ele>316.0</ele><time>2026-03-31T08:51:22Z</time></trkpt><trkpt lat="45.6096924522411" lon="8.301309692878345"><ele>316.0</ele><time>2026-03-31T08:51:23Z</time></trkpt><trkpt lat="45.609604523546814" lon="8.301238303438646"><ele>315.8</ele><time>2026-03-31T08:51:24Z</time></trkpt><trkpt lat="45.609488298246966" lon="8.301158174972596"><ele>315.6</ele><time>2026-03-31T08:51:25Z</time></trkpt><trkpt lat="45.609380929667616" lon="8.301057009098622"><ele>315.4</ele><time>2026-03-31T08:51:26Z</time></trkpt><trkpt lat="45.60929445528225" lon="8.30098469234771"><ele>315.2</ele><time>2026-03-31T08:51:27Z</time></trkpt><trkpt lat="45.60923836127934" lon="8.30089839111033"><ele>315.0</ele><time>2026-03-31T08:51:28Z</time></trkpt><trkpt lat="45.60917788015604" lon="8.3008394435376"><ele>315.0</ele><time>2026-03-31T08:51:29Z</time></trkpt><trkpt lat="45.60919170824039" lon="8.300665788909564"><ele>315.0</ele><time>2026-03-31T08:51:30Z</time></trkpt><trkpt lat="45.60915049190001" lon="8.300552505294915"><ele>315.0</ele><time>2026-03-31T08:51:31Z</time></trkpt><trkpt lat="45.60910250548438" lon="8.30048008654"><ele>315.0</ele><time>2026-03-31T08:51:32Z</time></trkpt><trkpt lat="45.609068989742525" lon="8.300399593919877"><ele>315.0</ele><time>2026-03-31T08:51:33Z</time></trkpt><trkpt lat="45.60907059124683" lon="8.30030269735047"><ele>315.0</ele><time>2026-03-31T08:51:34Z</time></trkpt><trkpt lat="45.60910728356739" lon="8.300173228201173"><ele>314.8</ele><time>2026-03-31T08:51:35Z</time></trkpt><trkpt lat="45.609180859040634" lon="8.300042401579402"><ele>314.6</ele><time>2026-03-31T08:51:36Z</time></trkpt><trkpt lat="45.609267478005734" lon="8.299928037047781"><ele>314.4</ele><time>2026-03-31T08:51:37Z</time></trkpt><trkpt lat="45.60932262491525" lon="8.299806567568154"><ele>314.2</ele><time>2026-03-31T08:51:38Z</time></trkpt><trkpt lat="45.60933777575385" lon="8.299659934503644"><ele>314.0</ele><time>2026-03-31T08:51:39Z</time></trkpt><trkpt lat="45.609318006844994" lon="8.299509075370299"><ele>312.8</ele><time>2026-03-31T08:51:40Z</time></trkpt><trkpt lat="45.609288720179364" lon="8.29937250475156"><ele>311.59999999999997</ele><time>2026-03-31T08:51:41Z</time></trkpt><trkpt lat="45.60924366120863" lon="8.299253956237365"><ele>310.4</ele><time>2026-03-31T08:51:42Z</time></trkpt><trkpt lat="45.60916675847246" lon="8.299171615672343"><ele>309.2</ele><time>2026-03-31T08:51:43Z</time></trkpt><trkpt lat="45.60905694923099" lon="8.299115638753246"><ele>308.0</ele><time>2026-03-31T08:51:44Z</time></trkpt><trkpt lat="45.60895140891339" lon="8.299061025768207"><ele>308.0</ele><time>2026-03-31T08:51:45Z</time></trkpt><trkpt lat="45.60885038042795" lon="8.298989379546953"><ele>308.0</ele><time>2026-03-31T08:51:46Z</time></trkpt><trkpt lat="45.60874241999002" lon="8.298919250309881"><ele>308.0</ele><time>2026-03-31T08:51:47Z</time></trkpt><trkpt lat="45.608639866939086" lon="8.298849319309014"><ele>308.0</ele><time>2026-03-31T08:51:48Z</time></trkpt><trkpt lat="45.60854121806509" lon="8.298777933142535"><ele>307.0</ele><time>2026-03-31T08:51:49Z</time></trkpt><trkpt lat="45.60844821034283" lon="8.298699054728784"><ele>306.0</ele><time>2026-03-31T08:51:50Z</time></trkpt><trkpt lat="45.60836704129726" lon="8.298594165004335"><ele>305.0</ele><time>2026-03-31T08:51:51Z</time></trkpt><trkpt lat="45.60829845548252" lon="8.298471856905772"><ele>304.0</ele><time>2026-03-31T08:51:52Z</time></trkpt><trkpt lat="45.60824438623698" lon="8.298338141709815"><ele>303.0</ele><time>2026-03-31T08:51:53Z</time></trkpt><trkpt lat="45.60821040974093" lon="8.298194354822092"><ele>301.8</ele><time>2026-03-31T08:51:54Z</time></trkpt><trkpt lat="45.608181610769236" lon="8.29805482289066"><ele>300.6</ele><time>2026-03-31T08:51:55Z</time></trkpt><trkpt lat="45.608155398670625" lon="8.297912005941557"><ele>299.4</ele><time>2026-03-31T08:51:56Z</time></trkpt><trkpt lat="45.60811540959807" lon="8.297775346327178"><ele>298.2</ele><time>2026-03-31T08:51:57Z</time></trkpt><trkpt lat="45.60809948639181" lon="8.297634353313653"><ele>297.0</ele><time>2026-03-31T08:51:58Z</time></trkpt><trkpt lat="45.60809252039032" lon="8.297490887812838"><ele>297.0</ele><time>2026-03-31T08:51:59Z</time></trkpt><trkpt lat="45.60810564943868" lon="8.29733354397442"><ele>297.0</ele><time>2026-03-31T08:52:00Z</time></trkpt><trkpt lat="45.608156948755024" lon="8.297157933100376"><ele>297.0</ele><time>2026-03-31T08:52:01Z</time></trkpt><trkpt lat="45.608222438430744" lon="8.297005977691649"><ele>297.0</ele><time>2026-03-31T08:52:02Z</time></trkpt><trkpt lat="45.608284681131856" lon="8.296868363308441"><ele>295.2</ele><time>2026-03-31T08:52:03Z</time></trkpt><trkpt lat="45.60833809833747" lon="8.296733713998409"><ele>293.4</ele><time>2026-03-31T08:52:03.999Z</time></trkpt><trkpt lat="45.60838440191916" lon="8.296593586134035"><ele>291.6</ele><time>2026-03-31T08:52:04.999Z</time></trkpt><trkpt lat="45.60842293363142" lon="8.296447729828385"><ele>289.8</ele><time>2026-03-31T08:52:05.999Z</time></trkpt><trkpt lat="45.608450079026426" lon="8.296295978931504"><ele>288.0</ele><time>2026-03-31T08:52:06.999Z</time></trkpt><trkpt lat="45.60846087762143" lon="8.29613835414314"><ele>287.75</ele><time>2026-03-31T08:52:07.999Z</time></trkpt><trkpt lat="45.60846037154058" lon="8.295986633504981"><ele>287.5</ele><time>2026-03-31T08:52:08.999Z</time></trkpt><trkpt lat="45.60843674913213" lon="8.295836344981339"><ele>287.25</ele><time>2026-03-31T08:52:09.999Z</time></trkpt><trkpt lat="45.60836786774645" lon="8.29568326358242"><ele>287.0</ele><time>2026-03-31T08:52:10.999Z</time></trkpt><trkpt lat="45.608266193827106" lon="8.295508869676755"><ele>287.0</ele><time>2026-03-31T08:52:11.999Z</time></trkpt><trkpt lat="45.60815148419652" lon="8.295295144157226"><ele>287.0</ele><time>2026-03-31T08:52:12.999Z</time></trkpt><trkpt lat="45.60802129611531" lon="8.295023104746587"><ele>287.0</ele><time>2026-03-31T08:52:13.999Z</time></trkpt><trkpt lat="45.60788014024349" lon="8.294754457305823"><ele>286.0</ele><time>2026-03-31T08:52:14.999Z</time></trkpt><trkpt lat="45.607744131183246" lon="8.29446721904121"><ele>285.0</ele><time>2026-03-31T08:52:15.999Z</time></trkpt><trkpt lat="45.60763677639609" lon="8.294212485290936"><ele>285.0</ele><time>2026-03-31T08:52:16.999Z</time></trkpt><trkpt lat="45.60754361576546" lon="8.293978684059365"><ele>285.0</ele><time>2026-03-31T08:52:17.999Z</time></trkpt><trkpt lat="45.60745815658582" lon="8.293761108255824"><ele>285.0</ele><time>2026-03-31T08:52:18.999Z</time></trkpt><trkpt lat="45.607382668302705" lon="8.293544529277849"><ele>283.6666666666667</ele><time>2026-03-31T08:52:19.999Z</time></trkpt><trkpt lat="45.607288824701094" lon="8.29331946863108"><ele>282.33333333333337</ele><time>2026-03-31T08:52:20.999Z</time></trkpt><trkpt lat="45.6072354488731" lon="8.29309241663712"><ele>281.0</ele><time>2026-03-31T08:52:21.999Z</time></trkpt><trkpt lat="45.60717557630742" lon="8.292873592782216"><ele>281.0</ele><time>2026-03-31T08:52:22.999Z</time></trkpt><trkpt lat="45.60714868473625" lon="8.292651285835007"><ele>281.0</ele><time>2026-03-31T08:52:23.999Z</time></trkpt><trkpt lat="45.607127607791796" lon="8.29245347569532"><ele>281.0</ele><time>2026-03-31T08:52:24.999Z</time></trkpt><trkpt lat="45.60710568882159" lon="8.292273619134003"><ele>281.0</ele><time>2026-03-31T08:52:25.999Z</time></trkpt><trkpt lat="45.60708785271792" lon="8.292104594350823"><ele>281.0</ele><time>2026-03-31T08:52:26.999Z</time></trkpt><trkpt lat="45.6070603685612" lon="8.291944053923844"><ele>281.0</ele><time>2026-03-31T08:52:27.999Z</time></trkpt><trkpt lat="45.607021818399005" lon="8.291782945683929"><ele>281.0</ele><time>2026-03-31T08:52:28.999Z</time></trkpt><trkpt lat="45.60696449324378" lon="8.291617306434166"><ele>281.0</ele><time>2026-03-31T08:52:29.999Z</time></trkpt><trkpt lat="45.60690033042677" lon="8.29146307075945"><ele>280.5</ele><time>2026-03-31T08:52:30.999Z</time></trkpt><trkpt lat="45.60683354421783" lon="8.291312349800437"><ele>280.0</ele><time>2026-03-31T08:52:31.999Z</time></trkpt><trkpt lat="45.606764786824726" lon="8.291166603332334"><ele>279.5</ele><time>2026-03-31T08:52:32.999Z</time></trkpt><trkpt lat="45.606702111999915" lon="8.291020096670913"><ele>279.0</ele><time>2026-03-31T08:52:33.999Z</time></trkpt><trkpt lat="45.606643827666794" lon="8.290857443633026"><ele>279.0</ele><time>2026-03-31T08:52:34.999Z</time></trkpt><trkpt lat="45.60662668687083" lon="8.290680317216529"><ele>279.0</ele><time>2026-03-31T08:52:35.999Z</time></trkpt><trkpt lat="45.606601769977274" lon="8.290499151529465"><ele>279.0</ele><time>2026-03-31T08:52:36.999Z</time></trkpt><trkpt lat="45.60656973771062" lon="8.290328743782775"><ele>279.0</ele><time>2026-03-31T08:52:37.999Z</time></trkpt><trkpt lat="45.60655824146305" lon="8.29016611028967"><ele>278.8333333333333</ele><time>2026-03-31T08:52:38.999Z</time></trkpt><trkpt lat="45.60653979093598" lon="8.290019916493208"><ele>278.6666666666667</ele><time>2026-03-31T08:52:39.999Z</time></trkpt><trkpt lat="45.6065256684594" lon="8.289891371427263"><ele>278.5</ele><time>2026-03-31T08:52:40.999Z</time></trkpt><trkpt lat="45.60651909481518" lon="8.289766754838084"><ele>278.33333333333337</ele><time>2026-03-31T08:52:41.999Z</time></trkpt><trkpt lat="45.6065077249158" lon="8.28965737919214"><ele>278.1666666666667</ele><time>2026-03-31T08:52:42.999Z</time></trkpt><trkpt lat="45.606498732293" lon="8.289555247942754"><ele>278.0</ele><time>2026-03-31T08:52:43.999Z</time></trkpt><trkpt lat="45.60648825108064" lon="8.289458134701555"><ele>278.4</ele><time>2026-03-31T08:52:44.999Z</time></trkpt><trkpt lat="45.60645878824884" lon="8.289288321078702"><ele>278.8</ele><time>2026-03-31T08:52:46.999Z</time></trkpt><trkpt lat="45.606452079014794" lon="8.289164674396421"><ele>279.2</ele><time>2026-03-31T08:52:48.999Z</time></trkpt><trkpt lat="45.60639817598295" lon="8.289113974863783"><ele>279.6</ele><time>2026-03-31T08:53:44Z</time></trkpt><trkpt lat="45.606418053984335" lon="8.28900066157359"><ele>280.0</ele><time>2026-03-31T08:53:46Z</time></trkpt><trkpt lat="45.60656629562046" lon="8.288995220605372"><ele>280.0</ele><time>2026-03-31T08:53:48Z</time></trkpt><trkpt lat="45.60664099650545" lon="8.2889943166398"><ele>280.0</ele><time>2026-03-31T08:53:49Z</time></trkpt><trkpt lat="45.606715335092225" lon="8.288993541832356"><ele>280.0</ele><time>2026-03-31T08:53:50Z</time></trkpt><trkpt lat="45.60678749898329" lon="8.288989171801456"><ele>280.0</ele><time>2026-03-31T08:53:51Z</time></trkpt><trkpt lat="45.606860500292086" lon="8.288980254882109"><ele>280.0</ele><time>2026-03-31T08:53:52Z</time></trkpt><trkpt lat="45.606933268166756" lon="8.288971413261848"><ele>280.0</ele><time>2026-03-31T08:53:53Z</time></trkpt><trkpt lat="45.60700600167005" lon="8.288964121992242"><ele>280.0</ele><time>2026-03-31T08:53:54Z</time></trkpt><trkpt lat="45.6070736597963" lon="8.288956357925786"><ele>280.3333333333333</ele><time>2026-03-31T08:53:55Z</time></trkpt><trkpt lat="45.60713649690059" lon="8.288948619821202"><ele>280.66666666666663</ele><time>2026-03-31T08:53:56Z</time></trkpt><trkpt lat="45.607240961392" lon="8.28894209284411"><ele>281.0</ele><time>2026-03-31T08:53:58Z</time></trkpt><trkpt lat="45.60732177250788" lon="8.288960229705468"><ele>281.3333333333333</ele><time>2026-03-31T08:54:00Z</time></trkpt><trkpt lat="45.60738055448755" lon="8.28899768241834"><ele>281.6666666666667</ele><time>2026-03-31T08:54:15.999Z</time></trkpt><trkpt lat="45.607388078231594" lon="8.289134540667904"><ele>282.0</ele><time>2026-03-31T08:54:17.999Z</time></trkpt><trkpt lat="45.60741395317068" lon="8.289226023300364"><ele>282.0</ele><time>2026-03-31T08:54:30.999Z</time></trkpt><trkpt lat="45.60749632759495" lon="8.28927277711532"><ele>282.0</ele><time>2026-03-31T08:55:49Z</time></trkpt><trkpt lat="45.607471435603856" lon="8.289373364315193"><ele>282.0</ele><time>2026-03-31T08:56:06Z</time></trkpt><trkpt lat="45.60746327441881" lon="8.289479070987419"><ele>282.0</ele><time>2026-03-31T08:56:08Z</time></trkpt><trkpt lat="45.607404143108646" lon="8.289579709718021"><ele>282.0</ele><time>2026-03-31T08:56:10Z</time></trkpt><trkpt lat="45.607384872105705" lon="8.289670104499866"><ele>282.0</ele><time>2026-03-31T08:56:12Z</time></trkpt><trkpt lat="45.60735749298968" lon="8.289754991349394"><ele>282.0</ele><time>2026-03-31T09:00:52Z</time></trkpt></trkseg></trk></gpx>